<?xml version='1.0' encoding='UTF-8'?><gpx version="1.1" creator="JPX - https://github.com/jenetics/jpx" xmlns="http://www.topografix.com/GPX/1/1"><trk><trkseg><trkpt lat="38.86633754762026" lon="-9.295090022655831"><ele>171.0</ele><time>2026-05-01T08:07:13Z</time></trkpt><trkpt lat="38.866270562779306" lon="-9.295000791068533"><ele>171.0</ele><time>2026-05-01T08:07:15Z</time></trkpt><trkpt lat="38.866209689930585" lon="-9.294861246102212"><ele>171.0</ele><time>2026-05-01T08:07:17Z</time></trkpt><trkpt lat="38.866182044108086" lon="-9.29478376529242"><ele>171.0</ele><time>2026-05-01T08:07:18Z</time></trkpt><trkpt lat="38.86615702271783" lon="-9.294704344876846"><ele>171.0</ele><time>2026-05-01T08:07:19Z</time></trkpt><trkpt lat="38.86612448926562" lon="-9.294534281334878"><ele>171.8</ele><time>2026-05-01T08:07:21Z</time></trkpt><trkpt lat="38.86611313107146" lon="-9.29441854661285"><ele>172.60000000000002</ele><time>2026-05-01T08:07:22Z</time></trkpt><trkpt lat="38.86612283832069" lon="-9.294289765241261"><ele>173.4</ele><time>2026-05-01T08:07:23Z</time></trkpt><trkpt lat="38.86615117523875" lon="-9.294170147188693"><ele>174.2</ele><time>2026-05-01T08:07:24Z</time></trkpt><trkpt lat="38.86619847615128" lon="-9.294092326874637"><ele>175.0</ele><time>2026-05-01T08:07:25Z</time></trkpt><trkpt lat="38.86625037797252" lon="-9.294005834552927"><ele>175.6</ele><time>2026-05-01T08:07:26Z</time></trkpt><trkpt lat="38.86631453004979" lon="-9.293915013549595"><ele>176.2</ele><time>2026-05-01T08:07:27Z</time></trkpt><trkpt lat="38.86636890892427" lon="-9.293839918782282"><ele>176.8</ele><time>2026-05-01T08:07:28Z</time></trkpt><trkpt lat="38.86642602111334" lon="-9.293724638936594"><ele>177.4</ele><time>2026-05-01T08:07:30Z</time></trkpt><trkpt lat="38.86643240016719" lon="-9.293581832297457"><ele>178.0</ele><time>2026-05-01T08:07:32Z</time></trkpt><trkpt lat="38.86639956792217" lon="-9.293500058054233"><ele>178.0</ele><time>2026-05-01T08:07:34Z</time></trkpt><trkpt lat="38.86634144195365" lon="-9.293423138109809"><ele>178.0</ele><time>2026-05-01T08:07:49Z</time></trkpt><trkpt lat="38.86626823280192" lon="-9.293315298475434"><ele>178.0</ele><time>2026-05-01T08:07:52Z</time></trkpt><trkpt lat="38.86619169369005" lon="-9.29324109995229"><ele>178.0</ele><time>2026-05-01T08:07:54Z</time></trkpt><trkpt lat="38.86611313916664" lon="-9.293279748881337"><ele>178.0</ele><time>2026-05-01T08:07:55Z</time></trkpt><trkpt lat="38.86605872694986" lon="-9.29337108652238"><ele>178.0</ele><time>2026-05-01T08:07:56Z</time></trkpt><trkpt lat="38.866015038027896" lon="-9.29346773258769"><ele>178.0</ele><time>2026-05-01T08:07:57Z</time></trkpt><trkpt lat="38.865971958454466" lon="-9.293559060621932"><ele>178.0</ele><time>2026-05-01T08:07:58Z</time></trkpt><trkpt lat="38.865923670382244" lon="-9.293651214573766"><ele>178.0</ele><time>2026-05-01T08:07:59Z</time></trkpt><trkpt lat="38.865874778107575" lon="-9.293726651144606"><ele>178.0</ele><time>2026-05-01T08:08:00Z</time></trkpt><trkpt lat="38.86582790486568" lon="-9.2937851626724"><ele>178.0</ele><time>2026-05-01T08:08:01Z</time></trkpt><trkpt lat="38.865747303247694" lon="-9.293795132267512"><ele>177.5</ele><time>2026-05-01T08:08:02Z</time></trkpt><trkpt lat="38.86566404347815" lon="-9.293743808043237"><ele>177.0</ele><time>2026-05-01T08:08:03Z</time></trkpt><trkpt lat="38.86559292652466" lon="-9.293674947485426"><ele>176.5</ele><time>2026-05-01T08:08:04Z</time></trkpt><trkpt lat="38.86555655192127" lon="-9.293601622423145"><ele>176.0</ele><time>2026-05-01T08:08:05Z</time></trkpt><trkpt lat="38.86547528461473" lon="-9.29349887185643"><ele>175.5</ele><time>2026-05-01T08:08:07Z</time></trkpt><trkpt lat="38.86543204883153" lon="-9.293430655560575"><ele>175.0</ele><time>2026-05-01T08:08:08Z</time></trkpt><trkpt lat="38.86537878713083" lon="-9.29335301761463"><ele>175.0</ele><time>2026-05-01T08:08:09Z</time></trkpt><trkpt lat="38.865293808481304" lon="-9.293279420950679"><ele>175.0</ele><time>2026-05-01T08:08:10Z</time></trkpt><trkpt lat="38.865216690916114" lon="-9.293208112156364"><ele>175.0</ele><time>2026-05-01T08:08:11Z</time></trkpt><trkpt lat="38.86515395677388" lon="-9.293159940772407"><ele>175.0</ele><time>2026-05-01T08:08:12Z</time></trkpt><trkpt lat="38.8650986212337" lon="-9.293106233391986"><ele>175.0</ele><time>2026-05-01T08:08:13Z</time></trkpt><trkpt lat="38.865053412652024" lon="-9.293001914762835"><ele>175.0</ele><time>2026-05-01T08:08:14Z</time></trkpt><trkpt lat="38.86502275234735" lon="-9.292916392129106"><ele>175.5</ele><time>2026-05-01T08:08:15Z</time></trkpt><trkpt lat="38.86497136789495" lon="-9.292844115843515"><ele>176.0</ele><time>2026-05-01T08:08:16Z</time></trkpt><trkpt lat="38.864927967405315" lon="-9.292756464673609"><ele>176.5</ele><time>2026-05-01T08:08:17Z</time></trkpt><trkpt lat="38.86488670105933" lon="-9.292672349606756"><ele>177.0</ele><time>2026-05-01T08:08:18Z</time></trkpt><trkpt lat="38.86484797253883" lon="-9.292575012590383"><ele>177.5</ele><time>2026-05-01T08:08:19Z</time></trkpt><trkpt lat="38.86482287952701" lon="-9.292449425780104"><ele>178.0</ele><time>2026-05-01T08:08:20Z</time></trkpt><trkpt lat="38.86482730419872" lon="-9.292324581840452"><ele>178.5</ele><time>2026-05-01T08:08:21Z</time></trkpt><trkpt lat="38.864831328463495" lon="-9.292222545139317"><ele>179.0</ele><time>2026-05-01T08:08:22Z</time></trkpt><trkpt lat="38.86482749563391" lon="-9.292127683062972"><ele>179.5</ele><time>2026-05-01T08:08:23Z</time></trkpt><trkpt lat="38.864804169188645" lon="-9.291999004341154"><ele>180.0</ele><time>2026-05-01T08:08:25Z</time></trkpt><trkpt lat="38.86477831183467" lon="-9.291915758289218"><ele>180.5</ele><time>2026-05-01T08:08:27Z</time></trkpt><trkpt lat="38.864741547355166" lon="-9.291807278395748"><ele>181.0</ele><time>2026-05-01T08:08:29Z</time></trkpt><trkpt lat="38.86471284498949" lon="-9.291727234515005"><ele>181.0</ele><time>2026-05-01T08:08:30Z</time></trkpt><trkpt lat="38.864684324256444" lon="-9.29160250096869"><ele>181.0</ele><time>2026-05-01T08:08:31Z</time></trkpt><trkpt lat="38.864613545097384" lon="-9.291449351858486"><ele>181.0</ele><time>2026-05-01T08:08:32Z</time></trkpt><trkpt lat="38.8645715506877" lon="-9.291329751285993"><ele>181.0</ele><time>2026-05-01T08:08:33Z</time></trkpt><trkpt lat="38.86454215270111" lon="-9.291213173236995"><ele>181.0</ele><time>2026-05-01T08:08:34Z</time></trkpt><trkpt lat="38.86452093369407" lon="-9.29113360261927"><ele>180.33333333333334</ele><time>2026-05-01T08:08:35Z</time></trkpt><trkpt lat="38.86449417581864" lon="-9.291052430235744"><ele>179.66666666666669</ele><time>2026-05-01T08:08:36Z</time></trkpt><trkpt lat="38.8644813071591" lon="-9.2909654169987"><ele>179.0</ele><time>2026-05-01T08:08:37Z</time></trkpt><trkpt lat="38.86444275763114" lon="-9.290867495812128"><ele>178.33333333333334</ele><time>2026-05-01T08:08:38Z</time></trkpt><trkpt lat="38.864390513786134" lon="-9.290764136081533"><ele>177.66666666666666</ele><time>2026-05-01T08:08:39Z</time></trkpt><trkpt lat="38.86435133560262" lon="-9.29065490506815"><ele>177.0</ele><time>2026-05-01T08:08:40Z</time></trkpt><trkpt lat="38.864327102366246" lon="-9.290541864200277"><ele>176.2</ele><time>2026-05-01T08:08:41Z</time></trkpt><trkpt lat="38.86427433406826" lon="-9.290437639353208"><ele>175.39999999999998</ele><time>2026-05-01T08:08:42Z</time></trkpt><trkpt lat="38.86424510038769" lon="-9.290355155831998"><ele>174.60000000000002</ele><time>2026-05-01T08:08:43Z</time></trkpt><trkpt lat="38.86419345084163" lon="-9.290209425412844"><ele>173.8</ele><time>2026-05-01T08:08:45Z</time></trkpt><trkpt lat="38.86414095136514" lon="-9.29009321438035"><ele>173.0</ele><time>2026-05-01T08:08:47Z</time></trkpt><trkpt lat="38.864073502275005" lon="-9.290050232889541"><ele>173.0</ele><time>2026-05-01T08:08:49Z</time></trkpt><trkpt lat="38.863959117582965" lon="-9.290057902493881"><ele>173.0</ele><time>2026-05-01T08:08:51Z</time></trkpt><trkpt lat="38.863875831361" lon="-9.28999701635539"><ele>173.0</ele><time>2026-05-01T08:08:52Z</time></trkpt><trkpt lat="38.863803729699974" lon="-9.28988465313116"><ele>173.0</ele><time>2026-05-01T08:08:53Z</time></trkpt><trkpt lat="38.86375781193641" lon="-9.289790012955665"><ele>173.0</ele><time>2026-05-01T08:08:54Z</time></trkpt><trkpt lat="38.86369352655877" lon="-9.289740983767045"><ele>173.25</ele><time>2026-05-01T08:08:55Z</time></trkpt><trkpt lat="38.863588673284454" lon="-9.289688116474862"><ele>173.5</ele><time>2026-05-01T08:08:57Z</time></trkpt><trkpt lat="38.86345687504607" lon="-9.28954088623122"><ele>173.75</ele><time>2026-05-01T08:09:01Z</time></trkpt><trkpt lat="38.86336763777513" lon="-9.289432636887717"><ele>174.0</ele><time>2026-05-01T08:09:03Z</time></trkpt><trkpt lat="38.86331088641102" lon="-9.289375521962473"><ele>173.6</ele><time>2026-05-01T08:09:04Z</time></trkpt><trkpt lat="38.86323453860045" lon="-9.289295518832203"><ele>173.2</ele><time>2026-05-01T08:09:06Z</time></trkpt><trkpt lat="38.863152647301895" lon="-9.289209893044326"><ele>172.79999999999998</ele><time>2026-05-01T08:09:08Z</time></trkpt><trkpt lat="38.863101602392355" lon="-9.289161362939454"><ele>172.39999999999998</ele><time>2026-05-01T08:09:09Z</time></trkpt><trkpt lat="38.86302440020482" lon="-9.289074865933511"><ele>172.0</ele><time>2026-05-01T08:09:11Z</time></trkpt><trkpt lat="38.86294088204069" lon="-9.288987686137421"><ele>172.2</ele><time>2026-05-01T08:09:13Z</time></trkpt><trkpt lat="38.86285783210366" lon="-9.288897264426579"><ele>172.39999999999998</ele><time>2026-05-01T08:09:16Z</time></trkpt><trkpt lat="38.86281875736367" lon="-9.288814076580472"><ele>172.60000000000002</ele><time>2026-05-01T08:10:03Z</time></trkpt><trkpt lat="38.862797004443756" lon="-9.288721688509604"><ele>172.8</ele><time>2026-05-01T08:10:05Z</time></trkpt><trkpt lat="38.8627947021304" lon="-9.288549779330655"><ele>173.0</ele><time>2026-05-01T08:10:07Z</time></trkpt><trkpt lat="38.86277325689309" lon="-9.288459520645713"><ele>173.0</ele><time>2026-05-01T08:10:08Z</time></trkpt><trkpt lat="38.862740481140996" lon="-9.288321654649458"><ele>173.0</ele><time>2026-05-01T08:10:10Z</time></trkpt><trkpt lat="38.86272610045245" lon="-9.28823212882228"><ele>173.0</ele><time>2026-05-01T08:10:11Z</time></trkpt><trkpt lat="38.86271078883269" lon="-9.28813732553433"><ele>173.0</ele><time>2026-05-01T08:10:12Z</time></trkpt><trkpt lat="38.86269454759204" lon="-9.288043192525032"><ele>173.0</ele><time>2026-05-01T08:10:13Z</time></trkpt><trkpt lat="38.862687822799316" lon="-9.287961603259959"><ele>173.0</ele><time>2026-05-01T08:10:14Z</time></trkpt><trkpt lat="38.862669902162075" lon="-9.28787517878094"><ele>173.16666666666666</ele><time>2026-05-01T08:10:15Z</time></trkpt><trkpt lat="38.862659380776016" lon="-9.287778686076992"><ele>173.33333333333331</ele><time>2026-05-01T08:10:16Z</time></trkpt><trkpt lat="38.86265546530138" lon="-9.287683488638462"><ele>173.5</ele><time>2026-05-01T08:10:17Z</time></trkpt><trkpt lat="38.86264983961405" lon="-9.287583213044467"><ele>173.66666666666666</ele><time>2026-05-01T08:10:18Z</time></trkpt><trkpt lat="38.86265010908749" lon="-9.287482461450994"><ele>173.83333333333334</ele><time>2026-05-01T08:10:19Z</time></trkpt><trkpt lat="38.86265102043152" lon="-9.287374500674023"><ele>174.0</ele><time>2026-05-01T08:10:20Z</time></trkpt><trkpt lat="38.8626538862735" lon="-9.287291492322566"><ele>173.79999999999998</ele><time>2026-05-01T08:10:21Z</time></trkpt><trkpt lat="38.8626590399382" lon="-9.287199596192256"><ele>173.6</ele><time>2026-05-01T08:10:22Z</time></trkpt><trkpt lat="38.86265776878337" lon="-9.287073741638316"><ele>173.4</ele><time>2026-05-01T08:10:23Z</time></trkpt><trkpt lat="38.86266459736044" lon="-9.286944063564139"><ele>173.2</ele><time>2026-05-01T08:10:24Z</time></trkpt><trkpt lat="38.86267127640732" lon="-9.28681663963976"><ele>173.0</ele><time>2026-05-01T08:10:25Z</time></trkpt><trkpt lat="38.86267478965857" lon="-9.286692051125865"><ele>173.0</ele><time>2026-05-01T08:10:26Z</time></trkpt><trkpt lat="38.86267664604343" lon="-9.286588549976202"><ele>173.0</ele><time>2026-05-01T08:10:27Z</time></trkpt><trkpt lat="38.86267611015779" lon="-9.286494367320044"><ele>173.0</ele><time>2026-05-01T08:10:28Z</time></trkpt><trkpt lat="38.86267935131478" lon="-9.286405372775961"><ele>173.0</ele><time>2026-05-01T08:10:29Z</time></trkpt><trkpt lat="38.8626873148316" lon="-9.286254373496106"><ele>173.0</ele><time>2026-05-01T08:10:31Z</time></trkpt><trkpt lat="38.86270616824668" lon="-9.286163829365796"><ele>173.0</ele><time>2026-05-01T08:10:32Z</time></trkpt><trkpt lat="38.86272831176479" lon="-9.286073473308775"><ele>172.83333333333331</ele><time>2026-05-01T08:10:33Z</time></trkpt><trkpt lat="38.86273770034514" lon="-9.285987691957038"><ele>172.66666666666666</ele><time>2026-05-01T08:10:34Z</time></trkpt><trkpt lat="38.862718767526964" lon="-9.285897857537336"><ele>172.5</ele><time>2026-05-01T08:10:35Z</time></trkpt><trkpt lat="38.86268203950762" lon="-9.285809737796324"><ele>172.33333333333334</ele><time>2026-05-01T08:10:36Z</time></trkpt><trkpt lat="38.8626389932153" lon="-9.285715621670665"><ele>172.16666666666669</ele><time>2026-05-01T08:10:37Z</time></trkpt><trkpt lat="38.86259894472137" lon="-9.285617451076703"><ele>172.0</ele><time>2026-05-01T08:10:38Z</time></trkpt><trkpt lat="38.86256521553688" lon="-9.285514208566205"><ele>172.66666666666669</ele><time>2026-05-01T08:10:39Z</time></trkpt><trkpt lat="38.86253211405183" lon="-9.285412851019133"><ele>173.33333333333334</ele><time>2026-05-01T08:10:40Z</time></trkpt><trkpt lat="38.86249154649962" lon="-9.285313669456166"><ele>174.0</ele><time>2026-05-01T08:10:41Z</time></trkpt><trkpt lat="38.86245907439471" lon="-9.285231093387623"><ele>174.66666666666666</ele><time>2026-05-01T08:10:42Z</time></trkpt><trkpt lat="38.862410610896056" lon="-9.285085863595723"><ele>175.33333333333331</ele><time>2026-05-01T08:10:44Z</time></trkpt><trkpt lat="38.86237559118904" lon="-9.285012441721873"><ele>176.0</ele><time>2026-05-01T08:10:45Z</time></trkpt><trkpt lat="38.86230568467341" lon="-9.284894628326228"><ele>176.16666666666666</ele><time>2026-05-01T08:10:47Z</time></trkpt><trkpt lat="38.86228217568633" lon="-9.2847515225971"><ele>176.33333333333331</ele><time>2026-05-01T08:10:49Z</time></trkpt><trkpt lat="38.86229814469413" lon="-9.284672223113548"><ele>176.5</ele><time>2026-05-01T08:10:50Z</time></trkpt><trkpt lat="38.86233815047493" lon="-9.284542272278086"><ele>176.66666666666666</ele><time>2026-05-01T08:10:52Z</time></trkpt><trkpt lat="38.862369986452215" lon="-9.284458909658092"><ele>176.83333333333334</ele><time>2026-05-01T08:10:53Z</time></trkpt><trkpt lat="38.862403522211316" lon="-9.284352709314483"><ele>177.0</ele><time>2026-05-01T08:10:54Z</time></trkpt><trkpt lat="38.86243417615351" lon="-9.284218373525253"><ele>177.0</ele><time>2026-05-01T08:10:55Z</time></trkpt><trkpt lat="38.86246228614564" lon="-9.284076757180266"><ele>177.0</ele><time>2026-05-01T08:10:56Z</time></trkpt><trkpt lat="38.862493069691794" lon="-9.283934790133484"><ele>177.0</ele><time>2026-05-01T08:10:57Z</time></trkpt><trkpt lat="38.86253046395909" lon="-9.283788670737918"><ele>177.0</ele><time>2026-05-01T08:10:58Z</time></trkpt><trkpt lat="38.86254718923823" lon="-9.283646152205966"><ele>177.0</ele><time>2026-05-01T08:10:59Z</time></trkpt><trkpt lat="38.86257209739926" lon="-9.28350942052085"><ele>177.0</ele><time>2026-05-01T08:11:00Z</time></trkpt><trkpt lat="38.86259538369746" lon="-9.283372681593239"><ele>177.0</ele><time>2026-05-01T08:11:01Z</time></trkpt><trkpt lat="38.86262257508633" lon="-9.283232533044675"><ele>177.0</ele><time>2026-05-01T08:11:02Z</time></trkpt><trkpt lat="38.862649341831606" lon="-9.283095944851956"><ele>177.0</ele><time>2026-05-01T08:11:03Z</time></trkpt><trkpt lat="38.8626733367884" lon="-9.282963733326309"><ele>176.8</ele><time>2026-05-01T08:11:04Z</time></trkpt><trkpt lat="38.862702505736735" lon="-9.28283255530339"><ele>176.6</ele><time>2026-05-01T08:11:05Z</time></trkpt><trkpt lat="38.86273690234389" lon="-9.282703634098558"><ele>176.4</ele><time>2026-05-01T08:11:06Z</time></trkpt><trkpt lat="38.862777528197874" lon="-9.282579892860067"><ele>176.20000000000002</ele><time>2026-05-01T08:11:07Z</time></trkpt><trkpt lat="38.86281634623929" lon="-9.28246638819047"><ele>176.0</ele><time>2026-05-01T08:11:08Z</time></trkpt><trkpt lat="38.86287066797466" lon="-9.282367384463099"><ele>176.0</ele><time>2026-05-01T08:11:09Z</time></trkpt><trkpt lat="38.86292321930654" lon="-9.28227434674749"><ele>176.0</ele><time>2026-05-01T08:11:10Z</time></trkpt><trkpt lat="38.862981921422815" lon="-9.282165958225207"><ele>176.0</ele><time>2026-05-01T08:11:11Z</time></trkpt><trkpt lat="38.86304556479709" lon="-9.28206279699693"><ele>176.0</ele><time>2026-05-01T08:11:12Z</time></trkpt><trkpt lat="38.86311838386264" lon="-9.281970549498288"><ele>176.0</ele><time>2026-05-01T08:11:13Z</time></trkpt><trkpt lat="38.863201082942645" lon="-9.281883632958499"><ele>176.20000000000002</ele><time>2026-05-01T08:11:14Z</time></trkpt><trkpt lat="38.86325537090952" lon="-9.281797136078668"><ele>176.4</ele><time>2026-05-01T08:11:15Z</time></trkpt><trkpt lat="38.86333196901752" lon="-9.281702263736726"><ele>176.6</ele><time>2026-05-01T08:11:16Z</time></trkpt><trkpt lat="38.86340363559771" lon="-9.281624891792271"><ele>176.8</ele><time>2026-05-01T08:11:17Z</time></trkpt><trkpt lat="38.86347351925648" lon="-9.281528811755509"><ele>177.0</ele><time>2026-05-01T08:11:18Z</time></trkpt><trkpt lat="38.86353494838726" lon="-9.281446062692346"><ele>177.33333333333334</ele><time>2026-05-01T08:11:19Z</time></trkpt><trkpt lat="38.86358793101929" lon="-9.281363759838714"><ele>177.66666666666666</ele><time>2026-05-01T08:11:20Z</time></trkpt><trkpt lat="38.86365503651864" lon="-9.28130260214547"><ele>178.0</ele><time>2026-05-01T08:11:21Z</time></trkpt><trkpt lat="38.86373900556997" lon="-9.281252388439272"><ele>178.33333333333331</ele><time>2026-05-01T08:11:22Z</time></trkpt><trkpt lat="38.86380562767084" lon="-9.281206265284299"><ele>178.66666666666666</ele><time>2026-05-01T08:11:23Z</time></trkpt><trkpt lat="38.86386589360345" lon="-9.281157250210397"><ele>179.0</ele><time>2026-05-01T08:11:24Z</time></trkpt><trkpt lat="38.86391273347949" lon="-9.281082826892685"><ele>179.0</ele><time>2026-05-01T08:11:25Z</time></trkpt><trkpt lat="38.8639891489927" lon="-9.280955555562407"><ele>179.0</ele><time>2026-05-01T08:11:27Z</time></trkpt><trkpt lat="38.864042780722265" lon="-9.280828928869482"><ele>179.0</ele><time>2026-05-01T08:11:29Z</time></trkpt><trkpt lat="38.864053965872785" lon="-9.280740126093317"><ele>179.0</ele><time>2026-05-01T08:11:30Z</time></trkpt><trkpt lat="38.86405795383137" lon="-9.280620894497053"><ele>179.0</ele><time>2026-05-01T08:11:31Z</time></trkpt><trkpt lat="38.86405731557547" lon="-9.280462772543224"><ele>179.25</ele><time>2026-05-01T08:11:32Z</time></trkpt><trkpt lat="38.86405907433549" lon="-9.280299672155474"><ele>179.5</ele><time>2026-05-01T08:11:33Z</time></trkpt><trkpt lat="38.86404894689605" lon="-9.280128387709405"><ele>179.75</ele><time>2026-05-01T08:11:34Z</time></trkpt><trkpt lat="38.864014117566825" lon="-9.279973508398864"><ele>180.0</ele><time>2026-05-01T08:11:35Z</time></trkpt><trkpt lat="38.86396773939927" lon="-9.279822338162486"><ele>180.5</ele><time>2026-05-01T08:11:36Z</time></trkpt><trkpt lat="38.863894509670345" lon="-9.279671027090835"><ele>181.0</ele><time>2026-05-01T08:11:37Z</time></trkpt><trkpt lat="38.86379212027286" lon="-9.27953518226448"><ele>181.5</ele><time>2026-05-01T08:11:38Z</time></trkpt><trkpt lat="38.863664793757735" lon="-9.279415834321377"><ele>182.0</ele><time>2026-05-01T08:11:39Z</time></trkpt><trkpt lat="38.863519120663675" lon="-9.279328197856481"><ele>182.33333333333331</ele><time>2026-05-01T08:11:40Z</time></trkpt><trkpt lat="38.86335923061964" lon="-9.279265868181966"><ele>182.66666666666666</ele><time>2026-05-01T08:11:41Z</time></trkpt><trkpt lat="38.86318365774416" lon="-9.279241331184622"><ele>183.0</ele><time>2026-05-01T08:11:42Z</time></trkpt><trkpt lat="38.8629977899922" lon="-9.27924539864259"><ele>183.0</ele><time>2026-05-01T08:11:43Z</time></trkpt><trkpt lat="38.862809663077506" lon="-9.27927396139869"><ele>183.0</ele><time>2026-05-01T08:11:44Z</time></trkpt><trkpt lat="38.862636354074624" lon="-9.279314782202258"><ele>183.0</ele><time>2026-05-01T08:11:45Z</time></trkpt><trkpt lat="38.86245129934252" lon="-9.279364791434915"><ele>183.66666666666666</ele><time>2026-05-01T08:11:46Z</time></trkpt><trkpt lat="38.862270875043535" lon="-9.279422187173212"><ele>184.33333333333331</ele><time>2026-05-01T08:11:47Z</time></trkpt><trkpt lat="38.86210860240334" lon="-9.279462167952833"><ele>185.0</ele><time>2026-05-01T08:11:48Z</time></trkpt><trkpt lat="38.86195627580458" lon="-9.279487927903535"><ele>185.0</ele><time>2026-05-01T08:11:49Z</time></trkpt><trkpt lat="38.86179654145733" lon="-9.279481060193325"><ele>185.0</ele><time>2026-05-01T08:11:50Z</time></trkpt><trkpt lat="38.86162726744611" lon="-9.279417027383953"><ele>185.0</ele><time>2026-05-01T08:11:51Z</time></trkpt><trkpt lat="38.86144849710306" lon="-9.279306600234985"><ele>184.0</ele><time>2026-05-01T08:11:52Z</time></trkpt><trkpt lat="38.86125132616205" lon="-9.279163920232627"><ele>183.0</ele><time>2026-05-01T08:11:53Z</time></trkpt><trkpt lat="38.861043713788106" lon="-9.278999502309132"><ele>185.0</ele><time>2026-05-01T08:11:54Z</time></trkpt><trkpt lat="38.86082995051404" lon="-9.278829939836456"><ele>187.0</ele><time>2026-05-01T08:11:55Z</time></trkpt><trkpt lat="38.86060540193798" lon="-9.278649254378328"><ele>187.0</ele><time>2026-05-01T08:11:56Z</time></trkpt><trkpt lat="38.86040189970432" lon="-9.278481921710782"><ele>187.0</ele><time>2026-05-01T08:11:57Z</time></trkpt><trkpt lat="38.86023492408739" lon="-9.278350080048154"><ele>187.0</ele><time>2026-05-01T08:11:58Z</time></trkpt><trkpt lat="38.86009070886396" lon="-9.278238879065116"><ele>187.0</ele><time>2026-05-01T08:11:59Z</time></trkpt><trkpt lat="38.859967033886925" lon="-9.278148825827339"><ele>187.0</ele><time>2026-05-01T08:12:00Z</time></trkpt><trkpt lat="38.85984982795579" lon="-9.278059868906745"><ele>187.0</ele><time>2026-05-01T08:12:01Z</time></trkpt><trkpt lat="38.859719241480505" lon="-9.277961850140471"><ele>187.0</ele><time>2026-05-01T08:12:02Z</time></trkpt><trkpt lat="38.85959050280689" lon="-9.277858931768254"><ele>187.0</ele><time>2026-05-01T08:12:03Z</time></trkpt><trkpt lat="38.85946040370418" lon="-9.27776210032688"><ele>187.0</ele><time>2026-05-01T08:12:04Z</time></trkpt><trkpt lat="38.859331671518284" lon="-9.277675760262662"><ele>187.0</ele><time>2026-05-01T08:12:05Z</time></trkpt><trkpt lat="38.859201267398035" lon="-9.277602735614135"><ele>187.0</ele><time>2026-05-01T08:12:06Z</time></trkpt><trkpt lat="38.8590601574009" lon="-9.27753507896195"><ele>186.66666666666669</ele><time>2026-05-01T08:12:07Z</time></trkpt><trkpt lat="38.85890865681535" lon="-9.27747655879236"><ele>186.33333333333334</ele><time>2026-05-01T08:12:08Z</time></trkpt><trkpt lat="38.85875009263218" lon="-9.277423050977651"><ele>186.0</ele><time>2026-05-01T08:12:09Z</time></trkpt><trkpt lat="38.85859116970028" lon="-9.27736310096391"><ele>185.0</ele><time>2026-05-01T08:12:10Z</time></trkpt><trkpt lat="38.858436708961264" lon="-9.277304072174696"><ele>184.0</ele><time>2026-05-01T08:12:11Z</time></trkpt><trkpt lat="38.858285804651494" lon="-9.277227585385663"><ele>183.0</ele><time>2026-05-01T08:12:12Z</time></trkpt><trkpt lat="38.858137427347614" lon="-9.277128190649035"><ele>183.0</ele><time>2026-05-01T08:12:13Z</time></trkpt><trkpt lat="38.8579900264949" lon="-9.27701318254556"><ele>183.0</ele><time>2026-05-01T08:12:14Z</time></trkpt><trkpt lat="38.85784502778397" lon="-9.276893270761413"><ele>183.0</ele><time>2026-05-01T08:12:15Z</time></trkpt><trkpt lat="38.857712794203145" lon="-9.276761802861687"><ele>182.66666666666666</ele><time>2026-05-01T08:12:16Z</time></trkpt><trkpt lat="38.857583957528874" lon="-9.276620287800249"><ele>182.33333333333331</ele><time>2026-05-01T08:12:17Z</time></trkpt><trkpt lat="38.85746356611451" lon="-9.276468493780127"><ele>182.0</ele><time>2026-05-01T08:12:18Z</time></trkpt><trkpt lat="38.85735620721381" lon="-9.276303016635929"><ele>183.0</ele><time>2026-05-01T08:12:19Z</time></trkpt><trkpt lat="38.85725629873842" lon="-9.2761328816231"><ele>184.0</ele><time>2026-05-01T08:12:20Z</time></trkpt><trkpt lat="38.85715831824935" lon="-9.275967497828962"><ele>185.0</ele><time>2026-05-01T08:12:21Z</time></trkpt><trkpt lat="38.85707147511192" lon="-9.275797473532874"><ele>185.0</ele><time>2026-05-01T08:12:22Z</time></trkpt><trkpt lat="38.85698981770965" lon="-9.275625265506346"><ele>185.0</ele><time>2026-05-01T08:12:23Z</time></trkpt><trkpt lat="38.85690376704599" lon="-9.275451904841812"><ele>185.0</ele><time>2026-05-01T08:12:24Z</time></trkpt><trkpt lat="38.85680442155282" lon="-9.27526627418818"><ele>186.0</ele><time>2026-05-01T08:12:25Z</time></trkpt><trkpt lat="38.85670551442165" lon="-9.27506090956204"><ele>187.0</ele><time>2026-05-01T08:12:26Z</time></trkpt><trkpt lat="38.85659408591309" lon="-9.27491945003902"><ele>188.0</ele><time>2026-05-01T08:12:27Z</time></trkpt><trkpt lat="38.85647926642141" lon="-9.274775967290996"><ele>190.0</ele><time>2026-05-01T08:12:28Z</time></trkpt><trkpt lat="38.856359817428086" lon="-9.27463635644279"><ele>192.0</ele><time>2026-05-01T08:12:29Z</time></trkpt><trkpt lat="38.856248414001136" lon="-9.274492052704586"><ele>194.0</ele><time>2026-05-01T08:12:30Z</time></trkpt><trkpt lat="38.856126741431254" lon="-9.274366023954604"><ele>194.0</ele><time>2026-05-01T08:12:31Z</time></trkpt><trkpt lat="38.85600155467737" lon="-9.274233512834748"><ele>194.0</ele><time>2026-05-01T08:12:32Z</time></trkpt><trkpt lat="38.85587512549181" lon="-9.274101326224166"><ele>194.0</ele><time>2026-05-01T08:12:33Z</time></trkpt><trkpt lat="38.85573520329555" lon="-9.273951904891035"><ele>194.66666666666669</ele><time>2026-05-01T08:12:34Z</time></trkpt><trkpt lat="38.855610603464775" lon="-9.27381342399741"><ele>195.33333333333331</ele><time>2026-05-01T08:12:35Z</time></trkpt><trkpt lat="38.855490818083425" lon="-9.273682341659462"><ele>196.0</ele><time>2026-05-01T08:12:36Z</time></trkpt><trkpt lat="38.85535725385992" lon="-9.273562109756421"><ele>196.0</ele><time>2026-05-01T08:12:37Z</time></trkpt><trkpt lat="38.855237005598504" lon="-9.273411118629532"><ele>196.0</ele><time>2026-05-01T08:12:38Z</time></trkpt><trkpt lat="38.85510706573768" lon="-9.273282258213928"><ele>196.0</ele><time>2026-05-01T08:12:39Z</time></trkpt><trkpt lat="38.854974244026145" lon="-9.273155051287322"><ele>197.66666666666666</ele><time>2026-05-01T08:12:40Z</time></trkpt><trkpt lat="38.854823025569495" lon="-9.273057530610217"><ele>199.33333333333331</ele><time>2026-05-01T08:12:41Z</time></trkpt><trkpt lat="38.85468419735083" lon="-9.272962192734576"><ele>201.0</ele><time>2026-05-01T08:12:42Z</time></trkpt><trkpt lat="38.85453972385849" lon="-9.272873697381712"><ele>201.0</ele><time>2026-05-01T08:12:43Z</time></trkpt><trkpt lat="38.85439151773182" lon="-9.272794052583246"><ele>201.0</ele><time>2026-05-01T08:12:44Z</time></trkpt><trkpt lat="38.85424663040766" lon="-9.272699220726897"><ele>201.0</ele><time>2026-05-01T08:12:45Z</time></trkpt><trkpt lat="38.85408275512434" lon="-9.272628837763275"><ele>200.75</ele><time>2026-05-01T08:12:46Z</time></trkpt><trkpt lat="38.853940063908524" lon="-9.272561328865132"><ele>200.5</ele><time>2026-05-01T08:12:47Z</time></trkpt><trkpt lat="38.853822430850386" lon="-9.272494269319749"><ele>200.25</ele><time>2026-05-01T08:12:48Z</time></trkpt><trkpt lat="38.8537261374244" lon="-9.272428592995455"><ele>200.0</ele><time>2026-05-01T08:12:49Z</time></trkpt><trkpt lat="38.8536461462048" lon="-9.272361647778892"><ele>200.00000000000003</ele><time>2026-05-01T08:12:50Z</time></trkpt><trkpt lat="38.85358240960036" lon="-9.272291982147788"><ele>200.0</ele><time>2026-05-01T08:12:51Z</time></trkpt><trkpt lat="38.85350960874697" lon="-9.272216226453489"><ele>200.0</ele><time>2026-05-01T08:12:52Z</time></trkpt><trkpt lat="38.85344230729419" lon="-9.272134254675292"><ele>200.0</ele><time>2026-05-01T08:12:53Z</time></trkpt><trkpt lat="38.853380027771706" lon="-9.272084566070903"><ele>200.00000000000003</ele><time>2026-05-01T08:12:54Z</time></trkpt><trkpt lat="38.853283418080096" lon="-9.27204272229224"><ele>200.0</ele><time>2026-05-01T08:12:56Z</time></trkpt><trkpt lat="38.85315248925807" lon="-9.272193392661565"><ele>200.0</ele><time>2026-05-01T08:12:57Z</time></trkpt><trkpt lat="38.853036328092124" lon="-9.27233453226043"><ele>200.0</ele><time>2026-05-01T08:12:58Z</time></trkpt><trkpt lat="38.852930284610196" lon="-9.272452794250928"><ele>200.0</ele><time>2026-05-01T08:12:59Z</time></trkpt><trkpt lat="38.85283008484287" lon="-9.272555317963741"><ele>200.0</ele><time>2026-05-01T08:13:00Z</time></trkpt><trkpt lat="38.85271068266906" lon="-9.272653183576656"><ele>202.66666666666669</ele><time>2026-05-01T08:13:01Z</time></trkpt><trkpt lat="38.85258538739812" lon="-9.272725397250255"><ele>205.33333333333331</ele><time>2026-05-01T08:13:02Z</time></trkpt><trkpt lat="38.85242870405427" lon="-9.272751304032774"><ele>208.0</ele><time>2026-05-01T08:13:03Z</time></trkpt><trkpt lat="38.85225555038755" lon="-9.272754886208055"><ele>208.0</ele><time>2026-05-01T08:13:04Z</time></trkpt><trkpt lat="38.85206744377403" lon="-9.272790450689337"><ele>208.0</ele><time>2026-05-01T08:13:05Z</time></trkpt><trkpt lat="38.85185927800442" lon="-9.272815898548561"><ele>208.0</ele><time>2026-05-01T08:13:06Z</time></trkpt><trkpt lat="38.85165276954903" lon="-9.272829361011105"><ele>212.33333333333331</ele><time>2026-05-01T08:13:07Z</time></trkpt><trkpt lat="38.851462907613154" lon="-9.272851123600356"><ele>216.66666666666669</ele><time>2026-05-01T08:13:08Z</time></trkpt><trkpt lat="38.85127265513946" lon="-9.272834735705436"><ele>221.0</ele><time>2026-05-01T08:13:09Z</time></trkpt><trkpt lat="38.851093572332765" lon="-9.272797412216416"><ele>225.0</ele><time>2026-05-01T08:13:10Z</time></trkpt><trkpt lat="38.85094546528363" lon="-9.27278866625792"><ele>229.0</ele><time>2026-05-01T08:13:11Z</time></trkpt><trkpt lat="38.85082001895855" lon="-9.272835808674227"><ele>233.0</ele><time>2026-05-01T08:13:12Z</time></trkpt><trkpt lat="38.85069550992152" lon="-9.272964624296671"><ele>237.0</ele><time>2026-05-01T08:13:13Z</time></trkpt><trkpt lat="38.85052854557926" lon="-9.273072122580826"><ele>237.0</ele><time>2026-05-01T08:13:14Z</time></trkpt><trkpt lat="38.8503480249053" lon="-9.273168904773126"><ele>237.0</ele><time>2026-05-01T08:13:15Z</time></trkpt><trkpt lat="38.85014379759901" lon="-9.273230016272468"><ele>237.0</ele><time>2026-05-01T08:13:16Z</time></trkpt><trkpt lat="38.84994001730929" lon="-9.273287882658664"><ele>237.0</ele><time>2026-05-01T08:13:17Z</time></trkpt><trkpt lat="38.84978454477041" lon="-9.27333890360212"><ele>237.0</ele><time>2026-05-01T08:13:18Z</time></trkpt><trkpt lat="38.84966116619538" lon="-9.273377950335961"><ele>237.0</ele><time>2026-05-01T08:13:19Z</time></trkpt><trkpt lat="38.84955965693099" lon="-9.273416815084817"><ele>237.0</ele><time>2026-05-01T08:13:20Z</time></trkpt><trkpt lat="38.84948547063135" lon="-9.273438162771873"><ele>237.0</ele><time>2026-05-01T08:13:21Z</time></trkpt><trkpt lat="38.8493822465972" lon="-9.273470101089616"><ele>237.0</ele><time>2026-05-01T08:13:23Z</time></trkpt><trkpt lat="38.849336196673725" lon="-9.273272313459604"><ele>237.0</ele><time>2026-05-01T08:13:24Z</time></trkpt><trkpt lat="38.849330716710625" lon="-9.273082340366473"><ele>237.0</ele><time>2026-05-01T08:13:25Z</time></trkpt><trkpt lat="38.84932554041801" lon="-9.272868989920822"><ele>240.66666666666669</ele><time>2026-05-01T08:13:26Z</time></trkpt><trkpt lat="38.84934757705995" lon="-9.272631482626954"><ele>244.33333333333334</ele><time>2026-05-01T08:13:27Z</time></trkpt><trkpt lat="38.8493371807731" lon="-9.272375616177875"><ele>248.0</ele><time>2026-05-01T08:13:28Z</time></trkpt><trkpt lat="38.84933367577956" lon="-9.272101238467476"><ele>251.0</ele><time>2026-05-01T08:13:29Z</time></trkpt><trkpt lat="38.849338096806505" lon="-9.271827240206957"><ele>254.0</ele><time>2026-05-01T08:13:30Z</time></trkpt><trkpt lat="38.84931665751014" lon="-9.271584551704768"><ele>257.0</ele><time>2026-05-01T08:13:31Z</time></trkpt><trkpt lat="38.849318638617376" lon="-9.271387306284321"><ele>257.75</ele><time>2026-05-01T08:13:32Z</time></trkpt><trkpt lat="38.849314650537934" lon="-9.271227974880729"><ele>258.5</ele><time>2026-05-01T08:13:33Z</time></trkpt><trkpt lat="38.8492198078432" lon="-9.27108489618753"><ele>259.25</ele><time>2026-05-01T08:13:34Z</time></trkpt><trkpt lat="38.849130330281035" lon="-9.270921021008329"><ele>260.0</ele><time>2026-05-01T08:13:35Z</time></trkpt><trkpt lat="38.84903455164516" lon="-9.270734139425809"><ele>266.33333333333337</ele><time>2026-05-01T08:13:36Z</time></trkpt><trkpt lat="38.848952599206676" lon="-9.270519832420714"><ele>272.6666666666667</ele><time>2026-05-01T08:13:37Z</time></trkpt><trkpt lat="38.848932099412025" lon="-9.270333953945434"><ele>279.0</ele><time>2026-05-01T08:13:38Z</time></trkpt><trkpt lat="38.84887948892212" lon="-9.270153433432178"><ele>279.0</ele><time>2026-05-01T08:13:39Z</time></trkpt><trkpt lat="38.848774195080004" lon="-9.26996349142169"><ele>279.0</ele><time>2026-05-01T08:13:40Z</time></trkpt><trkpt lat="38.848658011076125" lon="-9.269753779828031"><ele>279.0</ele><time>2026-05-01T08:13:41Z</time></trkpt><trkpt lat="38.84854733442981" lon="-9.269594925296106"><ele>281.75</ele><time>2026-05-01T08:13:42Z</time></trkpt><trkpt lat="38.84843308739686" lon="-9.26948068466967"><ele>284.5</ele><time>2026-05-01T08:13:43Z</time></trkpt><trkpt lat="38.84830951034209" lon="-9.26940900924208"><ele>287.25</ele><time>2026-05-01T08:13:44Z</time></trkpt><trkpt lat="38.848209300586774" lon="-9.269372660398002"><ele>290.0</ele><time>2026-05-01T08:13:45Z</time></trkpt><trkpt lat="38.84811986031912" lon="-9.269362552080956"><ele>290.0</ele><time>2026-05-01T08:13:46Z</time></trkpt><trkpt lat="38.8480170053135" lon="-9.269415186155554"><ele>290.0</ele><time>2026-05-01T08:13:47Z</time></trkpt><trkpt lat="38.84788032841697" lon="-9.269499334396086"><ele>290.0</ele><time>2026-05-01T08:13:48Z</time></trkpt><trkpt lat="38.8477421347667" lon="-9.26956516129076"><ele>290.0</ele><time>2026-05-01T08:13:49Z</time></trkpt><trkpt lat="38.84764776369354" lon="-9.269598490520877"><ele>290.0</ele><time>2026-05-01T08:13:50Z</time></trkpt><trkpt lat="38.84757152635022" lon="-9.269611985607227"><ele>290.0</ele><time>2026-05-01T08:13:52Z</time></trkpt><trkpt lat="38.84755398788743" lon="-9.269449281221556"><ele>290.0</ele><time>2026-05-01T08:13:54Z</time></trkpt><trkpt lat="38.84763407915485" lon="-9.269302155670363"><ele>290.0</ele><time>2026-05-01T08:13:55Z</time></trkpt><trkpt lat="38.84771673086321" lon="-9.269195164088497"><ele>290.0</ele><time>2026-05-01T08:13:56Z</time></trkpt><trkpt lat="38.847775700209915" lon="-9.269090688534037"><ele>290.0</ele><time>2026-05-01T08:13:57Z</time></trkpt><trkpt lat="38.84779086807143" lon="-9.269007163917673"><ele>290.0</ele><time>2026-05-01T08:13:59Z</time></trkpt><trkpt lat="38.84785529191401" lon="-9.269042375784123"><ele>290.0</ele><time>2026-05-01T08:15:55Z</time></trkpt><trkpt lat="38.84795420690691" lon="-9.269067888543965"><ele>290.0</ele><time>2026-05-01T08:16:35Z</time></trkpt><trkpt lat="38.84790379654634" lon="-9.26911941594724"><ele>290.0</ele><time>2026-05-01T08:17:18Z</time></trkpt><trkpt lat="38.84782619200886" lon="-9.269064338398701"><ele>290.0</ele><time>2026-05-01T08:17:27Z</time></trkpt><trkpt lat="38.847775431227106" lon="-9.269016365258528"><ele>290.0</ele><time>2026-05-01T08:17:30Z</time></trkpt><trkpt lat="38.84771926464065" lon="-9.268979546281132"><ele>290.0</ele><time>2026-05-01T08:17:37Z</time></trkpt><trkpt lat="38.84777287521067" lon="-9.26904637664798"><ele>290.0</ele><time>2026-05-01T08:17:44Z</time></trkpt><trkpt lat="38.84779314635473" lon="-9.268967919522531"><ele>290.0</ele><time>2026-05-01T08:17:53Z</time></trkpt><trkpt lat="38.84785574728721" lon="-9.269047752347367"><ele>290.0</ele><time>2026-05-01T08:18:03Z</time></trkpt><trkpt lat="38.847798870194545" lon="-9.26898989775581"><ele>290.0</ele><time>2026-05-01T08:18:18Z</time></trkpt><trkpt lat="38.8478521809189" lon="-9.269046264605146"><ele>290.0</ele><time>2026-05-01T08:18:35Z</time></trkpt><trkpt lat="38.84779788416334" lon="-9.26910737798226"><ele>290.0</ele><time>2026-05-01T08:18:54Z</time></trkpt><trkpt lat="38.84786609974309" lon="-9.269061815994815"><ele>290.0</ele><time>2026-05-01T08:19:13Z</time></trkpt><trkpt lat="38.847928842219545" lon="-9.269006723585223"><ele>290.0</ele><time>2026-05-01T08:30:44Z</time></trkpt><trkpt lat="38.84787249455681" lon="-9.269049260813894"><ele>290.0</ele><time>2026-05-01T08:30:58Z</time></trkpt><trkpt lat="38.847932792201405" lon="-9.269082538836559"><ele>290.0</ele><time>2026-05-01T08:31:56Z</time></trkpt><trkpt lat="38.84789718512347" lon="-9.269152002276535"><ele>290.0</ele><time>2026-05-01T08:32:08Z</time></trkpt><trkpt lat="38.84783208755635" lon="-9.269132111867693"><ele>290.0</ele><time>2026-05-01T08:32:29Z</time></trkpt><trkpt lat="38.847824447011305" lon="-9.269049622570188"><ele>290.0</ele><time>2026-05-01T08:32:41Z</time></trkpt><trkpt lat="38.84783076607762" lon="-9.268904590484807"><ele>290.0</ele><time>2026-05-01T08:35:54Z</time></trkpt><trkpt lat="38.847858453427364" lon="-9.268814437898344"><ele>290.0</ele><time>2026-05-01T08:35:56Z</time></trkpt><trkpt lat="38.84792555062576" lon="-9.268858742524706"><ele>290.0</ele><time>2026-05-01T08:36:04Z</time></trkpt><trkpt lat="38.84786284231987" lon="-9.268997458356422"><ele>290.0</ele><time>2026-05-01T08:36:06Z</time></trkpt><trkpt lat="38.847817254182324" lon="-9.269104856540125"><ele>290.0</ele><time>2026-05-01T08:36:08Z</time></trkpt><trkpt lat="38.84776173565016" lon="-9.269214691214438"><ele>290.0</ele><time>2026-05-01T08:36:10Z</time></trkpt><trkpt lat="38.84769084489619" lon="-9.269340612852556"><ele>290.0</ele><time>2026-05-01T08:36:12Z</time></trkpt><trkpt lat="38.84761562357939" lon="-9.269442957222411"><ele>290.0</ele><time>2026-05-01T08:36:14Z</time></trkpt><trkpt lat="38.84755385869545" lon="-9.26951845447628"><ele>289.6</ele><time>2026-05-01T08:36:15Z</time></trkpt><trkpt lat="38.847463790630506" lon="-9.26960785900943"><ele>289.2</ele><time>2026-05-01T08:36:16Z</time></trkpt><trkpt lat="38.84739091671493" lon="-9.2696727313786"><ele>288.8</ele><time>2026-05-01T08:36:17Z</time></trkpt><trkpt lat="38.84733181551137" lon="-9.269718267768118"><ele>288.4</ele><time>2026-05-01T08:36:18Z</time></trkpt><trkpt lat="38.847259749278486" lon="-9.269765962132933"><ele>288.0</ele><time>2026-05-01T08:36:19Z</time></trkpt><trkpt lat="38.847160320133625" lon="-9.269827893738844"><ele>288.0</ele><time>2026-05-01T08:36:20Z</time></trkpt><trkpt lat="38.84704848289391" lon="-9.269892564588297"><ele>288.0</ele><time>2026-05-01T08:36:21Z</time></trkpt><trkpt lat="38.846890416078104" lon="-9.269963494905868"><ele>288.0</ele><time>2026-05-01T08:36:22Z</time></trkpt><trkpt lat="38.846724507166456" lon="-9.270070821584211"><ele>290.6666666666667</ele><time>2026-05-01T08:36:23Z</time></trkpt><trkpt lat="38.846539309992615" lon="-9.270190499854046"><ele>293.33333333333337</ele><time>2026-05-01T08:36:24Z</time></trkpt><trkpt lat="38.84634925239669" lon="-9.270296368516139"><ele>296.0</ele><time>2026-05-01T08:36:25Z</time></trkpt><trkpt lat="38.8461412038251" lon="-9.270410526596773"><ele>296.5</ele><time>2026-05-01T08:36:26Z</time></trkpt><trkpt lat="38.845933035385606" lon="-9.270526686927374"><ele>297.0</ele><time>2026-05-01T08:36:27Z</time></trkpt><trkpt lat="38.84571968959606" lon="-9.270626893692008"><ele>297.0</ele><time>2026-05-01T08:36:28Z</time></trkpt><trkpt lat="38.84553233448422" lon="-9.270713296762214"><ele>297.0</ele><time>2026-05-01T08:36:29Z</time></trkpt><trkpt lat="38.8453712412426" lon="-9.270793696694213"><ele>297.0</ele><time>2026-05-01T08:36:30Z</time></trkpt><trkpt lat="38.84522726807853" lon="-9.27084814455654"><ele>299.5</ele><time>2026-05-01T08:36:31Z</time></trkpt><trkpt lat="38.84509339236925" lon="-9.270912754433667"><ele>302.0</ele><time>2026-05-01T08:36:32Z</time></trkpt><trkpt lat="38.844966494394626" lon="-9.270956318375086"><ele>304.5</ele><time>2026-05-01T08:36:33Z</time></trkpt><trkpt lat="38.84483955034097" lon="-9.270989028155515"><ele>307.0</ele><time>2026-05-01T08:36:34Z</time></trkpt><trkpt lat="38.844698033543374" lon="-9.271021329965302"><ele>307.0</ele><time>2026-05-01T08:36:35Z</time></trkpt><trkpt lat="38.84456824616365" lon="-9.271053774004363"><ele>307.0</ele><time>2026-05-01T08:36:36Z</time></trkpt><trkpt lat="38.8444552957118" lon="-9.271078220983222"><ele>307.0</ele><time>2026-05-01T08:36:37Z</time></trkpt><trkpt lat="38.84437358849827" lon="-9.27110441868385"><ele>307.0</ele><time>2026-05-01T08:36:38Z</time></trkpt><trkpt lat="38.84429757300031" lon="-9.271124244544605"><ele>307.0</ele><time>2026-05-01T08:36:39Z</time></trkpt><trkpt lat="38.844226173755025" lon="-9.271155805775905"><ele>307.5</ele><time>2026-05-01T08:36:40Z</time></trkpt><trkpt lat="38.84414296560144" lon="-9.271212434902125"><ele>308.0</ele><time>2026-05-01T08:36:41Z</time></trkpt><trkpt lat="38.84404267294874" lon="-9.271307417054759"><ele>308.5</ele><time>2026-05-01T08:36:42Z</time></trkpt><trkpt lat="38.84394590083452" lon="-9.271390086325685"><ele>309.0</ele><time>2026-05-01T08:36:43Z</time></trkpt><trkpt lat="38.84383673818966" lon="-9.27148336042435"><ele>306.75</ele><time>2026-05-01T08:36:44Z</time></trkpt><trkpt lat="38.84374302613989" lon="-9.271593964287364"><ele>304.5</ele><time>2026-05-01T08:36:45Z</time></trkpt><trkpt lat="38.84366617359124" lon="-9.271711679105092"><ele>302.25</ele><time>2026-05-01T08:36:46Z</time></trkpt><trkpt lat="38.84359441012164" lon="-9.271840225186084"><ele>300.0</ele><time>2026-05-01T08:36:47Z</time></trkpt><trkpt lat="38.84352632801242" lon="-9.271947493174814"><ele>301.5</ele><time>2026-05-01T08:36:48Z</time></trkpt><trkpt lat="38.84345928904807" lon="-9.27203781705315"><ele>303.0</ele><time>2026-05-01T08:36:49Z</time></trkpt><trkpt lat="38.843393935074616" lon="-9.272113285267144"><ele>304.5</ele><time>2026-05-01T08:36:50Z</time></trkpt><trkpt lat="38.84331983056111" lon="-9.272151644246062"><ele>306.0</ele><time>2026-05-01T08:36:51Z</time></trkpt><trkpt lat="38.843233695892536" lon="-9.272142136539072"><ele>307.5</ele><time>2026-05-01T08:36:52Z</time></trkpt><trkpt lat="38.8431465019422" lon="-9.272098421875762"><ele>309.0</ele><time>2026-05-01T08:36:53Z</time></trkpt><trkpt lat="38.84307542025255" lon="-9.272052853498154"><ele>309.0</ele><time>2026-05-01T08:36:54Z</time></trkpt><trkpt lat="38.84297042068144" lon="-9.2720176588543"><ele>309.0</ele><time>2026-05-01T08:36:56Z</time></trkpt><trkpt lat="38.84288011272635" lon="-9.271991019640234"><ele>309.0</ele><time>2026-05-01T08:36:58Z</time></trkpt><trkpt lat="38.84279713915451" lon="-9.271962587596345"><ele>309.0</ele><time>2026-05-01T08:37:00Z</time></trkpt><trkpt lat="38.842749574149714" lon="-9.271878971613395"><ele>309.0</ele><time>2026-05-01T08:37:01Z</time></trkpt><trkpt lat="38.84267289631409" lon="-9.271797766627516"><ele>310.4</ele><time>2026-05-01T08:37:02Z</time></trkpt><trkpt lat="38.84259768633969" lon="-9.271734067214176"><ele>311.79999999999995</ele><time>2026-05-01T08:37:03Z</time></trkpt><trkpt lat="38.84252185897052" lon="-9.27164558134388"><ele>313.20000000000005</ele><time>2026-05-01T08:37:04Z</time></trkpt><trkpt lat="38.842415841140024" lon="-9.271540232122746"><ele>314.6</ele><time>2026-05-01T08:37:05Z</time></trkpt><trkpt lat="38.842333866835894" lon="-9.27142672979423"><ele>316.0</ele><time>2026-05-01T08:37:06Z</time></trkpt><trkpt lat="38.84226116135314" lon="-9.271342436695909"><ele>317.4</ele><time>2026-05-01T08:37:07Z</time></trkpt><trkpt lat="38.842203281799684" lon="-9.271287972881243"><ele>318.8</ele><time>2026-05-01T08:37:08Z</time></trkpt><trkpt lat="38.842146970971584" lon="-9.271214935786253"><ele>320.2</ele><time>2026-05-01T08:37:09Z</time></trkpt><trkpt lat="38.84213338353936" lon="-9.271056411980826"><ele>321.59999999999997</ele><time>2026-05-01T08:37:10Z</time></trkpt><trkpt lat="38.842101432099284" lon="-9.27088052652221"><ele>323.0</ele><time>2026-05-01T08:37:11Z</time></trkpt><trkpt lat="38.84204720685701" lon="-9.270731420727458"><ele>326.0</ele><time>2026-05-01T08:37:12Z</time></trkpt><trkpt lat="38.841967342831076" lon="-9.270569912106966"><ele>329.0</ele><time>2026-05-01T08:37:13Z</time></trkpt><trkpt lat="38.84184674730036" lon="-9.270399194380168"><ele>332.0</ele><time>2026-05-01T08:37:14Z</time></trkpt><trkpt lat="38.841731198709425" lon="-9.270241566932336"><ele>332.6666666666667</ele><time>2026-05-01T08:37:15Z</time></trkpt><trkpt lat="38.84162355678851" lon="-9.270099378858696"><ele>333.3333333333333</ele><time>2026-05-01T08:37:16Z</time></trkpt><trkpt lat="38.8415116143532" lon="-9.26995181308322"><ele>334.0</ele><time>2026-05-01T08:37:17Z</time></trkpt><trkpt lat="38.84140032260195" lon="-9.269763707647181"><ele>334.25</ele><time>2026-05-01T08:37:18Z</time></trkpt><trkpt lat="38.841293588308055" lon="-9.269603380456262"><ele>334.5</ele><time>2026-05-01T08:37:19Z</time></trkpt><trkpt lat="38.84121077899587" lon="-9.269456525644504"><ele>334.75</ele><time>2026-05-01T08:37:20Z</time></trkpt><trkpt lat="38.84114081216745" lon="-9.26931882506257"><ele>335.0</ele><time>2026-05-01T08:37:21Z</time></trkpt><trkpt lat="38.84107546793081" lon="-9.269191388465005"><ele>335.0</ele><time>2026-05-01T08:37:22Z</time></trkpt><trkpt lat="38.841012182828216" lon="-9.269077570261212"><ele>335.0</ele><time>2026-05-01T08:37:23Z</time></trkpt><trkpt lat="38.84095143160844" lon="-9.268965646658849"><ele>335.0</ele><time>2026-05-01T08:37:24Z</time></trkpt><trkpt lat="38.84088269498193" lon="-9.26884661494566"><ele>335.0</ele><time>2026-05-01T08:37:25Z</time></trkpt><trkpt lat="38.84079584172619" lon="-9.268739817378652"><ele>335.2</ele><time>2026-05-01T08:37:26Z</time></trkpt><trkpt lat="38.84072288655722" lon="-9.268626568402716"><ele>335.4</ele><time>2026-05-01T08:37:27Z</time></trkpt><trkpt lat="38.8406674811143" lon="-9.268510720385079"><ele>335.6</ele><time>2026-05-01T08:37:28Z</time></trkpt><trkpt lat="38.84059944539917" lon="-9.268413006019639"><ele>335.8</ele><time>2026-05-01T08:37:29Z</time></trkpt><trkpt lat="38.84053719076265" lon="-9.268321289087721"><ele>336.0</ele><time>2026-05-01T08:37:30Z</time></trkpt><trkpt lat="38.840468788882895" lon="-9.268230129644977"><ele>336.0</ele><time>2026-05-01T08:37:31Z</time></trkpt><trkpt lat="38.84040240465636" lon="-9.268142456976335"><ele>336.0</ele><time>2026-05-01T08:37:32Z</time></trkpt><trkpt lat="38.84033560335802" lon="-9.268065591900527"><ele>336.0</ele><time>2026-05-01T08:37:33Z</time></trkpt><trkpt lat="38.84027177626814" lon="-9.267993621921617"><ele>336.0</ele><time>2026-05-01T08:37:34Z</time></trkpt><trkpt lat="38.84020778787704" lon="-9.267923538025192"><ele>336.0</ele><time>2026-05-01T08:37:35Z</time></trkpt><trkpt lat="38.84014618535912" lon="-9.267850808001937"><ele>336.0</ele><time>2026-05-01T08:37:36Z</time></trkpt><trkpt lat="38.84008307121135" lon="-9.267775701254017"><ele>335.6</ele><time>2026-05-01T08:37:37Z</time></trkpt><trkpt lat="38.840015910841416" lon="-9.267696020992942"><ele>335.20000000000005</ele><time>2026-05-01T08:37:38Z</time></trkpt><trkpt lat="38.83993153842108" lon="-9.267610633063777"><ele>334.79999999999995</ele><time>2026-05-01T08:37:39Z</time></trkpt><trkpt lat="38.839851134235225" lon="-9.26751275914731"><ele>334.4</ele><time>2026-05-01T08:37:40Z</time></trkpt><trkpt lat="38.83979338499836" lon="-9.267408439153554"><ele>334.0</ele><time>2026-05-01T08:37:41Z</time></trkpt><trkpt lat="38.83975343313979" lon="-9.267288864253846"><ele>333.2</ele><time>2026-05-01T08:37:42Z</time></trkpt><trkpt lat="38.839716095588614" lon="-9.26715719838394"><ele>332.4</ele><time>2026-05-01T08:37:43Z</time></trkpt><trkpt lat="38.83968644808354" lon="-9.267019336378121"><ele>331.6</ele><time>2026-05-01T08:37:44Z</time></trkpt><trkpt lat="38.83966402806071" lon="-9.266874254444337"><ele>330.8</ele><time>2026-05-01T08:37:45Z</time></trkpt><trkpt lat="38.83963934245556" lon="-9.266734958123115"><ele>330.0</ele><time>2026-05-01T08:37:46Z</time></trkpt><trkpt lat="38.83961607464651" lon="-9.266598570269108"><ele>330.0</ele><time>2026-05-01T08:37:47Z</time></trkpt><trkpt lat="38.83958233555039" lon="-9.266484414822575"><ele>330.0</ele><time>2026-05-01T08:37:48Z</time></trkpt><trkpt lat="38.83956364385323" lon="-9.266374016043105"><ele>330.0</ele><time>2026-05-01T08:37:49Z</time></trkpt><trkpt lat="38.839545616524674" lon="-9.266268038412223"><ele>330.0</ele><time>2026-05-01T08:37:50Z</time></trkpt><trkpt lat="38.83952935616675" lon="-9.266170067687433"><ele>330.0</ele><time>2026-05-01T08:37:51Z</time></trkpt><trkpt lat="38.83951551258777" lon="-9.266078116364788"><ele>330.0</ele><time>2026-05-01T08:37:52Z</time></trkpt><trkpt lat="38.839495277690524" lon="-9.265944645040852"><ele>329.0</ele><time>2026-05-01T08:37:54Z</time></trkpt><trkpt lat="38.83947893278234" lon="-9.265865515485801"><ele>328.0</ele><time>2026-05-01T08:37:58Z</time></trkpt><trkpt lat="38.83933772418964" lon="-9.265867675332256"><ele>327.0</ele><time>2026-05-01T08:38:07Z</time></trkpt><trkpt lat="38.839233311505666" lon="-9.265881635541541"><ele>326.0</ele><time>2026-05-01T08:38:08Z</time></trkpt><trkpt lat="38.83909919758367" lon="-9.265892981364436"><ele>325.0</ele><time>2026-05-01T08:38:09Z</time></trkpt><trkpt lat="38.83895864680969" lon="-9.265896370414072"><ele>325.0</ele><time>2026-05-01T08:38:10Z</time></trkpt><trkpt lat="38.83882988277259" lon="-9.265877917430972"><ele>325.0</ele><time>2026-05-01T08:38:11Z</time></trkpt><trkpt lat="38.838694416810554" lon="-9.265870447263264"><ele>325.0</ele><time>2026-05-01T08:38:12Z</time></trkpt><trkpt lat="38.83854612662076" lon="-9.26585700088523"><ele>325.0</ele><time>2026-05-01T08:38:13Z</time></trkpt><trkpt lat="38.838383295656726" lon="-9.265884258784512"><ele>325.5</ele><time>2026-05-01T08:38:14Z</time></trkpt><trkpt lat="38.83822813948674" lon="-9.265956637750941"><ele>326.0</ele><time>2026-05-01T08:38:15Z</time></trkpt><trkpt lat="38.838107159848775" lon="-9.265996931586281"><ele>326.5</ele><time>2026-05-01T08:38:16Z</time></trkpt><trkpt lat="38.83799917009143" lon="-9.266031365363645"><ele>327.0</ele><time>2026-05-01T08:38:17Z</time></trkpt><trkpt lat="38.83789223932193" lon="-9.266070757049235"><ele>327.0</ele><time>2026-05-01T08:38:18Z</time></trkpt><trkpt lat="38.83779257879703" lon="-9.266126544643813"><ele>327.0</ele><time>2026-05-01T08:38:19Z</time></trkpt><trkpt lat="38.83770575071405" lon="-9.266203009270482"><ele>327.0</ele><time>2026-05-01T08:38:20Z</time></trkpt><trkpt lat="38.83762875130065" lon="-9.266298506196183"><ele>327.0</ele><time>2026-05-01T08:38:21Z</time></trkpt><trkpt lat="38.83755944248551" lon="-9.266409879458022"><ele>327.0</ele><time>2026-05-01T08:38:22Z</time></trkpt><trkpt lat="38.83749280626059" lon="-9.266530734610697"><ele>326.0</ele><time>2026-05-01T08:38:23Z</time></trkpt><trkpt lat="38.83742476877552" lon="-9.266654371903755"><ele>325.0</ele><time>2026-05-01T08:38:24Z</time></trkpt><trkpt lat="38.83733715266498" lon="-9.26678778665473"><ele>324.0</ele><time>2026-05-01T08:38:25Z</time></trkpt><trkpt lat="38.83719447762685" lon="-9.266919227815379"><ele>323.0</ele><time>2026-05-01T08:38:26Z</time></trkpt><trkpt lat="38.837020817181575" lon="-9.267052395485432"><ele>323.0</ele><time>2026-05-01T08:38:27Z</time></trkpt><trkpt lat="38.83685045804475" lon="-9.267210087644798"><ele>323.0</ele><time>2026-05-01T08:38:28Z</time></trkpt><trkpt lat="38.836721376224794" lon="-9.26736995796369"><ele>323.0</ele><time>2026-05-01T08:38:29Z</time></trkpt><trkpt lat="38.83662528051434" lon="-9.267527401036777"><ele>319.5</ele><time>2026-05-01T08:38:30Z</time></trkpt><trkpt lat="38.83654925802743" lon="-9.26767231711515"><ele>316.0</ele><time>2026-05-01T08:38:31Z</time></trkpt><trkpt lat="38.83646594593519" lon="-9.26778796311102"><ele>312.5</ele><time>2026-05-01T08:38:32Z</time></trkpt><trkpt lat="38.83636109096487" lon="-9.26788542741386"><ele>309.0</ele><time>2026-05-01T08:38:33Z</time></trkpt><trkpt lat="38.836263351689425" lon="-9.26798207779331"><ele>309.0</ele><time>2026-05-01T08:38:34Z</time></trkpt><trkpt lat="38.83617479295033" lon="-9.268056973449868"><ele>309.0</ele><time>2026-05-01T08:38:35Z</time></trkpt><trkpt lat="38.83609212277897" lon="-9.268122668245612"><ele>309.0</ele><time>2026-05-01T08:38:36Z</time></trkpt><trkpt lat="38.8360248263611" lon="-9.26818271678108"><ele>309.0</ele><time>2026-05-01T08:38:37Z</time></trkpt><trkpt lat="38.83597533591554" lon="-9.268236745304101"><ele>309.0</ele><time>2026-05-01T08:38:38Z</time></trkpt><trkpt lat="38.835925426923176" lon="-9.26829587834645"><ele>309.0</ele><time>2026-05-01T08:38:39Z</time></trkpt><trkpt lat="38.8358597168122" lon="-9.26835281080004"><ele>308.0</ele><time>2026-05-01T08:38:42Z</time></trkpt><trkpt lat="38.835776105291906" lon="-9.268418594150676"><ele>307.0</ele><time>2026-05-01T08:38:44Z</time></trkpt><trkpt lat="38.83570418843852" lon="-9.26846941336521"><ele>306.0</ele><time>2026-05-01T08:38:45Z</time></trkpt><trkpt lat="38.83558582922828" lon="-9.268551113467526"><ele>305.0</ele><time>2026-05-01T08:38:46Z</time></trkpt><trkpt lat="38.83547308658981" lon="-9.268626267812035"><ele>304.0</ele><time>2026-05-01T08:38:47Z</time></trkpt><trkpt lat="38.83537431767148" lon="-9.268692887070978"><ele>304.0</ele><time>2026-05-01T08:38:48Z</time></trkpt><trkpt lat="38.83527013950723" lon="-9.268763185112174"><ele>304.0</ele><time>2026-05-01T08:38:49Z</time></trkpt><trkpt lat="38.83517731456152" lon="-9.268828449528476"><ele>304.0</ele><time>2026-05-01T08:38:50Z</time></trkpt><trkpt lat="38.835085092734964" lon="-9.26889668136956"><ele>304.0</ele><time>2026-05-01T08:38:51Z</time></trkpt><trkpt lat="38.83497297199609" lon="-9.269001910725494"><ele>304.25</ele><time>2026-05-01T08:38:52Z</time></trkpt><trkpt lat="38.83485304451634" lon="-9.26913029066714"><ele>304.5</ele><time>2026-05-01T08:38:53Z</time></trkpt><trkpt lat="38.83474597224266" lon="-9.269275280252817"><ele>304.75</ele><time>2026-05-01T08:38:54Z</time></trkpt><trkpt lat="38.83464047750385" lon="-9.269379617131543"><ele>305.0</ele><time>2026-05-01T08:38:55Z</time></trkpt><trkpt lat="38.83455039254442" lon="-9.269491022541482"><ele>305.0</ele><time>2026-05-01T08:38:56Z</time></trkpt><trkpt lat="38.83441349784861" lon="-9.269601803045145"><ele>305.0</ele><time>2026-05-01T08:38:57Z</time></trkpt><trkpt lat="38.83426532075424" lon="-9.269703275112441"><ele>305.0</ele><time>2026-05-01T08:38:58Z</time></trkpt><trkpt lat="38.83413180219749" lon="-9.269779721594958"><ele>302.75</ele><time>2026-05-01T08:38:59Z</time></trkpt><trkpt lat="38.83400833143484" lon="-9.26985942689808"><ele>300.5</ele><time>2026-05-01T08:39:00Z</time></trkpt><trkpt lat="38.833882844381556" lon="-9.269947166752244"><ele>298.25</ele><time>2026-05-01T08:39:01Z</time></trkpt><trkpt lat="38.833765809902374" lon="-9.270023399596859"><ele>296.0</ele><time>2026-05-01T08:39:02Z</time></trkpt><trkpt lat="38.833658349672774" lon="-9.270098436878293"><ele>296.0</ele><time>2026-05-01T08:39:03Z</time></trkpt><trkpt lat="38.83354978023401" lon="-9.270161279376872"><ele>296.0</ele><time>2026-05-01T08:39:04Z</time></trkpt><trkpt lat="38.83345332546978" lon="-9.270234414588032"><ele>296.0</ele><time>2026-05-01T08:39:05Z</time></trkpt><trkpt lat="38.83335667686273" lon="-9.270302143783201"><ele>296.0</ele><time>2026-05-01T08:39:06Z</time></trkpt><trkpt lat="38.83328515977569" lon="-9.270406133205777"><ele>296.0</ele><time>2026-05-01T08:39:07Z</time></trkpt><trkpt lat="38.83323408477585" lon="-9.270525963887655"><ele>296.33333333333337</ele><time>2026-05-01T08:39:08Z</time></trkpt><trkpt lat="38.83319710867469" lon="-9.27063666568316"><ele>296.6666666666667</ele><time>2026-05-01T08:39:09Z</time></trkpt><trkpt lat="38.83316312394015" lon="-9.270718982135081"><ele>297.0</ele><time>2026-05-01T08:39:10Z</time></trkpt><trkpt lat="38.8331096838464" lon="-9.27078576204304"><ele>297.3333333333333</ele><time>2026-05-01T08:39:11Z</time></trkpt><trkpt lat="38.83305210158517" lon="-9.270827176265808"><ele>297.66666666666663</ele><time>2026-05-01T08:39:12Z</time></trkpt><trkpt lat="38.832991947819664" lon="-9.270877527224208"><ele>298.0</ele><time>2026-05-01T08:39:13Z</time></trkpt><trkpt lat="38.83292551276953" lon="-9.270924255069573"><ele>298.0</ele><time>2026-05-01T08:39:14Z</time></trkpt><trkpt lat="38.832863013290144" lon="-9.270961169243987"><ele>298.0</ele><time>2026-05-01T08:39:15Z</time></trkpt><trkpt lat="38.832729123274206" lon="-9.27076061508574"><ele>298.0</ele><time>2026-05-01T08:39:17Z</time></trkpt><trkpt lat="38.832656333595004" lon="-9.270609266360681"><ele>298.0</ele><time>2026-05-01T08:39:18Z</time></trkpt><trkpt lat="38.83259697668508" lon="-9.270490691099239"><ele>299.6</ele><time>2026-05-01T08:39:19Z</time></trkpt><trkpt lat="38.832540606305194" lon="-9.270378081772032"><ele>301.20000000000005</ele><time>2026-05-01T08:39:20Z</time></trkpt><trkpt lat="38.832485823419916" lon="-9.27026697025905"><ele>302.8</ele><time>2026-05-01T08:39:21Z</time></trkpt><trkpt lat="38.8324437825501" lon="-9.270169775439202"><ele>304.40000000000003</ele><time>2026-05-01T08:39:22Z</time></trkpt><trkpt lat="38.83235429316112" lon="-9.270124294876814"><ele>306.0</ele><time>2026-05-01T08:39:23Z</time></trkpt><trkpt lat="38.83225956640551" lon="-9.270119742520725"><ele>306.0</ele><time>2026-05-01T08:39:24Z</time></trkpt><trkpt lat="38.83217052625585" lon="-9.270143376862299"><ele>306.0</ele><time>2026-05-01T08:39:25Z</time></trkpt><trkpt lat="38.83206297005518" lon="-9.270169702540679"><ele>306.0</ele><time>2026-05-01T08:39:26Z</time></trkpt><trkpt lat="38.83195958545825" lon="-9.2701747509189"><ele>306.0</ele><time>2026-05-01T08:39:27Z</time></trkpt><trkpt lat="38.831864467597" lon="-9.270176031459599"><ele>306.0</ele><time>2026-05-01T08:39:28Z</time></trkpt><trkpt lat="38.83178128650384" lon="-9.270168976616002"><ele>306.6</ele><time>2026-05-01T08:39:29Z</time></trkpt><trkpt lat="38.83169605821753" lon="-9.270145457600625"><ele>307.20000000000005</ele><time>2026-05-01T08:39:30Z</time></trkpt><trkpt lat="38.831602875744395" lon="-9.270106246311588"><ele>307.79999999999995</ele><time>2026-05-01T08:39:31Z</time></trkpt><trkpt lat="38.831494498684116" lon="-9.270022692694832"><ele>308.4</ele><time>2026-05-01T08:39:32Z</time></trkpt><trkpt lat="38.8313981887688" lon="-9.269911818759757"><ele>309.0</ele><time>2026-05-01T08:39:33Z</time></trkpt><trkpt lat="38.83132374373256" lon="-9.26980622669767"><ele>307.25</ele><time>2026-05-01T08:39:34Z</time></trkpt><trkpt lat="38.831261027791925" lon="-9.269700442676042"><ele>305.5</ele><time>2026-05-01T08:39:35Z</time></trkpt><trkpt lat="38.83117914042324" lon="-9.269588184745578"><ele>303.75</ele><time>2026-05-01T08:39:36Z</time></trkpt><trkpt lat="38.83107989323291" lon="-9.269433567240235"><ele>302.0</ele><time>2026-05-01T08:39:37Z</time></trkpt><trkpt lat="38.83099092753275" lon="-9.269290559664748"><ele>304.0</ele><time>2026-05-01T08:39:38Z</time></trkpt><trkpt lat="38.830909537774744" lon="-9.269161862722264"><ele>306.0</ele><time>2026-05-01T08:39:39Z</time></trkpt><trkpt lat="38.83083127343223" lon="-9.269039968115075"><ele>308.0</ele><time>2026-05-01T08:39:40Z</time></trkpt><trkpt lat="38.830753328305505" lon="-9.268878091922142"><ele>310.0</ele><time>2026-05-01T08:39:41Z</time></trkpt><trkpt lat="38.83069469590363" lon="-9.268686761454722"><ele>310.0</ele><time>2026-05-01T08:39:42Z</time></trkpt><trkpt lat="38.830643138301596" lon="-9.26851098950601"><ele>310.0</ele><time>2026-05-01T08:39:43Z</time></trkpt><trkpt lat="38.830595817311476" lon="-9.268328442230763"><ele>310.0</ele><time>2026-05-01T08:39:44Z</time></trkpt><trkpt lat="38.8305502703507" lon="-9.268157269498404"><ele>310.0</ele><time>2026-05-01T08:39:45Z</time></trkpt><trkpt lat="38.830504473228494" lon="-9.267987866708035"><ele>308.5</ele><time>2026-05-01T08:39:46Z</time></trkpt><trkpt lat="38.83045081522978" lon="-9.267814804935579"><ele>307.0</ele><time>2026-05-01T08:39:47Z</time></trkpt><trkpt lat="38.8303914170803" lon="-9.267649096098069"><ele>305.5</ele><time>2026-05-01T08:39:48Z</time></trkpt><trkpt lat="38.83033279293802" lon="-9.267496708373633"><ele>304.0</ele><time>2026-05-01T08:39:49Z</time></trkpt><trkpt lat="38.83028588540623" lon="-9.267343022804715"><ele>305.5</ele><time>2026-05-01T08:39:50Z</time></trkpt><trkpt lat="38.83021474564339" lon="-9.267219993881342"><ele>307.0</ele><time>2026-05-01T08:39:51Z</time></trkpt><trkpt lat="38.830162844064745" lon="-9.267065538511819"><ele>308.5</ele><time>2026-05-01T08:39:52Z</time></trkpt><trkpt lat="38.830080043712336" lon="-9.266931760598125"><ele>310.0</ele><time>2026-05-01T08:39:53Z</time></trkpt><trkpt lat="38.830004676286194" lon="-9.266814120143309"><ele>310.0</ele><time>2026-05-01T08:39:54Z</time></trkpt><trkpt lat="38.82990761592245" lon="-9.266724398544861"><ele>310.0</ele><time>2026-05-01T08:39:55Z</time></trkpt><trkpt lat="38.8298119255895" lon="-9.266644287664983"><ele>310.0</ele><time>2026-05-01T08:39:56Z</time></trkpt><trkpt lat="38.829701227899456" lon="-9.266595026284968"><ele>310.0</ele><time>2026-05-01T08:39:57Z</time></trkpt><trkpt lat="38.82957311254717" lon="-9.266598104085872"><ele>310.0</ele><time>2026-05-01T08:39:58Z</time></trkpt><trkpt lat="38.82944253150696" lon="-9.266646275338225"><ele>310.0</ele><time>2026-05-01T08:39:59Z</time></trkpt><trkpt lat="38.82932285855369" lon="-9.26667553641092"><ele>310.0</ele><time>2026-05-01T08:40:00Z</time></trkpt><trkpt lat="38.829228321713366" lon="-9.266688768823773"><ele>310.0</ele><time>2026-05-01T08:40:01Z</time></trkpt><trkpt lat="38.82913641880504" lon="-9.266661976022563"><ele>310.0</ele><time>2026-05-01T08:40:02Z</time></trkpt><trkpt lat="38.829045010260494" lon="-9.266597646043591"><ele>308.25</ele><time>2026-05-01T08:40:03Z</time></trkpt><trkpt lat="38.82896173736207" lon="-9.266490152933525"><ele>306.5</ele><time>2026-05-01T08:40:04Z</time></trkpt><trkpt lat="38.828870345098906" lon="-9.266354725540415"><ele>304.75</ele><time>2026-05-01T08:40:05Z</time></trkpt><trkpt lat="38.828781367897534" lon="-9.266210949480884"><ele>303.0</ele><time>2026-05-01T08:40:06Z</time></trkpt><trkpt lat="38.82870395614187" lon="-9.26608881571641"><ele>303.0</ele><time>2026-05-01T08:40:07Z</time></trkpt><trkpt lat="38.82862898218469" lon="-9.265968685681738"><ele>303.0</ele><time>2026-05-01T08:40:08Z</time></trkpt><trkpt lat="38.82854889974041" lon="-9.265849556103127"><ele>303.0</ele><time>2026-05-01T08:40:09Z</time></trkpt><trkpt lat="38.828486657065454" lon="-9.265711934434174"><ele>303.0</ele><time>2026-05-01T08:40:10Z</time></trkpt><trkpt lat="38.82842333390067" lon="-9.265575777221567"><ele>304.0</ele><time>2026-05-01T08:40:11Z</time></trkpt><trkpt lat="38.82836179680952" lon="-9.265443460350145"><ele>305.0</ele><time>2026-05-01T08:40:12Z</time></trkpt><trkpt lat="38.82829465306876" lon="-9.265320264854685"><ele>306.0</ele><time>2026-05-01T08:40:13Z</time></trkpt><trkpt lat="38.82822432467217" lon="-9.26521776552381"><ele>307.0</ele><time>2026-05-01T08:40:14Z</time></trkpt><trkpt lat="38.82814062781012" lon="-9.265127008634861"><ele>307.0</ele><time>2026-05-01T08:40:15Z</time></trkpt><trkpt lat="38.828043707916535" lon="-9.265054628422796"><ele>307.0</ele><time>2026-05-01T08:40:16Z</time></trkpt><trkpt lat="38.82793769275118" lon="-9.264995075301398"><ele>307.0</ele><time>2026-05-01T08:40:17Z</time></trkpt><trkpt lat="38.827839206187114" lon="-9.264956623688649"><ele>307.0</ele><time>2026-05-01T08:40:18Z</time></trkpt><trkpt lat="38.82773455648297" lon="-9.264990444459693"><ele>307.0</ele><time>2026-05-01T08:40:19Z</time></trkpt><trkpt lat="38.827649739183016" lon="-9.26507122842941"><ele>306.6</ele><time>2026-05-01T08:40:20Z</time></trkpt><trkpt lat="38.82760640850938" lon="-9.265197214849962"><ele>306.2</ele><time>2026-05-01T08:40:21Z</time></trkpt><trkpt lat="38.82758984773952" lon="-9.265337417644057"><ele>305.8</ele><time>2026-05-01T08:40:22Z</time></trkpt><trkpt lat="38.8275892810581" lon="-9.265463823191503"><ele>305.4</ele><time>2026-05-01T08:40:23Z</time></trkpt><trkpt lat="38.82757061656956" lon="-9.265578344926892"><ele>305.0</ele><time>2026-05-01T08:40:24Z</time></trkpt><trkpt lat="38.827512892035664" lon="-9.265690307115367"><ele>307.0</ele><time>2026-05-01T08:40:25Z</time></trkpt><trkpt lat="38.827404084984344" lon="-9.265764406246292"><ele>309.0</ele><time>2026-05-01T08:40:26Z</time></trkpt><trkpt lat="38.827293919913735" lon="-9.265804135785542"><ele>311.0</ele><time>2026-05-01T08:40:27Z</time></trkpt><trkpt lat="38.82720434939942" lon="-9.265815608101407"><ele>313.0</ele><time>2026-05-01T08:40:28Z</time></trkpt><trkpt lat="38.82710318090221" lon="-9.265829862233325"><ele>315.0</ele><time>2026-05-01T08:40:29Z</time></trkpt><trkpt lat="38.827004368516235" lon="-9.265799899172382"><ele>315.0</ele><time>2026-05-01T08:40:30Z</time></trkpt><trkpt lat="38.82690471966935" lon="-9.265745264754282"><ele>315.0</ele><time>2026-05-01T08:40:31Z</time></trkpt><trkpt lat="38.8268149387227" lon="-9.265647038202852"><ele>315.0</ele><time>2026-05-01T08:40:32Z</time></trkpt><trkpt lat="38.82673703330835" lon="-9.265522932884803"><ele>315.0</ele><time>2026-05-01T08:40:33Z</time></trkpt><trkpt lat="38.82665950938887" lon="-9.265403880345456"><ele>312.5</ele><time>2026-05-01T08:40:34Z</time></trkpt><trkpt lat="38.82658193735251" lon="-9.26528481460019"><ele>310.0</ele><time>2026-05-01T08:40:35Z</time></trkpt><trkpt lat="38.82649493536457" lon="-9.265147518062113"><ele>307.5</ele><time>2026-05-01T08:40:36Z</time></trkpt><trkpt lat="38.82640272437484" lon="-9.265009854850142"><ele>305.0</ele><time>2026-05-01T08:40:37Z</time></trkpt><trkpt lat="38.826307541119434" lon="-9.264871815442833"><ele>300.6666666666667</ele><time>2026-05-01T08:40:38Z</time></trkpt><trkpt lat="38.8262060477214" lon="-9.264730841987106"><ele>296.3333333333333</ele><time>2026-05-01T08:40:39Z</time></trkpt><trkpt lat="38.826105784848544" lon="-9.26458513992312"><ele>292.0</ele><time>2026-05-01T08:40:40Z</time></trkpt><trkpt lat="38.82599560301641" lon="-9.26443333362292"><ele>293.3333333333333</ele><time>2026-05-01T08:40:41Z</time></trkpt><trkpt lat="38.82588757680876" lon="-9.264266140230212"><ele>294.6666666666667</ele><time>2026-05-01T08:40:42Z</time></trkpt><trkpt lat="38.825771253179774" lon="-9.26409796414928"><ele>296.0</ele><time>2026-05-01T08:40:43Z</time></trkpt><trkpt lat="38.82566705753418" lon="-9.263944476923195"><ele>296.0</ele><time>2026-05-01T08:40:44Z</time></trkpt><trkpt lat="38.825564481297064" lon="-9.263794362468088"><ele>296.0</ele><time>2026-05-01T08:40:45Z</time></trkpt><trkpt lat="38.825463454152846" lon="-9.263643648173547"><ele>296.0</ele><time>2026-05-01T08:40:46Z</time></trkpt><trkpt lat="38.825365797334385" lon="-9.263501771801918"><ele>296.0</ele><time>2026-05-01T08:40:47Z</time></trkpt><trkpt lat="38.82526531061353" lon="-9.263357862621262"><ele>296.0</ele><time>2026-05-01T08:40:48Z</time></trkpt><trkpt lat="38.825160579226974" lon="-9.26320061614286"><ele>296.0</ele><time>2026-05-01T08:40:49Z</time></trkpt><trkpt lat="38.82505017927381" lon="-9.263027285553804"><ele>297.33333333333337</ele><time>2026-05-01T08:40:50Z</time></trkpt><trkpt lat="38.824919864395284" lon="-9.262838568328549"><ele>298.6666666666667</ele><time>2026-05-01T08:40:51Z</time></trkpt><trkpt lat="38.82481639656637" lon="-9.262644344852841"><ele>300.0</ele><time>2026-05-01T08:40:52Z</time></trkpt><trkpt lat="38.824726191622936" lon="-9.26246555669755"><ele>300.0</ele><time>2026-05-01T08:40:53Z</time></trkpt><trkpt lat="38.8246473411915" lon="-9.262308557520015"><ele>300.0</ele><time>2026-05-01T08:40:54Z</time></trkpt><trkpt lat="38.824565221657615" lon="-9.262145050163339"><ele>300.0</ele><time>2026-05-01T08:40:55Z</time></trkpt><trkpt lat="38.824480994828946" lon="-9.261977346746871"><ele>300.0</ele><time>2026-05-01T08:40:56Z</time></trkpt><trkpt lat="38.82439825563771" lon="-9.261812605238712"><ele>300.0</ele><time>2026-05-01T08:40:57Z</time></trkpt><trkpt lat="38.82430804909837" lon="-9.26163299570228"><ele>300.0</ele><time>2026-05-01T08:40:58Z</time></trkpt><trkpt lat="38.82421004308982" lon="-9.261437912438597"><ele>300.0</ele><time>2026-05-01T08:40:59Z</time></trkpt><trkpt lat="38.82413337284636" lon="-9.261255018204377"><ele>300.0</ele><time>2026-05-01T08:41:00Z</time></trkpt><trkpt lat="38.82405908083916" lon="-9.261102740171228"><ele>300.0</ele><time>2026-05-01T08:41:01Z</time></trkpt><trkpt lat="38.82398659469169" lon="-9.260959595448991"><ele>300.0</ele><time>2026-05-01T08:41:02Z</time></trkpt><trkpt lat="38.82389969563592" lon="-9.260822225169136"><ele>300.0</ele><time>2026-05-01T08:41:03Z</time></trkpt><trkpt lat="38.82383467303772" lon="-9.260658633152946"><ele>300.0</ele><time>2026-05-01T08:41:04Z</time></trkpt><trkpt lat="38.82376186953058" lon="-9.260519125670541"><ele>300.0</ele><time>2026-05-01T08:41:05Z</time></trkpt><trkpt lat="38.82366307484763" lon="-9.260406262175085"><ele>300.0</ele><time>2026-05-01T08:41:06Z</time></trkpt><trkpt lat="38.82355525377318" lon="-9.260293665725417"><ele>300.0</ele><time>2026-05-01T08:41:07Z</time></trkpt><trkpt lat="38.823412975395115" lon="-9.260235053230717"><ele>300.0</ele><time>2026-05-01T08:41:08Z</time></trkpt><trkpt lat="38.82325457235173" lon="-9.260154405776067"><ele>300.0</ele><time>2026-05-01T08:41:09Z</time></trkpt><trkpt lat="38.82309903006913" lon="-9.260098275529588"><ele>300.0</ele><time>2026-05-01T08:41:10Z</time></trkpt><trkpt lat="38.8229722548197" lon="-9.260019703763133"><ele>300.0</ele><time>2026-05-01T08:41:11Z</time></trkpt><trkpt lat="38.82286927703701" lon="-9.259906326211453"><ele>300.0</ele><time>2026-05-01T08:41:12Z</time></trkpt><trkpt lat="38.82278108754333" lon="-9.25971765363092"><ele>300.0</ele><time>2026-05-01T08:41:13Z</time></trkpt><trkpt lat="38.82270841403569" lon="-9.259496399444458"><ele>300.6666666666667</ele><time>2026-05-01T08:41:14Z</time></trkpt><trkpt lat="38.82266403297377" lon="-9.259298290615426"><ele>301.33333333333337</ele><time>2026-05-01T08:41:15Z</time></trkpt><trkpt lat="38.8226023257661" lon="-9.259134362975265"><ele>302.0</ele><time>2026-05-01T08:41:16Z</time></trkpt><trkpt lat="38.8225486563377" lon="-9.2589532859044"><ele>299.33333333333337</ele><time>2026-05-01T08:41:17Z</time></trkpt><trkpt lat="38.8224921972634" lon="-9.258759686637113"><ele>296.6666666666667</ele><time>2026-05-01T08:41:18Z</time></trkpt><trkpt lat="38.82243609618756" lon="-9.25856928856771"><ele>294.0</ele><time>2026-05-01T08:41:19Z</time></trkpt><trkpt lat="38.822395181325795" lon="-9.258379740465722"><ele>294.0</ele><time>2026-05-01T08:41:20Z</time></trkpt><trkpt lat="38.82233857361696" lon="-9.25819876473435"><ele>294.0</ele><time>2026-05-01T08:41:21Z</time></trkpt><trkpt lat="38.82228256505177" lon="-9.258020018412191"><ele>294.0</ele><time>2026-05-01T08:41:22Z</time></trkpt><trkpt lat="38.8222136653857" lon="-9.257846876237759"><ele>291.6666666666667</ele><time>2026-05-01T08:41:23Z</time></trkpt><trkpt lat="38.82215800859287" lon="-9.257664783320896"><ele>289.33333333333337</ele><time>2026-05-01T08:41:24Z</time></trkpt><trkpt lat="38.822105310752505" lon="-9.257492371323819"><ele>287.0</ele><time>2026-05-01T08:41:25Z</time></trkpt><trkpt lat="38.82206232139637" lon="-9.257298058889248"><ele>286.0</ele><time>2026-05-01T08:41:26Z</time></trkpt><trkpt lat="38.821997307843176" lon="-9.257081370156419"><ele>285.0</ele><time>2026-05-01T08:41:27Z</time></trkpt><trkpt lat="38.82192040233131" lon="-9.256836791476559"><ele>284.0</ele><time>2026-05-01T08:41:28Z</time></trkpt><trkpt lat="38.82183750269302" lon="-9.256560253210182"><ele>286.0</ele><time>2026-05-01T08:41:29Z</time></trkpt><trkpt lat="38.82174016146165" lon="-9.256295533852322"><ele>288.0</ele><time>2026-05-01T08:41:30Z</time></trkpt><trkpt lat="38.82167015578841" lon="-9.25606613821187"><ele>290.0</ele><time>2026-05-01T08:41:31Z</time></trkpt><trkpt lat="38.821605410894506" lon="-9.255852860273468"><ele>290.0</ele><time>2026-05-01T08:41:32Z</time></trkpt><trkpt lat="38.8215436407862" lon="-9.255648764259885"><ele>290.0</ele><time>2026-05-01T08:41:33Z</time></trkpt><trkpt lat="38.82149836350764" lon="-9.255442116378756"><ele>290.0</ele><time>2026-05-01T08:41:34Z</time></trkpt><trkpt lat="38.82142935619195" lon="-9.255271424576122"><ele>289.5</ele><time>2026-05-01T08:41:35Z</time></trkpt><trkpt lat="38.82139022460166" lon="-9.255092504180556"><ele>289.0</ele><time>2026-05-01T08:41:36Z</time></trkpt><trkpt lat="38.821323079629686" lon="-9.254925051507934"><ele>288.5</ele><time>2026-05-01T08:41:37Z</time></trkpt><trkpt lat="38.821269101648305" lon="-9.254749127804368"><ele>288.0</ele><time>2026-05-01T08:41:38Z</time></trkpt><trkpt lat="38.821224944035954" lon="-9.254548409878074"><ele>287.75</ele><time>2026-05-01T08:41:39Z</time></trkpt><trkpt lat="38.82115818219125" lon="-9.25438399031686"><ele>287.5</ele><time>2026-05-01T08:41:40Z</time></trkpt><trkpt lat="38.821108526302" lon="-9.254220483667865"><ele>287.25</ele><time>2026-05-01T08:41:41Z</time></trkpt><trkpt lat="38.82105880171311" lon="-9.25407193438568"><ele>287.0</ele><time>2026-05-01T08:41:42Z</time></trkpt><trkpt lat="38.82100503492155" lon="-9.253935194923905"><ele>287.25</ele><time>2026-05-01T08:41:43Z</time></trkpt><trkpt lat="38.820942830833765" lon="-9.253813827368104"><ele>287.5</ele><time>2026-05-01T08:41:44Z</time></trkpt><trkpt lat="38.82086144734482" lon="-9.253718487908161"><ele>287.75</ele><time>2026-05-01T08:41:45Z</time></trkpt><trkpt lat="38.820753504235164" lon="-9.253684749849446"><ele>288.0</ele><time>2026-05-01T08:41:46Z</time></trkpt><trkpt lat="38.82061039304906" lon="-9.253630686303625"><ele>288.0</ele><time>2026-05-01T08:41:47Z</time></trkpt><trkpt lat="38.820486413439085" lon="-9.253567808449468"><ele>288.0</ele><time>2026-05-01T08:41:48Z</time></trkpt><trkpt lat="38.820359681643886" lon="-9.253539959858259"><ele>288.0</ele><time>2026-05-01T08:41:49Z</time></trkpt><trkpt lat="38.820242700864945" lon="-9.253498655965913"><ele>288.0</ele><time>2026-05-01T08:41:50Z</time></trkpt><trkpt lat="38.82013906151767" lon="-9.253466390424862"><ele>287.6</ele><time>2026-05-01T08:41:51Z</time></trkpt><trkpt lat="38.820038180622326" lon="-9.253404600338252"><ele>287.20000000000005</ele><time>2026-05-01T08:41:52Z</time></trkpt><trkpt lat="38.81995754429246" lon="-9.253287556466093"><ele>286.8</ele><time>2026-05-01T08:41:53Z</time></trkpt><trkpt lat="38.81991236622204" lon="-9.253170622978633"><ele>286.40000000000003</ele><time>2026-05-01T08:41:54Z</time></trkpt><trkpt lat="38.819874130482745" lon="-9.253052164410104"><ele>286.0</ele><time>2026-05-01T08:41:55Z</time></trkpt><trkpt lat="38.81982199784145" lon="-9.252944869513255"><ele>286.0</ele><time>2026-05-01T08:41:56Z</time></trkpt><trkpt lat="38.81975299105089" lon="-9.252829937935235"><ele>286.0</ele><time>2026-05-01T08:41:57Z</time></trkpt><trkpt lat="38.81967170657804" lon="-9.252734962351758"><ele>286.0</ele><time>2026-05-01T08:41:58Z</time></trkpt><trkpt lat="38.81958698701402" lon="-9.252673975649078"><ele>286.0</ele><time>2026-05-01T08:41:59Z</time></trkpt><trkpt lat="38.81947961554529" lon="-9.252633356528579"><ele>286.0</ele><time>2026-05-01T08:42:00Z</time></trkpt><trkpt lat="38.81935579692745" lon="-9.25266986616782"><ele>284.6</ele><time>2026-05-01T08:42:01Z</time></trkpt><trkpt lat="38.81925881162307" lon="-9.252740899344635"><ele>283.20000000000005</ele><time>2026-05-01T08:42:02Z</time></trkpt><trkpt lat="38.819168473130496" lon="-9.252799518424538"><ele>281.79999999999995</ele><time>2026-05-01T08:42:03Z</time></trkpt><trkpt lat="38.819080376071696" lon="-9.252856541493445"><ele>280.4</ele><time>2026-05-01T08:42:04Z</time></trkpt><trkpt lat="38.818981994344675" lon="-9.252910343907153"><ele>279.0</ele><time>2026-05-01T08:42:05Z</time></trkpt><trkpt lat="38.81888491899046" lon="-9.25295801881462"><ele>279.0</ele><time>2026-05-01T08:42:06Z</time></trkpt><trkpt lat="38.818792049573666" lon="-9.25299785553652"><ele>279.0</ele><time>2026-05-01T08:42:07Z</time></trkpt><trkpt lat="38.81868660540182" lon="-9.253039874712991"><ele>279.0</ele><time>2026-05-01T08:42:08Z</time></trkpt><trkpt lat="38.81857974541233" lon="-9.253052460853704"><ele>279.0</ele><time>2026-05-01T08:42:09Z</time></trkpt><trkpt lat="38.81847487201465" lon="-9.253045731227802"><ele>279.0</ele><time>2026-05-01T08:42:10Z</time></trkpt><trkpt lat="38.81837060414615" lon="-9.25303350487238"><ele>278.59999999999997</ele><time>2026-05-01T08:42:11Z</time></trkpt><trkpt lat="38.81826765460664" lon="-9.253027652419155"><ele>278.2</ele><time>2026-05-01T08:42:12Z</time></trkpt><trkpt lat="38.818169668949736" lon="-9.253023723328651"><ele>277.79999999999995</ele><time>2026-05-01T08:42:13Z</time></trkpt><trkpt lat="38.81807380323991" lon="-9.253006584008071"><ele>277.4</ele><time>2026-05-01T08:42:14Z</time></trkpt><trkpt lat="38.81799059212173" lon="-9.252954086416485"><ele>277.0</ele><time>2026-05-01T08:42:15Z</time></trkpt><trkpt lat="38.817914658142215" lon="-9.252888821712187"><ele>277.0</ele><time>2026-05-01T08:42:16Z</time></trkpt><trkpt lat="38.81783951041002" lon="-9.25282823145098"><ele>277.0</ele><time>2026-05-01T08:42:17Z</time></trkpt><trkpt lat="38.817751861117245" lon="-9.25280911660663"><ele>277.0</ele><time>2026-05-01T08:42:18Z</time></trkpt><trkpt lat="38.8176614677999" lon="-9.252844250874288"><ele>277.0</ele><time>2026-05-01T08:42:19Z</time></trkpt><trkpt lat="38.81758650948134" lon="-9.252921723302444"><ele>277.0</ele><time>2026-05-01T08:42:20Z</time></trkpt><trkpt lat="38.81752469068675" lon="-9.253022291774137"><ele>274.75</ele><time>2026-05-01T08:42:21Z</time></trkpt><trkpt lat="38.817489313707455" lon="-9.253159027966117"><ele>272.5</ele><time>2026-05-01T08:42:22Z</time></trkpt><trkpt lat="38.81747674071834" lon="-9.253316071956773"><ele>270.25</ele><time>2026-05-01T08:42:23Z</time></trkpt><trkpt lat="38.817486574331646" lon="-9.25346819046995"><ele>268.0</ele><time>2026-05-01T08:42:24Z</time></trkpt><trkpt lat="38.81750290091908" lon="-9.25360955062302"><ele>268.0</ele><time>2026-05-01T08:42:25Z</time></trkpt><trkpt lat="38.81751480477468" lon="-9.253755561373866"><ele>268.0</ele><time>2026-05-01T08:42:26Z</time></trkpt><trkpt lat="38.81752361392002" lon="-9.25390460817329"><ele>268.0</ele><time>2026-05-01T08:42:27Z</time></trkpt><trkpt lat="38.817516456688864" lon="-9.254044831634268"><ele>268.0</ele><time>2026-05-01T08:42:28Z</time></trkpt><trkpt lat="38.81749136877286" lon="-9.254172968315421"><ele>268.0</ele><time>2026-05-01T08:42:29Z</time></trkpt><trkpt lat="38.81745819691578" lon="-9.25428963505814"><ele>267.2</ele><time>2026-05-01T08:42:30Z</time></trkpt><trkpt lat="38.817411654249376" lon="-9.254397589934106"><ele>266.4</ele><time>2026-05-01T08:42:31Z</time></trkpt><trkpt lat="38.81733392944427" lon="-9.254478901574789"><ele>265.59999999999997</ele><time>2026-05-01T08:42:32Z</time></trkpt><trkpt lat="38.8172466960798" lon="-9.254527631443548"><ele>264.8</ele><time>2026-05-01T08:42:33Z</time></trkpt><trkpt lat="38.81714819786643" lon="-9.254524478650755"><ele>264.0</ele><time>2026-05-01T08:42:34Z</time></trkpt><trkpt lat="38.817056007830324" lon="-9.254508920631396"><ele>264.0</ele><time>2026-05-01T08:42:35Z</time></trkpt><trkpt lat="38.81696616680571" lon="-9.254480048069041"><ele>264.0</ele><time>2026-05-01T08:42:36Z</time></trkpt><trkpt lat="38.816885431354684" lon="-9.254452367988378"><ele>264.0</ele><time>2026-05-01T08:42:37Z</time></trkpt><trkpt lat="38.8167963036136" lon="-9.254434734798723"><ele>264.0</ele><time>2026-05-01T08:42:38Z</time></trkpt><trkpt lat="38.81671108404922" lon="-9.254411530265244"><ele>264.0</ele><time>2026-05-01T08:42:39Z</time></trkpt><trkpt lat="38.81662457773511" lon="-9.254395387698274"><ele>264.0</ele><time>2026-05-01T08:42:40Z</time></trkpt><trkpt lat="38.81653126982557" lon="-9.254381507398556"><ele>262.4</ele><time>2026-05-01T08:42:41Z</time></trkpt><trkpt lat="38.81643742766248" lon="-9.254380835362976"><ele>260.79999999999995</ele><time>2026-05-01T08:42:42Z</time></trkpt><trkpt lat="38.81633971163692" lon="-9.254419060940126"><ele>259.20000000000005</ele><time>2026-05-01T08:42:43Z</time></trkpt><trkpt lat="38.81625391695918" lon="-9.254469407256046"><ele>257.6</ele><time>2026-05-01T08:42:44Z</time></trkpt><trkpt lat="38.81616912865794" lon="-9.254516628039843"><ele>256.0</ele><time>2026-05-01T08:42:45Z</time></trkpt><trkpt lat="38.81607674269537" lon="-9.25456559457518"><ele>256.8</ele><time>2026-05-01T08:42:46Z</time></trkpt><trkpt lat="38.81598642959497" lon="-9.254615328033054"><ele>257.6</ele><time>2026-05-01T08:42:47Z</time></trkpt><trkpt lat="38.81589864539014" lon="-9.254660430939595"><ele>258.4</ele><time>2026-05-01T08:42:48Z</time></trkpt><trkpt lat="38.81581494350505" lon="-9.254700383871732"><ele>259.2</ele><time>2026-05-01T08:42:49Z</time></trkpt><trkpt lat="38.81572744548648" lon="-9.254733651472678"><ele>260.0</ele><time>2026-05-01T08:42:50Z</time></trkpt><trkpt lat="38.815646556355574" lon="-9.2547718868479"><ele>258.6666666666667</ele><time>2026-05-01T08:42:51Z</time></trkpt><trkpt lat="38.815567919341134" lon="-9.254793767985515"><ele>257.33333333333337</ele><time>2026-05-01T08:42:52Z</time></trkpt><trkpt lat="38.81549135512581" lon="-9.254811336615"><ele>256.0</ele><time>2026-05-01T08:42:53Z</time></trkpt><trkpt lat="38.8154161332203" lon="-9.25483545440915"><ele>254.66666666666669</ele><time>2026-05-01T08:42:54Z</time></trkpt><trkpt lat="38.81534277980168" lon="-9.254855508344736"><ele>253.33333333333334</ele><time>2026-05-01T08:42:55Z</time></trkpt><trkpt lat="38.81527081266723" lon="-9.254872715610023"><ele>252.0</ele><time>2026-05-01T08:42:56Z</time></trkpt><trkpt lat="38.81519265984815" lon="-9.254887019437996"><ele>251.5</ele><time>2026-05-01T08:42:57Z</time></trkpt><trkpt lat="38.81510689105108" lon="-9.25489354835863"><ele>251.0</ele><time>2026-05-01T08:42:58Z</time></trkpt><trkpt lat="38.81501328397602" lon="-9.254891274140133"><ele>250.5</ele><time>2026-05-01T08:42:59Z</time></trkpt><trkpt lat="38.81493472676124" lon="-9.254863350228085"><ele>250.0</ele><time>2026-05-01T08:43:00Z</time></trkpt><trkpt lat="38.81486206521312" lon="-9.254841435290922"><ele>249.5</ele><time>2026-05-01T08:43:01Z</time></trkpt><trkpt lat="38.81478227620725" lon="-9.254810989561168"><ele>249.0</ele><time>2026-05-01T08:43:02Z</time></trkpt><trkpt lat="38.81469876817092" lon="-9.254778626707877"><ele>249.75</ele><time>2026-05-01T08:43:03Z</time></trkpt><trkpt lat="38.81460142309401" lon="-9.254718432836695"><ele>250.5</ele><time>2026-05-01T08:43:04Z</time></trkpt><trkpt lat="38.8144811873643" lon="-9.254643495536886"><ele>251.25</ele><time>2026-05-01T08:43:05Z</time></trkpt><trkpt lat="38.814361177211445" lon="-9.254623729856547"><ele>252.0</ele><time>2026-05-01T08:43:06Z</time></trkpt><trkpt lat="38.81426358412579" lon="-9.254575152267716"><ele>252.0</ele><time>2026-05-01T08:43:07Z</time></trkpt><trkpt lat="38.814183592991824" lon="-9.254526239284646"><ele>252.0</ele><time>2026-05-01T08:43:08Z</time></trkpt><trkpt lat="38.81411066203876" lon="-9.254481745632194"><ele>252.0</ele><time>2026-05-01T08:43:09Z</time></trkpt><trkpt lat="38.81404587576828" lon="-9.254445578339487"><ele>252.0</ele><time>2026-05-01T08:43:10Z</time></trkpt><trkpt lat="38.813984252266955" lon="-9.254410832715818"><ele>252.0</ele><time>2026-05-01T08:43:11Z</time></trkpt><trkpt lat="38.81391522752137" lon="-9.254355754045447"><ele>252.0</ele><time>2026-05-01T08:43:12Z</time></trkpt><trkpt lat="38.813845775767426" lon="-9.254319008283096"><ele>252.0</ele><time>2026-05-01T08:43:13Z</time></trkpt><trkpt lat="38.81374699769297" lon="-9.254269334903011"><ele>252.0</ele><time>2026-05-01T08:43:14Z</time></trkpt><trkpt lat="38.81364070686256" lon="-9.254239999847991"><ele>252.0</ele><time>2026-05-01T08:43:15Z</time></trkpt><trkpt lat="38.81354639584493" lon="-9.254213178167035"><ele>252.0</ele><time>2026-05-01T08:43:16Z</time></trkpt><trkpt lat="38.81344960796064" lon="-9.25415701781388"><ele>252.0</ele><time>2026-05-01T08:43:17Z</time></trkpt><trkpt lat="38.813359182936274" lon="-9.254105253574062"><ele>251.0</ele><time>2026-05-01T08:43:18Z</time></trkpt><trkpt lat="38.81326624494829" lon="-9.25407720989092"><ele>250.0</ele><time>2026-05-01T08:43:19Z</time></trkpt><trkpt lat="38.81318424514197" lon="-9.25407661982285"><ele>249.0</ele><time>2026-05-01T08:43:20Z</time></trkpt><trkpt lat="38.81311389827813" lon="-9.254115832153422"><ele>248.0</ele><time>2026-05-01T08:43:21Z</time></trkpt><trkpt lat="38.813049317960825" lon="-9.254176178691665"><ele>247.0</ele><time>2026-05-01T08:43:22Z</time></trkpt><trkpt lat="38.812985785197895" lon="-9.254255559615169"><ele>246.0</ele><time>2026-05-01T08:43:23Z</time></trkpt><trkpt lat="38.812939983995115" lon="-9.254318141937532"><ele>246.0</ele><time>2026-05-01T08:43:24Z</time></trkpt><trkpt lat="38.81288123947924" lon="-9.254390904366954"><ele>246.0</ele><time>2026-05-01T08:43:26Z</time></trkpt><trkpt lat="38.81293694267472" lon="-9.254643655017745"><ele>246.0</ele><time>2026-05-01T08:43:28Z</time></trkpt><trkpt lat="38.812938924186696" lon="-9.25478343263886"><ele>246.0</ele><time>2026-05-01T08:43:29Z</time></trkpt><trkpt lat="38.812963769463" lon="-9.254921606731715"><ele>245.66666666666666</ele><time>2026-05-01T08:43:30Z</time></trkpt><trkpt lat="38.81298109373786" lon="-9.255011786557265"><ele>245.33333333333331</ele><time>2026-05-01T08:43:31Z</time></trkpt><trkpt lat="38.812987096846335" lon="-9.255098787974937"><ele>245.0</ele><time>2026-05-01T08:43:32Z</time></trkpt><trkpt lat="38.81299694988265" lon="-9.255185337425685"><ele>244.66666666666666</ele><time>2026-05-01T08:43:33Z</time></trkpt><trkpt lat="38.81300020077474" lon="-9.255322833089416"><ele>244.33333333333331</ele><time>2026-05-01T08:43:35Z</time></trkpt><trkpt lat="38.813009565006816" lon="-9.255413304173628"><ele>244.0</ele><time>2026-05-01T08:43:36Z</time></trkpt><trkpt lat="38.813014285013445" lon="-9.255527804195697"><ele>243.6</ele><time>2026-05-01T08:43:37Z</time></trkpt><trkpt lat="38.813038598961704" lon="-9.255647718229463"><ele>243.2</ele><time>2026-05-01T08:43:38Z</time></trkpt><trkpt lat="38.81306491031195" lon="-9.255754219248235"><ele>242.79999999999998</ele><time>2026-05-01T08:43:39Z</time></trkpt><trkpt lat="38.81308931661335" lon="-9.255853009095933"><ele>242.39999999999998</ele><time>2026-05-01T08:43:40Z</time></trkpt><trkpt lat="38.81303329652586" lon="-9.255995755604642"><ele>242.0</ele><time>2026-05-01T08:43:41Z</time></trkpt><trkpt lat="38.81304737722067" lon="-9.256099308944794"><ele>242.00000000000003</ele><time>2026-05-01T08:43:42Z</time></trkpt><trkpt lat="38.81306939641424" lon="-9.25621132226887"><ele>242.0</ele><time>2026-05-01T08:43:43Z</time></trkpt><trkpt lat="38.81308440804789" lon="-9.25631260361159"><ele>242.0</ele><time>2026-05-01T08:43:44Z</time></trkpt><trkpt lat="38.81308910996308" lon="-9.256419838806382"><ele>242.0</ele><time>2026-05-01T08:43:45Z</time></trkpt><trkpt lat="38.81310642338932" lon="-9.256526766065775"><ele>242.00000000000003</ele><time>2026-05-01T08:43:46Z</time></trkpt><trkpt lat="38.81312155316338" lon="-9.25663120967729"><ele>242.0</ele><time>2026-05-01T08:43:47Z</time></trkpt><trkpt lat="38.81313153739221" lon="-9.256732365703428"><ele>241.57142857142856</ele><time>2026-05-01T08:43:48Z</time></trkpt><trkpt lat="38.81314834854931" lon="-9.25682971284905"><ele>241.1428571428571</ele><time>2026-05-01T08:43:49Z</time></trkpt><trkpt lat="38.813155051401004" lon="-9.256921743288574"><ele>240.71428571428572</ele><time>2026-05-01T08:43:50Z</time></trkpt><trkpt lat="38.813169141507466" lon="-9.257007717553122"><ele>240.28571428571428</ele><time>2026-05-01T08:43:51Z</time></trkpt><trkpt lat="38.81318314403723" lon="-9.2571007584576"><ele>239.85714285714286</ele><time>2026-05-01T08:43:52Z</time></trkpt><trkpt lat="38.81319277540143" lon="-9.257184042938556"><ele>239.42857142857144</ele><time>2026-05-01T08:43:53Z</time></trkpt><trkpt lat="38.813197960574875" lon="-9.25726538070427"><ele>239.00000000000003</ele><time>2026-05-01T08:43:54Z</time></trkpt><trkpt lat="38.81320643580963" lon="-9.257358487798154"><ele>239.0</ele><time>2026-05-01T08:43:55Z</time></trkpt><trkpt lat="38.813219678794646" lon="-9.257469353228819"><ele>238.99999999999997</ele><time>2026-05-01T08:43:56Z</time></trkpt><trkpt lat="38.81323038708414" lon="-9.257565360744472"><ele>238.99999999999997</ele><time>2026-05-01T08:43:57Z</time></trkpt><trkpt lat="38.81322012737066" lon="-9.257720865534967"><ele>239.0</ele><time>2026-05-01T08:43:59Z</time></trkpt><trkpt lat="38.81315768123366" lon="-9.257803696327445"><ele>239.0</ele><time>2026-05-01T08:44:00Z</time></trkpt><trkpt lat="38.81309320726179" lon="-9.257858789879567"><ele>239.00000000000003</ele><time>2026-05-01T08:44:01Z</time></trkpt><trkpt lat="38.81303523332765" lon="-9.257909089248038"><ele>239.0</ele><time>2026-05-01T08:44:02Z</time></trkpt><trkpt lat="38.812984753302686" lon="-9.257977086707918"><ele>239.0</ele><time>2026-05-01T08:44:03Z</time></trkpt><trkpt lat="38.81294442628268" lon="-9.258073885059707"><ele>239.0</ele><time>2026-05-01T08:44:04Z</time></trkpt><trkpt lat="38.81290633603489" lon="-9.258188534714842"><ele>239.00000000000003</ele><time>2026-05-01T08:44:05Z</time></trkpt><trkpt lat="38.81287722322568" lon="-9.25829238799674"><ele>239.0</ele><time>2026-05-01T08:44:06Z</time></trkpt><trkpt lat="38.812868824997715" lon="-9.258375073130091"><ele>239.50000000000003</ele><time>2026-05-01T08:44:07Z</time></trkpt><trkpt lat="38.81284928200593" lon="-9.258452712932584"><ele>240.0</ele><time>2026-05-01T08:44:08Z</time></trkpt><trkpt lat="38.81279515671707" lon="-9.25852298591323"><ele>240.5</ele><time>2026-05-01T08:44:09Z</time></trkpt><trkpt lat="38.8127250407255" lon="-9.258560428344037"><ele>241.0</ele><time>2026-05-01T08:44:10Z</time></trkpt><trkpt lat="38.81264462696789" lon="-9.258604482610533"><ele>241.50000000000003</ele><time>2026-05-01T08:44:11Z</time></trkpt><trkpt lat="38.812588657362014" lon="-9.258653698178032"><ele>242.0</ele><time>2026-05-01T08:44:12Z</time></trkpt><trkpt lat="38.812511793811204" lon="-9.25873842794475"><ele>242.66666666666669</ele><time>2026-05-01T08:44:14Z</time></trkpt><trkpt lat="38.81244339059113" lon="-9.258819990554741"><ele>243.33333333333334</ele><time>2026-05-01T08:45:39Z</time></trkpt><trkpt lat="38.81238660539688" lon="-9.25886558531591"><ele>244.0</ele><time>2026-05-01T08:45:44Z</time></trkpt><trkpt lat="38.81230397911026" lon="-9.258937973373463"><ele>244.66666666666669</ele><time>2026-05-01T08:46:10Z</time></trkpt><trkpt lat="38.81225423160926" lon="-9.259055839437668"><ele>245.33333333333334</ele><time>2026-05-01T08:46:12Z</time></trkpt><trkpt lat="38.81221080276926" lon="-9.259137527465631"><ele>246.0</ele><time>2026-05-01T08:46:13Z</time></trkpt><trkpt lat="38.81215827978355" lon="-9.25920090122039"><ele>246.14285714285717</ele><time>2026-05-01T08:46:14Z</time></trkpt><trkpt lat="38.81211444578261" lon="-9.259261161837562"><ele>246.28571428571428</ele><time>2026-05-01T08:46:15Z</time></trkpt><trkpt lat="38.8120505742818" lon="-9.259317881001888"><ele>246.42857142857144</ele><time>2026-05-01T08:46:16Z</time></trkpt><trkpt lat="38.81200488753616" lon="-9.259379307772276"><ele>246.57142857142858</ele><time>2026-05-01T08:46:17Z</time></trkpt><trkpt lat="38.811979831687786" lon="-9.259460783205824"><ele>246.71428571428572</ele><time>2026-05-01T08:46:18Z</time></trkpt><trkpt lat="38.811951911605156" lon="-9.259535871816922"><ele>246.85714285714286</ele><time>2026-05-01T08:46:19Z</time></trkpt><trkpt lat="38.81185711786957" lon="-9.259575387907622"><ele>247.0</ele><time>2026-05-01T08:46:22Z</time></trkpt><trkpt lat="38.811748351522546" lon="-9.259668111124066"><ele>246.8</ele><time>2026-05-01T08:46:24Z</time></trkpt><trkpt lat="38.81176879922639" lon="-9.259786414470591"><ele>246.6</ele><time>2026-05-01T08:46:25Z</time></trkpt><trkpt lat="38.81175568953717" lon="-9.25990702904357"><ele>246.40000000000003</ele><time>2026-05-01T08:46:26Z</time></trkpt><trkpt lat="38.81176839369383" lon="-9.260004560065752"><ele>246.20000000000002</ele><time>2026-05-01T08:46:27Z</time></trkpt><trkpt lat="38.811762954346" lon="-9.260091125929314"><ele>246.0</ele><time>2026-05-01T08:46:28Z</time></trkpt><trkpt lat="38.81170098367614" lon="-9.260291428608454"><ele>246.0</ele><time>2026-05-01T08:46:30Z</time></trkpt><trkpt lat="38.811655811139644" lon="-9.260399563880489"><ele>246.0</ele><time>2026-05-01T08:46:31Z</time></trkpt><trkpt lat="38.81161603567117" lon="-9.260506369939753"><ele>246.0</ele><time>2026-05-01T08:46:32Z</time></trkpt><trkpt lat="38.81158415447526" lon="-9.260605424903327"><ele>246.0</ele><time>2026-05-01T08:46:33Z</time></trkpt><trkpt lat="38.81154719964804" lon="-9.260702536265166"><ele>246.0</ele><time>2026-05-01T08:46:34Z</time></trkpt><trkpt lat="38.811502478988125" lon="-9.260803188159038"><ele>246.0</ele><time>2026-05-01T08:46:35Z</time></trkpt><trkpt lat="38.811456009340645" lon="-9.260922173156803"><ele>245.0</ele><time>2026-05-01T08:46:36Z</time></trkpt><trkpt lat="38.81141821468551" lon="-9.261032909714173"><ele>244.00000000000003</ele><time>2026-05-01T08:46:37Z</time></trkpt><trkpt lat="38.81137881994486" lon="-9.261136185381112"><ele>243.00000000000003</ele><time>2026-05-01T08:46:38Z</time></trkpt><trkpt lat="38.81134002924908" lon="-9.261222920484595"><ele>242.0</ele><time>2026-05-01T08:46:39Z</time></trkpt><trkpt lat="38.811307402181505" lon="-9.261297176926231"><ele>241.0</ele><time>2026-05-01T08:46:40Z</time></trkpt><trkpt lat="38.81129512499488" lon="-9.261465395540037"><ele>239.60000000000002</ele><time>2026-05-01T08:46:42Z</time></trkpt><trkpt lat="38.811330182207755" lon="-9.261593505584122"><ele>238.20000000000002</ele><time>2026-05-01T08:46:43Z</time></trkpt><trkpt lat="38.81135995506192" lon="-9.26174493222023"><ele>236.79999999999998</ele><time>2026-05-01T08:46:44Z</time></trkpt><trkpt lat="38.81138944801967" lon="-9.261878246884251"><ele>235.39999999999998</ele><time>2026-05-01T08:46:45Z</time></trkpt><trkpt lat="38.81142506252592" lon="-9.261989512359813"><ele>234.0</ele><time>2026-05-01T08:46:46Z</time></trkpt><trkpt lat="38.811482006555124" lon="-9.262089744065666"><ele>234.0</ele><time>2026-05-01T08:46:47Z</time></trkpt><trkpt lat="38.81154655375692" lon="-9.26218848253619"><ele>233.99999999999997</ele><time>2026-05-01T08:46:48Z</time></trkpt><trkpt lat="38.8116037583264" lon="-9.262269982518013"><ele>233.99999999999997</ele><time>2026-05-01T08:46:49Z</time></trkpt><trkpt lat="38.81164481287432" lon="-9.262357223141706"><ele>234.0</ele><time>2026-05-01T08:46:50Z</time></trkpt><trkpt lat="38.81165235180685" lon="-9.26247849606669"><ele>234.0</ele><time>2026-05-01T08:46:51Z</time></trkpt><trkpt lat="38.8116430285699" lon="-9.262604461726081"><ele>234.0</ele><time>2026-05-01T08:46:52Z</time></trkpt><trkpt lat="38.81162464376485" lon="-9.262726775190282"><ele>233.99999999999997</ele><time>2026-05-01T08:46:53Z</time></trkpt><trkpt lat="38.81159214837594" lon="-9.26283218375032"><ele>233.99999999999997</ele><time>2026-05-01T08:46:54Z</time></trkpt><trkpt lat="38.81154312572727" lon="-9.262942039087418"><ele>234.0</ele><time>2026-05-01T08:46:55Z</time></trkpt><trkpt lat="38.81149795291514" lon="-9.26304074449003"><ele>234.0</ele><time>2026-05-01T08:46:56Z</time></trkpt><trkpt lat="38.81146063831921" lon="-9.263132164830655"><ele>234.0</ele><time>2026-05-01T08:46:57Z</time></trkpt><trkpt lat="38.811435104562094" lon="-9.263220428440208"><ele>234.0</ele><time>2026-05-01T08:46:58Z</time></trkpt><trkpt lat="38.81138429226619" lon="-9.263286419802107"><ele>234.0</ele><time>2026-05-01T08:46:59Z</time></trkpt><trkpt lat="38.81134295335667" lon="-9.263357848535739"><ele>234.0</ele><time>2026-05-01T08:47:00Z</time></trkpt><trkpt lat="38.8112756791113" lon="-9.263506777202121"><ele>234.0</ele><time>2026-05-01T08:47:02Z</time></trkpt><trkpt lat="38.81125029656845" lon="-9.263604164418828"><ele>234.0</ele><time>2026-05-01T08:47:03Z</time></trkpt><trkpt lat="38.81123187908293" lon="-9.26377300142918"><ele>234.0</ele><time>2026-05-01T08:47:05Z</time></trkpt><trkpt lat="38.81120815935062" lon="-9.263928992232016"><ele>233.99999999999997</ele><time>2026-05-01T08:47:07Z</time></trkpt><trkpt lat="38.81116608198351" lon="-9.26404836630956"><ele>233.99999999999997</ele><time>2026-05-01T08:47:09Z</time></trkpt><trkpt lat="38.81113524582723" lon="-9.264179609919013"><ele>234.0</ele><time>2026-05-01T08:47:11Z</time></trkpt><trkpt lat="38.81111101486247" lon="-9.2642961383156"><ele>234.0</ele><time>2026-05-01T08:47:13Z</time></trkpt><trkpt lat="38.81115630064709" lon="-9.264360547291261"><ele>233.33333333333334</ele><time>2026-05-01T08:49:55Z</time></trkpt><trkpt lat="38.8112308138792" lon="-9.264425977334394"><ele>232.66666666666669</ele><time>2026-05-01T08:50:00Z</time></trkpt><trkpt lat="38.81128905267784" lon="-9.26449380859743"><ele>232.0</ele><time>2026-05-01T08:50:02Z</time></trkpt><trkpt lat="38.81132489751226" lon="-9.264575781555509"><ele>231.33333333333334</ele><time>2026-05-01T08:50:04Z</time></trkpt><trkpt lat="38.81136790018079" lon="-9.264635630242541"><ele>230.66666666666669</ele><time>2026-05-01T08:50:07Z</time></trkpt><trkpt lat="38.811439398234725" lon="-9.26476458199645"><ele>230.0</ele><time>2026-05-01T08:50:10Z</time></trkpt><trkpt lat="38.811490574829534" lon="-9.264839560664214"><ele>229.5</ele><time>2026-05-01T08:50:11Z</time></trkpt><trkpt lat="38.81157097693719" lon="-9.264962635667121"><ele>229.0</ele><time>2026-05-01T08:50:13Z</time></trkpt><trkpt lat="38.811689352348935" lon="-9.265057221172615"><ele>228.5</ele><time>2026-05-01T08:50:14Z</time></trkpt><trkpt lat="38.81176218477864" lon="-9.265149149820656"><ele>228.0</ele><time>2026-05-01T08:50:15Z</time></trkpt><trkpt lat="38.81184127975367" lon="-9.26520653779831"><ele>228.0</ele><time>2026-05-01T08:50:16Z</time></trkpt><trkpt lat="38.81189068372291" lon="-9.26525723784157"><ele>228.0</ele><time>2026-05-01T08:50:17Z</time></trkpt><trkpt lat="38.811953549393245" lon="-9.265346674542839"><ele>228.0</ele><time>2026-05-01T08:50:19Z</time></trkpt><trkpt lat="38.812005306294786" lon="-9.265435310181859"><ele>228.0</ele><time>2026-05-01T08:50:21Z</time></trkpt><trkpt lat="38.8119974532698" lon="-9.265526173693596"><ele>228.0</ele><time>2026-05-01T08:51:11Z</time></trkpt><trkpt lat="38.81205216660666" lon="-9.265573420388083"><ele>228.0</ele><time>2026-05-01T08:51:45Z</time></trkpt><trkpt lat="38.81210151896378" lon="-9.265692265694675"><ele>227.2</ele><time>2026-05-01T08:51:47Z</time></trkpt><trkpt lat="38.81211427644352" lon="-9.26579776961753"><ele>226.4</ele><time>2026-05-01T08:51:49Z</time></trkpt><trkpt lat="38.81214159449415" lon="-9.265909533829857"><ele>225.59999999999997</ele><time>2026-05-01T08:51:51Z</time></trkpt><trkpt lat="38.8121792211578" lon="-9.26602393618528"><ele>224.79999999999998</ele><time>2026-05-01T08:51:53Z</time></trkpt><trkpt lat="38.81224101725651" lon="-9.266144200197752"><ele>224.0</ele><time>2026-05-01T08:51:55Z</time></trkpt><trkpt lat="38.81231604999077" lon="-9.26623876987386"><ele>224.0</ele><time>2026-05-01T08:51:57Z</time></trkpt><trkpt lat="38.81241699374615" lon="-9.266296241498772"><ele>223.99999999999997</ele><time>2026-05-01T08:51:59Z</time></trkpt><trkpt lat="38.812496597866264" lon="-9.266357823339275"><ele>223.99999999999997</ele><time>2026-05-01T08:52:01Z</time></trkpt><trkpt lat="38.81258213873107" lon="-9.266416894994508"><ele>224.0</ele><time>2026-05-01T08:52:03Z</time></trkpt><trkpt lat="38.81267455846632" lon="-9.266462136811764"><ele>224.0</ele><time>2026-05-01T08:52:05Z</time></trkpt><trkpt lat="38.812755963797755" lon="-9.26653826062772"><ele>225.79999999999998</ele><time>2026-05-01T08:52:07Z</time></trkpt><trkpt lat="38.81283534570242" lon="-9.266619083308585"><ele>227.59999999999997</ele><time>2026-05-01T08:52:09Z</time></trkpt><trkpt lat="38.812917001250085" lon="-9.266710476759489"><ele>229.4</ele><time>2026-05-01T08:52:11Z</time></trkpt><trkpt lat="38.81296285464188" lon="-9.266824873980678"><ele>231.2</ele><time>2026-05-01T08:52:13Z</time></trkpt><trkpt lat="38.81301320561021" lon="-9.266964917567412"><ele>233.0</ele><time>2026-05-01T08:52:15Z</time></trkpt><trkpt lat="38.81304286801406" lon="-9.267110032614015"><ele>233.0</ele><time>2026-05-01T08:52:17Z</time></trkpt><trkpt lat="38.813071326121594" lon="-9.267184141999044"><ele>233.0</ele><time>2026-05-01T08:52:18Z</time></trkpt><trkpt lat="38.813066307633726" lon="-9.267354952612168"><ele>233.0</ele><time>2026-05-01T08:52:20Z</time></trkpt><trkpt lat="38.81306939247824" lon="-9.267437400937268"><ele>233.0</ele><time>2026-05-01T08:52:21Z</time></trkpt><trkpt lat="38.813055095459575" lon="-9.267597580895893"><ele>233.0</ele><time>2026-05-01T08:52:23Z</time></trkpt><trkpt lat="38.81300569561223" lon="-9.267740496803201"><ele>234.50000000000003</ele><time>2026-05-01T08:52:25Z</time></trkpt><trkpt lat="38.812975766258575" lon="-9.267818599149974"><ele>236.0</ele><time>2026-05-01T08:52:26Z</time></trkpt><trkpt lat="38.812940405507064" lon="-9.26789228449254"><ele>237.5</ele><time>2026-05-01T08:52:27Z</time></trkpt><trkpt lat="38.81287304381172" lon="-9.268013317978738"><ele>239.0</ele><time>2026-05-01T08:52:29Z</time></trkpt><trkpt lat="38.812814755800815" lon="-9.268061717652866"><ele>240.50000000000003</ele><time>2026-05-01T08:52:30Z</time></trkpt><trkpt lat="38.81275213827707" lon="-9.268112648890778"><ele>242.0</ele><time>2026-05-01T08:52:31Z</time></trkpt><trkpt lat="38.812688980406364" lon="-9.268164328312437"><ele>243.8</ele><time>2026-05-01T08:52:32Z</time></trkpt><trkpt lat="38.812629690960385" lon="-9.26822009370278"><ele>245.6</ele><time>2026-05-01T08:52:33Z</time></trkpt><trkpt lat="38.81256241206724" lon="-9.268266212745255"><ele>247.40000000000003</ele><time>2026-05-01T08:52:34Z</time></trkpt><trkpt lat="38.81250363639884" lon="-9.268312161938463"><ele>249.20000000000002</ele><time>2026-05-01T08:52:35Z</time></trkpt><trkpt lat="38.81238419330901" lon="-9.268384546746033"><ele>251.0</ele><time>2026-05-01T08:52:37Z</time></trkpt><trkpt lat="38.812276639311094" lon="-9.2684537353859"><ele>251.00000000000003</ele><time>2026-05-01T08:52:39Z</time></trkpt><trkpt lat="38.81218009988779" lon="-9.26851845499509"><ele>251.0</ele><time>2026-05-01T08:52:41Z</time></trkpt><trkpt lat="38.81208652862149" lon="-9.268592812697701"><ele>251.0</ele><time>2026-05-01T08:52:43Z</time></trkpt><trkpt lat="38.8120225931796" lon="-9.26860572641751"><ele>251.0</ele><time>2026-05-01T08:52:59Z</time></trkpt><trkpt lat="38.81199031285039" lon="-9.268504628693096"><ele>251.00000000000003</ele><time>2026-05-01T08:53:03Z</time></trkpt><trkpt lat="38.811981809382345" lon="-9.268404452638718"><ele>251.0</ele><time>2026-05-01T08:53:05Z</time></trkpt><trkpt lat="38.811954713398606" lon="-9.268285111901879"><ele>251.0</ele><time>2026-05-01T08:53:07Z</time></trkpt><trkpt lat="38.81192141805569" lon="-9.268155322697336"><ele>251.0</ele><time>2026-05-01T08:53:09Z</time></trkpt><trkpt lat="38.81170693277332" lon="-9.268091541861166"><ele>251.0</ele><time>2026-05-01T08:53:11Z</time></trkpt><trkpt lat="38.81167575686589" lon="-9.26794456348744"><ele>251.0</ele><time>2026-05-01T08:53:13Z</time></trkpt><trkpt lat="38.81164474822967" lon="-9.267783029623594"><ele>250.71428571428567</ele><time>2026-05-01T08:53:15Z</time></trkpt><trkpt lat="38.8116300881677" lon="-9.267700932677968"><ele>250.42857142857142</ele><time>2026-05-01T08:53:16Z</time></trkpt><trkpt lat="38.811617465692635" lon="-9.267611061371204"><ele>250.1428571428571</ele><time>2026-05-01T08:53:17Z</time></trkpt><trkpt lat="38.81160502047242" lon="-9.267521730471483"><ele>249.85714285714283</ele><time>2026-05-01T08:53:18Z</time></trkpt><trkpt lat="38.811594398893405" lon="-9.267432696789783"><ele>249.57142857142856</ele><time>2026-05-01T08:53:19Z</time></trkpt><trkpt lat="38.81158484353562" lon="-9.267352600243726"><ele>249.28571428571428</ele><time>2026-05-01T08:53:20Z</time></trkpt><trkpt lat="38.811576021016165" lon="-9.267272133584655"><ele>249.0</ele><time>2026-05-01T08:53:21Z</time></trkpt><trkpt lat="38.81156169448635" lon="-9.267119119247724"><ele>247.0</ele><time>2026-05-01T08:53:23Z</time></trkpt><trkpt lat="38.81154968892365" lon="-9.266974694467104"><ele>244.99999999999997</ele><time>2026-05-01T08:53:25Z</time></trkpt><trkpt lat="38.811533620878876" lon="-9.26683363264314"><ele>242.99999999999997</ele><time>2026-05-01T08:53:27Z</time></trkpt><trkpt lat="38.811517204223684" lon="-9.266710300008404"><ele>241.0</ele><time>2026-05-01T08:53:29Z</time></trkpt><trkpt lat="38.81149274224313" lon="-9.266598078060207"><ele>239.0</ele><time>2026-05-01T08:53:31Z</time></trkpt><trkpt lat="38.81145423044879" lon="-9.266493859154695"><ele>237.5</ele><time>2026-05-01T08:53:33Z</time></trkpt><trkpt lat="38.8114038093284" lon="-9.266395221064506"><ele>236.0</ele><time>2026-05-01T08:53:35Z</time></trkpt><trkpt lat="38.811350445629984" lon="-9.266286669815594"><ele>234.5</ele><time>2026-05-01T08:53:37Z</time></trkpt><trkpt lat="38.81149209171357" lon="-9.26602048810979"><ele>233.0</ele><time>2026-05-01T08:53:39Z</time></trkpt><trkpt lat="38.81145760028456" lon="-9.265948649279961"><ele>233.00000000000003</ele><time>2026-05-01T08:53:41Z</time></trkpt><trkpt lat="38.81140629086226" lon="-9.265896029709694"><ele>233.0</ele><time>2026-05-01T08:53:44Z</time></trkpt><trkpt lat="38.81138340738276" lon="-9.265786079129652"><ele>233.0</ele><time>2026-05-01T08:58:03Z</time></trkpt><trkpt lat="38.81133406765062" lon="-9.265731403990847"><ele>233.0</ele><time>2026-05-01T08:58:04Z</time></trkpt><trkpt lat="38.81126461630074" lon="-9.265654657154235"><ele>233.00000000000003</ele><time>2026-05-01T08:58:05Z</time></trkpt><trkpt lat="38.81122448410175" lon="-9.26558231376301"><ele>233.0</ele><time>2026-05-01T08:58:06Z</time></trkpt><trkpt lat="38.81117978304649" lon="-9.265496472052195"><ele>231.8</ele><time>2026-05-01T08:58:07Z</time></trkpt><trkpt lat="38.81113962880185" lon="-9.265426056708687"><ele>230.60000000000002</ele><time>2026-05-01T08:58:08Z</time></trkpt><trkpt lat="38.81109664237096" lon="-9.265365216880449"><ele>229.39999999999998</ele><time>2026-05-01T08:58:09Z</time></trkpt><trkpt lat="38.81088800309432" lon="-9.265469484750904"><ele>228.2</ele><time>2026-05-01T08:58:10Z</time></trkpt><trkpt lat="38.81084379814818" lon="-9.265390020443286"><ele>227.0</ele><time>2026-05-01T08:58:12Z</time></trkpt><trkpt lat="38.811045147101574" lon="-9.265315870690547"><ele>227.00000000000003</ele><time>2026-05-01T08:58:19Z</time></trkpt><trkpt lat="38.811082901898665" lon="-9.265391357346612"><ele>227.0</ele><time>2026-05-01T08:58:20Z</time></trkpt><trkpt lat="38.81113879002197" lon="-9.265463753984926"><ele>227.0</ele><time>2026-05-01T08:58:21Z</time></trkpt><trkpt lat="38.8111869643011" lon="-9.265540241733689"><ele>227.0</ele><time>2026-05-01T08:58:22Z</time></trkpt><trkpt lat="38.81111301600106" lon="-9.265702343032325"><ele>227.00000000000003</ele><time>2026-05-01T08:58:23Z</time></trkpt><trkpt lat="38.81115137357281" lon="-9.265769905450881"><ele>227.0</ele><time>2026-05-01T08:58:24Z</time></trkpt><trkpt lat="38.81121845023108" lon="-9.26588805321215"><ele>228.2</ele><time>2026-05-01T08:58:26Z</time></trkpt><trkpt lat="38.81126216640916" lon="-9.265965054149257"><ele>229.39999999999998</ele><time>2026-05-01T08:58:28Z</time></trkpt><trkpt lat="38.811381438130134" lon="-9.265857542595892"><ele>230.60000000000002</ele><time>2026-05-01T08:58:36Z</time></trkpt><trkpt lat="38.811430969695365" lon="-9.265913385142921"><ele>231.8</ele><time>2026-05-01T08:59:05Z</time></trkpt><trkpt lat="38.81150227310189" lon="-9.266063299035611"><ele>233.0</ele><time>2026-05-01T08:59:07Z</time></trkpt><trkpt lat="38.81154095798078" lon="-9.266153651554617"><ele>233.0</ele><time>2026-05-01T08:59:08Z</time></trkpt><trkpt lat="38.81146061277333" lon="-9.266330614115816"><ele>233.0</ele><time>2026-05-01T08:59:09Z</time></trkpt><trkpt lat="38.811499985402456" lon="-9.266406947657982"><ele>233.0</ele><time>2026-05-01T08:59:10Z</time></trkpt><trkpt lat="38.81154240871863" lon="-9.266502069190445"><ele>233.0</ele><time>2026-05-01T08:59:12Z</time></trkpt><trkpt lat="38.81157078805184" lon="-9.266591763874853"><ele>233.0</ele><time>2026-05-01T08:59:14Z</time></trkpt><trkpt lat="38.81153155030539" lon="-9.266513367500645"><ele>233.0</ele><time>2026-05-01T08:59:19Z</time></trkpt><trkpt lat="38.81151206209723" lon="-9.266434857306756"><ele>233.0</ele><time>2026-05-01T08:59:21Z</time></trkpt><trkpt lat="38.811584330623305" lon="-9.26627832884414"><ele>233.0</ele><time>2026-05-01T08:59:23Z</time></trkpt><trkpt lat="38.81154134305773" lon="-9.266123570326686"><ele>233.0</ele><time>2026-05-01T08:59:25Z</time></trkpt><trkpt lat="38.811485334206644" lon="-9.266008752624831"><ele>233.0</ele><time>2026-05-01T08:59:26Z</time></trkpt><trkpt lat="38.811435775566345" lon="-9.26591386613428"><ele>233.0</ele><time>2026-05-01T08:59:27Z</time></trkpt><trkpt lat="38.81138861471665" lon="-9.265843049545984"><ele>233.0</ele><time>2026-05-01T08:59:28Z</time></trkpt><trkpt lat="38.81134066696385" lon="-9.265773754946405"><ele>233.0</ele><time>2026-05-01T08:59:29Z</time></trkpt><trkpt lat="38.81129409668397" lon="-9.265715236800087"><ele>233.0</ele><time>2026-05-01T08:59:30Z</time></trkpt><trkpt lat="38.811064965664585" lon="-9.265780905851985"><ele>233.0</ele><time>2026-05-01T08:59:32Z</time></trkpt><trkpt lat="38.81121254297881" lon="-9.26557115067586"><ele>232.00000000000003</ele><time>2026-05-01T08:59:37Z</time></trkpt><trkpt lat="38.811169650940776" lon="-9.265462740813005"><ele>231.0</ele><time>2026-05-01T09:00:09Z</time></trkpt><trkpt lat="38.81111468915034" lon="-9.265363308859115"><ele>230.0</ele><time>2026-05-01T09:00:44Z</time></trkpt><trkpt lat="38.81106626862135" lon="-9.265297208435971"><ele>229.0</ele><time>2026-05-01T09:00:45Z</time></trkpt><trkpt lat="38.81097757193541" lon="-9.265228116021978"><ele>228.00000000000003</ele><time>2026-05-01T09:00:47Z</time></trkpt><trkpt lat="38.81089405232766" lon="-9.265239371077216"><ele>227.0</ele><time>2026-05-01T09:00:49Z</time></trkpt><trkpt lat="38.810907899889074" lon="-9.265158387978968"><ele>227.0</ele><time>2026-05-01T09:00:53Z</time></trkpt><trkpt lat="38.81097559352528" lon="-9.265199632877353"><ele>227.0</ele><time>2026-05-01T09:00:55Z</time></trkpt><trkpt lat="38.81101750820414" lon="-9.265288451634992"><ele>227.0</ele><time>2026-05-01T09:00:58Z</time></trkpt><trkpt lat="38.81111345281385" lon="-9.265385154348998"><ele>227.0</ele><time>2026-05-01T09:01:00Z</time></trkpt><trkpt lat="38.811173092991055" lon="-9.265464382714764"><ele>227.0</ele><time>2026-05-01T09:01:01Z</time></trkpt><trkpt lat="38.811221877109126" lon="-9.26556197226978"><ele>228.00000000000003</ele><time>2026-05-01T09:01:02Z</time></trkpt><trkpt lat="38.81127382203037" lon="-9.265647557646105"><ele>229.0</ele><time>2026-05-01T09:01:03Z</time></trkpt><trkpt lat="38.81132277684766" lon="-9.265724520233753"><ele>230.0</ele><time>2026-05-01T09:01:04Z</time></trkpt><trkpt lat="38.811376686411954" lon="-9.26581580985725"><ele>231.0</ele><time>2026-05-01T09:01:05Z</time></trkpt><trkpt lat="38.81143229433153" lon="-9.265891497691648"><ele>232.00000000000003</ele><time>2026-05-01T09:01:06Z</time></trkpt><trkpt lat="38.81147806934855" lon="-9.265970702260777"><ele>233.0</ele><time>2026-05-01T09:01:07Z</time></trkpt><trkpt lat="38.811521485962814" lon="-9.266050719717423"><ele>233.00000000000003</ele><time>2026-05-01T09:01:08Z</time></trkpt><trkpt lat="38.811555918325" lon="-9.266135335308274"><ele>233.0</ele><time>2026-05-01T09:01:09Z</time></trkpt><trkpt lat="38.81158296366468" lon="-9.266215774001063"><ele>233.0</ele><time>2026-05-01T09:01:10Z</time></trkpt><trkpt lat="38.811617573532985" lon="-9.26636932674798"><ele>233.0</ele><time>2026-05-01T09:01:12Z</time></trkpt><trkpt lat="38.81163655170161" lon="-9.266483258080529"><ele>233.00000000000003</ele><time>2026-05-01T09:01:14Z</time></trkpt><trkpt lat="38.81165519123342" lon="-9.266572294957394"><ele>233.0</ele><time>2026-05-01T09:01:17Z</time></trkpt><trkpt lat="38.811687612121986" lon="-9.266706151052382"><ele>234.2</ele><time>2026-05-01T09:01:30Z</time></trkpt><trkpt lat="38.811695272013964" lon="-9.266802847647273"><ele>235.4</ele><time>2026-05-01T09:01:31Z</time></trkpt><trkpt lat="38.81170948314548" lon="-9.266901744212065"><ele>236.59999999999997</ele><time>2026-05-01T09:01:32Z</time></trkpt><trkpt lat="38.81172186490808" lon="-9.267004472165304"><ele>237.79999999999998</ele><time>2026-05-01T09:01:33Z</time></trkpt><trkpt lat="38.811747302554615" lon="-9.267117704737895"><ele>239.0</ele><time>2026-05-01T09:01:34Z</time></trkpt><trkpt lat="38.811652933549155" lon="-9.267284854462185"><ele>241.0</ele><time>2026-05-01T09:01:35Z</time></trkpt><trkpt lat="38.811670469119" lon="-9.267434494168516"><ele>242.99999999999997</ele><time>2026-05-01T09:01:36Z</time></trkpt><trkpt lat="38.811689518844624" lon="-9.267582107182891"><ele>244.99999999999997</ele><time>2026-05-01T09:01:37Z</time></trkpt><trkpt lat="38.81170986398824" lon="-9.267716940096141"><ele>247.0</ele><time>2026-05-01T09:01:38Z</time></trkpt><trkpt lat="38.81173291094377" lon="-9.267843585829892"><ele>249.0</ele><time>2026-05-01T09:01:39Z</time></trkpt><trkpt lat="38.811759789942954" lon="-9.267977540101565"><ele>249.5</ele><time>2026-05-01T09:01:40Z</time></trkpt><trkpt lat="38.81178993580233" lon="-9.26811304177721"><ele>250.0</ele><time>2026-05-01T09:01:41Z</time></trkpt><trkpt lat="38.811825546301876" lon="-9.268269332345032"><ele>250.5</ele><time>2026-05-01T09:01:42Z</time></trkpt><trkpt lat="38.811862109332075" lon="-9.268424983862017"><ele>251.0</ele><time>2026-05-01T09:01:43Z</time></trkpt><trkpt lat="38.811891533997326" lon="-9.268564606260579"><ele>251.0</ele><time>2026-05-01T09:01:44Z</time></trkpt><trkpt lat="38.8119035122513" lon="-9.268680348931168"><ele>251.00000000000003</ele><time>2026-05-01T09:01:45Z</time></trkpt><trkpt lat="38.81191134107172" lon="-9.2688020835049"><ele>251.00000000000003</ele><time>2026-05-01T09:01:46Z</time></trkpt><trkpt lat="38.81191638462691" lon="-9.268917437566726"><ele>251.0</ele><time>2026-05-01T09:01:47Z</time></trkpt><trkpt lat="38.81203255840833" lon="-9.269024346887742"><ele>251.0</ele><time>2026-05-01T09:01:48Z</time></trkpt><trkpt lat="38.8120445954034" lon="-9.269157923434605"><ele>252.0</ele><time>2026-05-01T09:01:49Z</time></trkpt><trkpt lat="38.81206074498872" lon="-9.269300214948748"><ele>253.00000000000003</ele><time>2026-05-01T09:01:50Z</time></trkpt><trkpt lat="38.81207301746587" lon="-9.269437680863565"><ele>254.00000000000003</ele><time>2026-05-01T09:01:51Z</time></trkpt><trkpt lat="38.81207875972163" lon="-9.269548922916824"><ele>255.0</ele><time>2026-05-01T09:01:52Z</time></trkpt><trkpt lat="38.81208670979498" lon="-9.269641234130697"><ele>256.0</ele><time>2026-05-01T09:01:53Z</time></trkpt><trkpt lat="38.81206335803348" lon="-9.269755279142831"><ele>255.99999999999997</ele><time>2026-05-01T09:01:55Z</time></trkpt><trkpt lat="38.811978450719465" lon="-9.269763541237497"><ele>256.0</ele><time>2026-05-01T09:01:57Z</time></trkpt><trkpt lat="38.81191300976841" lon="-9.269763854286206"><ele>256.0</ele><time>2026-05-01T09:02:03Z</time></trkpt><trkpt lat="38.811848211262486" lon="-9.269761257608174"><ele>256.0</ele><time>2026-05-01T09:02:07Z</time></trkpt><trkpt lat="38.811789004578195" lon="-9.269700090794755"><ele>255.99999999999997</ele><time>2026-05-01T09:02:10Z</time></trkpt><trkpt lat="38.811746560741135" lon="-9.26954680186806"><ele>256.0</ele><time>2026-05-01T09:02:12Z</time></trkpt><trkpt lat="38.81173566059795" lon="-9.269454343836385"><ele>256.66666666666663</ele><time>2026-05-01T09:02:13Z</time></trkpt><trkpt lat="38.811716033106926" lon="-9.269346583773094"><ele>257.3333333333333</ele><time>2026-05-01T09:02:14Z</time></trkpt><trkpt lat="38.81173815366077" lon="-9.269252120279555"><ele>258.0</ele><time>2026-05-01T09:02:15Z</time></trkpt><trkpt lat="38.81173067003492" lon="-9.269155614883694"><ele>258.6666666666667</ele><time>2026-05-01T09:02:16Z</time></trkpt><trkpt lat="38.81171526068606" lon="-9.269042399299085"><ele>259.33333333333337</ele><time>2026-05-01T09:02:17Z</time></trkpt><trkpt lat="38.81170828916858" lon="-9.268907522112706"><ele>260.0</ele><time>2026-05-01T09:02:18Z</time></trkpt><trkpt lat="38.811702271351066" lon="-9.268795075308965"><ele>260.0</ele><time>2026-05-01T09:02:19Z</time></trkpt><trkpt lat="38.81168281744529" lon="-9.26869170009154"><ele>260.0</ele><time>2026-05-01T09:02:20Z</time></trkpt><trkpt lat="38.81165188056146" lon="-9.268593077328028"><ele>260.0</ele><time>2026-05-01T09:02:21Z</time></trkpt><trkpt lat="38.811631000045196" lon="-9.268495883380405"><ele>260.0</ele><time>2026-05-01T09:02:22Z</time></trkpt><trkpt lat="38.8116158835121" lon="-9.268396653861284"><ele>260.0</ele><time>2026-05-01T09:02:23Z</time></trkpt><trkpt lat="38.811599245433136" lon="-9.268313065597852"><ele>260.0</ele><time>2026-05-01T09:02:24Z</time></trkpt><trkpt lat="38.811571910235116" lon="-9.268182751424654"><ele>258.42857142857144</ele><time>2026-05-01T09:02:26Z</time></trkpt><trkpt lat="38.81154754977362" lon="-9.268106593692073"><ele>256.8571428571429</ele><time>2026-05-01T09:02:27Z</time></trkpt><trkpt lat="38.811528801352296" lon="-9.268028520663286"><ele>255.28571428571428</ele><time>2026-05-01T09:02:28Z</time></trkpt><trkpt lat="38.81151528243921" lon="-9.267938681989994"><ele>253.71428571428572</ele><time>2026-05-01T09:02:29Z</time></trkpt><trkpt lat="38.811507904753284" lon="-9.267848890856266"><ele>252.1428571428571</ele><time>2026-05-01T09:02:30Z</time></trkpt><trkpt lat="38.811488518989094" lon="-9.26776027441203"><ele>250.57142857142856</ele><time>2026-05-01T09:02:31Z</time></trkpt><trkpt lat="38.8114632778279" lon="-9.267673704913081"><ele>249.0</ele><time>2026-05-01T09:02:32Z</time></trkpt><trkpt lat="38.81143169505939" lon="-9.267580751735736"><ele>249.0</ele><time>2026-05-01T09:02:33Z</time></trkpt><trkpt lat="38.81139544418469" lon="-9.267495125509768"><ele>249.0</ele><time>2026-05-01T09:02:34Z</time></trkpt><trkpt lat="38.81136560266551" lon="-9.26740980850851"><ele>249.0</ele><time>2026-05-01T09:02:35Z</time></trkpt><trkpt lat="38.8113471293033" lon="-9.267276150327438"><ele>249.0</ele><time>2026-05-01T09:02:37Z</time></trkpt><trkpt lat="38.8113159505707" lon="-9.267192677539082"><ele>249.0</ele><time>2026-05-01T09:02:40Z</time></trkpt><trkpt lat="38.8112273946129" lon="-9.267274649962696"><ele>249.0</ele><time>2026-05-01T09:02:42Z</time></trkpt><trkpt lat="38.81116142915027" lon="-9.267385319859288"><ele>249.0</ele><time>2026-05-01T09:02:44Z</time></trkpt><trkpt lat="38.81109211729803" lon="-9.267426376545215"><ele>249.0</ele><time>2026-05-01T09:02:46Z</time></trkpt><trkpt lat="38.81100605809265" lon="-9.267406378126383"><ele>249.0</ele><time>2026-05-01T09:02:49Z</time></trkpt><trkpt lat="38.81093922517989" lon="-9.267452833764251"><ele>249.0</ele><time>2026-05-01T09:02:53Z</time></trkpt><trkpt lat="38.810949434864796" lon="-9.267552012036104"><ele>249.0</ele><time>2026-05-01T09:02:56Z</time></trkpt><trkpt lat="38.81103740460356" lon="-9.267569155638247"><ele>249.0</ele><time>2026-05-01T09:02:58Z</time></trkpt><trkpt lat="38.81105595011681" lon="-9.267682692306783"><ele>249.0</ele><time>2026-05-01T09:02:59Z</time></trkpt><trkpt lat="38.811121158542356" lon="-9.2677623188845"><ele>249.0</ele><time>2026-05-01T09:03:01Z</time></trkpt><trkpt lat="38.81114733394016" lon="-9.2678787406525"><ele>249.0</ele><time>2026-05-01T09:03:03Z</time></trkpt><trkpt lat="38.81107214827657" lon="-9.26783254255787"><ele>249.0</ele><time>2026-05-01T09:03:06Z</time></trkpt><trkpt lat="38.81105358160801" lon="-9.26774066895484"><ele>249.0</ele><time>2026-05-01T09:03:08Z</time></trkpt><trkpt lat="38.81102732321513" lon="-9.267608534691012"><ele>249.0</ele><time>2026-05-01T09:03:10Z</time></trkpt><trkpt lat="38.810995199608385" lon="-9.267518762525778"><ele>249.0</ele><time>2026-05-01T09:03:12Z</time></trkpt><trkpt lat="38.81093430124995" lon="-9.267457657726377"><ele>248.99999999999997</ele><time>2026-05-01T09:03:18Z</time></trkpt><trkpt lat="38.810957516039885" lon="-9.267559770027194"><ele>248.99999999999997</ele><time>2026-05-01T09:03:21Z</time></trkpt><trkpt lat="38.8110463326698" lon="-9.267708348410315"><ele>249.0</ele><time>2026-05-01T09:03:23Z</time></trkpt><trkpt lat="38.81110573388392" lon="-9.267820573234749"><ele>249.0</ele><time>2026-05-01T09:03:24Z</time></trkpt><trkpt lat="38.811146566097875" lon="-9.26792243012635"><ele>249.0</ele><time>2026-05-01T09:03:25Z</time></trkpt><trkpt lat="38.8111694276257" lon="-9.268049174669116"><ele>249.0</ele><time>2026-05-01T09:03:26Z</time></trkpt><trkpt lat="38.8111999637242" lon="-9.268224119137091"><ele>249.0</ele><time>2026-05-01T09:03:27Z</time></trkpt><trkpt lat="38.81120234768163" lon="-9.268397841599116"><ele>249.0</ele><time>2026-05-01T09:03:28Z</time></trkpt><trkpt lat="38.81119595701087" lon="-9.26857418574353"><ele>251.75</ele><time>2026-05-01T09:03:29Z</time></trkpt><trkpt lat="38.81117373581743" lon="-9.268728143341102"><ele>254.5</ele><time>2026-05-01T09:03:30Z</time></trkpt><trkpt lat="38.811151408895476" lon="-9.268855321516698"><ele>257.25</ele><time>2026-05-01T09:03:31Z</time></trkpt><trkpt lat="38.81111683299678" lon="-9.268991162401589"><ele>260.0</ele><time>2026-05-01T09:03:32Z</time></trkpt><trkpt lat="38.81106444188411" lon="-9.26912978898084"><ele>260.6</ele><time>2026-05-01T09:03:33Z</time></trkpt><trkpt lat="38.811003331139595" lon="-9.269245522993556"><ele>261.2</ele><time>2026-05-01T09:03:34Z</time></trkpt><trkpt lat="38.81097085075395" lon="-9.269365384751946"><ele>261.8</ele><time>2026-05-01T09:03:35Z</time></trkpt><trkpt lat="38.810969818609" lon="-9.26947760263803"><ele>262.4</ele><time>2026-05-01T09:03:36Z</time></trkpt><trkpt lat="38.81098548754037" lon="-9.269604366312617"><ele>263.0</ele><time>2026-05-01T09:03:37Z</time></trkpt><trkpt lat="38.81102787019463" lon="-9.269728946177727"><ele>263.0</ele><time>2026-05-01T09:03:38Z</time></trkpt><trkpt lat="38.81109673247973" lon="-9.269862437594526"><ele>263.0</ele><time>2026-05-01T09:03:39Z</time></trkpt><trkpt lat="38.811157154188116" lon="-9.269988661244518"><ele>263.0</ele><time>2026-05-01T09:03:40Z</time></trkpt><trkpt lat="38.811203968945826" lon="-9.270106839831122"><ele>263.0</ele><time>2026-05-01T09:03:41Z</time></trkpt><trkpt lat="38.811249804686256" lon="-9.270217978585856"><ele>263.0</ele><time>2026-05-01T09:03:42Z</time></trkpt><trkpt lat="38.8112782271861" lon="-9.270314138509717"><ele>263.0</ele><time>2026-05-01T09:03:43Z</time></trkpt><trkpt lat="38.811302156470845" lon="-9.270434449499971"><ele>263.0</ele><time>2026-05-01T09:03:45Z</time></trkpt><trkpt lat="38.8113170138157" lon="-9.27056328555408"><ele>263.0</ele><time>2026-05-01T09:03:47Z</time></trkpt><trkpt lat="38.811293407545904" lon="-9.270645196437826"><ele>263.0</ele><time>2026-05-01T09:03:48Z</time></trkpt><trkpt lat="38.811292281405066" lon="-9.27074711429213"><ele>263.0</ele><time>2026-05-01T09:03:49Z</time></trkpt><trkpt lat="38.811321878730354" lon="-9.27088625625316"><ele>263.2</ele><time>2026-05-01T09:03:50Z</time></trkpt><trkpt lat="38.81133507973227" lon="-9.270979642188813"><ele>263.4</ele><time>2026-05-01T09:03:51Z</time></trkpt><trkpt lat="38.81133945862915" lon="-9.271076836523685"><ele>263.59999999999997</ele><time>2026-05-01T09:03:52Z</time></trkpt><trkpt lat="38.8113426068826" lon="-9.271170003193005"><ele>263.8</ele><time>2026-05-01T09:03:53Z</time></trkpt><trkpt lat="38.811366553156525" lon="-9.27131280951538"><ele>264.0</ele><time>2026-05-01T09:03:55Z</time></trkpt><trkpt lat="38.8114044523674" lon="-9.271518070394473"><ele>265.4</ele><time>2026-05-01T09:03:57Z</time></trkpt><trkpt lat="38.811444836892285" lon="-9.2716408627043"><ele>266.79999999999995</ele><time>2026-05-01T09:03:58Z</time></trkpt><trkpt lat="38.811494742345474" lon="-9.271743119008585"><ele>268.20000000000005</ele><time>2026-05-01T09:03:59Z</time></trkpt><trkpt lat="38.81156555591278" lon="-9.27182938341015"><ele>269.6</ele><time>2026-05-01T09:04:00Z</time></trkpt><trkpt lat="38.811628624041234" lon="-9.271893206880279"><ele>271.0</ele><time>2026-05-01T09:04:01Z</time></trkpt><trkpt lat="38.81169345257377" lon="-9.27194663282053"><ele>271.0</ele><time>2026-05-01T09:04:02Z</time></trkpt><trkpt lat="38.811758390315575" lon="-9.27199285249408"><ele>271.0</ele><time>2026-05-01T09:04:03Z</time></trkpt><trkpt lat="38.81182226275497" lon="-9.272032692977524"><ele>271.0</ele><time>2026-05-01T09:04:04Z</time></trkpt><trkpt lat="38.81188551305682" lon="-9.272062847461951"><ele>271.0</ele><time>2026-05-01T09:04:05Z</time></trkpt><trkpt lat="38.81195081672583" lon="-9.272073777262372"><ele>271.0</ele><time>2026-05-01T09:04:06Z</time></trkpt><trkpt lat="38.812039367415544" lon="-9.272100067846289"><ele>271.0</ele><time>2026-05-01T09:04:07Z</time></trkpt><trkpt lat="38.812136561024225" lon="-9.272142281696397"><ele>271.3333333333333</ele><time>2026-05-01T09:04:08Z</time></trkpt><trkpt lat="38.81223288097154" lon="-9.27218853041319"><ele>271.66666666666663</ele><time>2026-05-01T09:04:09Z</time></trkpt><trkpt lat="38.81231945220004" lon="-9.272221777506067"><ele>272.0</ele><time>2026-05-01T09:04:10Z</time></trkpt><trkpt lat="38.81239649510494" lon="-9.272251247653015"><ele>272.3333333333333</ele><time>2026-05-01T09:04:11Z</time></trkpt><trkpt lat="38.81246656256937" lon="-9.272282905929153"><ele>272.6666666666667</ele><time>2026-05-01T09:04:12Z</time></trkpt><trkpt lat="38.81253329613612" lon="-9.272311233774591"><ele>273.0</ele><time>2026-05-01T09:04:13Z</time></trkpt><trkpt lat="38.812598023927414" lon="-9.272345165629634"><ele>273.2</ele><time>2026-05-01T09:04:14Z</time></trkpt><trkpt lat="38.81267351706728" lon="-9.272383166937727"><ele>273.4</ele><time>2026-05-01T09:04:15Z</time></trkpt><trkpt lat="38.81275761602602" lon="-9.27241194938042"><ele>273.59999999999997</ele><time>2026-05-01T09:04:16Z</time></trkpt><trkpt lat="38.812849052204115" lon="-9.272447420649929"><ele>273.8</ele><time>2026-05-01T09:04:17Z</time></trkpt><trkpt lat="38.812944458511375" lon="-9.272485771624815"><ele>274.0</ele><time>2026-05-01T09:04:18Z</time></trkpt><trkpt lat="38.813034139186435" lon="-9.272525938404032"><ele>274.0</ele><time>2026-05-01T09:04:19Z</time></trkpt><trkpt lat="38.81312403443188" lon="-9.272562801265234"><ele>274.0</ele><time>2026-05-01T09:04:20Z</time></trkpt><trkpt lat="38.81321212170776" lon="-9.272598595776751"><ele>274.0</ele><time>2026-05-01T09:04:21Z</time></trkpt><trkpt lat="38.81330168650305" lon="-9.272634769386828"><ele>274.0</ele><time>2026-05-01T09:04:22Z</time></trkpt><trkpt lat="38.8133787571755" lon="-9.272675205994343"><ele>274.0</ele><time>2026-05-01T09:04:23Z</time></trkpt><trkpt lat="38.813445094061365" lon="-9.272708719858292"><ele>274.0</ele><time>2026-05-01T09:04:24Z</time></trkpt><trkpt lat="38.81350669053304" lon="-9.272745197848785"><ele>274.00000000000006</ele><time>2026-05-01T09:04:25Z</time></trkpt><trkpt lat="38.81359302969278" lon="-9.272777833836058"><ele>274.0</ele><time>2026-05-01T09:04:27Z</time></trkpt><trkpt lat="38.81366265511295" lon="-9.272805995570252"><ele>274.0</ele><time>2026-05-01T09:04:29Z</time></trkpt><trkpt lat="38.813715378483195" lon="-9.272742679381892"><ele>274.0</ele><time>2026-05-01T09:04:36Z</time></trkpt><trkpt lat="38.81364608867629" lon="-9.27272154875512"><ele>274.0</ele><time>2026-05-01T09:04:58Z</time></trkpt><trkpt lat="38.8135790111844" lon="-9.272753660776448"><ele>274.00000000000006</ele><time>2026-05-01T09:05:32Z</time></trkpt><trkpt lat="38.813512157160034" lon="-9.27273651026089"><ele>274.0</ele><time>2026-05-01T09:05:34Z</time></trkpt><trkpt lat="38.81345354755884" lon="-9.272690495108122"><ele>274.00000000000006</ele><time>2026-05-01T09:05:39Z</time></trkpt><trkpt lat="38.81338548639393" lon="-9.272675112118847"><ele>274.0</ele><time>2026-05-01T09:05:44Z</time></trkpt><trkpt lat="38.813447096816795" lon="-9.272706035829492"><ele>274.0</ele><time>2026-05-01T09:06:33Z</time></trkpt><trkpt lat="38.81351100355031" lon="-9.27270770892319"><ele>274.0</ele><time>2026-05-01T09:06:37Z</time></trkpt><trkpt lat="38.81358009636217" lon="-9.272707348689345"><ele>274.0</ele><time>2026-05-01T09:06:42Z</time></trkpt><trkpt lat="38.813496152004035" lon="-9.272736209332232"><ele>274.00000000000006</ele><time>2026-05-01T09:07:04Z</time></trkpt><trkpt lat="38.81343226369618" lon="-9.272708823903445"><ele>274.0</ele><time>2026-05-01T09:07:07Z</time></trkpt><trkpt lat="38.81335170905795" lon="-9.2726761788971"><ele>274.0</ele><time>2026-05-01T09:07:14Z</time></trkpt><trkpt lat="38.813290177119896" lon="-9.272697433976633"><ele>274.0</ele><time>2026-05-01T09:07:22Z</time></trkpt><trkpt lat="38.813227747590574" lon="-9.27271356021233"><ele>274.0</ele><time>2026-05-01T09:07:27Z</time></trkpt><trkpt lat="38.813144292713254" lon="-9.272687043072859"><ele>274.0</ele><time>2026-05-01T09:07:29Z</time></trkpt><trkpt lat="38.813222782885916" lon="-9.272602914586681"><ele>274.0</ele><time>2026-05-01T09:07:31Z</time></trkpt><trkpt lat="38.81332688271242" lon="-9.272621875261732"><ele>274.0</ele><time>2026-05-01T09:07:33Z</time></trkpt><trkpt lat="38.81340805485222" lon="-9.272676897363766"><ele>274.0</ele><time>2026-05-01T09:07:34Z</time></trkpt><trkpt lat="38.8134779906545" lon="-9.272719779029313"><ele>274.0</ele><time>2026-05-01T09:07:35Z</time></trkpt><trkpt lat="38.813599963143815" lon="-9.272748450649523"><ele>274.0</ele><time>2026-05-01T09:07:37Z</time></trkpt><trkpt lat="38.813693429634725" lon="-9.27274459419995"><ele>274.0</ele><time>2026-05-01T09:07:39Z</time></trkpt><trkpt lat="38.81373791929414" lon="-9.272818463534962"><ele>274.0</ele><time>2026-05-01T09:07:42Z</time></trkpt><trkpt lat="38.81369548882685" lon="-9.272900733824418"><ele>274.0</ele><time>2026-05-01T09:07:45Z</time></trkpt><trkpt lat="38.81361998252066" lon="-9.272997070609177"><ele>274.0</ele><time>2026-05-01T09:07:47Z</time></trkpt><trkpt lat="38.81348310758523" lon="-9.27303358949807"><ele>274.0</ele><time>2026-05-01T09:07:49Z</time></trkpt><trkpt lat="38.81338789751835" lon="-9.273002874956116"><ele>274.0</ele><time>2026-05-01T09:07:50Z</time></trkpt><trkpt lat="38.81328222050224" lon="-9.2729973415756"><ele>274.0</ele><time>2026-05-01T09:07:51Z</time></trkpt><trkpt lat="38.81314452462668" lon="-9.273034049574072"><ele>274.0</ele><time>2026-05-01T09:07:52Z</time></trkpt><trkpt lat="38.8130018536555" lon="-9.273043192258342"><ele>274.0</ele><time>2026-05-01T09:07:53Z</time></trkpt><trkpt lat="38.81289358562895" lon="-9.273054630533144"><ele>274.0</ele><time>2026-05-01T09:07:54Z</time></trkpt><trkpt lat="38.81279802441762" lon="-9.27307393156211"><ele>274.0</ele><time>2026-05-01T09:07:55Z</time></trkpt><trkpt lat="38.81270141927222" lon="-9.27309700401739"><ele>274.0</ele><time>2026-05-01T09:07:56Z</time></trkpt><trkpt lat="38.81261294284848" lon="-9.273100716115856"><ele>273.75</ele><time>2026-05-01T09:07:57Z</time></trkpt><trkpt lat="38.812527693862684" lon="-9.273089613313177"><ele>273.5</ele><time>2026-05-01T09:07:58Z</time></trkpt><trkpt lat="38.812429295211935" lon="-9.273059448698062"><ele>273.25</ele><time>2026-05-01T09:07:59Z</time></trkpt><trkpt lat="38.812283994332994" lon="-9.273035539928152"><ele>273.0</ele><time>2026-05-01T09:08:00Z</time></trkpt><trkpt lat="38.81213545829714" lon="-9.272993985763005"><ele>273.0</ele><time>2026-05-01T09:08:01Z</time></trkpt><trkpt lat="38.81201257311266" lon="-9.272949194595085"><ele>273.0</ele><time>2026-05-01T09:08:02Z</time></trkpt><trkpt lat="38.811904644758734" lon="-9.272897877926471"><ele>273.0</ele><time>2026-05-01T09:08:03Z</time></trkpt><trkpt lat="38.81180715975684" lon="-9.272856598533222"><ele>273.0</ele><time>2026-05-01T09:08:04Z</time></trkpt><trkpt lat="38.811717586135124" lon="-9.272832442093604"><ele>273.0</ele><time>2026-05-01T09:08:05Z</time></trkpt><trkpt lat="38.81161131533675" lon="-9.272801540457861"><ele>273.0</ele><time>2026-05-01T09:08:06Z</time></trkpt><trkpt lat="38.81150339411639" lon="-9.272757709704322"><ele>273.0</ele><time>2026-05-01T09:08:07Z</time></trkpt><trkpt lat="38.81139196042216" lon="-9.272733098103904"><ele>273.0</ele><time>2026-05-01T09:08:08Z</time></trkpt><trkpt lat="38.811285652297556" lon="-9.272700431687271"><ele>273.0</ele><time>2026-05-01T09:08:09Z</time></trkpt><trkpt lat="38.81118034973467" lon="-9.27265600451774"><ele>273.0</ele><time>2026-05-01T09:08:10Z</time></trkpt><trkpt lat="38.811085460928574" lon="-9.272628696133397"><ele>272.6</ele><time>2026-05-01T09:08:11Z</time></trkpt><trkpt lat="38.81099059771263" lon="-9.27263126428171"><ele>272.20000000000005</ele><time>2026-05-01T09:08:12Z</time></trkpt><trkpt lat="38.81087918013253" lon="-9.272655252687631"><ele>271.8</ele><time>2026-05-01T09:08:13Z</time></trkpt><trkpt lat="38.8107646770594" lon="-9.272684700914327"><ele>271.40000000000003</ele><time>2026-05-01T09:08:14Z</time></trkpt><trkpt lat="38.81067015314242" lon="-9.272701119851789"><ele>271.0</ele><time>2026-05-01T09:08:15Z</time></trkpt><trkpt lat="38.8105807867297" lon="-9.27271761499534"><ele>271.0</ele><time>2026-05-01T09:08:16Z</time></trkpt><trkpt lat="38.8104978518685" lon="-9.272734365227075"><ele>271.0</ele><time>2026-05-01T09:08:17Z</time></trkpt><trkpt lat="38.81043110833337" lon="-9.272716591099202"><ele>271.0</ele><time>2026-05-01T09:08:18Z</time></trkpt><trkpt lat="38.81036818052913" lon="-9.272644018533883"><ele>271.0</ele><time>2026-05-01T09:08:19Z</time></trkpt><trkpt lat="38.81031390158998" lon="-9.27256037756185"><ele>271.0</ele><time>2026-05-01T09:08:20Z</time></trkpt><trkpt lat="38.810284122689" lon="-9.272462287634765"><ele>271.0</ele><time>2026-05-01T09:08:21Z</time></trkpt><trkpt lat="38.8102712967625" lon="-9.27237303539459"><ele>271.0</ele><time>2026-05-01T09:08:22Z</time></trkpt><trkpt lat="38.810257206967826" lon="-9.272290929486452"><ele>271.0</ele><time>2026-05-01T09:08:23Z</time></trkpt><trkpt lat="38.810203947474015" lon="-9.27223064936466"><ele>271.0</ele><time>2026-05-01T09:08:24Z</time></trkpt><trkpt lat="38.810153639149306" lon="-9.272181752067942"><ele>271.0</ele><time>2026-05-01T09:08:25Z</time></trkpt><trkpt lat="38.810051631582596" lon="-9.272129027415447"><ele>271.0</ele><time>2026-05-01T09:08:27Z</time></trkpt><trkpt lat="38.80994510899153" lon="-9.272063191749321"><ele>271.0</ele><time>2026-05-01T09:08:29Z</time></trkpt><trkpt lat="38.809836757614804" lon="-9.272012005103637"><ele>269.2</ele><time>2026-05-01T09:08:31Z</time></trkpt><trkpt lat="38.80976092953577" lon="-9.271923648281872"><ele>267.40000000000003</ele><time>2026-05-01T09:08:34Z</time></trkpt><trkpt lat="38.809701300436366" lon="-9.271809934851607"><ele>265.6</ele><time>2026-05-01T09:08:36Z</time></trkpt><trkpt lat="38.80965578333291" lon="-9.271729356159977"><ele>263.8</ele><time>2026-05-01T09:08:37Z</time></trkpt><trkpt lat="38.80961198515127" lon="-9.271646444294351"><ele>262.0</ele><time>2026-05-01T09:08:38Z</time></trkpt><trkpt lat="38.809550135576146" lon="-9.271554451868125"><ele>262.0</ele><time>2026-05-01T09:08:39Z</time></trkpt><trkpt lat="38.80948542381002" lon="-9.271457002418868"><ele>262.0</ele><time>2026-05-01T09:08:40Z</time></trkpt><trkpt lat="38.80942996237059" lon="-9.271346168818877"><ele>262.0</ele><time>2026-05-01T09:08:41Z</time></trkpt><trkpt lat="38.80936152615887" lon="-9.271230339395103"><ele>262.0</ele><time>2026-05-01T09:08:42Z</time></trkpt><trkpt lat="38.80929708402597" lon="-9.27113551378994"><ele>262.0</ele><time>2026-05-01T09:08:43Z</time></trkpt><trkpt lat="38.809247421699936" lon="-9.271058832532018"><ele>260.4</ele><time>2026-05-01T09:08:44Z</time></trkpt><trkpt lat="38.80920002691689" lon="-9.270985453416886"><ele>258.79999999999995</ele><time>2026-05-01T09:08:45Z</time></trkpt><trkpt lat="38.80914061664556" lon="-9.270919304269949"><ele>257.2</ele><time>2026-05-01T09:08:46Z</time></trkpt><trkpt lat="38.80908430940335" lon="-9.27084544629276"><ele>255.6</ele><time>2026-05-01T09:08:47Z</time></trkpt><trkpt lat="38.80900896496203" lon="-9.270723983335007"><ele>254.0</ele><time>2026-05-01T09:08:49Z</time></trkpt><trkpt lat="38.808985915478665" lon="-9.270571745356579"><ele>253.00000000000003</ele><time>2026-05-01T09:08:51Z</time></trkpt><trkpt lat="38.808953649955626" lon="-9.270473560918319"><ele>252.0</ele><time>2026-05-01T09:08:52Z</time></trkpt><trkpt lat="38.808920269283206" lon="-9.270383941201048"><ele>251.0</ele><time>2026-05-01T09:08:53Z</time></trkpt><trkpt lat="38.8088711450275" lon="-9.270317440899149"><ele>250.0</ele><time>2026-05-01T09:08:54Z</time></trkpt><trkpt lat="38.80880845634031" lon="-9.270255560880207"><ele>249.00000000000003</ele><time>2026-05-01T09:08:55Z</time></trkpt><trkpt lat="38.808736893355515" lon="-9.270211499370069"><ele>248.0</ele><time>2026-05-01T09:08:56Z</time></trkpt><trkpt lat="38.808659504575495" lon="-9.270197286378746"><ele>248.0</ele><time>2026-05-01T09:08:57Z</time></trkpt><trkpt lat="38.80856017546721" lon="-9.27020370568509"><ele>248.0</ele><time>2026-05-01T09:08:59Z</time></trkpt><trkpt lat="38.808476936700295" lon="-9.270191311603366"><ele>248.0</ele><time>2026-05-01T09:09:00Z</time></trkpt><trkpt lat="38.80835688372632" lon="-9.270205980817446"><ele>248.0</ele><time>2026-05-01T09:09:02Z</time></trkpt><trkpt lat="38.808289794394" lon="-9.270212726823102"><ele>248.0</ele><time>2026-05-01T09:09:04Z</time></trkpt><trkpt lat="38.808176367503606" lon="-9.270327462986584"><ele>249.2</ele><time>2026-05-01T09:09:06Z</time></trkpt><trkpt lat="38.808107254848274" lon="-9.27040265781739"><ele>250.4</ele><time>2026-05-01T09:09:07Z</time></trkpt><trkpt lat="38.80801538944826" lon="-9.270486971835455"><ele>251.59999999999997</ele><time>2026-05-01T09:09:08Z</time></trkpt><trkpt lat="38.80793418289856" lon="-9.270587372248576"><ele>252.79999999999998</ele><time>2026-05-01T09:09:09Z</time></trkpt><trkpt lat="38.807852462542655" lon="-9.270687093823776"><ele>254.0</ele><time>2026-05-01T09:09:10Z</time></trkpt><trkpt lat="38.807762623301905" lon="-9.270813341997716"><ele>254.2</ele><time>2026-05-01T09:09:11Z</time></trkpt><trkpt lat="38.807681975016465" lon="-9.270958109526536"><ele>254.39999999999998</ele><time>2026-05-01T09:09:12Z</time></trkpt><trkpt lat="38.80762544935909" lon="-9.271075163569732"><ele>254.6</ele><time>2026-05-01T09:09:13Z</time></trkpt><trkpt lat="38.80758091179524" lon="-9.271172062425736"><ele>254.8</ele><time>2026-05-01T09:09:14Z</time></trkpt><trkpt lat="38.80754412551082" lon="-9.271250869051658"><ele>255.0</ele><time>2026-05-01T09:09:15Z</time></trkpt><trkpt lat="38.807490375625854" lon="-9.27138347153079"><ele>255.33333333333334</ele><time>2026-05-01T09:09:17Z</time></trkpt><trkpt lat="38.807465060165164" lon="-9.271540600972019"><ele>255.66666666666669</ele><time>2026-05-01T09:09:19Z</time></trkpt><trkpt lat="38.80744334724368" lon="-9.271619595044523"><ele>256.0</ele><time>2026-05-01T09:09:20Z</time></trkpt><trkpt lat="38.80740706824547" lon="-9.271697352720446"><ele>256.33333333333337</ele><time>2026-05-01T09:09:21Z</time></trkpt><trkpt lat="38.80734980572167" lon="-9.271752142335517"><ele>256.6666666666667</ele><time>2026-05-01T09:09:22Z</time></trkpt><trkpt lat="38.80728468745065" lon="-9.271784867900404"><ele>257.0</ele><time>2026-05-01T09:09:23Z</time></trkpt><trkpt lat="38.80720834897125" lon="-9.271812450150756"><ele>257.0</ele><time>2026-05-01T09:09:24Z</time></trkpt><trkpt lat="38.80714417078025" lon="-9.271843533575787"><ele>257.0</ele><time>2026-05-01T09:09:25Z</time></trkpt><trkpt lat="38.80706373046074" lon="-9.271878298024166"><ele>257.0</ele><time>2026-05-01T09:09:26Z</time></trkpt><trkpt lat="38.806967535149745" lon="-9.271923229314625"><ele>257.0</ele><time>2026-05-01T09:09:27Z</time></trkpt><trkpt lat="38.80688950431262" lon="-9.271947148616901"><ele>257.0</ele><time>2026-05-01T09:09:28Z</time></trkpt><trkpt lat="38.80679439311154" lon="-9.272015306552099"><ele>257.0</ele><time>2026-05-01T09:09:30Z</time></trkpt><trkpt lat="38.806748155543524" lon="-9.272126906157258"><ele>257.1666666666667</ele><time>2026-05-01T09:09:32Z</time></trkpt><trkpt lat="38.80672822375169" lon="-9.272204837358423"><ele>257.33333333333337</ele><time>2026-05-01T09:09:33Z</time></trkpt><trkpt lat="38.80672006635628" lon="-9.272299086600713"><ele>257.5</ele><time>2026-05-01T09:09:34Z</time></trkpt><trkpt lat="38.80669592106625" lon="-9.272375587647431"><ele>257.6666666666667</ele><time>2026-05-01T09:09:35Z</time></trkpt><trkpt lat="38.80665138337411" lon="-9.27244710233144"><ele>257.8333333333333</ele><time>2026-05-01T09:09:36Z</time></trkpt><trkpt lat="38.80655547460359" lon="-9.27250763790416"><ele>258.0</ele><time>2026-05-01T09:09:38Z</time></trkpt><trkpt lat="38.80648369576942" lon="-9.272475629861832"><ele>257.3333333333333</ele><time>2026-05-01T09:09:40Z</time></trkpt><trkpt lat="38.80640096682816" lon="-9.272532023135312"><ele>256.6666666666667</ele><time>2026-05-01T09:09:44Z</time></trkpt><trkpt lat="38.80634374395126" lon="-9.272613045039453"><ele>256.0</ele><time>2026-05-01T09:09:46Z</time></trkpt><trkpt lat="38.80628446127615" lon="-9.272673178192465"><ele>255.33333333333334</ele><time>2026-05-01T09:09:48Z</time></trkpt><trkpt lat="38.806226091378754" lon="-9.272743693648192"><ele>254.66666666666669</ele><time>2026-05-01T09:09:50Z</time></trkpt><trkpt lat="38.80612500274549" lon="-9.272761173018631"><ele>254.0</ele><time>2026-05-01T09:09:52Z</time></trkpt><trkpt lat="38.80602641568481" lon="-9.272761284207942"><ele>254.2</ele><time>2026-05-01T09:09:54Z</time></trkpt><trkpt lat="38.805950456923874" lon="-9.272794947828086"><ele>254.39999999999998</ele><time>2026-05-01T09:09:57Z</time></trkpt><trkpt lat="38.80587007084473" lon="-9.272801946364456"><ele>254.6</ele><time>2026-05-01T09:10:34Z</time></trkpt><trkpt lat="38.80578229994842" lon="-9.272804279063815"><ele>254.8</ele><time>2026-05-01T09:11:47Z</time></trkpt><trkpt lat="38.8057262603997" lon="-9.272731682045615"><ele>255.0</ele><time>2026-05-01T09:11:49Z</time></trkpt><trkpt lat="38.80562417473705" lon="-9.272637580252598"><ele>255.0</ele><time>2026-05-01T09:11:51Z</time></trkpt><trkpt lat="38.805549721096064" lon="-9.272646382005837"><ele>255.0</ele><time>2026-05-01T09:11:52Z</time></trkpt><trkpt lat="38.80548016535186" lon="-9.272627585094256"><ele>255.0</ele><time>2026-05-01T09:11:53Z</time></trkpt><trkpt lat="38.80539337327993" lon="-9.272642551894306"><ele>255.0</ele><time>2026-05-01T09:11:54Z</time></trkpt><trkpt lat="38.805303935471265" lon="-9.272660360066793"><ele>255.0</ele><time>2026-05-01T09:11:55Z</time></trkpt><trkpt lat="38.80521351298145" lon="-9.27266845871862"><ele>255.0</ele><time>2026-05-01T09:11:56Z</time></trkpt><trkpt lat="38.80513933692327" lon="-9.272675231056843"><ele>254.83333333333334</ele><time>2026-05-01T09:11:57Z</time></trkpt><trkpt lat="38.8050657706552" lon="-9.272681873206865"><ele>254.66666666666669</ele><time>2026-05-01T09:11:58Z</time></trkpt><trkpt lat="38.80498415036695" lon="-9.272687331241015"><ele>254.5</ele><time>2026-05-01T09:11:59Z</time></trkpt><trkpt lat="38.80489554284235" lon="-9.272684305542302"><ele>254.33333333333334</ele><time>2026-05-01T09:12:00Z</time></trkpt><trkpt lat="38.80480360795671" lon="-9.272677539673667"><ele>254.16666666666669</ele><time>2026-05-01T09:12:01Z</time></trkpt><trkpt lat="38.80471466714473" lon="-9.27266789779711"><ele>254.0</ele><time>2026-05-01T09:12:02Z</time></trkpt><trkpt lat="38.80462548968925" lon="-9.272659536273036"><ele>254.0</ele><time>2026-05-01T09:12:03Z</time></trkpt><trkpt lat="38.804520153464175" lon="-9.272644972467326"><ele>253.99999999999997</ele><time>2026-05-01T09:12:04Z</time></trkpt><trkpt lat="38.80443264641946" lon="-9.272644482817407"><ele>253.99999999999997</ele><time>2026-05-01T09:12:05Z</time></trkpt><trkpt lat="38.80434702916554" lon="-9.272635408404543"><ele>254.0</ele><time>2026-05-01T09:12:06Z</time></trkpt><trkpt lat="38.80426346789642" lon="-9.272628971235008"><ele>254.0</ele><time>2026-05-01T09:12:07Z</time></trkpt><trkpt lat="38.80417608734522" lon="-9.272621496733326"><ele>253.39999999999998</ele><time>2026-05-01T09:12:08Z</time></trkpt><trkpt lat="38.80408196207342" lon="-9.272611696258066"><ele>252.79999999999998</ele><time>2026-05-01T09:12:09Z</time></trkpt><trkpt lat="38.80398260745325" lon="-9.27259751359472"><ele>252.20000000000002</ele><time>2026-05-01T09:12:10Z</time></trkpt><trkpt lat="38.80387611754472" lon="-9.272580966481987"><ele>251.60000000000002</ele><time>2026-05-01T09:12:11Z</time></trkpt><trkpt lat="38.80376516735958" lon="-9.272570537164126"><ele>251.0</ele><time>2026-05-01T09:12:12Z</time></trkpt><trkpt lat="38.80365276451484" lon="-9.27255969718765"><ele>251.0</ele><time>2026-05-01T09:12:13Z</time></trkpt><trkpt lat="38.80354369848402" lon="-9.272546690125813"><ele>251.00000000000003</ele><time>2026-05-01T09:12:14Z</time></trkpt><trkpt lat="38.80343337746829" lon="-9.272555990634967"><ele>251.00000000000003</ele><time>2026-05-01T09:12:15Z</time></trkpt><trkpt lat="38.8033265474345" lon="-9.272546261349811"><ele>251.0</ele><time>2026-05-01T09:12:16Z</time></trkpt><trkpt lat="38.80322330963274" lon="-9.27251501236677"><ele>251.0</ele><time>2026-05-01T09:12:17Z</time></trkpt><trkpt lat="38.803119807510136" lon="-9.272506874712729"><ele>249.20000000000002</ele><time>2026-05-01T09:12:18Z</time></trkpt><trkpt lat="38.80301946158392" lon="-9.272515466468262"><ele>247.40000000000003</ele><time>2026-05-01T09:12:19Z</time></trkpt><trkpt lat="38.80292402609754" lon="-9.272504846996826"><ele>245.6</ele><time>2026-05-01T09:12:20Z</time></trkpt><trkpt lat="38.80282033094148" lon="-9.272477414746573"><ele>243.8</ele><time>2026-05-01T09:12:21Z</time></trkpt><trkpt lat="38.80271484975035" lon="-9.272469159487642"><ele>242.0</ele><time>2026-05-01T09:12:22Z</time></trkpt><trkpt lat="38.802612853887226" lon="-9.272460631785938"><ele>242.0</ele><time>2026-05-01T09:12:23Z</time></trkpt><trkpt lat="38.80251543871111" lon="-9.272438847641624"><ele>242.0</ele><time>2026-05-01T09:12:24Z</time></trkpt><trkpt lat="38.80242292200401" lon="-9.272432189587672"><ele>242.0</ele><time>2026-05-01T09:12:25Z</time></trkpt><trkpt lat="38.80231671382668" lon="-9.27243040718169"><ele>242.0</ele><time>2026-05-01T09:12:26Z</time></trkpt><trkpt lat="38.80222725645792" lon="-9.272419782602753"><ele>242.0</ele><time>2026-05-01T09:12:27Z</time></trkpt><trkpt lat="38.80215414945215" lon="-9.272409648323574"><ele>242.00000000000003</ele><time>2026-05-01T09:12:28Z</time></trkpt><trkpt lat="38.80208768699528" lon="-9.27240042301578"><ele>242.0</ele><time>2026-05-01T09:12:29Z</time></trkpt><trkpt lat="38.802008586053965" lon="-9.272397475460721"><ele>242.0</ele><time>2026-05-01T09:12:30Z</time></trkpt><trkpt lat="38.80192071035622" lon="-9.272388990754193"><ele>242.0</ele><time>2026-05-01T09:12:31Z</time></trkpt><trkpt lat="38.80183750082973" lon="-9.272378119373702"><ele>242.00000000000003</ele><time>2026-05-01T09:12:32Z</time></trkpt><trkpt lat="38.80174128572557" lon="-9.272376758819775"><ele>242.0</ele><time>2026-05-01T09:12:33Z</time></trkpt><trkpt lat="38.80164901641898" lon="-9.27237021500106"><ele>244.0</ele><time>2026-05-01T09:12:34Z</time></trkpt><trkpt lat="38.80154601016654" lon="-9.272363142161021"><ele>246.0</ele><time>2026-05-01T09:12:35Z</time></trkpt><trkpt lat="38.80141625993423" lon="-9.272353413462843"><ele>248.0</ele><time>2026-05-01T09:12:36Z</time></trkpt><trkpt lat="38.80129130580417" lon="-9.27233478603264"><ele>250.0</ele><time>2026-05-01T09:12:37Z</time></trkpt><trkpt lat="38.8011497376554" lon="-9.272332085256973"><ele>250.0</ele><time>2026-05-01T09:12:38Z</time></trkpt><trkpt lat="38.80101445632934" lon="-9.272325134816182"><ele>250.0</ele><time>2026-05-01T09:12:39Z</time></trkpt><trkpt lat="38.80090850653816" lon="-9.272310008428787"><ele>250.0</ele><time>2026-05-01T09:12:40Z</time></trkpt><trkpt lat="38.800805502932754" lon="-9.272331833686279"><ele>250.0</ele><time>2026-05-01T09:12:42Z</time></trkpt><trkpt lat="38.800719062217574" lon="-9.27229474563079"><ele>250.0</ele><time>2026-05-01T09:12:44Z</time></trkpt><trkpt lat="38.80076249991118" lon="-9.272129310758562"><ele>251.66666666666666</ele><time>2026-05-01T09:12:47Z</time></trkpt><trkpt lat="38.80079070106972" lon="-9.27204784211013"><ele>253.33333333333331</ele><time>2026-05-01T09:12:48Z</time></trkpt><trkpt lat="38.800851017798266" lon="-9.271960888670986"><ele>255.0</ele><time>2026-05-01T09:12:49Z</time></trkpt><trkpt lat="38.80092893539373" lon="-9.271904818712883"><ele>256.6666666666667</ele><time>2026-05-01T09:12:50Z</time></trkpt><trkpt lat="38.8009707778361" lon="-9.271843111150217"><ele>258.33333333333337</ele><time>2026-05-01T09:12:51Z</time></trkpt><trkpt lat="38.80094513963941" lon="-9.271730085747974"><ele>260.0</ele><time>2026-05-01T09:12:53Z</time></trkpt><trkpt lat="38.80094901275818" lon="-9.271644981661606"><ele>260.0</ele><time>2026-05-01T09:12:56Z</time></trkpt><trkpt lat="38.80094123577109" lon="-9.271546438058888"><ele>260.0</ele><time>2026-05-01T09:12:59Z</time></trkpt><trkpt lat="38.80094123577457" lon="-9.271459141047284"><ele>260.0</ele><time>2026-05-01T09:13:01Z</time></trkpt><trkpt lat="38.80099200086227" lon="-9.271510675833614"><ele>260.0</ele><time>2026-05-01T09:13:03Z</time></trkpt><trkpt lat="38.80090525715007" lon="-9.271445321874422"><ele>260.0</ele><time>2026-05-01T09:13:22Z</time></trkpt><trkpt lat="38.80091230911275" lon="-9.271545683988801"><ele>260.0</ele><time>2026-05-01T09:13:44Z</time></trkpt><trkpt lat="38.80095054659951" lon="-9.271628628700878"><ele>260.0</ele><time>2026-05-01T09:13:53Z</time></trkpt><trkpt lat="38.80095815759677" lon="-9.27174305261204"><ele>260.0</ele><time>2026-05-01T09:15:12Z</time></trkpt><trkpt lat="38.80095937292742" lon="-9.271850873233511"><ele>260.0</ele><time>2026-05-01T09:15:14Z</time></trkpt><trkpt lat="38.80091906296285" lon="-9.271955374934638"><ele>260.0</ele><time>2026-05-01T09:15:16Z</time></trkpt><trkpt lat="38.800825591558386" lon="-9.2720563643917"><ele>260.0</ele><time>2026-05-01T09:15:18Z</time></trkpt><trkpt lat="38.80077379467811" lon="-9.272179600725293"><ele>260.0</ele><time>2026-05-01T09:15:20Z</time></trkpt><trkpt lat="38.800721537235404" lon="-9.272255655193575"><ele>260.0</ele><time>2026-05-01T09:15:22Z</time></trkpt><trkpt lat="38.800593467435895" lon="-9.272310595695386"><ele>260.0</ele><time>2026-05-01T09:15:24Z</time></trkpt><trkpt lat="38.80049664584803" lon="-9.272311417951869"><ele>260.0</ele><time>2026-05-01T09:15:25Z</time></trkpt><trkpt lat="38.80040713355526" lon="-9.27231460172106"><ele>260.0</ele><time>2026-05-01T09:15:26Z</time></trkpt><trkpt lat="38.80033824916783" lon="-9.272323540143814"><ele>260.4</ele><time>2026-05-01T09:15:27Z</time></trkpt><trkpt lat="38.80027030376322" lon="-9.272337568074876"><ele>260.8</ele><time>2026-05-01T09:15:28Z</time></trkpt><trkpt lat="38.800217353367316" lon="-9.272393163918"><ele>261.2</ele><time>2026-05-01T09:15:29Z</time></trkpt><trkpt lat="38.800121498028716" lon="-9.272452855284879"><ele>261.6</ele><time>2026-05-01T09:15:31Z</time></trkpt><trkpt lat="38.800094727705186" lon="-9.272239054160108"><ele>262.0</ele><time>2026-05-01T09:15:32Z</time></trkpt><trkpt lat="38.800004655390296" lon="-9.272337636801229"><ele>262.0</ele><time>2026-05-01T09:15:33Z</time></trkpt><trkpt lat="38.79995228197729" lon="-9.272244068171362"><ele>262.0</ele><time>2026-05-01T09:15:34Z</time></trkpt><trkpt lat="38.79987743810088" lon="-9.272153568145784"><ele>262.0</ele><time>2026-05-01T09:15:35Z</time></trkpt><trkpt lat="38.79979631636731" lon="-9.272057169166365"><ele>262.0</ele><time>2026-05-01T09:15:36Z</time></trkpt><trkpt lat="38.7997108384109" lon="-9.271981277470566"><ele>262.0</ele><time>2026-05-01T09:15:37Z</time></trkpt><trkpt lat="38.79965337656929" lon="-9.271859375006025"><ele>262.0</ele><time>2026-05-01T09:15:38Z</time></trkpt><trkpt lat="38.79960980110649" lon="-9.271758528840538"><ele>262.0</ele><time>2026-05-01T09:15:39Z</time></trkpt><trkpt lat="38.79956467758489" lon="-9.271650952115193"><ele>262.0</ele><time>2026-05-01T09:15:40Z</time></trkpt><trkpt lat="38.79952763833859" lon="-9.271549791985306"><ele>262.0</ele><time>2026-05-01T09:15:41Z</time></trkpt><trkpt lat="38.79949819520643" lon="-9.271462424821957"><ele>262.0</ele><time>2026-05-01T09:15:42Z</time></trkpt><trkpt lat="38.799472183100306" lon="-9.271376194349857"><ele>262.0</ele><time>2026-05-01T09:15:43Z</time></trkpt><trkpt lat="38.799447108913725" lon="-9.271270036682855"><ele>262.0</ele><time>2026-05-01T09:15:46Z</time></trkpt><trkpt lat="38.7994650134142" lon="-9.271176240490474"><ele>262.0</ele><time>2026-05-01T09:15:48Z</time></trkpt><trkpt lat="38.79953958082326" lon="-9.271271445626915"><ele>262.0</ele><time>2026-05-01T09:15:50Z</time></trkpt><trkpt lat="38.79954058328072" lon="-9.271356396280316"><ele>262.0</ele><time>2026-05-01T09:15:51Z</time></trkpt><trkpt lat="38.79955663397301" lon="-9.271461580080835"><ele>262.0</ele><time>2026-05-01T09:15:52Z</time></trkpt><trkpt lat="38.79958252626482" lon="-9.271574236125062"><ele>262.0</ele><time>2026-05-01T09:15:53Z</time></trkpt><trkpt lat="38.79962172016258" lon="-9.271688993770221"><ele>262.0</ele><time>2026-05-01T09:15:54Z</time></trkpt><trkpt lat="38.79965110607006" lon="-9.271799144270627"><ele>262.0</ele><time>2026-05-01T09:15:55Z</time></trkpt><trkpt lat="38.79969179836843" lon="-9.271896928241055"><ele>262.0</ele><time>2026-05-01T09:15:56Z</time></trkpt><trkpt lat="38.799746544374514" lon="-9.271993922217987"><ele>262.0</ele><time>2026-05-01T09:15:57Z</time></trkpt><trkpt lat="38.79980659440141" lon="-9.272074018617722"><ele>262.0</ele><time>2026-05-01T09:15:58Z</time></trkpt><trkpt lat="38.79987544679626" lon="-9.272142863057473"><ele>262.0</ele><time>2026-05-01T09:15:59Z</time></trkpt><trkpt lat="38.79996146353858" lon="-9.272197533645077"><ele>262.0</ele><time>2026-05-01T09:16:00Z</time></trkpt><trkpt lat="38.800038548883485" lon="-9.27223006299016"><ele>262.0</ele><time>2026-05-01T09:16:01Z</time></trkpt><trkpt lat="38.80012776924687" lon="-9.272204084083564"><ele>262.0</ele><time>2026-05-01T09:16:02Z</time></trkpt><trkpt lat="38.800198038936635" lon="-9.27222852511001"><ele>262.0</ele><time>2026-05-01T09:16:03Z</time></trkpt><trkpt lat="38.80025343317376" lon="-9.272298017117476"><ele>262.0</ele><time>2026-05-01T09:16:04Z</time></trkpt><trkpt lat="38.80017710811866" lon="-9.272511245945804"><ele>260.6</ele><time>2026-05-01T09:16:05Z</time></trkpt><trkpt lat="38.80017122242857" lon="-9.272658835545101"><ele>259.2</ele><time>2026-05-01T09:16:06Z</time></trkpt><trkpt lat="38.80018991007555" lon="-9.2727945557915"><ele>257.8</ele><time>2026-05-01T09:16:07Z</time></trkpt><trkpt lat="38.800225526657265" lon="-9.272925386019084"><ele>256.4</ele><time>2026-05-01T09:16:08Z</time></trkpt><trkpt lat="38.80026479344805" lon="-9.273053469299475"><ele>255.0</ele><time>2026-05-01T09:16:09Z</time></trkpt><trkpt lat="38.800289828682786" lon="-9.273181480329148"><ele>253.2</ele><time>2026-05-01T09:16:10Z</time></trkpt><trkpt lat="38.80031661514328" lon="-9.273302662623337"><ele>251.4</ele><time>2026-05-01T09:16:11Z</time></trkpt><trkpt lat="38.80034432340626" lon="-9.273418175106785"><ele>249.60000000000002</ele><time>2026-05-01T09:16:12Z</time></trkpt><trkpt lat="38.80037340104459" lon="-9.273529840690886"><ele>247.8</ele><time>2026-05-01T09:16:13Z</time></trkpt><trkpt lat="38.80040289338305" lon="-9.273636142253702"><ele>246.0</ele><time>2026-05-01T09:16:14Z</time></trkpt><trkpt lat="38.800428275260764" lon="-9.273743268190794"><ele>246.0</ele><time>2026-05-01T09:16:15Z</time></trkpt><trkpt lat="38.80045019680989" lon="-9.273845538603322"><ele>246.0</ele><time>2026-05-01T09:16:16Z</time></trkpt><trkpt lat="38.80046959803365" lon="-9.273930101419745"><ele>246.0</ele><time>2026-05-01T09:16:17Z</time></trkpt><trkpt lat="38.80048944426349" lon="-9.274016458177247"><ele>246.0</ele><time>2026-05-01T09:16:18Z</time></trkpt><trkpt lat="38.800510650086174" lon="-9.274100740801039"><ele>246.0</ele><time>2026-05-01T09:16:19Z</time></trkpt><trkpt lat="38.800533752528224" lon="-9.274197319950126"><ele>246.0</ele><time>2026-05-01T09:16:20Z</time></trkpt><trkpt lat="38.80056320758585" lon="-9.274324521003456"><ele>244.5</ele><time>2026-05-01T09:16:21Z</time></trkpt><trkpt lat="38.8005864681353" lon="-9.274432560695734"><ele>243.0</ele><time>2026-05-01T09:16:22Z</time></trkpt><trkpt lat="38.800614498308946" lon="-9.274529806123109"><ele>241.5</ele><time>2026-05-01T09:16:23Z</time></trkpt><trkpt lat="38.800634745632216" lon="-9.274615973873507"><ele>240.0</ele><time>2026-05-01T09:16:24Z</time></trkpt><trkpt lat="38.800610577099945" lon="-9.274694687473866"><ele>238.5</ele><time>2026-05-01T09:16:25Z</time></trkpt><trkpt lat="38.800589811708086" lon="-9.274840588119087"><ele>237.0</ele><time>2026-05-01T09:16:27Z</time></trkpt><trkpt lat="38.80072614189226" lon="-9.274933637221958"><ele>236.0</ele><time>2026-05-01T09:16:28Z</time></trkpt><trkpt lat="38.800725391719844" lon="-9.27501929371173"><ele>235.0</ele><time>2026-05-01T09:16:29Z</time></trkpt><trkpt lat="38.80074727623633" lon="-9.275110792533232"><ele>234.0</ele><time>2026-05-01T09:16:30Z</time></trkpt><trkpt lat="38.80077887338481" lon="-9.275252215446647"><ele>233.0</ele><time>2026-05-01T09:16:32Z</time></trkpt><trkpt lat="38.80079783346939" lon="-9.27540587119645"><ele>232.0</ele><time>2026-05-01T09:16:34Z</time></trkpt><trkpt lat="38.80081331313321" lon="-9.275485445353944"><ele>231.0</ele><time>2026-05-01T09:16:35Z</time></trkpt><trkpt lat="38.80084364549621" lon="-9.275645599629293"><ele>230.5</ele><time>2026-05-01T09:16:37Z</time></trkpt><trkpt lat="38.800863405077386" lon="-9.27572310064071"><ele>230.0</ele><time>2026-05-01T09:16:38Z</time></trkpt><trkpt lat="38.80088025577375" lon="-9.275808712856355"><ele>229.5</ele><time>2026-05-01T09:16:39Z</time></trkpt><trkpt lat="38.80087154301892" lon="-9.275921808811267"><ele>229.0</ele><time>2026-05-01T09:16:40Z</time></trkpt><trkpt lat="38.8008884725952" lon="-9.276036511525621"><ele>228.5</ele><time>2026-05-01T09:16:41Z</time></trkpt><trkpt lat="38.80091270386979" lon="-9.276142268141822"><ele>228.0</ele><time>2026-05-01T09:16:42Z</time></trkpt><trkpt lat="38.80092379266696" lon="-9.276241123967651"><ele>228.0</ele><time>2026-05-01T09:16:43Z</time></trkpt><trkpt lat="38.80094889877421" lon="-9.276354444122216"><ele>228.0</ele><time>2026-05-01T09:16:44Z</time></trkpt><trkpt lat="38.8009696497671" lon="-9.276462399237534"><ele>228.0</ele><time>2026-05-01T09:16:45Z</time></trkpt><trkpt lat="38.800984770779145" lon="-9.276544875057168"><ele>228.0</ele><time>2026-05-01T09:16:46Z</time></trkpt><trkpt lat="38.80099836088776" lon="-9.27663094345369"><ele>228.0</ele><time>2026-05-01T09:16:47Z</time></trkpt><trkpt lat="38.801017714287276" lon="-9.276771539623077"><ele>228.0</ele><time>2026-05-01T09:16:49Z</time></trkpt><trkpt lat="38.80102807392206" lon="-9.276856530085723"><ele>226.66666666666666</ele><time>2026-05-01T09:16:50Z</time></trkpt><trkpt lat="38.80104847312326" lon="-9.276992213801433"><ele>225.33333333333331</ele><time>2026-05-01T09:16:52Z</time></trkpt><trkpt lat="38.80106503336048" lon="-9.277098347960758"><ele>224.0</ele><time>2026-05-01T09:16:55Z</time></trkpt><trkpt lat="38.8010713248015" lon="-9.277180131005455"><ele>222.66666666666666</ele><time>2026-05-01T09:17:16Z</time></trkpt><trkpt lat="38.80106570150094" lon="-9.277096783786119"><ele>221.33333333333331</ele><time>2026-05-01T09:17:45Z</time></trkpt><trkpt lat="38.80105120034645" lon="-9.276964756199895"><ele>220.0</ele><time>2026-05-01T09:18:52Z</time></trkpt><trkpt lat="38.80102761024898" lon="-9.276847278364713"><ele>220.0</ele><time>2026-05-01T09:18:54Z</time></trkpt><trkpt lat="38.80100477186397" lon="-9.27669272615672"><ele>220.0</ele><time>2026-05-01T09:18:56Z</time></trkpt><trkpt lat="38.80098110573336" lon="-9.276557835906871"><ele>220.0</ele><time>2026-05-01T09:18:58Z</time></trkpt><trkpt lat="38.800962830272496" lon="-9.276419444687027"><ele>220.0</ele><time>2026-05-01T09:19:00Z</time></trkpt><trkpt lat="38.80093791549351" lon="-9.276260629639914"><ele>222.0</ele><time>2026-05-01T09:19:02Z</time></trkpt><trkpt lat="38.800910968998174" lon="-9.276113246881318"><ele>224.0</ele><time>2026-05-01T09:19:04Z</time></trkpt><trkpt lat="38.8008917878687" lon="-9.27597549581127"><ele>226.0</ele><time>2026-05-01T09:19:06Z</time></trkpt><trkpt lat="38.80086965855371" lon="-9.275821536632453"><ele>228.0</ele><time>2026-05-01T09:19:08Z</time></trkpt><trkpt lat="38.80086726041022" lon="-9.275670835693345"><ele>228.60000000000002</ele><time>2026-05-01T09:19:10Z</time></trkpt><trkpt lat="38.80082279565655" lon="-9.27553125130241"><ele>229.20000000000002</ele><time>2026-05-01T09:19:12Z</time></trkpt><trkpt lat="38.800818902932825" lon="-9.275438997813914"><ele>229.8</ele><time>2026-05-01T09:19:13Z</time></trkpt><trkpt lat="38.80079005325003" lon="-9.275299312830121"><ele>230.4</ele><time>2026-05-01T09:19:15Z</time></trkpt><trkpt lat="38.800758731098874" lon="-9.275160761344093"><ele>231.0</ele><time>2026-05-01T09:19:17Z</time></trkpt><trkpt lat="38.800733730510736" lon="-9.275043571055264"><ele>231.0</ele><time>2026-05-01T09:19:19Z</time></trkpt><trkpt lat="38.800724518710055" lon="-9.274942828318613"><ele>231.00000000000003</ele><time>2026-05-01T09:19:21Z</time></trkpt><trkpt lat="38.800687614265236" lon="-9.274802212246126"><ele>231.00000000000003</ele><time>2026-05-01T09:19:23Z</time></trkpt><trkpt lat="38.80060157154331" lon="-9.274731740575112"><ele>231.0</ele><time>2026-05-01T09:19:25Z</time></trkpt><trkpt lat="38.80050418573287" lon="-9.274731350438207"><ele>231.0</ele><time>2026-05-01T09:19:27Z</time></trkpt><trkpt lat="38.800430407376474" lon="-9.274756992648776"><ele>231.0</ele><time>2026-05-01T09:19:29Z</time></trkpt><trkpt lat="38.80035354799741" lon="-9.274783649892884"><ele>231.00000000000003</ele><time>2026-05-01T09:19:34Z</time></trkpt><trkpt lat="38.800279275196466" lon="-9.274817093201174"><ele>231.00000000000003</ele><time>2026-05-01T09:19:37Z</time></trkpt><trkpt lat="38.80021366209616" lon="-9.27485679295249"><ele>231.0</ele><time>2026-05-01T09:19:38Z</time></trkpt><trkpt lat="38.800098947546346" lon="-9.27491756649703"><ele>231.0</ele><time>2026-05-01T09:19:40Z</time></trkpt><trkpt lat="38.79998998079583" lon="-9.2749754458752"><ele>232.25</ele><time>2026-05-01T09:19:42Z</time></trkpt><trkpt lat="38.799928219280474" lon="-9.274997568908656"><ele>233.5</ele><time>2026-05-01T09:19:43Z</time></trkpt><trkpt lat="38.79982192348193" lon="-9.275027708019355"><ele>234.75</ele><time>2026-05-01T09:19:45Z</time></trkpt><trkpt lat="38.799800918572664" lon="-9.275278233880629"><ele>236.0</ele><time>2026-05-01T09:19:47Z</time></trkpt><trkpt lat="38.799833822177426" lon="-9.275411150662453"><ele>236.0</ele><time>2026-05-01T09:19:48Z</time></trkpt><trkpt lat="38.79986676310095" lon="-9.275551441438928"><ele>236.0</ele><time>2026-05-01T09:19:49Z</time></trkpt><trkpt lat="38.79989325477436" lon="-9.275711918381685"><ele>236.0</ele><time>2026-05-01T09:19:50Z</time></trkpt><trkpt lat="38.79992140356646" lon="-9.275885478204064"><ele>236.0</ele><time>2026-05-01T09:19:51Z</time></trkpt><trkpt lat="38.79994623742847" lon="-9.276056859574677"><ele>233.75</ele><time>2026-05-01T09:19:52Z</time></trkpt><trkpt lat="38.79997215903578" lon="-9.276229086116915"><ele>231.5</ele><time>2026-05-01T09:19:53Z</time></trkpt><trkpt lat="38.79999699937324" lon="-9.276387650618554"><ele>229.25</ele><time>2026-05-01T09:19:54Z</time></trkpt><trkpt lat="38.800021111243105" lon="-9.27656102098921"><ele>227.0</ele><time>2026-05-01T09:19:55Z</time></trkpt><trkpt lat="38.80005886848517" lon="-9.276714273713472"><ele>225.5</ele><time>2026-05-01T09:19:56Z</time></trkpt><trkpt lat="38.8000714270501" lon="-9.27687959457866"><ele>224.0</ele><time>2026-05-01T09:19:57Z</time></trkpt><trkpt lat="38.80010111443743" lon="-9.277070049933611"><ele>222.5</ele><time>2026-05-01T09:19:58Z</time></trkpt><trkpt lat="38.80012944862272" lon="-9.277259360053817"><ele>221.0</ele><time>2026-05-01T09:19:59Z</time></trkpt><trkpt lat="38.800159627470386" lon="-9.277454919092317"><ele>219.66666666666669</ele><time>2026-05-01T09:20:00Z</time></trkpt><trkpt lat="38.80018892099591" lon="-9.277651552218913"><ele>218.33333333333331</ele><time>2026-05-01T09:20:01Z</time></trkpt><trkpt lat="38.80021615397502" lon="-9.27784603365576"><ele>217.0</ele><time>2026-05-01T09:20:02Z</time></trkpt><trkpt lat="38.800243628165035" lon="-9.278038406842343"><ele>214.5</ele><time>2026-05-01T09:20:03Z</time></trkpt><trkpt lat="38.800270694144544" lon="-9.278227080012218"><ele>212.0</ele><time>2026-05-01T09:20:04Z</time></trkpt><trkpt lat="38.80029371189558" lon="-9.278407804776426"><ele>209.5</ele><time>2026-05-01T09:20:05Z</time></trkpt><trkpt lat="38.80032154359919" lon="-9.278583222765972"><ele>207.0</ele><time>2026-05-01T09:20:06Z</time></trkpt><trkpt lat="38.80035078881073" lon="-9.278759741682093"><ele>207.75</ele><time>2026-05-01T09:20:07Z</time></trkpt><trkpt lat="38.800383308793165" lon="-9.27894294187987"><ele>208.5</ele><time>2026-05-01T09:20:08Z</time></trkpt><trkpt lat="38.80041827494215" lon="-9.279130503470794"><ele>209.25</ele><time>2026-05-01T09:20:09Z</time></trkpt><trkpt lat="38.80045176596198" lon="-9.279317826667485"><ele>210.0</ele><time>2026-05-01T09:20:10Z</time></trkpt><trkpt lat="38.800490876578735" lon="-9.27950434268498"><ele>210.0</ele><time>2026-05-01T09:20:11Z</time></trkpt><trkpt lat="38.8005316469784" lon="-9.279691662654061"><ele>210.0</ele><time>2026-05-01T09:20:12Z</time></trkpt><trkpt lat="38.80058071035346" lon="-9.279876968606915"><ele>210.0</ele><time>2026-05-01T09:20:13Z</time></trkpt><trkpt lat="38.80063134710251" lon="-9.280051429852726"><ele>210.0</ele><time>2026-05-01T09:20:14Z</time></trkpt><trkpt lat="38.80066972379672" lon="-9.280219776268941"><ele>212.25</ele><time>2026-05-01T09:20:15Z</time></trkpt><trkpt lat="38.80073209732391" lon="-9.28037192167096"><ele>214.5</ele><time>2026-05-01T09:20:16Z</time></trkpt><trkpt lat="38.80080750959278" lon="-9.28050952111596"><ele>216.75</ele><time>2026-05-01T09:20:17Z</time></trkpt><trkpt lat="38.80089944343547" lon="-9.280643779641712"><ele>219.0</ele><time>2026-05-01T09:20:18Z</time></trkpt><trkpt lat="38.80098506045712" lon="-9.280783575582266"><ele>220.66666666666669</ele><time>2026-05-01T09:20:19Z</time></trkpt><trkpt lat="38.80107782138801" lon="-9.28094746818207"><ele>222.33333333333334</ele><time>2026-05-01T09:20:20Z</time></trkpt><trkpt lat="38.80117035608902" lon="-9.28111793094084"><ele>224.0</ele><time>2026-05-01T09:20:21Z</time></trkpt><trkpt lat="38.80126371980446" lon="-9.281291162970868"><ele>223.66666666666669</ele><time>2026-05-01T09:20:22Z</time></trkpt><trkpt lat="38.8013508829952" lon="-9.281458155979731"><ele>223.33333333333331</ele><time>2026-05-01T09:20:23Z</time></trkpt><trkpt lat="38.80143051621573" lon="-9.281616687595175"><ele>223.0</ele><time>2026-05-01T09:20:24Z</time></trkpt><trkpt lat="38.80152371160185" lon="-9.28179040187244"><ele>223.0</ele><time>2026-05-01T09:20:25Z</time></trkpt><trkpt lat="38.8016170910474" lon="-9.281995075024536"><ele>223.0</ele><time>2026-05-01T09:20:26Z</time></trkpt><trkpt lat="38.801700899047965" lon="-9.282199034521383"><ele>223.0</ele><time>2026-05-01T09:20:27Z</time></trkpt><trkpt lat="38.80176618738188" lon="-9.28238326818855"><ele>225.75</ele><time>2026-05-01T09:20:28Z</time></trkpt><trkpt lat="38.80182140285253" lon="-9.282549967082787"><ele>228.5</ele><time>2026-05-01T09:20:29Z</time></trkpt><trkpt lat="38.801870772231894" lon="-9.282710650001269"><ele>231.25</ele><time>2026-05-01T09:20:30Z</time></trkpt><trkpt lat="38.801919302995586" lon="-9.282856691695262"><ele>234.0</ele><time>2026-05-01T09:20:31Z</time></trkpt><trkpt lat="38.801971085805405" lon="-9.282994358259959"><ele>234.25</ele><time>2026-05-01T09:20:32Z</time></trkpt><trkpt lat="38.80203635976172" lon="-9.283137926651943"><ele>234.5</ele><time>2026-05-01T09:20:33Z</time></trkpt><trkpt lat="38.80211462449425" lon="-9.283288324560184"><ele>234.75</ele><time>2026-05-01T09:20:34Z</time></trkpt><trkpt lat="38.80220207272774" lon="-9.283448966018437"><ele>235.0</ele><time>2026-05-01T09:20:35Z</time></trkpt><trkpt lat="38.802302488932426" lon="-9.283629909526166"><ele>235.0</ele><time>2026-05-01T09:20:36Z</time></trkpt><trkpt lat="38.80240760739418" lon="-9.283826540708242"><ele>235.0</ele><time>2026-05-01T09:20:37Z</time></trkpt><trkpt lat="38.80251404606873" lon="-9.28403991982628"><ele>235.0</ele><time>2026-05-01T09:20:38Z</time></trkpt><trkpt lat="38.80261709301808" lon="-9.284250763614944"><ele>236.66666666666666</ele><time>2026-05-01T09:20:39Z</time></trkpt><trkpt lat="38.802709137169" lon="-9.284448275514498"><ele>238.33333333333331</ele><time>2026-05-01T09:20:40Z</time></trkpt><trkpt lat="38.802789746181034" lon="-9.284608549676763"><ele>240.0</ele><time>2026-05-01T09:20:41Z</time></trkpt><trkpt lat="38.80286548644382" lon="-9.28476178883247"><ele>241.0</ele><time>2026-05-01T09:20:42Z</time></trkpt><trkpt lat="38.802940139047315" lon="-9.284908866214346"><ele>242.0</ele><time>2026-05-01T09:20:43Z</time></trkpt><trkpt lat="38.80301242280126" lon="-9.285055921607722"><ele>243.0</ele><time>2026-05-01T09:20:44Z</time></trkpt><trkpt lat="38.803078298631554" lon="-9.285189821003735"><ele>244.0</ele><time>2026-05-01T09:20:45Z</time></trkpt><trkpt lat="38.80315536083145" lon="-9.285339481292121"><ele>244.0</ele><time>2026-05-01T09:20:46Z</time></trkpt><trkpt lat="38.803230031172845" lon="-9.285489265900058"><ele>244.0</ele><time>2026-05-01T09:20:47Z</time></trkpt><trkpt lat="38.803309110908764" lon="-9.285626177925108"><ele>244.0</ele><time>2026-05-01T09:20:48Z</time></trkpt><trkpt lat="38.80340990661253" lon="-9.285743649814405"><ele>244.0</ele><time>2026-05-01T09:20:49Z</time></trkpt><trkpt lat="38.80353608861549" lon="-9.28584757775303"><ele>245.66666666666666</ele><time>2026-05-01T09:20:50Z</time></trkpt><trkpt lat="38.80368252864974" lon="-9.28595818052482"><ele>247.33333333333331</ele><time>2026-05-01T09:20:51Z</time></trkpt><trkpt lat="38.80384268251134" lon="-9.28608631450557"><ele>249.0</ele><time>2026-05-01T09:20:52Z</time></trkpt><trkpt lat="38.80399445745363" lon="-9.286206152794984"><ele>249.0</ele><time>2026-05-01T09:20:53Z</time></trkpt><trkpt lat="38.80412552431037" lon="-9.286324184660852"><ele>249.0</ele><time>2026-05-01T09:20:54Z</time></trkpt><trkpt lat="38.804236648280856" lon="-9.286428653216003"><ele>249.0</ele><time>2026-05-01T09:20:55Z</time></trkpt><trkpt lat="38.804360320305385" lon="-9.286542195321704"><ele>248.66666666666669</ele><time>2026-05-01T09:20:56Z</time></trkpt><trkpt lat="38.804479875008994" lon="-9.286670754857413"><ele>248.33333333333334</ele><time>2026-05-01T09:20:57Z</time></trkpt><trkpt lat="38.80459213042071" lon="-9.286809047990088"><ele>248.0</ele><time>2026-05-01T09:20:58Z</time></trkpt><trkpt lat="38.804702569552255" lon="-9.286948224957195"><ele>248.0</ele><time>2026-05-01T09:20:59Z</time></trkpt><trkpt lat="38.804809711209494" lon="-9.28707282735995"><ele>248.0</ele><time>2026-05-01T09:21:00Z</time></trkpt><trkpt lat="38.80494185175644" lon="-9.287169191618846"><ele>248.0</ele><time>2026-05-01T09:21:01Z</time></trkpt><trkpt lat="38.805076201520635" lon="-9.287281119317289"><ele>247.5</ele><time>2026-05-01T09:21:02Z</time></trkpt><trkpt lat="38.80521077751983" lon="-9.287395512807667"><ele>247.0</ele><time>2026-05-01T09:21:03Z</time></trkpt><trkpt lat="38.805341771814334" lon="-9.28748018462539"><ele>246.5</ele><time>2026-05-01T09:21:04Z</time></trkpt><trkpt lat="38.80546555188581" lon="-9.287561637383462"><ele>246.0</ele><time>2026-05-01T09:21:05Z</time></trkpt><trkpt lat="38.80559105887348" lon="-9.287640907466779"><ele>246.0</ele><time>2026-05-01T09:21:06Z</time></trkpt><trkpt lat="38.80571248499212" lon="-9.287706603769049"><ele>246.00000000000003</ele><time>2026-05-01T09:21:07Z</time></trkpt><trkpt lat="38.80581741143832" lon="-9.2877600462514"><ele>246.00000000000003</ele><time>2026-05-01T09:21:08Z</time></trkpt><trkpt lat="38.805918217948616" lon="-9.287794769658811"><ele>246.0</ele><time>2026-05-01T09:21:09Z</time></trkpt><trkpt lat="38.806010235859496" lon="-9.287819256877569"><ele>246.0</ele><time>2026-05-01T09:21:10Z</time></trkpt><trkpt lat="38.806091312170544" lon="-9.28783919827049"><ele>245.8571428571429</ele><time>2026-05-01T09:21:11Z</time></trkpt><trkpt lat="38.80615357179041" lon="-9.28788273276535"><ele>245.71428571428572</ele><time>2026-05-01T09:21:12Z</time></trkpt><trkpt lat="38.80622875455548" lon="-9.287885821474584"><ele>245.57142857142858</ele><time>2026-05-01T09:21:14Z</time></trkpt><trkpt lat="38.806283843463625" lon="-9.287929046857546"><ele>245.42857142857144</ele><time>2026-05-01T09:21:16Z</time></trkpt><trkpt lat="38.806355214508564" lon="-9.287932813659724"><ele>245.28571428571428</ele><time>2026-05-01T09:21:17Z</time></trkpt><trkpt lat="38.8064213651178" lon="-9.287959970391308"><ele>245.14285714285714</ele><time>2026-05-01T09:21:18Z</time></trkpt><trkpt lat="38.80648357120525" lon="-9.287985760382588"><ele>245.0</ele><time>2026-05-01T09:21:19Z</time></trkpt><trkpt lat="38.80659368714193" lon="-9.288032478718677"><ele>245.0</ele><time>2026-05-01T09:21:21Z</time></trkpt><trkpt lat="38.806694682434134" lon="-9.288075327398655"><ele>245.0</ele><time>2026-05-01T09:21:23Z</time></trkpt><trkpt lat="38.806773515717076" lon="-9.288108330876172"><ele>245.0</ele><time>2026-05-01T09:21:25Z</time></trkpt><trkpt lat="38.806847181839345" lon="-9.288138761738498"><ele>245.0</ele><time>2026-05-01T09:21:27Z</time></trkpt><trkpt lat="38.80693977630328" lon="-9.2881940765898"><ele>245.0</ele><time>2026-05-01T09:21:29Z</time></trkpt><trkpt lat="38.806848345018004" lon="-9.28889662253941"><ele>244.4</ele><time>2026-05-01T09:21:31Z</time></trkpt><trkpt lat="38.806844341209086" lon="-9.289069057574288"><ele>243.8</ele><time>2026-05-01T09:21:33Z</time></trkpt><trkpt lat="38.80684939327354" lon="-9.289160616228337"><ele>243.2</ele><time>2026-05-01T09:21:34Z</time></trkpt><trkpt lat="38.80686034576893" lon="-9.289268556690748"><ele>242.6</ele><time>2026-05-01T09:21:35Z</time></trkpt><trkpt lat="38.80687597930176" lon="-9.289406682114745"><ele>242.0</ele><time>2026-05-01T09:21:36Z</time></trkpt><trkpt lat="38.80688756300809" lon="-9.289569503693492"><ele>242.00000000000003</ele><time>2026-05-01T09:21:37Z</time></trkpt><trkpt lat="38.80690304414801" lon="-9.289721926065962"><ele>242.0</ele><time>2026-05-01T09:21:38Z</time></trkpt><trkpt lat="38.806917866789654" lon="-9.289851086707486"><ele>242.0</ele><time>2026-05-01T09:21:39Z</time></trkpt><trkpt lat="38.806930399874936" lon="-9.28996004524367"><ele>242.0</ele><time>2026-05-01T09:21:40Z</time></trkpt><trkpt lat="38.80693553634953" lon="-9.290049390378515"><ele>242.00000000000003</ele><time>2026-05-01T09:21:41Z</time></trkpt><trkpt lat="38.806950848587626" lon="-9.290136473182349"><ele>242.0</ele><time>2026-05-01T09:21:42Z</time></trkpt><trkpt lat="38.80696352556495" lon="-9.29022918522054"><ele>243.0</ele><time>2026-05-01T09:21:43Z</time></trkpt><trkpt lat="38.80700360052212" lon="-9.290357744296351"><ele>244.0</ele><time>2026-05-01T09:21:45Z</time></trkpt><trkpt lat="38.80707589585592" lon="-9.290403386921634"><ele>245.0</ele><time>2026-05-01T09:21:47Z</time></trkpt><trkpt lat="38.807131692521466" lon="-9.290471656086332"><ele>246.0</ele><time>2026-05-01T09:21:49Z</time></trkpt><trkpt lat="38.807146546508136" lon="-9.290592456706372"><ele>247.0</ele><time>2026-05-01T09:21:51Z</time></trkpt><trkpt lat="38.80718472045473" lon="-9.2907318626935"><ele>248.25</ele><time>2026-05-01T09:21:53Z</time></trkpt><trkpt lat="38.80725630644604" lon="-9.290906429658456"><ele>249.5</ele><time>2026-05-01T09:21:56Z</time></trkpt><trkpt lat="38.80732240674263" lon="-9.29100223483797"><ele>250.75</ele><time>2026-05-01T09:21:58Z</time></trkpt><trkpt lat="38.807390011570824" lon="-9.291099570282501"><ele>252.0</ele><time>2026-05-01T09:22:00Z</time></trkpt><trkpt lat="38.80747283716621" lon="-9.291199071909496"><ele>252.0</ele><time>2026-05-01T09:22:02Z</time></trkpt><trkpt lat="38.80752684855367" lon="-9.291254064167745"><ele>252.0</ele><time>2026-05-01T09:22:03Z</time></trkpt><trkpt lat="38.80760991360793" lon="-9.291294707674506"><ele>252.0</ele><time>2026-05-01T09:22:05Z</time></trkpt><trkpt lat="38.8077021986026" lon="-9.29131739326621"><ele>252.0</ele><time>2026-05-01T09:22:07Z</time></trkpt><trkpt lat="38.80778704896143" lon="-9.291352318796744"><ele>252.0</ele><time>2026-05-01T09:22:09Z</time></trkpt><trkpt lat="38.807862591040504" lon="-9.29137584042669"><ele>252.0</ele><time>2026-05-01T09:22:11Z</time></trkpt><trkpt lat="38.8079298212727" lon="-9.291286006827194"><ele>251.16666666666666</ele><time>2026-05-01T09:22:13Z</time></trkpt><trkpt lat="38.80797567254567" lon="-9.291203800222862"><ele>250.33333333333331</ele><time>2026-05-01T09:22:16Z</time></trkpt><trkpt lat="38.808017866231026" lon="-9.29111753738962"><ele>249.5</ele><time>2026-05-01T09:22:19Z</time></trkpt><trkpt lat="38.808071972147644" lon="-9.291072938448314"><ele>248.66666666666666</ele><time>2026-05-01T09:22:21Z</time></trkpt><trkpt lat="38.808143982820766" lon="-9.291084560682705"><ele>247.83333333333331</ele><time>2026-05-01T09:22:24Z</time></trkpt><trkpt lat="38.80821592617473" lon="-9.291119984486164"><ele>247.0</ele><time>2026-05-01T09:22:28Z</time></trkpt><trkpt lat="38.808295189750666" lon="-9.291188187301245"><ele>247.0</ele><time>2026-05-01T09:22:31Z</time></trkpt><trkpt lat="38.80835147536415" lon="-9.291242534088816"><ele>247.0</ele><time>2026-05-01T09:22:34Z</time></trkpt><trkpt lat="38.8084235301634" lon="-9.29127587180218"><ele>247.0</ele><time>2026-05-01T09:22:37Z</time></trkpt><trkpt lat="38.808488330460875" lon="-9.291324309517156"><ele>247.0</ele><time>2026-05-01T09:22:39Z</time></trkpt><trkpt lat="38.8085514979659" lon="-9.29139444878739"><ele>247.0</ele><time>2026-05-01T09:22:44Z</time></trkpt><trkpt lat="38.80859994974933" lon="-9.291465422908416"><ele>247.0</ele><time>2026-05-01T09:22:47Z</time></trkpt><trkpt lat="38.80864072079257" lon="-9.291530408082776"><ele>247.0</ele><time>2026-05-01T09:22:52Z</time></trkpt><trkpt lat="38.808685795270755" lon="-9.291605610136008"><ele>247.14285714285717</ele><time>2026-05-01T09:22:57Z</time></trkpt><trkpt lat="38.808745556932436" lon="-9.291686604940084"><ele>247.28571428571428</ele><time>2026-05-01T09:23:01Z</time></trkpt><trkpt lat="38.80878423912229" lon="-9.291753618659843"><ele>247.42857142857144</ele><time>2026-05-01T09:23:04Z</time></trkpt><trkpt lat="38.808817306810916" lon="-9.291824265924319"><ele>247.57142857142858</ele><time>2026-05-01T09:23:07Z</time></trkpt><trkpt lat="38.80885689180247" lon="-9.291899189706562"><ele>247.71428571428572</ele><time>2026-05-01T09:23:10Z</time></trkpt><trkpt lat="38.808904768122595" lon="-9.291966831587171"><ele>247.85714285714286</ele><time>2026-05-01T09:23:15Z</time></trkpt><trkpt lat="38.80896218012142" lon="-9.292017567782432"><ele>248.0</ele><time>2026-05-01T09:23:20Z</time></trkpt><trkpt lat="38.80901703387214" lon="-9.292074722910373"><ele>248.0</ele><time>2026-05-01T09:23:34Z</time></trkpt><trkpt lat="38.809071044373404" lon="-9.292129875950017"><ele>248.00000000000003</ele><time>2026-05-01T09:23:40Z</time></trkpt><trkpt lat="38.80913652614527" lon="-9.29217056691829"><ele>248.0</ele><time>2026-05-01T09:23:44Z</time></trkpt><trkpt lat="38.80920847914837" lon="-9.292186301062507"><ele>248.0</ele><time>2026-05-01T09:23:48Z</time></trkpt><trkpt lat="38.80927636471979" lon="-9.292198705849934"><ele>248.00000000000003</ele><time>2026-05-01T09:23:51Z</time></trkpt><trkpt lat="38.80935919190738" lon="-9.292239151683091"><ele>248.0</ele><time>2026-05-01T09:23:54Z</time></trkpt><trkpt lat="38.80941878363543" lon="-9.292292257936024"><ele>248.0</ele><time>2026-05-01T09:23:56Z</time></trkpt><trkpt lat="38.80948112098688" lon="-9.292346724351468"><ele>246.8</ele><time>2026-05-01T09:23:58Z</time></trkpt><trkpt lat="38.80963365429106" lon="-9.292440975228638"><ele>245.60000000000002</ele><time>2026-05-01T09:24:00Z</time></trkpt><trkpt lat="38.809698860588426" lon="-9.292484835183217"><ele>244.39999999999998</ele><time>2026-05-01T09:24:02Z</time></trkpt><trkpt lat="38.809768984805636" lon="-9.29252828848429"><ele>243.2</ele><time>2026-05-01T09:24:07Z</time></trkpt><trkpt lat="38.809831545056234" lon="-9.292588010055763"><ele>242.0</ele><time>2026-05-01T09:24:10Z</time></trkpt><trkpt lat="38.809897701296826" lon="-9.292632936040077"><ele>242.00000000000003</ele><time>2026-05-01T09:24:14Z</time></trkpt><trkpt lat="38.80996025340537" lon="-9.292707034918326"><ele>242.0</ele><time>2026-05-01T09:24:17Z</time></trkpt><trkpt lat="38.809996494268994" lon="-9.292788214147558"><ele>242.0</ele><time>2026-05-01T09:24:19Z</time></trkpt><trkpt lat="38.810071499580964" lon="-9.2928376323463"><ele>242.0</ele><time>2026-05-01T09:24:22Z</time></trkpt><trkpt lat="38.81013791784038" lon="-9.292855226415629"><ele>242.00000000000003</ele><time>2026-05-01T09:24:25Z</time></trkpt><trkpt lat="38.81022830311185" lon="-9.29288837024964"><ele>242.0</ele><time>2026-05-01T09:24:28Z</time></trkpt><trkpt lat="38.810326251127925" lon="-9.292946385938137"><ele>241.66666666666669</ele><time>2026-05-01T09:24:31Z</time></trkpt><trkpt lat="38.810387286256066" lon="-9.293044106177069"><ele>241.33333333333334</ele><time>2026-05-01T09:24:33Z</time></trkpt><trkpt lat="38.81047160567939" lon="-9.293117364128506"><ele>241.0</ele><time>2026-05-01T09:24:35Z</time></trkpt><trkpt lat="38.81053140558914" lon="-9.293178687292174"><ele>240.66666666666669</ele><time>2026-05-01T09:24:37Z</time></trkpt><trkpt lat="38.81059307394746" lon="-9.293253538841256"><ele>240.33333333333334</ele><time>2026-05-01T09:24:39Z</time></trkpt><trkpt lat="38.810651026825155" lon="-9.293293847065279"><ele>240.0</ele><time>2026-05-01T09:24:41Z</time></trkpt><trkpt lat="38.81070047231205" lon="-9.293364444451603"><ele>238.16666666666666</ele><time>2026-05-01T09:24:44Z</time></trkpt><trkpt lat="38.81075506989128" lon="-9.293447278163663"><ele>236.33333333333331</ele><time>2026-05-01T09:24:47Z</time></trkpt><trkpt lat="38.810818854092645" lon="-9.293510295666698"><ele>234.5</ele><time>2026-05-01T09:24:50Z</time></trkpt><trkpt lat="38.81087604703213" lon="-9.293573850786924"><ele>232.66666666666666</ele><time>2026-05-01T09:24:53Z</time></trkpt><trkpt lat="38.8109369965643" lon="-9.293660934565452"><ele>230.83333333333331</ele><time>2026-05-01T09:24:56Z</time></trkpt><trkpt lat="38.810927120151426" lon="-9.29376029865487"><ele>229.0</ele><time>2026-05-01T09:25:00Z</time></trkpt><trkpt lat="38.81088072170198" lon="-9.29381730947443"><ele>229.0</ele><time>2026-05-01T09:25:03Z</time></trkpt><trkpt lat="38.810850626858375" lon="-9.293907683330962"><ele>228.99999999999997</ele><time>2026-05-01T09:25:04Z</time></trkpt><trkpt lat="38.81094446769163" lon="-9.29402438699469"><ele>228.99999999999997</ele><time>2026-05-01T09:25:06Z</time></trkpt><trkpt lat="38.81105591212068" lon="-9.294187665099795"><ele>229.0</ele><time>2026-05-01T09:25:08Z</time></trkpt><trkpt lat="38.811065042075974" lon="-9.29427340000583"><ele>229.0</ele><time>2026-05-01T09:25:09Z</time></trkpt><trkpt lat="38.811071183975436" lon="-9.294360447952505"><ele>226.42857142857142</ele><time>2026-05-01T09:25:10Z</time></trkpt><trkpt lat="38.81107748583165" lon="-9.294443442078313"><ele>223.85714285714286</ele><time>2026-05-01T09:25:11Z</time></trkpt><trkpt lat="38.81106745064732" lon="-9.29452885274457"><ele>221.28571428571428</ele><time>2026-05-01T09:25:12Z</time></trkpt><trkpt lat="38.81104749068988" lon="-9.294613259928818"><ele>218.71428571428572</ele><time>2026-05-01T09:25:13Z</time></trkpt><trkpt lat="38.81102015466072" lon="-9.294696962141298"><ele>216.14285714285717</ele><time>2026-05-01T09:25:14Z</time></trkpt><trkpt lat="38.81098641063076" lon="-9.29477667210067"><ele>213.57142857142858</ele><time>2026-05-01T09:25:15Z</time></trkpt><trkpt lat="38.81095363154975" lon="-9.294850997273135"><ele>211.0</ele><time>2026-05-01T09:25:16Z</time></trkpt><trkpt lat="38.81090648378151" lon="-9.294917936361271"><ele>210.99999999999997</ele><time>2026-05-01T09:25:17Z</time></trkpt><trkpt lat="38.81084168298113" lon="-9.294996060593368"><ele>211.0</ele><time>2026-05-01T09:25:18Z</time></trkpt><trkpt lat="38.810773116936616" lon="-9.295059447337623"><ele>211.0</ele><time>2026-05-01T09:25:19Z</time></trkpt><trkpt lat="38.81070799134617" lon="-9.295138752852573"><ele>211.0</ele><time>2026-05-01T09:25:20Z</time></trkpt><trkpt lat="38.81064511511993" lon="-9.295206455668493"><ele>210.99999999999997</ele><time>2026-05-01T09:25:21Z</time></trkpt><trkpt lat="38.81060557495422" lon="-9.295284907305987"><ele>211.0</ele><time>2026-05-01T09:25:22Z</time></trkpt><trkpt lat="38.81058129883802" lon="-9.295376836089478"><ele>210.99999999999997</ele><time>2026-05-01T09:25:23Z</time></trkpt><trkpt lat="38.810575665383645" lon="-9.295472201550352"><ele>211.0</ele><time>2026-05-01T09:25:24Z</time></trkpt><trkpt lat="38.81055695326767" lon="-9.295564811152735"><ele>211.0</ele><time>2026-05-01T09:25:25Z</time></trkpt><trkpt lat="38.81053519711498" lon="-9.295679102849949"><ele>211.0</ele><time>2026-05-01T09:25:26Z</time></trkpt><trkpt lat="38.810521283756195" lon="-9.295783366843619"><ele>210.99999999999997</ele><time>2026-05-01T09:25:27Z</time></trkpt><trkpt lat="38.810470148899086" lon="-9.295886030982972"><ele>211.0</ele><time>2026-05-01T09:25:28Z</time></trkpt><trkpt lat="38.81043567748442" lon="-9.29599157354141"><ele>208.99999999999997</ele><time>2026-05-01T09:25:29Z</time></trkpt><trkpt lat="38.8104288463915" lon="-9.296099475210314"><ele>207.0</ele><time>2026-05-01T09:25:30Z</time></trkpt><trkpt lat="38.810409795552516" lon="-9.29620212364799"><ele>205.0</ele><time>2026-05-01T09:25:31Z</time></trkpt><trkpt lat="38.81037868463802" lon="-9.296293546459566"><ele>203.0</ele><time>2026-05-01T09:25:32Z</time></trkpt><trkpt lat="38.81034212576895" lon="-9.296386567195137"><ele>200.99999999999997</ele><time>2026-05-01T09:25:33Z</time></trkpt><trkpt lat="38.810309167781774" lon="-9.296472683428844"><ele>199.0</ele><time>2026-05-01T09:25:34Z</time></trkpt><trkpt lat="38.81028564832519" lon="-9.296568990210455"><ele>198.33333333333331</ele><time>2026-05-01T09:25:35Z</time></trkpt><trkpt lat="38.81025447138619" lon="-9.296661596631813"><ele>197.66666666666666</ele><time>2026-05-01T09:25:36Z</time></trkpt><trkpt lat="38.8102370688824" lon="-9.296749237264756"><ele>197.0</ele><time>2026-05-01T09:25:37Z</time></trkpt><trkpt lat="38.81019817842771" lon="-9.296826052292344"><ele>196.33333333333331</ele><time>2026-05-01T09:25:40Z</time></trkpt><trkpt lat="38.81017418058458" lon="-9.296973045343183"><ele>195.66666666666666</ele><time>2026-05-01T09:25:43Z</time></trkpt><trkpt lat="38.81015454633876" lon="-9.29706064128007"><ele>195.0</ele><time>2026-05-01T09:25:44Z</time></trkpt><trkpt lat="38.810101290683676" lon="-9.29715553612769"><ele>195.83333333333334</ele><time>2026-05-01T09:25:46Z</time></trkpt><trkpt lat="38.81007571669962" lon="-9.297267140238336"><ele>196.66666666666669</ele><time>2026-05-01T09:25:48Z</time></trkpt><trkpt lat="38.81005481464296" lon="-9.297370065025225"><ele>197.5</ele><time>2026-05-01T09:25:50Z</time></trkpt><trkpt lat="38.81003900472592" lon="-9.297455850893986"><ele>198.33333333333334</ele><time>2026-05-01T09:25:52Z</time></trkpt><trkpt lat="38.81001327888662" lon="-9.29754307275753"><ele>199.16666666666669</ele><time>2026-05-01T09:25:54Z</time></trkpt><trkpt lat="38.809980610552" lon="-9.29764744337728"><ele>200.0</ele><time>2026-05-01T09:25:56Z</time></trkpt><trkpt lat="38.80993670975002" lon="-9.297745238677972"><ele>200.00000000000003</ele><time>2026-05-01T09:25:58Z</time></trkpt><trkpt lat="38.80989416119204" lon="-9.297832714468742"><ele>200.0</ele><time>2026-05-01T09:26:00Z</time></trkpt><trkpt lat="38.809857454851674" lon="-9.297901441960018"><ele>200.0</ele><time>2026-05-01T09:26:02Z</time></trkpt><trkpt lat="38.809799291905726" lon="-9.297991782140885"><ele>200.0</ele><time>2026-05-01T09:26:05Z</time></trkpt><trkpt lat="38.80974719078533" lon="-9.298080380481926"><ele>200.00000000000003</ele><time>2026-05-01T09:26:09Z</time></trkpt><trkpt lat="38.809680425276916" lon="-9.298158684191085"><ele>200.0</ele><time>2026-05-01T09:26:12Z</time></trkpt><trkpt lat="38.8096397880974" lon="-9.298282025990098"><ele>198.16666666666669</ele><time>2026-05-01T09:26:15Z</time></trkpt><trkpt lat="38.80961719009063" lon="-9.29836140005434"><ele>196.33333333333334</ele><time>2026-05-01T09:26:17Z</time></trkpt><trkpt lat="38.809610904472876" lon="-9.298447940174102"><ele>194.5</ele><time>2026-05-01T09:26:19Z</time></trkpt><trkpt lat="38.80962231875707" lon="-9.298555255151262"><ele>192.66666666666669</ele><time>2026-05-01T09:26:21Z</time></trkpt><trkpt lat="38.80965949301287" lon="-9.298675958885028"><ele>190.83333333333334</ele><time>2026-05-01T09:26:23Z</time></trkpt><trkpt lat="38.80966507081837" lon="-9.298791408531695"><ele>189.0</ele><time>2026-05-01T09:26:25Z</time></trkpt><trkpt lat="38.8096666635692" lon="-9.298903569136243"><ele>189.0</ele><time>2026-05-01T09:26:26Z</time></trkpt><trkpt lat="38.80964810226511" lon="-9.298991657020485"><ele>189.0</ele><time>2026-05-01T09:26:28Z</time></trkpt><trkpt lat="38.80960201694292" lon="-9.299067149852664"><ele>189.0</ele><time>2026-05-01T09:26:32Z</time></trkpt><trkpt lat="38.809542172710316" lon="-9.299193000655542"><ele>189.0</ele><time>2026-05-01T09:26:34Z</time></trkpt><trkpt lat="38.8094999326982" lon="-9.299270205450444"><ele>189.0</ele><time>2026-05-01T09:26:37Z</time></trkpt><trkpt lat="38.809461446174055" lon="-9.299337923171787"><ele>189.0</ele><time>2026-05-01T09:26:41Z</time></trkpt><trkpt lat="38.809409592234985" lon="-9.299402867172216"><ele>189.0</ele><time>2026-05-01T09:27:42Z</time></trkpt><trkpt lat="38.809368318901434" lon="-9.299475587290667"><ele>189.0</ele><time>2026-05-01T09:27:46Z</time></trkpt><trkpt lat="38.80931061194053" lon="-9.299539925258346"><ele>189.0</ele><time>2026-05-01T09:28:29Z</time></trkpt><trkpt lat="38.809261687750336" lon="-9.299591499032763"><ele>189.0</ele><time>2026-05-01T09:28:31Z</time></trkpt><trkpt lat="38.80921020389398" lon="-9.299647086643372"><ele>189.0</ele><time>2026-05-01T09:28:34Z</time></trkpt><trkpt lat="38.80915843640172" lon="-9.299726631348417"><ele>189.0</ele><time>2026-05-01T09:28:37Z</time></trkpt><trkpt lat="38.809118559603455" lon="-9.299792491088994"><ele>189.0</ele><time>2026-05-01T09:28:40Z</time></trkpt><trkpt lat="38.80906103321991" lon="-9.299856293205641"><ele>188.42857142857142</ele><time>2026-05-01T09:28:44Z</time></trkpt><trkpt lat="38.809017595681354" lon="-9.299918532406622"><ele>187.85714285714286</ele><time>2026-05-01T09:28:51Z</time></trkpt><trkpt lat="38.808976990565455" lon="-9.299992512197"><ele>187.28571428571428</ele><time>2026-05-01T09:28:55Z</time></trkpt><trkpt lat="38.80891331246135" lon="-9.300041620522263"><ele>186.71428571428572</ele><time>2026-05-01T09:29:04Z</time></trkpt><trkpt lat="38.808850690152234" lon="-9.300056566118158"><ele>186.14285714285714</ele><time>2026-05-01T09:29:07Z</time></trkpt><trkpt lat="38.808762508627275" lon="-9.300072845880734"><ele>185.57142857142856</ele><time>2026-05-01T09:29:11Z</time></trkpt><trkpt lat="38.808686093147685" lon="-9.30009210794216"><ele>185.0</ele><time>2026-05-01T09:29:23Z</time></trkpt><trkpt lat="38.808617376724" lon="-9.30010843397157"><ele>184.99999999999997</ele><time>2026-05-01T09:29:58Z</time></trkpt><trkpt lat="38.80855647100365" lon="-9.300141292365822"><ele>185.0</ele><time>2026-05-01T09:32:58Z</time></trkpt><trkpt lat="38.80849798133067" lon="-9.30018390895175"><ele>185.0</ele><time>2026-05-01T09:33:09Z</time></trkpt><trkpt lat="38.808465571577244" lon="-9.30025782263731"><ele>185.0</ele><time>2026-05-01T09:33:20Z</time></trkpt><trkpt lat="38.80850480675518" lon="-9.300177236317213"><ele>185.0</ele><time>2026-05-01T09:33:27Z</time></trkpt><trkpt lat="38.80856462249018" lon="-9.300135694939865"><ele>184.99999999999997</ele><time>2026-05-01T09:33:33Z</time></trkpt><trkpt lat="38.80849088187809" lon="-9.30021628771203"><ele>185.0</ele><time>2026-05-01T09:33:54Z</time></trkpt><trkpt lat="38.808435482643524" lon="-9.300273879743164"><ele>185.83333333333331</ele><time>2026-05-01T09:34:02Z</time></trkpt><trkpt lat="38.80837295834781" lon="-9.300322763343594"><ele>186.66666666666666</ele><time>2026-05-01T09:34:11Z</time></trkpt><trkpt lat="38.8082998762433" lon="-9.300369278281725"><ele>187.5</ele><time>2026-05-01T09:35:05Z</time></trkpt><trkpt lat="38.80822672555335" lon="-9.300364797096611"><ele>188.33333333333334</ele><time>2026-05-01T09:35:07Z</time></trkpt><trkpt lat="38.808141475220744" lon="-9.300406621481692"><ele>189.16666666666669</ele><time>2026-05-01T09:35:09Z</time></trkpt><trkpt lat="38.80806254707808" lon="-9.30041591707957"><ele>190.0</ele><time>2026-05-01T09:35:11Z</time></trkpt><trkpt lat="38.80797739381379" lon="-9.300383730328619"><ele>190.0</ele><time>2026-05-01T09:35:14Z</time></trkpt><trkpt lat="38.80789423206179" lon="-9.300356681511595"><ele>190.0</ele><time>2026-05-01T09:35:17Z</time></trkpt><trkpt lat="38.80782020079634" lon="-9.300376105923812"><ele>190.0</ele><time>2026-05-01T09:35:19Z</time></trkpt><trkpt lat="38.80771774604869" lon="-9.300396299619576"><ele>190.0</ele><time>2026-05-01T09:35:21Z</time></trkpt><trkpt lat="38.807639916491006" lon="-9.300420608174832"><ele>190.0</ele><time>2026-05-01T09:35:23Z</time></trkpt><trkpt lat="38.80756452198826" lon="-9.300451388178786"><ele>190.0</ele><time>2026-05-01T09:35:25Z</time></trkpt><trkpt lat="38.80750421480811" lon="-9.300486247920656"><ele>189.0</ele><time>2026-05-01T09:35:27Z</time></trkpt><trkpt lat="38.80743050993064" lon="-9.300533461341656"><ele>188.0</ele><time>2026-05-01T09:35:30Z</time></trkpt><trkpt lat="38.80735886800055" lon="-9.300597230006126"><ele>187.0</ele><time>2026-05-01T09:35:32Z</time></trkpt><trkpt lat="38.80728460000144" lon="-9.300648302932892"><ele>186.0</ele><time>2026-05-01T09:35:34Z</time></trkpt><trkpt lat="38.80720754942835" lon="-9.300691735871036"><ele>185.0</ele><time>2026-05-01T09:35:36Z</time></trkpt><trkpt lat="38.807118098849934" lon="-9.300748973793512"><ele>184.0</ele><time>2026-05-01T09:35:38Z</time></trkpt><trkpt lat="38.807034062543885" lon="-9.300798681773385"><ele>184.0</ele><time>2026-05-01T09:35:40Z</time></trkpt><trkpt lat="38.80697390040345" lon="-9.30083783201541"><ele>184.0</ele><time>2026-05-01T09:35:42Z</time></trkpt><trkpt lat="38.80690888553827" lon="-9.300873140664525"><ele>184.0</ele><time>2026-05-01T09:35:44Z</time></trkpt><trkpt lat="38.80682930379669" lon="-9.300914545064826"><ele>184.0</ele><time>2026-05-01T09:35:46Z</time></trkpt><trkpt lat="38.80675822124206" lon="-9.300953624245043"><ele>184.0</ele><time>2026-05-01T09:35:48Z</time></trkpt><trkpt lat="38.80669123615906" lon="-9.30099390271736"><ele>184.0</ele><time>2026-05-01T09:35:50Z</time></trkpt><trkpt lat="38.806622658101254" lon="-9.301047800621243"><ele>185.16666666666669</ele><time>2026-05-01T09:35:52Z</time></trkpt><trkpt lat="38.80655426820083" lon="-9.301078422702256"><ele>186.33333333333334</ele><time>2026-05-01T09:35:54Z</time></trkpt><trkpt lat="38.80647996707863" lon="-9.301058855980317"><ele>187.5</ele><time>2026-05-01T09:35:59Z</time></trkpt><trkpt lat="38.806394494946645" lon="-9.301053155668862"><ele>188.66666666666666</ele><time>2026-05-01T09:36:01Z</time></trkpt><trkpt lat="38.8063213428868" lon="-9.30104174780555"><ele>189.83333333333331</ele><time>2026-05-01T09:36:03Z</time></trkpt><trkpt lat="38.806252770042455" lon="-9.301028872173145"><ele>191.0</ele><time>2026-05-01T09:36:05Z</time></trkpt><trkpt lat="38.8061748202412" lon="-9.300997894470433"><ele>191.0</ele><time>2026-05-01T09:36:07Z</time></trkpt><trkpt lat="38.80609952409219" lon="-9.300985781434333"><ele>191.0</ele><time>2026-05-01T09:36:09Z</time></trkpt><trkpt lat="38.806028334780414" lon="-9.300935705881576"><ele>191.0</ele><time>2026-05-01T09:36:11Z</time></trkpt><trkpt lat="38.80592555994039" lon="-9.300928535837153"><ele>191.0</ele><time>2026-05-01T09:36:14Z</time></trkpt><trkpt lat="38.805823881798204" lon="-9.300947046503445"><ele>191.0</ele><time>2026-05-01T09:36:16Z</time></trkpt><trkpt lat="38.805763183171045" lon="-9.30098683602536"><ele>191.0</ele><time>2026-05-01T09:36:18Z</time></trkpt><trkpt lat="38.80570922835647" lon="-9.301048870326001"><ele>191.33333333333331</ele><time>2026-05-01T09:36:20Z</time></trkpt><trkpt lat="38.80563857971264" lon="-9.301098863599432"><ele>191.66666666666666</ele><time>2026-05-01T09:36:22Z</time></trkpt><trkpt lat="38.805553935757366" lon="-9.301144074788864"><ele>192.0</ele><time>2026-05-01T09:36:25Z</time></trkpt><trkpt lat="38.805463879594605" lon="-9.30120568563264"><ele>192.33333333333331</ele><time>2026-05-01T09:36:47Z</time></trkpt><trkpt lat="38.805411540283416" lon="-9.301257861967773"><ele>192.66666666666666</ele><time>2026-05-01T09:36:49Z</time></trkpt><trkpt lat="38.80534070570637" lon="-9.301325241125422"><ele>193.0</ele><time>2026-05-01T09:36:52Z</time></trkpt><trkpt lat="38.80527054055928" lon="-9.301410567774145"><ele>193.16666666666666</ele><time>2026-05-01T09:36:54Z</time></trkpt><trkpt lat="38.80519847513287" lon="-9.301446508176369"><ele>193.33333333333331</ele><time>2026-05-01T09:36:56Z</time></trkpt><trkpt lat="38.805126633988436" lon="-9.301477983116149"><ele>193.5</ele><time>2026-05-01T09:36:58Z</time></trkpt><trkpt lat="38.805057827442276" lon="-9.301516997720109"><ele>193.66666666666669</ele><time>2026-05-01T09:37:00Z</time></trkpt><trkpt lat="38.80498100564869" lon="-9.301565892426082"><ele>193.83333333333334</ele><time>2026-05-01T09:37:02Z</time></trkpt><trkpt lat="38.8049052254868" lon="-9.301608428147803"><ele>194.0</ele><time>2026-05-01T09:37:04Z</time></trkpt><trkpt lat="38.80484079450434" lon="-9.301638112672848"><ele>194.00000000000003</ele><time>2026-05-01T09:37:06Z</time></trkpt><trkpt lat="38.80477118877476" lon="-9.301697608999792"><ele>194.0</ele><time>2026-05-01T09:37:08Z</time></trkpt><trkpt lat="38.80470115824648" lon="-9.301738034231896"><ele>194.0</ele><time>2026-05-01T09:37:57Z</time></trkpt><trkpt lat="38.80463892431715" lon="-9.301670810080871"><ele>194.0</ele><time>2026-05-01T09:37:59Z</time></trkpt><trkpt lat="38.80461483664706" lon="-9.301528374307752"><ele>194.00000000000003</ele><time>2026-05-01T09:38:01Z</time></trkpt><trkpt lat="38.804601324581434" lon="-9.301447977852394"><ele>194.0</ele><time>2026-05-01T09:38:03Z</time></trkpt><trkpt lat="38.80457282087637" lon="-9.301344223103486"><ele>195.33333333333334</ele><time>2026-05-01T09:38:05Z</time></trkpt><trkpt lat="38.804545335190184" lon="-9.301238771269142"><ele>196.66666666666669</ele><time>2026-05-01T09:38:07Z</time></trkpt><trkpt lat="38.80452435340144" lon="-9.301151649205147"><ele>198.0</ele><time>2026-05-01T09:38:09Z</time></trkpt><trkpt lat="38.80450125561521" lon="-9.30105470732627"><ele>199.33333333333331</ele><time>2026-05-01T09:38:11Z</time></trkpt><trkpt lat="38.80447607033463" lon="-9.300952999353063"><ele>200.66666666666666</ele><time>2026-05-01T09:38:13Z</time></trkpt><trkpt lat="38.80443717387713" lon="-9.300863554185351"><ele>202.0</ele><time>2026-05-01T09:38:15Z</time></trkpt><trkpt lat="38.80441867722313" lon="-9.300759248701262"><ele>202.0</ele><time>2026-05-01T09:38:17Z</time></trkpt><trkpt lat="38.80439292307784" lon="-9.300672376727427"><ele>202.0</ele><time>2026-05-01T09:38:19Z</time></trkpt><trkpt lat="38.80436811930938" lon="-9.30057325743832"><ele>202.0</ele><time>2026-05-01T09:38:21Z</time></trkpt><trkpt lat="38.80433945680581" lon="-9.300486866168931"><ele>202.0</ele><time>2026-05-01T09:38:23Z</time></trkpt><trkpt lat="38.80430855868419" lon="-9.300406661528575"><ele>202.0</ele><time>2026-05-01T09:38:25Z</time></trkpt><trkpt lat="38.804274374407406" lon="-9.300322725665936"><ele>202.0</ele><time>2026-05-01T09:38:27Z</time></trkpt><trkpt lat="38.8042656133152" lon="-9.300240293596117"><ele>202.0</ele><time>2026-05-01T09:38:29Z</time></trkpt><trkpt lat="38.80424141417977" lon="-9.300107004901802"><ele>206.66666666666666</ele><time>2026-05-01T09:38:32Z</time></trkpt><trkpt lat="38.80423590243722" lon="-9.29999833240568"><ele>211.33333333333331</ele><time>2026-05-01T09:38:35Z</time></trkpt><trkpt lat="38.80418498814047" lon="-9.299901494445347"><ele>216.0</ele><time>2026-05-01T09:38:38Z</time></trkpt><trkpt lat="38.80416907379579" lon="-9.299798560489902"><ele>220.66666666666669</ele><time>2026-05-01T09:38:40Z</time></trkpt><trkpt lat="38.804143870490364" lon="-9.299710859071947"><ele>225.33333333333334</ele><time>2026-05-01T09:38:42Z</time></trkpt><trkpt lat="38.80412337688125" lon="-9.299628454153156"><ele>230.0</ele><time>2026-05-01T09:38:44Z</time></trkpt><trkpt lat="38.80409795705667" lon="-9.299550764517512"><ele>232.1428571428571</ele><time>2026-05-01T09:38:46Z</time></trkpt><trkpt lat="38.804070954294275" lon="-9.299468979806667"><ele>234.28571428571428</ele><time>2026-05-01T09:38:48Z</time></trkpt><trkpt lat="38.80405487099868" lon="-9.299388323720118"><ele>236.42857142857142</ele><time>2026-05-01T09:38:50Z</time></trkpt><trkpt lat="38.8040337332971" lon="-9.299304412660147"><ele>238.57142857142856</ele><time>2026-05-01T09:38:52Z</time></trkpt><trkpt lat="38.80401663807807" lon="-9.299199642211066"><ele>240.71428571428572</ele><time>2026-05-01T09:38:55Z</time></trkpt><trkpt lat="38.80398502792156" lon="-9.299118044998172"><ele>242.85714285714286</ele><time>2026-05-01T09:38:57Z</time></trkpt><trkpt lat="38.80396187179179" lon="-9.299019845784779"><ele>245.0</ele><time>2026-05-01T09:38:59Z</time></trkpt><trkpt lat="38.80393681332859" lon="-9.298907856955083"><ele>246.50000000000003</ele><time>2026-05-01T09:39:01Z</time></trkpt><trkpt lat="38.803901683897536" lon="-9.298783228138328"><ele>248.0</ele><time>2026-05-01T09:39:04Z</time></trkpt><trkpt lat="38.80388008959349" lon="-9.298679493469376"><ele>249.5</ele><time>2026-05-01T09:39:06Z</time></trkpt><trkpt lat="38.80385922571353" lon="-9.298595963022038"><ele>251.0</ele><time>2026-05-01T10:01:14Z</time></trkpt><trkpt lat="38.80382786954812" lon="-9.298514666877264"><ele>252.50000000000003</ele><time>2026-05-01T10:01:22Z</time></trkpt><trkpt lat="38.803883462928994" lon="-9.298593828164783"><ele>254.0</ele><time>2026-05-01T10:01:49Z</time></trkpt><trkpt lat="38.80382752764627" lon="-9.298492022977367"><ele>254.00000000000003</ele><time>2026-05-01T10:04:34Z</time></trkpt><trkpt lat="38.8037815485599" lon="-9.298366030396215"><ele>254.0</ele><time>2026-05-01T10:04:36Z</time></trkpt><trkpt lat="38.80376062727172" lon="-9.298256363386624"><ele>254.0</ele><time>2026-05-01T10:04:38Z</time></trkpt><trkpt lat="38.803738628010535" lon="-9.298168741964854"><ele>254.0</ele><time>2026-05-01T10:04:40Z</time></trkpt><trkpt lat="38.80374062084972" lon="-9.298074591553492"><ele>254.00000000000003</ele><time>2026-05-01T10:04:42Z</time></trkpt><trkpt lat="38.803720954509615" lon="-9.29797173986428"><ele>254.0</ele><time>2026-05-01T10:04:50Z</time></trkpt><trkpt lat="38.80377891922236" lon="-9.297932315859683"><ele>254.0</ele><time>2026-05-01T10:04:55Z</time></trkpt><trkpt lat="38.80384517883923" lon="-9.297899802635959"><ele>254.0</ele><time>2026-05-01T10:04:58Z</time></trkpt><trkpt lat="38.80390831892298" lon="-9.297887558894805"><ele>254.0</ele><time>2026-05-01T10:06:17Z</time></trkpt><trkpt lat="38.80384659769675" lon="-9.297908722121718"><ele>254.0</ele><time>2026-05-01T10:06:31Z</time></trkpt><trkpt lat="38.80377579647402" lon="-9.297934821753882"><ele>254.0</ele><time>2026-05-01T10:09:24Z</time></trkpt><trkpt lat="38.803726645531135" lon="-9.297988363277284"><ele>254.0</ele><time>2026-05-01T10:09:30Z</time></trkpt><trkpt lat="38.80372897136934" lon="-9.298074582218161"><ele>254.0</ele><time>2026-05-01T10:09:38Z</time></trkpt><trkpt lat="38.803754756711925" lon="-9.298157314651858"><ele>254.0</ele><time>2026-05-01T10:09:45Z</time></trkpt><trkpt lat="38.80376909256659" lon="-9.29823743360242"><ele>254.0</ele><time>2026-05-01T10:09:50Z</time></trkpt><trkpt lat="38.80379213801145" lon="-9.298320768186384"><ele>254.0</ele><time>2026-05-01T10:09:55Z</time></trkpt><trkpt lat="38.80381196513768" lon="-9.298410924177544"><ele>254.0</ele><time>2026-05-01T10:10:00Z</time></trkpt><trkpt lat="38.80384127766037" lon="-9.298497075802015"><ele>254.0</ele><time>2026-05-01T10:10:05Z</time></trkpt><trkpt lat="38.8038637535306" lon="-9.298591034596654"><ele>254.0</ele><time>2026-05-01T10:10:10Z</time></trkpt><trkpt lat="38.80388346006154" lon="-9.298674276330466"><ele>254.0</ele><time>2026-05-01T10:10:14Z</time></trkpt><trkpt lat="38.80390255498647" lon="-9.29875299340627"><ele>254.00000000000003</ele><time>2026-05-01T10:10:18Z</time></trkpt><trkpt lat="38.803870147086535" lon="-9.298678894309386"><ele>254.0</ele><time>2026-05-01T10:16:53Z</time></trkpt><trkpt lat="38.80386326855064" lon="-9.298585862011784"><ele>254.0</ele><time>2026-05-01T10:18:30Z</time></trkpt><trkpt lat="38.803827152693685" lon="-9.29846102422631"><ele>254.0</ele><time>2026-05-01T10:18:32Z</time></trkpt><trkpt lat="38.80379168311077" lon="-9.29832475663706"><ele>254.00000000000003</ele><time>2026-05-01T10:18:35Z</time></trkpt><trkpt lat="38.80376486362872" lon="-9.298217162127882"><ele>254.0</ele><time>2026-05-01T10:18:37Z</time></trkpt><trkpt lat="38.80375313637165" lon="-9.298108899357198"><ele>255.00000000000003</ele><time>2026-05-01T10:18:39Z</time></trkpt><trkpt lat="38.80373341610188" lon="-9.298019190575069"><ele>256.0</ele><time>2026-05-01T10:18:49Z</time></trkpt><trkpt lat="38.80377723533623" lon="-9.29794130556206"><ele>257.0</ele><time>2026-05-01T10:18:54Z</time></trkpt><trkpt lat="38.80386325537036" lon="-9.297902262828643"><ele>258.0</ele><time>2026-05-01T10:18:57Z</time></trkpt><trkpt lat="38.803942481321904" lon="-9.297872581404725"><ele>259.0</ele><time>2026-05-01T10:18:59Z</time></trkpt><trkpt lat="38.80400303167274" lon="-9.297849142476993"><ele>260.0</ele><time>2026-05-01T10:19:01Z</time></trkpt><trkpt lat="38.804076691115185" lon="-9.297807782828603"><ele>260.0</ele><time>2026-05-01T10:19:03Z</time></trkpt><trkpt lat="38.80413548814768" lon="-9.297740950568173"><ele>260.0</ele><time>2026-05-01T10:19:05Z</time></trkpt><trkpt lat="38.804229508554286" lon="-9.297707471070197"><ele>260.0</ele><time>2026-05-01T10:19:07Z</time></trkpt><trkpt lat="38.804298946992795" lon="-9.297648564669261"><ele>260.0</ele><time>2026-05-01T10:19:09Z</time></trkpt><trkpt lat="38.80444924608166" lon="-9.297575786994594"><ele>260.0</ele><time>2026-05-01T10:19:12Z</time></trkpt><trkpt lat="38.804523960246875" lon="-9.297550569640874"><ele>260.1666666666667</ele><time>2026-05-01T10:19:13Z</time></trkpt><trkpt lat="38.80461989311604" lon="-9.297510779353015"><ele>260.33333333333337</ele><time>2026-05-01T10:19:15Z</time></trkpt><trkpt lat="38.80470472950689" lon="-9.297484595892795"><ele>260.5</ele><time>2026-05-01T10:19:17Z</time></trkpt><trkpt lat="38.804783570113884" lon="-9.297459642993928"><ele>260.6666666666667</ele><time>2026-05-01T10:19:19Z</time></trkpt><trkpt lat="38.804862702653544" lon="-9.297426847827055"><ele>260.8333333333333</ele><time>2026-05-01T10:19:22Z</time></trkpt><trkpt lat="38.80493762990223" lon="-9.297399802521996"><ele>261.0</ele><time>2026-05-01T10:21:28Z</time></trkpt><trkpt lat="38.80500703801091" lon="-9.297372016886152"><ele>261.0</ele><time>2026-05-01T10:22:28Z</time></trkpt><trkpt lat="38.80507229597341" lon="-9.297347486880671"><ele>261.0</ele><time>2026-05-01T10:22:34Z</time></trkpt><trkpt lat="38.805135966111415" lon="-9.297310775580772"><ele>261.0</ele><time>2026-05-01T10:23:44Z</time></trkpt><trkpt lat="38.80523120697529" lon="-9.297296141773696"><ele>261.0</ele><time>2026-05-01T10:30:16Z</time></trkpt><trkpt lat="38.80530412188292" lon="-9.297280617561551"><ele>261.0</ele><time>2026-05-01T10:30:23Z</time></trkpt><trkpt lat="38.80536805362951" lon="-9.297261651699593"><ele>261.0</ele><time>2026-05-01T10:30:28Z</time></trkpt><trkpt lat="38.805435581446616" lon="-9.297251031116357"><ele>261.0</ele><time>2026-05-01T10:30:35Z</time></trkpt><trkpt lat="38.805502690929764" lon="-9.297281728602522"><ele>262.14285714285717</ele><time>2026-05-01T10:30:45Z</time></trkpt><trkpt lat="38.805566090908115" lon="-9.297290236291786"><ele>263.2857142857143</ele><time>2026-05-01T10:31:00Z</time></trkpt><trkpt lat="38.80562935023327" lon="-9.297314742875743"><ele>264.42857142857144</ele><time>2026-05-01T10:31:03Z</time></trkpt><trkpt lat="38.805691723862765" lon="-9.297350016258036"><ele>265.57142857142856</ele><time>2026-05-01T10:31:07Z</time></trkpt><trkpt lat="38.805627099490586" lon="-9.297319408454747"><ele>266.7142857142857</ele><time>2026-05-01T10:31:42Z</time></trkpt><trkpt lat="38.805559246728464" lon="-9.297320046075589"><ele>267.8571428571429</ele><time>2026-05-01T10:33:41Z</time></trkpt><trkpt lat="38.80562722638416" lon="-9.297305658957901"><ele>269.0</ele><time>2026-05-01T10:33:51Z</time></trkpt><trkpt lat="38.805560301988244" lon="-9.297289984189927"><ele>269.0</ele><time>2026-05-01T10:34:11Z</time></trkpt><trkpt lat="38.805498992732225" lon="-9.297260975558501"><ele>269.0</ele><time>2026-05-01T10:34:16Z</time></trkpt><trkpt lat="38.80556343676327" lon="-9.297273912832331"><ele>269.0</ele><time>2026-05-01T10:35:30Z</time></trkpt><trkpt lat="38.80562238162737" lon="-9.29730912732416"><ele>269.0</ele><time>2026-05-01T10:35:34Z</time></trkpt><trkpt lat="38.80568640245584" lon="-9.29733938916497"><ele>269.0</ele><time>2026-05-01T10:36:24Z</time></trkpt><trkpt lat="38.8058087168091" lon="-9.297379776346702"><ele>269.0</ele><time>2026-05-01T10:36:26Z</time></trkpt><trkpt lat="38.80588124541201" lon="-9.297404063680114"><ele>269.0</ele><time>2026-05-01T10:36:27Z</time></trkpt><trkpt lat="38.805953346973155" lon="-9.297428925575797"><ele>269.0</ele><time>2026-05-01T10:36:28Z</time></trkpt><trkpt lat="38.80603163222538" lon="-9.29745795135885"><ele>269.0</ele><time>2026-05-01T10:36:29Z</time></trkpt><trkpt lat="38.806107907546284" lon="-9.297495137746202"><ele>269.0</ele><time>2026-05-01T10:36:30Z</time></trkpt><trkpt lat="38.80616756894833" lon="-9.297524968975829"><ele>269.0</ele><time>2026-05-01T10:36:31Z</time></trkpt><trkpt lat="38.806261715051804" lon="-9.297564890368452"><ele>269.0</ele><time>2026-05-01T10:36:33Z</time></trkpt><trkpt lat="38.8063385537931" lon="-9.297582051137782"><ele>269.0</ele><time>2026-05-01T10:36:34Z</time></trkpt><trkpt lat="38.80642452813611" lon="-9.297600681550108"><ele>269.0</ele><time>2026-05-01T10:36:35Z</time></trkpt><trkpt lat="38.80649849358772" lon="-9.297596134892677"><ele>269.0</ele><time>2026-05-01T10:36:36Z</time></trkpt><trkpt lat="38.80656755461219" lon="-9.297600156057234"><ele>269.0</ele><time>2026-05-01T10:36:37Z</time></trkpt><trkpt lat="38.806673484617264" lon="-9.29760819277478"><ele>269.0</ele><time>2026-05-01T10:36:39Z</time></trkpt><trkpt lat="38.806735711485054" lon="-9.297569175405252"><ele>269.0</ele><time>2026-05-01T10:36:43Z</time></trkpt><trkpt lat="38.80678883484389" lon="-9.297518138409268"><ele>269.0</ele><time>2026-05-01T10:36:55Z</time></trkpt><trkpt lat="38.80677520820992" lon="-9.29737646086137"><ele>269.0</ele><time>2026-05-01T10:36:57Z</time></trkpt><trkpt lat="38.80675117262654" lon="-9.297290802808291"><ele>269.0</ele><time>2026-05-01T10:36:58Z</time></trkpt><trkpt lat="38.806737902526756" lon="-9.297156938726053"><ele>269.0</ele><time>2026-05-01T10:37:00Z</time></trkpt><trkpt lat="38.80671792983883" lon="-9.297041982182408"><ele>269.0</ele><time>2026-05-01T10:37:02Z</time></trkpt><trkpt lat="38.80669552199025" lon="-9.29695025324887"><ele>269.33333333333337</ele><time>2026-05-01T10:37:03Z</time></trkpt><trkpt lat="38.806673146173246" lon="-9.29684218086772"><ele>269.6666666666667</ele><time>2026-05-01T10:37:04Z</time></trkpt><trkpt lat="38.80664620782764" lon="-9.296752419164081"><ele>270.0</ele><time>2026-05-01T10:37:05Z</time></trkpt><trkpt lat="38.806632005539974" lon="-9.296668389013554"><ele>270.3333333333333</ele><time>2026-05-01T10:37:06Z</time></trkpt><trkpt lat="38.80657471116572" lon="-9.296548776676541"><ele>270.66666666666663</ele><time>2026-05-01T10:37:08Z</time></trkpt><trkpt lat="38.80650995527497" lon="-9.29650893515975"><ele>271.0</ele><time>2026-05-01T10:37:11Z</time></trkpt><trkpt lat="38.80644821056068" lon="-9.296473058672893"><ele>270.5</ele><time>2026-05-01T10:37:19Z</time></trkpt><trkpt lat="38.80638239021466" lon="-9.296395893451228"><ele>270.0</ele><time>2026-05-01T10:37:22Z</time></trkpt><trkpt lat="38.806315093364695" lon="-9.296291046480704"><ele>269.5</ele><time>2026-05-01T10:37:24Z</time></trkpt><trkpt lat="38.80625544867065" lon="-9.2962247769278"><ele>269.0</ele><time>2026-05-01T10:37:26Z</time></trkpt><trkpt lat="38.80619529885806" lon="-9.296181256708667"><ele>268.5</ele><time>2026-05-01T10:37:28Z</time></trkpt><trkpt lat="38.80626338177514" lon="-9.296210460130112"><ele>268.0</ele><time>2026-05-01T10:37:46Z</time></trkpt><trkpt lat="38.80632441175275" lon="-9.296309656239773"><ele>268.0</ele><time>2026-05-01T10:37:48Z</time></trkpt><trkpt lat="38.806417211593825" lon="-9.296417044428855"><ele>268.0</ele><time>2026-05-01T10:37:50Z</time></trkpt><trkpt lat="38.80646897050683" lon="-9.296475203641227"><ele>268.0</ele><time>2026-05-01T10:37:51Z</time></trkpt><trkpt lat="38.80652080825927" lon="-9.2965211386145"><ele>268.0</ele><time>2026-05-01T10:37:52Z</time></trkpt><trkpt lat="38.80658198914344" lon="-9.296562596748515"><ele>268.0</ele><time>2026-05-01T10:37:55Z</time></trkpt><trkpt lat="38.80663120323331" lon="-9.29662953736781"><ele>268.0</ele><time>2026-05-01T10:38:33Z</time></trkpt><trkpt lat="38.80669470778622" lon="-9.29660213418224"><ele>268.5</ele><time>2026-05-01T10:41:19Z</time></trkpt><trkpt lat="38.80676239166548" lon="-9.296603601808556"><ele>269.0</ele><time>2026-05-01T10:41:38Z</time></trkpt><trkpt lat="38.80683180515157" lon="-9.296648291917815"><ele>269.5</ele><time>2026-05-01T10:41:39Z</time></trkpt><trkpt lat="38.806904358886236" lon="-9.296659076212656"><ele>270.0</ele><time>2026-05-01T10:41:40Z</time></trkpt><trkpt lat="38.80701279305618" lon="-9.296657144582403"><ele>270.5</ele><time>2026-05-01T10:41:42Z</time></trkpt><trkpt lat="38.80707980319581" lon="-9.296596903619715"><ele>271.0</ele><time>2026-05-01T10:41:44Z</time></trkpt><trkpt lat="38.80710983978443" lon="-9.296511998448134"><ele>268.3333333333333</ele><time>2026-05-01T10:41:47Z</time></trkpt><trkpt lat="38.80706903924482" lon="-9.296421038533206"><ele>265.66666666666663</ele><time>2026-05-01T10:41:51Z</time></trkpt><trkpt lat="38.80700697976346" lon="-9.296371297343283"><ele>263.0</ele><time>2026-05-01T10:41:53Z</time></trkpt><trkpt lat="38.80695291784605" lon="-9.29630219902353"><ele>260.3333333333333</ele><time>2026-05-01T10:41:55Z</time></trkpt><trkpt lat="38.8069184807282" lon="-9.296198779042138"><ele>257.6666666666667</ele><time>2026-05-01T10:41:57Z</time></trkpt><trkpt lat="38.80691281074807" lon="-9.296085431650303"><ele>255.0</ele><time>2026-05-01T10:41:59Z</time></trkpt><trkpt lat="38.806937718572" lon="-9.29598257621303"><ele>255.0</ele><time>2026-05-01T10:42:03Z</time></trkpt><trkpt lat="38.806977556955175" lon="-9.295913852425729"><ele>255.00000000000003</ele><time>2026-05-01T10:42:05Z</time></trkpt><trkpt lat="38.80702211542591" lon="-9.295837654589805"><ele>255.0</ele><time>2026-05-01T10:42:09Z</time></trkpt><trkpt lat="38.807073824139266" lon="-9.295758647179335"><ele>255.0</ele><time>2026-05-01T10:42:11Z</time></trkpt><trkpt lat="38.80713460139002" lon="-9.29567254963278"><ele>255.00000000000003</ele><time>2026-05-01T10:42:13Z</time></trkpt><trkpt lat="38.807183566653315" lon="-9.295620596128522"><ele>255.0</ele><time>2026-05-01T10:42:15Z</time></trkpt><trkpt lat="38.80723218174241" lon="-9.295553485555995"><ele>255.0</ele><time>2026-05-01T10:42:17Z</time></trkpt><trkpt lat="38.807262520100835" lon="-9.295473228067287"><ele>256.1666666666667</ele><time>2026-05-01T10:42:19Z</time></trkpt><trkpt lat="38.80727434867769" lon="-9.295371427450718"><ele>257.3333333333333</ele><time>2026-05-01T10:42:21Z</time></trkpt><trkpt lat="38.80728388559963" lon="-9.295285271426714"><ele>258.5</ele><time>2026-05-01T10:42:22Z</time></trkpt><trkpt lat="38.8073127753647" lon="-9.29517027948284"><ele>259.66666666666663</ele><time>2026-05-01T10:42:24Z</time></trkpt><trkpt lat="38.80732521113013" lon="-9.29507188854638"><ele>260.8333333333333</ele><time>2026-05-01T10:42:26Z</time></trkpt><trkpt lat="38.8073183827882" lon="-9.294947647653045"><ele>262.0</ele><time>2026-05-01T10:42:28Z</time></trkpt><trkpt lat="38.807290322824954" lon="-9.294793428785558"><ele>263.2</ele><time>2026-05-01T10:42:30Z</time></trkpt><trkpt lat="38.80724772125195" lon="-9.29466182915897"><ele>264.4</ele><time>2026-05-01T10:42:32Z</time></trkpt><trkpt lat="38.80718673963634" lon="-9.294566980206072"><ele>265.6</ele><time>2026-05-01T10:42:33Z</time></trkpt><trkpt lat="38.807150385006786" lon="-9.294453757187819"><ele>266.8</ele><time>2026-05-01T10:42:34Z</time></trkpt><trkpt lat="38.80712799858068" lon="-9.294320108727922"><ele>268.0</ele><time>2026-05-01T10:42:35Z</time></trkpt><trkpt lat="38.80712643063794" lon="-9.294202532033406"><ele>268.0</ele><time>2026-05-01T10:42:36Z</time></trkpt><trkpt lat="38.80713945052677" lon="-9.294109937158535"><ele>268.0</ele><time>2026-05-01T10:42:37Z</time></trkpt><trkpt lat="38.807153668497556" lon="-9.294029925478153"><ele>268.0</ele><time>2026-05-01T10:42:38Z</time></trkpt><trkpt lat="38.80719259618043" lon="-9.293920939301639"><ele>268.0</ele><time>2026-05-01T10:42:40Z</time></trkpt><trkpt lat="38.807202527408556" lon="-9.29383284801044"><ele>268.0</ele><time>2026-05-01T10:43:17Z</time></trkpt><trkpt lat="38.80713890922874" lon="-9.293813077862763"><ele>268.0</ele><time>2026-05-01T10:43:35Z</time></trkpt><trkpt lat="38.8071978526882" lon="-9.293841994335141"><ele>268.0</ele><time>2026-05-01T10:43:50Z</time></trkpt><trkpt lat="38.80714547876211" lon="-9.293783168301013"><ele>268.3333333333333</ele><time>2026-05-01T10:44:02Z</time></trkpt><trkpt lat="38.807091562520014" lon="-9.293725079218135"><ele>268.66666666666663</ele><time>2026-05-01T10:44:19Z</time></trkpt><trkpt lat="38.80700873336752" lon="-9.293669669925933"><ele>269.0</ele><time>2026-05-01T10:44:38Z</time></trkpt><trkpt lat="38.806956850331545" lon="-9.293608369441118"><ele>269.3333333333333</ele><time>2026-05-01T10:44:39Z</time></trkpt><trkpt lat="38.80692686908766" lon="-9.293495350597578"><ele>269.6666666666667</ele><time>2026-05-01T10:44:40Z</time></trkpt><trkpt lat="38.80689537968172" lon="-9.293356656997142"><ele>270.0</ele><time>2026-05-01T10:44:41Z</time></trkpt><trkpt lat="38.806862969497715" lon="-9.293192433315067"><ele>269.4</ele><time>2026-05-01T10:44:42Z</time></trkpt><trkpt lat="38.8068298013142" lon="-9.293057339388174"><ele>268.8</ele><time>2026-05-01T10:44:43Z</time></trkpt><trkpt lat="38.806786415287625" lon="-9.292919467467682"><ele>268.2</ele><time>2026-05-01T10:44:44Z</time></trkpt><trkpt lat="38.8067557974612" lon="-9.292784205396748"><ele>267.6</ele><time>2026-05-01T10:44:45Z</time></trkpt><trkpt lat="38.80673095611196" lon="-9.292646055210023"><ele>267.0</ele><time>2026-05-01T10:44:46Z</time></trkpt><trkpt lat="38.80668919212468" lon="-9.292494681522502"><ele>267.0</ele><time>2026-05-01T10:44:47Z</time></trkpt><trkpt lat="38.80665252096304" lon="-9.292350766237716"><ele>267.0</ele><time>2026-05-01T10:44:48Z</time></trkpt><trkpt lat="38.80662959521537" lon="-9.292198604330467"><ele>267.0</ele><time>2026-05-01T10:44:49Z</time></trkpt><trkpt lat="38.80660990944212" lon="-9.292025528282982"><ele>267.0</ele><time>2026-05-01T10:44:50Z</time></trkpt><trkpt lat="38.80658936115336" lon="-9.291848488209299"><ele>266.25</ele><time>2026-05-01T10:44:51Z</time></trkpt><trkpt lat="38.806566450785446" lon="-9.291702067610146"><ele>265.5</ele><time>2026-05-01T10:44:52Z</time></trkpt><trkpt lat="38.806536211289156" lon="-9.291566987176754"><ele>264.75</ele><time>2026-05-01T10:44:53Z</time></trkpt><trkpt lat="38.80651320667446" lon="-9.291419820341165"><ele>264.0</ele><time>2026-05-01T10:44:54Z</time></trkpt><trkpt lat="38.80649009437634" lon="-9.29126567824037"><ele>263.25</ele><time>2026-05-01T10:44:55Z</time></trkpt><trkpt lat="38.80646278742986" lon="-9.291099749115068"><ele>262.5</ele><time>2026-05-01T10:44:56Z</time></trkpt><trkpt lat="38.80643805851768" lon="-9.290926509461851"><ele>261.75</ele><time>2026-05-01T10:44:57Z</time></trkpt><trkpt lat="38.80643086660164" lon="-9.29077070345369"><ele>261.0</ele><time>2026-05-01T10:44:58Z</time></trkpt><trkpt lat="38.80639766097878" lon="-9.290627301931119"><ele>260.25</ele><time>2026-05-01T10:44:59Z</time></trkpt><trkpt lat="38.806357400922394" lon="-9.290469280338707"><ele>259.5</ele><time>2026-05-01T10:45:00Z</time></trkpt><trkpt lat="38.80632556641953" lon="-9.290279088305754"><ele>258.75</ele><time>2026-05-01T10:45:01Z</time></trkpt><trkpt lat="38.806309607908275" lon="-9.290099515909533"><ele>258.0</ele><time>2026-05-01T10:45:02Z</time></trkpt><trkpt lat="38.80628370808609" lon="-9.28992751291688"><ele>257.5</ele><time>2026-05-01T10:45:03Z</time></trkpt><trkpt lat="38.8062571272228" lon="-9.289743728408247"><ele>257.0</ele><time>2026-05-01T10:45:04Z</time></trkpt><trkpt lat="38.806237299929826" lon="-9.289578628874686"><ele>256.5</ele><time>2026-05-01T10:45:05Z</time></trkpt><trkpt lat="38.80619801626687" lon="-9.289411523164034"><ele>256.0</ele><time>2026-05-01T10:45:06Z</time></trkpt><trkpt lat="38.80616452148071" lon="-9.289256398788037"><ele>256.0</ele><time>2026-05-01T10:45:07Z</time></trkpt><trkpt lat="38.80614752707778" lon="-9.289108829510061"><ele>256.0</ele><time>2026-05-01T10:45:08Z</time></trkpt><trkpt lat="38.80613060437301" lon="-9.288972584579582"><ele>256.0</ele><time>2026-05-01T10:45:09Z</time></trkpt><trkpt lat="38.80610963407065" lon="-9.288834873010368"><ele>256.0</ele><time>2026-05-01T10:45:10Z</time></trkpt><trkpt lat="38.80609315630978" lon="-9.288709530721672"><ele>256.0</ele><time>2026-05-01T10:45:11Z</time></trkpt><trkpt lat="38.80607825032603" lon="-9.288582794869635"><ele>254.8</ele><time>2026-05-01T10:45:12Z</time></trkpt><trkpt lat="38.806058514527564" lon="-9.288466304881553"><ele>253.60000000000002</ele><time>2026-05-01T10:45:13Z</time></trkpt><trkpt lat="38.80604272380498" lon="-9.288350917076134"><ele>252.4</ele><time>2026-05-01T10:45:14Z</time></trkpt><trkpt lat="38.806030305950145" lon="-9.288253328819831"><ele>251.2</ele><time>2026-05-01T10:45:15Z</time></trkpt><trkpt lat="38.80604878289022" lon="-9.288104911113603"><ele>250.0</ele><time>2026-05-01T10:45:17Z</time></trkpt><trkpt lat="38.80609166829331" lon="-9.288023066417486"><ele>249.0</ele><time>2026-05-01T10:45:19Z</time></trkpt><trkpt lat="38.80614132631479" lon="-9.287963675303791"><ele>248.0</ele><time>2026-05-01T10:45:21Z</time></trkpt><trkpt lat="38.806199653270944" lon="-9.287902741564126"><ele>247.0</ele><time>2026-05-01T10:45:24Z</time></trkpt><trkpt lat="38.806272743081216" lon="-9.28787702019905"><ele>246.0</ele><time>2026-05-01T10:45:25Z</time></trkpt><trkpt lat="38.80638412742537" lon="-9.287894884366509"><ele>245.0</ele><time>2026-05-01T10:45:26Z</time></trkpt><trkpt lat="38.806498254455136" lon="-9.287958244125093"><ele>245.0</ele><time>2026-05-01T10:45:27Z</time></trkpt><trkpt lat="38.80664384955926" lon="-9.288043288272295"><ele>245.0</ele><time>2026-05-01T10:45:28Z</time></trkpt><trkpt lat="38.8068033014828" lon="-9.288127081910822"><ele>245.0</ele><time>2026-05-01T10:45:29Z</time></trkpt><trkpt lat="38.80695113943045" lon="-9.288204128949499"><ele>241.66666666666669</ele><time>2026-05-01T10:45:30Z</time></trkpt><trkpt lat="38.80709838801373" lon="-9.288249136655919"><ele>238.33333333333331</ele><time>2026-05-01T10:45:31Z</time></trkpt><trkpt lat="38.8072568943906" lon="-9.28834391124936"><ele>235.0</ele><time>2026-05-01T10:45:32Z</time></trkpt><trkpt lat="38.807425815243946" lon="-9.288433001332738"><ele>235.0</ele><time>2026-05-01T10:45:33Z</time></trkpt><trkpt lat="38.80759064160936" lon="-9.288543172009758"><ele>235.0</ele><time>2026-05-01T10:45:34Z</time></trkpt><trkpt lat="38.807753372997546" lon="-9.28867355221605"><ele>235.0</ele><time>2026-05-01T10:45:35Z</time></trkpt><trkpt lat="38.80791343540904" lon="-9.288829923561137"><ele>232.33333333333331</ele><time>2026-05-01T10:45:36Z</time></trkpt><trkpt lat="38.8080688519489" lon="-9.288987264673649"><ele>229.66666666666669</ele><time>2026-05-01T10:45:37Z</time></trkpt><trkpt lat="38.80821755969586" lon="-9.289143404166373"><ele>227.0</ele><time>2026-05-01T10:45:38Z</time></trkpt><trkpt lat="38.80835877987678" lon="-9.289288095701458"><ele>227.0</ele><time>2026-05-01T10:45:39Z</time></trkpt><trkpt lat="38.80849087706572" lon="-9.28942387448766"><ele>227.0</ele><time>2026-05-01T10:45:40Z</time></trkpt><trkpt lat="38.80862193626725" lon="-9.289542067297457"><ele>227.0</ele><time>2026-05-01T10:45:41Z</time></trkpt><trkpt lat="38.80876021631757" lon="-9.289656556866916"><ele>227.0</ele><time>2026-05-01T10:45:42Z</time></trkpt><trkpt lat="38.8089026495539" lon="-9.289773428617258"><ele>227.0</ele><time>2026-05-01T10:45:43Z</time></trkpt><trkpt lat="38.80904320433603" lon="-9.28989123845232"><ele>227.0</ele><time>2026-05-01T10:45:44Z</time></trkpt><trkpt lat="38.80918643473552" lon="-9.290014915614988"><ele>227.0</ele><time>2026-05-01T10:45:45Z</time></trkpt><trkpt lat="38.80931153340869" lon="-9.290127127563707"><ele>227.0</ele><time>2026-05-01T10:45:46Z</time></trkpt><trkpt lat="38.80943645288369" lon="-9.290226018466798"><ele>227.0</ele><time>2026-05-01T10:45:47Z</time></trkpt><trkpt lat="38.80955907958736" lon="-9.29032255913099"><ele>227.0</ele><time>2026-05-01T10:45:48Z</time></trkpt><trkpt lat="38.809690177097025" lon="-9.290431287157157"><ele>227.0</ele><time>2026-05-01T10:45:49Z</time></trkpt><trkpt lat="38.809826009940046" lon="-9.290555681478956"><ele>227.0</ele><time>2026-05-01T10:45:50Z</time></trkpt><trkpt lat="38.809987301936495" lon="-9.290673791252699"><ele>227.0</ele><time>2026-05-01T10:45:51Z</time></trkpt><trkpt lat="38.81013034988314" lon="-9.290787907834662"><ele>223.0</ele><time>2026-05-01T10:45:52Z</time></trkpt><trkpt lat="38.81026498875475" lon="-9.290902041214977"><ele>219.0</ele><time>2026-05-01T10:45:53Z</time></trkpt><trkpt lat="38.810402356057224" lon="-9.291012984724496"><ele>215.0</ele><time>2026-05-01T10:45:54Z</time></trkpt><trkpt lat="38.81053685893303" lon="-9.291103541584322"><ele>215.0</ele><time>2026-05-01T10:45:55Z</time></trkpt><trkpt lat="38.81067467100971" lon="-9.291192895564903"><ele>215.0</ele><time>2026-05-01T10:45:56Z</time></trkpt><trkpt lat="38.81081500614469" lon="-9.291276372112092"><ele>215.0</ele><time>2026-05-01T10:45:57Z</time></trkpt><trkpt lat="38.81095783870576" lon="-9.291350462643745"><ele>215.66666666666669</ele><time>2026-05-01T10:45:58Z</time></trkpt><trkpt lat="38.81109196944578" lon="-9.291415927035821"><ele>216.33333333333331</ele><time>2026-05-01T10:45:59Z</time></trkpt><trkpt lat="38.811230471007455" lon="-9.291488546279428"><ele>217.0</ele><time>2026-05-01T10:46:00Z</time></trkpt><trkpt lat="38.81138048289014" lon="-9.291565912569515"><ele>217.0</ele><time>2026-05-01T10:46:01Z</time></trkpt><trkpt lat="38.81150864564084" lon="-9.291661308797785"><ele>217.0</ele><time>2026-05-01T10:46:02Z</time></trkpt><trkpt lat="38.81161847284809" lon="-9.291765575308231"><ele>217.0</ele><time>2026-05-01T10:46:03Z</time></trkpt><trkpt lat="38.81171994930865" lon="-9.291872402657463"><ele>217.0</ele><time>2026-05-01T10:46:04Z</time></trkpt><trkpt lat="38.81183296648122" lon="-9.291986361708561"><ele>217.0</ele><time>2026-05-01T10:46:05Z</time></trkpt><trkpt lat="38.81194004998279" lon="-9.29210535803037"><ele>217.0</ele><time>2026-05-01T10:46:06Z</time></trkpt><trkpt lat="38.812040356275006" lon="-9.292225973066252"><ele>217.0</ele><time>2026-05-01T10:46:07Z</time></trkpt><trkpt lat="38.812127419612494" lon="-9.29236381737339"><ele>217.0</ele><time>2026-05-01T10:46:08Z</time></trkpt><trkpt lat="38.812203768958064" lon="-9.292509948576162"><ele>215.25</ele><time>2026-05-01T10:46:09Z</time></trkpt><trkpt lat="38.81226889157939" lon="-9.292654199815694"><ele>213.5</ele><time>2026-05-01T10:46:10Z</time></trkpt><trkpt lat="38.81234297564597" lon="-9.292786532757022"><ele>211.75</ele><time>2026-05-01T10:46:11Z</time></trkpt><trkpt lat="38.81242867969337" lon="-9.292904908637139"><ele>210.0</ele><time>2026-05-01T10:46:12Z</time></trkpt><trkpt lat="38.81253166854593" lon="-9.292993046585707"><ele>210.0</ele><time>2026-05-01T10:46:13Z</time></trkpt><trkpt lat="38.81264885975759" lon="-9.293048780861485"><ele>210.0</ele><time>2026-05-01T10:46:14Z</time></trkpt><trkpt lat="38.812766111016735" lon="-9.293018356907963"><ele>210.0</ele><time>2026-05-01T10:46:15Z</time></trkpt><trkpt lat="38.81288651644511" lon="-9.292963117994692"><ele>210.0</ele><time>2026-05-01T10:46:16Z</time></trkpt><trkpt lat="38.81300630011817" lon="-9.292868017003393"><ele>208.5</ele><time>2026-05-01T10:46:17Z</time></trkpt><trkpt lat="38.81312022069522" lon="-9.292751786590262"><ele>207.0</ele><time>2026-05-01T10:46:18Z</time></trkpt><trkpt lat="38.813222258860044" lon="-9.292638426902439"><ele>205.5</ele><time>2026-05-01T10:46:19Z</time></trkpt><trkpt lat="38.8133075145858" lon="-9.292527174810472"><ele>204.0</ele><time>2026-05-01T10:46:20Z</time></trkpt><trkpt lat="38.81338572877909" lon="-9.292415042030495"><ele>204.0</ele><time>2026-05-01T10:46:21Z</time></trkpt><trkpt lat="38.813459575189114" lon="-9.292305071154978"><ele>204.0</ele><time>2026-05-01T10:46:22Z</time></trkpt><trkpt lat="38.81354520014154" lon="-9.2921984375584"><ele>204.0</ele><time>2026-05-01T10:46:23Z</time></trkpt><trkpt lat="38.81360280144411" lon="-9.292078329810384"><ele>204.0</ele><time>2026-05-01T10:46:24Z</time></trkpt><trkpt lat="38.81368600264331" lon="-9.291986638347327"><ele>205.39999999999998</ele><time>2026-05-01T10:46:25Z</time></trkpt><trkpt lat="38.813755240368366" lon="-9.291874871807037"><ele>206.8</ele><time>2026-05-01T10:46:26Z</time></trkpt><trkpt lat="38.813835832981766" lon="-9.29178265267949"><ele>208.2</ele><time>2026-05-01T10:46:27Z</time></trkpt><trkpt lat="38.813936735905195" lon="-9.291731355269075"><ele>209.60000000000002</ele><time>2026-05-01T10:46:28Z</time></trkpt><trkpt lat="38.814046146454515" lon="-9.291724082748564"><ele>211.0</ele><time>2026-05-01T10:46:29Z</time></trkpt><trkpt lat="38.814173001987236" lon="-9.291784382134601"><ele>211.0</ele><time>2026-05-01T10:46:30Z</time></trkpt><trkpt lat="38.8143009172292" lon="-9.291861764302"><ele>211.0</ele><time>2026-05-01T10:46:31Z</time></trkpt><trkpt lat="38.81441759462896" lon="-9.291933847519283"><ele>211.0</ele><time>2026-05-01T10:46:32Z</time></trkpt><trkpt lat="38.81452251865095" lon="-9.292006825954953"><ele>211.0</ele><time>2026-05-01T10:46:33Z</time></trkpt><trkpt lat="38.81462295717449" lon="-9.292051521139726"><ele>212.4</ele><time>2026-05-01T10:46:34Z</time></trkpt><trkpt lat="38.8147271958827" lon="-9.292094190302272"><ele>213.8</ele><time>2026-05-01T10:46:35Z</time></trkpt><trkpt lat="38.81482778074521" lon="-9.292134875958386"><ele>215.20000000000002</ele><time>2026-05-01T10:46:36Z</time></trkpt><trkpt lat="38.81491979852106" lon="-9.292160498837575"><ele>216.60000000000002</ele><time>2026-05-01T10:46:37Z</time></trkpt><trkpt lat="38.81501038090625" lon="-9.292173422830144"><ele>218.0</ele><time>2026-05-01T10:46:38Z</time></trkpt><trkpt lat="38.81508959828872" lon="-9.292168048617308"><ele>218.8</ele><time>2026-05-01T10:46:39Z</time></trkpt><trkpt lat="38.81517051045969" lon="-9.292160569910052"><ele>219.60000000000002</ele><time>2026-05-01T10:46:40Z</time></trkpt><trkpt lat="38.81525362426612" lon="-9.292166548903829"><ele>220.39999999999998</ele><time>2026-05-01T10:46:41Z</time></trkpt><trkpt lat="38.81533663494356" lon="-9.292054823141843"><ele>221.2</ele><time>2026-05-01T10:46:42Z</time></trkpt><trkpt lat="38.81541064534081" lon="-9.291925196178145"><ele>222.0</ele><time>2026-05-01T10:46:43Z</time></trkpt><trkpt lat="38.815496542526795" lon="-9.291758231714098"><ele>222.0</ele><time>2026-05-01T10:46:44Z</time></trkpt><trkpt lat="38.815588214298465" lon="-9.291626994813587"><ele>222.0</ele><time>2026-05-01T10:46:45Z</time></trkpt><trkpt lat="38.815674012875" lon="-9.291534216194929"><ele>222.0</ele><time>2026-05-01T10:46:46Z</time></trkpt><trkpt lat="38.81572622558965" lon="-9.291412078069678"><ele>222.0</ele><time>2026-05-01T10:46:47Z</time></trkpt><trkpt lat="38.81579730823309" lon="-9.291316830327787"><ele>222.0</ele><time>2026-05-01T10:46:48Z</time></trkpt><trkpt lat="38.815870619847935" lon="-9.291218765513"><ele>222.0</ele><time>2026-05-01T10:46:49Z</time></trkpt><trkpt lat="38.81594544880309" lon="-9.291118728369469"><ele>222.0</ele><time>2026-05-01T10:46:50Z</time></trkpt><trkpt lat="38.816012344183235" lon="-9.291020310339281"><ele>222.0</ele><time>2026-05-01T10:46:51Z</time></trkpt><trkpt lat="38.816066571810865" lon="-9.290908911253418"><ele>222.0</ele><time>2026-05-01T10:46:52Z</time></trkpt><trkpt lat="38.81610957595811" lon="-9.290784578394568"><ele>222.25</ele><time>2026-05-01T10:46:53Z</time></trkpt><trkpt lat="38.816145648949" lon="-9.29064277320947"><ele>222.5</ele><time>2026-05-01T10:46:54Z</time></trkpt><trkpt lat="38.81618093583274" lon="-9.290485029310029"><ele>222.75</ele><time>2026-05-01T10:46:55Z</time></trkpt><trkpt lat="38.81622054566838" lon="-9.29031743204383"><ele>223.0</ele><time>2026-05-01T10:46:56Z</time></trkpt><trkpt lat="38.816275492325346" lon="-9.290136157471421"><ele>223.0</ele><time>2026-05-01T10:46:57Z</time></trkpt><trkpt lat="38.81635313986375" lon="-9.289978735216318"><ele>223.0</ele><time>2026-05-01T10:46:58Z</time></trkpt><trkpt lat="38.816417266841" lon="-9.28983562148767"><ele>223.0</ele><time>2026-05-01T10:46:59Z</time></trkpt><trkpt lat="38.8165006667608" lon="-9.289702252373173"><ele>223.0</ele><time>2026-05-01T10:47:00Z</time></trkpt><trkpt lat="38.81659686642461" lon="-9.289550495800528"><ele>222.0</ele><time>2026-05-01T10:47:01Z</time></trkpt><trkpt lat="38.81670030444434" lon="-9.289389075587716"><ele>221.0</ele><time>2026-05-01T10:47:02Z</time></trkpt><trkpt lat="38.816797919054196" lon="-9.289244783092949"><ele>220.0</ele><time>2026-05-01T10:47:03Z</time></trkpt><trkpt lat="38.81691358858048" lon="-9.289121122929936"><ele>220.0</ele><time>2026-05-01T10:47:04Z</time></trkpt><trkpt lat="38.817001002582955" lon="-9.289030934874837"><ele>220.0</ele><time>2026-05-01T10:47:05Z</time></trkpt><trkpt lat="38.81707949345827" lon="-9.288935241060853"><ele>220.0</ele><time>2026-05-01T10:47:06Z</time></trkpt><trkpt lat="38.81714756929452" lon="-9.288823348228297"><ele>220.0</ele><time>2026-05-01T10:47:07Z</time></trkpt><trkpt lat="38.81717086039308" lon="-9.288695278989207"><ele>220.0</ele><time>2026-05-01T10:47:08Z</time></trkpt><trkpt lat="38.817163235699596" lon="-9.288541156727597"><ele>219.75</ele><time>2026-05-01T10:47:09Z</time></trkpt><trkpt lat="38.81715705249015" lon="-9.288350544070072"><ele>219.5</ele><time>2026-05-01T10:47:10Z</time></trkpt><trkpt lat="38.81717168902009" lon="-9.288193568609591"><ele>219.25</ele><time>2026-05-01T10:47:11Z</time></trkpt><trkpt lat="38.81724377256907" lon="-9.28803955045111"><ele>219.0</ele><time>2026-05-01T10:47:12Z</time></trkpt><trkpt lat="38.817347475639814" lon="-9.287893647521756"><ele>219.0</ele><time>2026-05-01T10:47:13Z</time></trkpt><trkpt lat="38.81743321294381" lon="-9.287758524814972"><ele>219.0</ele><time>2026-05-01T10:47:14Z</time></trkpt><trkpt lat="38.81749491014135" lon="-9.287629448030387"><ele>219.0</ele><time>2026-05-01T10:47:15Z</time></trkpt><trkpt lat="38.81756638669327" lon="-9.287490544640033"><ele>219.0</ele><time>2026-05-01T10:47:16Z</time></trkpt><trkpt lat="38.817674012014294" lon="-9.287386549108419"><ele>220.0</ele><time>2026-05-01T10:47:17Z</time></trkpt><trkpt lat="38.81774954041038" lon="-9.287264279177766"><ele>220.99999999999997</ele><time>2026-05-01T10:47:18Z</time></trkpt><trkpt lat="38.817815211270684" lon="-9.287151049980315"><ele>221.99999999999997</ele><time>2026-05-01T10:47:19Z</time></trkpt><trkpt lat="38.81784340928802" lon="-9.287033379862576"><ele>223.0</ele><time>2026-05-01T10:47:20Z</time></trkpt><trkpt lat="38.81781515994049" lon="-9.286927695625884"><ele>224.0</ele><time>2026-05-01T10:47:21Z</time></trkpt><trkpt lat="38.81776272302982" lon="-9.286789676874855"><ele>224.25</ele><time>2026-05-01T10:47:22Z</time></trkpt><trkpt lat="38.817734047244976" lon="-9.286607820234357"><ele>224.5</ele><time>2026-05-01T10:47:23Z</time></trkpt><trkpt lat="38.81774433070424" lon="-9.286450479790743"><ele>224.75</ele><time>2026-05-01T10:47:24Z</time></trkpt><trkpt lat="38.81777899113959" lon="-9.28631026516137"><ele>225.0</ele><time>2026-05-01T10:47:25Z</time></trkpt><trkpt lat="38.817819498096604" lon="-9.28616793527355"><ele>225.0</ele><time>2026-05-01T10:47:26Z</time></trkpt><trkpt lat="38.8178730028055" lon="-9.2860217317576"><ele>225.0</ele><time>2026-05-01T10:47:27Z</time></trkpt><trkpt lat="38.817934576164895" lon="-9.285893867380969"><ele>225.0</ele><time>2026-05-01T10:47:28Z</time></trkpt><trkpt lat="38.81800273988892" lon="-9.285766682390289"><ele>225.0</ele><time>2026-05-01T10:47:29Z</time></trkpt><trkpt lat="38.81808884006324" lon="-9.285630698542596"><ele>225.75</ele><time>2026-05-01T10:47:30Z</time></trkpt><trkpt lat="38.81818197903853" lon="-9.28551007997245"><ele>226.5</ele><time>2026-05-01T10:47:31Z</time></trkpt><trkpt lat="38.8182896398581" lon="-9.285396413438813"><ele>227.25</ele><time>2026-05-01T10:47:32Z</time></trkpt><trkpt lat="38.8183939437284" lon="-9.285289981130573"><ele>228.0</ele><time>2026-05-01T10:47:33Z</time></trkpt><trkpt lat="38.81849220795607" lon="-9.285178808950496"><ele>228.0</ele><time>2026-05-01T10:47:34Z</time></trkpt><trkpt lat="38.81857983355225" lon="-9.285054397986316"><ele>228.0</ele><time>2026-05-01T10:47:35Z</time></trkpt><trkpt lat="38.81864874968126" lon="-9.284913686795269"><ele>228.0</ele><time>2026-05-01T10:47:36Z</time></trkpt><trkpt lat="38.81871242619833" lon="-9.28476264438389"><ele>228.0</ele><time>2026-05-01T10:47:37Z</time></trkpt><trkpt lat="38.81878725348419" lon="-9.284590403337777"><ele>227.75</ele><time>2026-05-01T10:47:38Z</time></trkpt><trkpt lat="38.81888053012365" lon="-9.284468535999869"><ele>227.5</ele><time>2026-05-01T10:47:39Z</time></trkpt><trkpt lat="38.81895852655406" lon="-9.28435247824867"><ele>227.25</ele><time>2026-05-01T10:47:40Z</time></trkpt><trkpt lat="38.819025690029974" lon="-9.284235253410966"><ele>227.0</ele><time>2026-05-01T10:47:41Z</time></trkpt><trkpt lat="38.819114276559375" lon="-9.284134556023652"><ele>227.0</ele><time>2026-05-01T10:47:42Z</time></trkpt><trkpt lat="38.81920555721056" lon="-9.284032841991925"><ele>227.0</ele><time>2026-05-01T10:47:43Z</time></trkpt><trkpt lat="38.81928815970481" lon="-9.283936461684354"><ele>227.0</ele><time>2026-05-01T10:47:44Z</time></trkpt><trkpt lat="38.81934995196892" lon="-9.283837558987276"><ele>227.0</ele><time>2026-05-01T10:47:45Z</time></trkpt><trkpt lat="38.81939642019791" lon="-9.283709838844247"><ele>227.0</ele><time>2026-05-01T10:47:46Z</time></trkpt><trkpt lat="38.81941732657055" lon="-9.2835744268153"><ele>228.5</ele><time>2026-05-01T10:47:47Z</time></trkpt><trkpt lat="38.819400995372185" lon="-9.283425195552802"><ele>230.0</ele><time>2026-05-01T10:47:48Z</time></trkpt><trkpt lat="38.81938330215339" lon="-9.283233319265598"><ele>231.5</ele><time>2026-05-01T10:47:49Z</time></trkpt><trkpt lat="38.81935849160216" lon="-9.283038196349025"><ele>233.0</ele><time>2026-05-01T10:47:50Z</time></trkpt><trkpt lat="38.81935651364541" lon="-9.28285527144134"><ele>234.25</ele><time>2026-05-01T10:47:51Z</time></trkpt><trkpt lat="38.81937021789282" lon="-9.282672228802124"><ele>235.5</ele><time>2026-05-01T10:47:52Z</time></trkpt><trkpt lat="38.819387083729126" lon="-9.28249257075499"><ele>236.75</ele><time>2026-05-01T10:47:53Z</time></trkpt><trkpt lat="38.819392335719314" lon="-9.282344739006062"><ele>238.0</ele><time>2026-05-01T10:47:54Z</time></trkpt><trkpt lat="38.81936406557776" lon="-9.282223689186585"><ele>238.5</ele><time>2026-05-01T10:47:55Z</time></trkpt><trkpt lat="38.81932604553755" lon="-9.282048957193714"><ele>239.0</ele><time>2026-05-01T10:47:56Z</time></trkpt><trkpt lat="38.81929362101798" lon="-9.281889711430814"><ele>239.5</ele><time>2026-05-01T10:47:57Z</time></trkpt><trkpt lat="38.81926736228162" lon="-9.281757398373916"><ele>240.0</ele><time>2026-05-01T10:47:58Z</time></trkpt><trkpt lat="38.81928314403519" lon="-9.281624357084858"><ele>240.0</ele><time>2026-05-01T10:47:59Z</time></trkpt><trkpt lat="38.81935490729104" lon="-9.281504225964671"><ele>240.0</ele><time>2026-05-01T10:48:00Z</time></trkpt><trkpt lat="38.819412658434736" lon="-9.281358995057627"><ele>240.0</ele><time>2026-05-01T10:48:01Z</time></trkpt><trkpt lat="38.819487903900765" lon="-9.28119676722289"><ele>240.0</ele><time>2026-05-01T10:48:02Z</time></trkpt><trkpt lat="38.8195683242699" lon="-9.28102027785036"><ele>239.5</ele><time>2026-05-01T10:48:03Z</time></trkpt><trkpt lat="38.81964267702648" lon="-9.280855903912933"><ele>239.0</ele><time>2026-05-01T10:48:04Z</time></trkpt><trkpt lat="38.81971106351473" lon="-9.280712368261417"><ele>238.5</ele><time>2026-05-01T10:48:05Z</time></trkpt><trkpt lat="38.81978841321365" lon="-9.280566004137636"><ele>238.0</ele><time>2026-05-01T10:48:06Z</time></trkpt><trkpt lat="38.81986850477157" lon="-9.28043216765021"><ele>237.75</ele><time>2026-05-01T10:48:07Z</time></trkpt><trkpt lat="38.81995500243729" lon="-9.28029161406714"><ele>237.5</ele><time>2026-05-01T10:48:08Z</time></trkpt><trkpt lat="38.82005145007645" lon="-9.28017279009879"><ele>237.25</ele><time>2026-05-01T10:48:09Z</time></trkpt><trkpt lat="38.820163401330426" lon="-9.280096614901302"><ele>237.0</ele><time>2026-05-01T10:48:10Z</time></trkpt><trkpt lat="38.82028353290373" lon="-9.280012040680717"><ele>237.5</ele><time>2026-05-01T10:48:11Z</time></trkpt><trkpt lat="38.82041740416533" lon="-9.279914690610385"><ele>238.0</ele><time>2026-05-01T10:48:12Z</time></trkpt><trkpt lat="38.82052142137135" lon="-9.279840560828486"><ele>238.5</ele><time>2026-05-01T10:48:13Z</time></trkpt><trkpt lat="38.820604805263514" lon="-9.279758193844733"><ele>239.0</ele><time>2026-05-01T10:48:14Z</time></trkpt><trkpt lat="38.820700480036386" lon="-9.279651739357334"><ele>239.0</ele><time>2026-05-01T10:48:15Z</time></trkpt><trkpt lat="38.82080714281287" lon="-9.279530301774393"><ele>239.0</ele><time>2026-05-01T10:48:16Z</time></trkpt><trkpt lat="38.82092431543876" lon="-9.27939967230044"><ele>239.0</ele><time>2026-05-01T10:48:17Z</time></trkpt><trkpt lat="38.82103876903154" lon="-9.279269496383126"><ele>238.75</ele><time>2026-05-01T10:48:18Z</time></trkpt><trkpt lat="38.82113732060998" lon="-9.279140797864766"><ele>238.5</ele><time>2026-05-01T10:48:19Z</time></trkpt><trkpt lat="38.821237365111394" lon="-9.279016851934985"><ele>238.25</ele><time>2026-05-01T10:48:20Z</time></trkpt><trkpt lat="38.82135899138014" lon="-9.278919140732022"><ele>238.0</ele><time>2026-05-01T10:48:21Z</time></trkpt><trkpt lat="38.82150211829379" lon="-9.278836364832742"><ele>238.0</ele><time>2026-05-01T10:48:22Z</time></trkpt><trkpt lat="38.82165344999812" lon="-9.278781050172993"><ele>238.0</ele><time>2026-05-01T10:48:23Z</time></trkpt><trkpt lat="38.82176549498091" lon="-9.278678421117908"><ele>238.0</ele><time>2026-05-01T10:48:24Z</time></trkpt><trkpt lat="38.82186450704416" lon="-9.27855302431582"><ele>238.0</ele><time>2026-05-01T10:48:25Z</time></trkpt><trkpt lat="38.82195517285546" lon="-9.278429806626077"><ele>240.0</ele><time>2026-05-01T10:48:26Z</time></trkpt><trkpt lat="38.82204678733936" lon="-9.278305772151386"><ele>242.0</ele><time>2026-05-01T10:48:27Z</time></trkpt><trkpt lat="38.82211320973334" lon="-9.278190598161594"><ele>244.0</ele><time>2026-05-01T10:48:28Z</time></trkpt><trkpt lat="38.82216387485009" lon="-9.278068782319002"><ele>246.0</ele><time>2026-05-01T10:48:29Z</time></trkpt><trkpt lat="38.822178595569184" lon="-9.27791521715451"><ele>246.0</ele><time>2026-05-01T10:48:30Z</time></trkpt><trkpt lat="38.82219661442291" lon="-9.27771937998112"><ele>246.0</ele><time>2026-05-01T10:48:31Z</time></trkpt><trkpt lat="38.822212417231164" lon="-9.277522940770188"><ele>246.0</ele><time>2026-05-01T10:48:32Z</time></trkpt><trkpt lat="38.82222945252964" lon="-9.277350314199946"><ele>246.0</ele><time>2026-05-01T10:48:33Z</time></trkpt><trkpt lat="38.82225603819884" lon="-9.277197925966743"><ele>246.5</ele><time>2026-05-01T10:48:34Z</time></trkpt><trkpt lat="38.822310310797725" lon="-9.277069215206893"><ele>247.0</ele><time>2026-05-01T10:48:35Z</time></trkpt><trkpt lat="38.82240705441635" lon="-9.27699000836641"><ele>247.5</ele><time>2026-05-01T10:48:36Z</time></trkpt><trkpt lat="38.82251690672244" lon="-9.276924215778113"><ele>248.0</ele><time>2026-05-01T10:48:37Z</time></trkpt><trkpt lat="38.8225979542328" lon="-9.276806282588703"><ele>248.0</ele><time>2026-05-01T10:48:38Z</time></trkpt><trkpt lat="38.822646775618004" lon="-9.276681975464657"><ele>248.0</ele><time>2026-05-01T10:48:39Z</time></trkpt><trkpt lat="38.82266459597213" lon="-9.276545731852647"><ele>248.0</ele><time>2026-05-01T10:48:40Z</time></trkpt><trkpt lat="38.82269357749278" lon="-9.276367957886675"><ele>248.0</ele><time>2026-05-01T10:48:41Z</time></trkpt><trkpt lat="38.82272946116721" lon="-9.276174866419833"><ele>251.0</ele><time>2026-05-01T10:48:42Z</time></trkpt><trkpt lat="38.82277758974053" lon="-9.27601517815003"><ele>254.0</ele><time>2026-05-01T10:48:43Z</time></trkpt><trkpt lat="38.82287030569094" lon="-9.27586658574994"><ele>257.0</ele><time>2026-05-01T10:48:44Z</time></trkpt><trkpt lat="38.82297894831353" lon="-9.275719938540387"><ele>260.0</ele><time>2026-05-01T10:48:45Z</time></trkpt><trkpt lat="38.82309414799322" lon="-9.275582928365179"><ele>260.0</ele><time>2026-05-01T10:48:46Z</time></trkpt><trkpt lat="38.823197070913295" lon="-9.275461663396507"><ele>260.0</ele><time>2026-05-01T10:48:47Z</time></trkpt><trkpt lat="38.82328263452414" lon="-9.275343027165732"><ele>260.0</ele><time>2026-05-01T10:48:48Z</time></trkpt><trkpt lat="38.823287434745914" lon="-9.275171571673953"><ele>260.0</ele><time>2026-05-01T10:48:49Z</time></trkpt><trkpt lat="38.823334857137766" lon="-9.275013469067206"><ele>260.0</ele><time>2026-05-01T10:48:50Z</time></trkpt><trkpt lat="38.823386890190214" lon="-9.274873413786558"><ele>260.0</ele><time>2026-05-01T10:48:51Z</time></trkpt><trkpt lat="38.82348757063404" lon="-9.274769330474236"><ele>260.0</ele><time>2026-05-01T10:48:52Z</time></trkpt><trkpt lat="38.823590293104445" lon="-9.274680418308467"><ele>260.0</ele><time>2026-05-01T10:48:53Z</time></trkpt><trkpt lat="38.82369863301666" lon="-9.274602166768089"><ele>259.8</ele><time>2026-05-01T10:48:54Z</time></trkpt><trkpt lat="38.82378581970657" lon="-9.274507187485728"><ele>259.6</ele><time>2026-05-01T10:48:55Z</time></trkpt><trkpt lat="38.82386525330412" lon="-9.274430466513564"><ele>259.4</ele><time>2026-05-01T10:48:56Z</time></trkpt><trkpt lat="38.82392405689948" lon="-9.274349518116356"><ele>259.2</ele><time>2026-05-01T10:48:57Z</time></trkpt><trkpt lat="38.823969620661025" lon="-9.274231142853774"><ele>259.0</ele><time>2026-05-01T10:48:58Z</time></trkpt><trkpt lat="38.82402556343602" lon="-9.274083855927277"><ele>259.0</ele><time>2026-05-01T10:48:59Z</time></trkpt><trkpt lat="38.82407359339244" lon="-9.273954044712383"><ele>259.0</ele><time>2026-05-01T10:49:00Z</time></trkpt><trkpt lat="38.82418897711928" lon="-9.273854054650842"><ele>259.0</ele><time>2026-05-01T10:49:01Z</time></trkpt><trkpt lat="38.82429109677678" lon="-9.273749246500792"><ele>259.0</ele><time>2026-05-01T10:49:02Z</time></trkpt><trkpt lat="38.824394729690425" lon="-9.273659057784227"><ele>259.8</ele><time>2026-05-01T10:49:03Z</time></trkpt><trkpt lat="38.824490000495345" lon="-9.273587273646873"><ele>260.59999999999997</ele><time>2026-05-01T10:49:04Z</time></trkpt><trkpt lat="38.82456469074678" lon="-9.273508833834132"><ele>261.4</ele><time>2026-05-01T10:49:05Z</time></trkpt><trkpt lat="38.82464307458695" lon="-9.27343653113545"><ele>262.2</ele><time>2026-05-01T10:49:06Z</time></trkpt><trkpt lat="38.82470822572373" lon="-9.273333471283612"><ele>263.0</ele><time>2026-05-01T10:49:07Z</time></trkpt><trkpt lat="38.824741666268196" lon="-9.273199534463311"><ele>266.0</ele><time>2026-05-01T10:49:08Z</time></trkpt><trkpt lat="38.82475314703919" lon="-9.273059779274774"><ele>269.0</ele><time>2026-05-01T10:49:09Z</time></trkpt><trkpt lat="38.82474168796803" lon="-9.272924645331313"><ele>272.0</ele><time>2026-05-01T10:49:10Z</time></trkpt><trkpt lat="38.82465957002512" lon="-9.2728295581933"><ele>275.0</ele><time>2026-05-01T10:49:11Z</time></trkpt><trkpt lat="38.82459804864712" lon="-9.272679475631891"><ele>275.0</ele><time>2026-05-01T10:49:12Z</time></trkpt><trkpt lat="38.82453067140531" lon="-9.272523493884187"><ele>275.0</ele><time>2026-05-01T10:49:13Z</time></trkpt><trkpt lat="38.82446107747736" lon="-9.272383829655402"><ele>275.0</ele><time>2026-05-01T10:49:14Z</time></trkpt><trkpt lat="38.82439262792898" lon="-9.272251727789875"><ele>275.0</ele><time>2026-05-01T10:49:15Z</time></trkpt><trkpt lat="38.824324138129434" lon="-9.272137356326503"><ele>273.5</ele><time>2026-05-01T10:49:16Z</time></trkpt><trkpt lat="38.82424092389955" lon="-9.272043096042822"><ele>272.0</ele><time>2026-05-01T10:49:17Z</time></trkpt><trkpt lat="38.8241405047942" lon="-9.27194759113954"><ele>270.5</ele><time>2026-05-01T10:49:18Z</time></trkpt><trkpt lat="38.82402823711779" lon="-9.271838300382246"><ele>269.0</ele><time>2026-05-01T10:49:19Z</time></trkpt><trkpt lat="38.82395117040513" lon="-9.271705357078584"><ele>269.0</ele><time>2026-05-01T10:49:20Z</time></trkpt><trkpt lat="38.82387625572585" lon="-9.271593452367108"><ele>269.0</ele><time>2026-05-01T10:49:21Z</time></trkpt><trkpt lat="38.82383286153554" lon="-9.271481226780931"><ele>269.0</ele><time>2026-05-01T10:49:22Z</time></trkpt><trkpt lat="38.823788944007305" lon="-9.271342933419366"><ele>269.0</ele><time>2026-05-01T10:49:23Z</time></trkpt><trkpt lat="38.82374163796336" lon="-9.271182646322725"><ele>270.0</ele><time>2026-05-01T10:49:24Z</time></trkpt><trkpt lat="38.82368848215839" lon="-9.271002538657397"><ele>271.0</ele><time>2026-05-01T10:49:25Z</time></trkpt><trkpt lat="38.823630413795634" lon="-9.27082222679213"><ele>272.0</ele><time>2026-05-01T10:49:26Z</time></trkpt><trkpt lat="38.823567971715136" lon="-9.270647621815327"><ele>272.6666666666667</ele><time>2026-05-01T10:49:27Z</time></trkpt><trkpt lat="38.82350027004229" lon="-9.270461426568744"><ele>273.3333333333333</ele><time>2026-05-01T10:49:28Z</time></trkpt><trkpt lat="38.82342808559678" lon="-9.27026975852994"><ele>274.0</ele><time>2026-05-01T10:49:29Z</time></trkpt><trkpt lat="38.823355151731036" lon="-9.270079171674732"><ele>273.75</ele><time>2026-05-01T10:49:30Z</time></trkpt><trkpt lat="38.82328539506675" lon="-9.269900126486919"><ele>273.5</ele><time>2026-05-01T10:49:31Z</time></trkpt><trkpt lat="38.823219004762684" lon="-9.269729721692185"><ele>273.25</ele><time>2026-05-01T10:49:32Z</time></trkpt><trkpt lat="38.82315533343043" lon="-9.269566527594504"><ele>273.0</ele><time>2026-05-01T10:49:33Z</time></trkpt><trkpt lat="38.82310146446954" lon="-9.269425200707525"><ele>273.0</ele><time>2026-05-01T10:49:34Z</time></trkpt><trkpt lat="38.82305109449153" lon="-9.269287136611588"><ele>273.0</ele><time>2026-05-01T10:49:35Z</time></trkpt><trkpt lat="38.82302045218304" lon="-9.269141915284022"><ele>273.0</ele><time>2026-05-01T10:49:36Z</time></trkpt><trkpt lat="38.823044951209894" lon="-9.268971473509046"><ele>273.0</ele><time>2026-05-01T10:49:37Z</time></trkpt><trkpt lat="38.823095793773945" lon="-9.268804040621925"><ele>273.25</ele><time>2026-05-01T10:49:38Z</time></trkpt><trkpt lat="38.823183793370966" lon="-9.268656121482033"><ele>273.5</ele><time>2026-05-01T10:49:39Z</time></trkpt><trkpt lat="38.82331176344375" lon="-9.268572616410552"><ele>273.75</ele><time>2026-05-01T10:49:40Z</time></trkpt><trkpt lat="38.8234625004514" lon="-9.26851266495022"><ele>274.0</ele><time>2026-05-01T10:49:41Z</time></trkpt><trkpt lat="38.82362375984806" lon="-9.268477260128416"><ele>276.0</ele><time>2026-05-01T10:49:42Z</time></trkpt><trkpt lat="38.82374369067695" lon="-9.268415234708062"><ele>278.0</ele><time>2026-05-01T10:49:43Z</time></trkpt><trkpt lat="38.82384251147309" lon="-9.26832916357761"><ele>280.0</ele><time>2026-05-01T10:49:44Z</time></trkpt><trkpt lat="38.82393695085244" lon="-9.268217026677581"><ele>282.0</ele><time>2026-05-01T10:49:45Z</time></trkpt><trkpt lat="38.823963246341364" lon="-9.268079169016579"><ele>283.0</ele><time>2026-05-01T10:49:46Z</time></trkpt><trkpt lat="38.82398728312554" lon="-9.267931938595877"><ele>284.0</ele><time>2026-05-01T10:49:47Z</time></trkpt><trkpt lat="38.82399936681414" lon="-9.267743517793471"><ele>285.0</ele><time>2026-05-01T10:49:48Z</time></trkpt><trkpt lat="38.82401353718015" lon="-9.267538631719221"><ele>286.0</ele><time>2026-05-01T10:49:49Z</time></trkpt><trkpt lat="38.8240387733352" lon="-9.26735125037415"><ele>287.0</ele><time>2026-05-01T10:49:50Z</time></trkpt><trkpt lat="38.82409612388804" lon="-9.267174513260377"><ele>288.0</ele><time>2026-05-01T10:49:51Z</time></trkpt><trkpt lat="38.824192463770075" lon="-9.267013745051823"><ele>289.0</ele><time>2026-05-01T10:49:52Z</time></trkpt><trkpt lat="38.82432579008013" lon="-9.266844703307243"><ele>290.0</ele><time>2026-05-01T10:49:53Z</time></trkpt><trkpt lat="38.82445042794584" lon="-9.266666643522985"><ele>291.0</ele><time>2026-05-01T10:49:54Z</time></trkpt><trkpt lat="38.824577225851726" lon="-9.266495123870875"><ele>292.0</ele><time>2026-05-01T10:49:55Z</time></trkpt><trkpt lat="38.82469925222555" lon="-9.266328083326309"><ele>292.0</ele><time>2026-05-01T10:49:56Z</time></trkpt><trkpt lat="38.82481571481852" lon="-9.266168723968542"><ele>292.0</ele><time>2026-05-01T10:49:57Z</time></trkpt><trkpt lat="38.82493477442969" lon="-9.266005686758087"><ele>292.0</ele><time>2026-05-01T10:49:58Z</time></trkpt><trkpt lat="38.82506601312965" lon="-9.26582622342401"><ele>295.66666666666663</ele><time>2026-05-01T10:49:59Z</time></trkpt><trkpt lat="38.825197850387895" lon="-9.265645776882792"><ele>299.3333333333333</ele><time>2026-05-01T10:50:00Z</time></trkpt><trkpt lat="38.82531095237619" lon="-9.265490694403885"><ele>303.0</ele><time>2026-05-01T10:50:01Z</time></trkpt><trkpt lat="38.82541398168751" lon="-9.265349423202672"><ele>303.0</ele><time>2026-05-01T10:50:02Z</time></trkpt><trkpt lat="38.82551484938528" lon="-9.265211206193026"><ele>303.0</ele><time>2026-05-01T10:50:03Z</time></trkpt><trkpt lat="38.82561161081085" lon="-9.26507888066956"><ele>303.0</ele><time>2026-05-01T10:50:04Z</time></trkpt><trkpt lat="38.825701490847386" lon="-9.264955965676663"><ele>303.0</ele><time>2026-05-01T10:50:05Z</time></trkpt><trkpt lat="38.82577877137375" lon="-9.264850281049359"><ele>302.3333333333333</ele><time>2026-05-01T10:50:06Z</time></trkpt><trkpt lat="38.82584435707725" lon="-9.264759846102045"><ele>301.6666666666667</ele><time>2026-05-01T10:50:07Z</time></trkpt><trkpt lat="38.82589805057856" lon="-9.264683835771988"><ele>301.0</ele><time>2026-05-01T10:50:08Z</time></trkpt><trkpt lat="38.82594770045145" lon="-9.264611555127225"><ele>300.33333333333337</ele><time>2026-05-01T10:50:09Z</time></trkpt><trkpt lat="38.82601577893962" lon="-9.264550653478322"><ele>299.6666666666667</ele><time>2026-05-01T10:50:11Z</time></trkpt><trkpt lat="38.82605050298053" lon="-9.264474541687015"><ele>299.0</ele><time>2026-05-01T10:50:15Z</time></trkpt><trkpt lat="38.82614227075046" lon="-9.264545457522484"><ele>300.2</ele><time>2026-05-01T10:50:16Z</time></trkpt><trkpt lat="38.826214380062204" lon="-9.264653661880587"><ele>301.4</ele><time>2026-05-01T10:50:17Z</time></trkpt><trkpt lat="38.82628788479688" lon="-9.2647781315675"><ele>302.6</ele><time>2026-05-01T10:50:18Z</time></trkpt><trkpt lat="38.8263296328501" lon="-9.264866804694273"><ele>303.8</ele><time>2026-05-01T10:50:19Z</time></trkpt><trkpt lat="38.826426449574505" lon="-9.264904427169668"><ele>305.0</ele><time>2026-05-01T10:50:21Z</time></trkpt><trkpt lat="38.82648975153732" lon="-9.264744420814939"><ele>301.75</ele><time>2026-05-01T10:50:23Z</time></trkpt><trkpt lat="38.82654237348495" lon="-9.264601844183565"><ele>298.5</ele><time>2026-05-01T10:50:24Z</time></trkpt><trkpt lat="38.826595604789695" lon="-9.264429661208844"><ele>295.25</ele><time>2026-05-01T10:50:25Z</time></trkpt><trkpt lat="38.82665603429692" lon="-9.26424397130449"><ele>292.0</ele><time>2026-05-01T10:50:26Z</time></trkpt><trkpt lat="38.826716574042194" lon="-9.264086025285327"><ele>290.5</ele><time>2026-05-01T10:50:27Z</time></trkpt><trkpt lat="38.82678651286356" lon="-9.263928926679242"><ele>289.0</ele><time>2026-05-01T10:50:28Z</time></trkpt><trkpt lat="38.82686133424821" lon="-9.263782014320842"><ele>287.5</ele><time>2026-05-01T10:50:29Z</time></trkpt><trkpt lat="38.82694829306466" lon="-9.263630006456246"><ele>286.0</ele><time>2026-05-01T10:50:30Z</time></trkpt><trkpt lat="38.827061274055076" lon="-9.263470662416973"><ele>284.5</ele><time>2026-05-01T10:50:31Z</time></trkpt><trkpt lat="38.827170239048655" lon="-9.26333434810477"><ele>283.0</ele><time>2026-05-01T10:50:32Z</time></trkpt><trkpt lat="38.82726265155937" lon="-9.263211950441988"><ele>281.5</ele><time>2026-05-01T10:50:33Z</time></trkpt><trkpt lat="38.827339404657856" lon="-9.26308356703889"><ele>280.0</ele><time>2026-05-01T10:50:34Z</time></trkpt><trkpt lat="38.827421888594095" lon="-9.262935848272756"><ele>278.75</ele><time>2026-05-01T10:50:35Z</time></trkpt><trkpt lat="38.82751640300763" lon="-9.26278058566446"><ele>277.5</ele><time>2026-05-01T10:50:36Z</time></trkpt><trkpt lat="38.827621883483886" lon="-9.262646690450294"><ele>276.25</ele><time>2026-05-01T10:50:37Z</time></trkpt><trkpt lat="38.82772598160904" lon="-9.262533231193792"><ele>275.0</ele><time>2026-05-01T10:50:38Z</time></trkpt><trkpt lat="38.82782878225722" lon="-9.262439872785691"><ele>275.0</ele><time>2026-05-01T10:50:39Z</time></trkpt><trkpt lat="38.827934210465294" lon="-9.262381895918724"><ele>275.0</ele><time>2026-05-01T10:50:40Z</time></trkpt><trkpt lat="38.82802469558317" lon="-9.262326239868514"><ele>275.0</ele><time>2026-05-01T10:50:41Z</time></trkpt><trkpt lat="38.828112238296825" lon="-9.262289920831211"><ele>275.0</ele><time>2026-05-01T10:50:42Z</time></trkpt><trkpt lat="38.8282003976769" lon="-9.26225557014613"><ele>275.0</ele><time>2026-05-01T10:50:43Z</time></trkpt><trkpt lat="38.828303404336125" lon="-9.262184013389108"><ele>274.6</ele><time>2026-05-01T10:50:44Z</time></trkpt><trkpt lat="38.82840426890318" lon="-9.26213847787337"><ele>274.2</ele><time>2026-05-01T10:50:45Z</time></trkpt><trkpt lat="38.82846447992875" lon="-9.262027898246098"><ele>273.8</ele><time>2026-05-01T10:50:46Z</time></trkpt><trkpt lat="38.828508213020726" lon="-9.261933241240543"><ele>273.4</ele><time>2026-05-01T10:50:47Z</time></trkpt><trkpt lat="38.828560348257135" lon="-9.261842195022249"><ele>273.0</ele><time>2026-05-01T10:50:48Z</time></trkpt><trkpt lat="38.82860684489003" lon="-9.261760473924397"><ele>272.8</ele><time>2026-05-01T10:50:49Z</time></trkpt><trkpt lat="38.828646462404976" lon="-9.261690939297214"><ele>272.6</ele><time>2026-05-01T10:50:50Z</time></trkpt><trkpt lat="38.828715124992854" lon="-9.261573161122186"><ele>272.4</ele><time>2026-05-01T10:50:52Z</time></trkpt><trkpt lat="38.82876589945394" lon="-9.261518349379186"><ele>272.2</ele><time>2026-05-01T10:50:54Z</time></trkpt><trkpt lat="38.828869720771316" lon="-9.261714165242577"><ele>272.0</ele><time>2026-05-01T10:50:55Z</time></trkpt><trkpt lat="38.828924112731556" lon="-9.261822763603865"><ele>272.0</ele><time>2026-05-01T10:50:56Z</time></trkpt><trkpt lat="38.82897371953307" lon="-9.261905999586519"><ele>272.0</ele><time>2026-05-01T10:50:57Z</time></trkpt><trkpt lat="38.82902482892103" lon="-9.261997074018911"><ele>272.0</ele><time>2026-05-01T10:50:58Z</time></trkpt><trkpt lat="38.82907551703309" lon="-9.262094622254503"><ele>272.0</ele><time>2026-05-01T10:50:59Z</time></trkpt><trkpt lat="38.829123660520736" lon="-9.262206691413729"><ele>272.0</ele><time>2026-05-01T10:51:00Z</time></trkpt><trkpt lat="38.82917153462953" lon="-9.262335880540055"><ele>272.0</ele><time>2026-05-01T10:51:01Z</time></trkpt><trkpt lat="38.82921343041819" lon="-9.26245783257099"><ele>272.0</ele><time>2026-05-01T10:51:02Z</time></trkpt><trkpt lat="38.8292557678863" lon="-9.262561649698334"><ele>272.0</ele><time>2026-05-01T10:51:03Z</time></trkpt><trkpt lat="38.82929784004922" lon="-9.262654299109625"><ele>272.0</ele><time>2026-05-01T10:51:04Z</time></trkpt><trkpt lat="38.82934456421407" lon="-9.262731870978852"><ele>272.0</ele><time>2026-05-01T10:51:05Z</time></trkpt><trkpt lat="38.829396194029805" lon="-9.262790458662103"><ele>272.0</ele><time>2026-05-01T10:51:06Z</time></trkpt><trkpt lat="38.82942620593909" lon="-9.262862336203511"><ele>270.5</ele><time>2026-05-01T10:51:08Z</time></trkpt><trkpt lat="38.82955398932633" lon="-9.262678459855257"><ele>269.0</ele><time>2026-05-01T10:51:09Z</time></trkpt><trkpt lat="38.829602160850136" lon="-9.262549156700652"><ele>267.5</ele><time>2026-05-01T10:51:10Z</time></trkpt><trkpt lat="38.82965667601798" lon="-9.26239878854826"><ele>266.0</ele><time>2026-05-01T10:51:11Z</time></trkpt><trkpt lat="38.82971520071654" lon="-9.262235514805017"><ele>265.33333333333337</ele><time>2026-05-01T10:51:12Z</time></trkpt><trkpt lat="38.829778798976704" lon="-9.26205784541155"><ele>264.6666666666667</ele><time>2026-05-01T10:51:13Z</time></trkpt><trkpt lat="38.82984714663078" lon="-9.261861978377175"><ele>264.0</ele><time>2026-05-01T10:51:14Z</time></trkpt><trkpt lat="38.82990370401089" lon="-9.261694752274934"><ele>264.0</ele><time>2026-05-01T10:51:15Z</time></trkpt><trkpt lat="38.829963168938626" lon="-9.261520448688497"><ele>264.0</ele><time>2026-05-01T10:51:16Z</time></trkpt><trkpt lat="38.830024841379284" lon="-9.261352363649515"><ele>264.0</ele><time>2026-05-01T10:51:17Z</time></trkpt><trkpt lat="38.83007971463331" lon="-9.261206664130045"><ele>264.0</ele><time>2026-05-01T10:51:18Z</time></trkpt><trkpt lat="38.830140854367" lon="-9.261047643421836"><ele>262.75</ele><time>2026-05-01T10:51:19Z</time></trkpt><trkpt lat="38.83020667777981" lon="-9.260884761930427"><ele>261.5</ele><time>2026-05-01T10:51:20Z</time></trkpt><trkpt lat="38.83027492776456" lon="-9.260726492645109"><ele>260.25</ele><time>2026-05-01T10:51:21Z</time></trkpt><trkpt lat="38.83034632214133" lon="-9.260572095427026"><ele>259.0</ele><time>2026-05-01T10:51:22Z</time></trkpt><trkpt lat="38.83042847474803" lon="-9.260409093728724"><ele>258.25</ele><time>2026-05-01T10:51:23Z</time></trkpt><trkpt lat="38.83050280197057" lon="-9.260270119890688"><ele>257.5</ele><time>2026-05-01T10:51:24Z</time></trkpt><trkpt lat="38.830575838900664" lon="-9.260137136138423"><ele>256.75</ele><time>2026-05-01T10:51:25Z</time></trkpt><trkpt lat="38.83065145029663" lon="-9.259999528771035"><ele>256.0</ele><time>2026-05-01T10:51:26Z</time></trkpt><trkpt lat="38.83073627313318" lon="-9.259845208709987"><ele>256.25</ele><time>2026-05-01T10:51:27Z</time></trkpt><trkpt lat="38.83082134385672" lon="-9.259690437648194"><ele>256.5</ele><time>2026-05-01T10:51:28Z</time></trkpt><trkpt lat="38.830899018062304" lon="-9.25954059389262"><ele>256.75</ele><time>2026-05-01T10:51:29Z</time></trkpt><trkpt lat="38.83096406276726" lon="-9.259412685910648"><ele>257.0</ele><time>2026-05-01T10:51:30Z</time></trkpt><trkpt lat="38.83102494749497" lon="-9.259294803236802"><ele>257.0</ele><time>2026-05-01T10:51:31Z</time></trkpt><trkpt lat="38.831083412187866" lon="-9.259183096703852"><ele>257.0</ele><time>2026-05-01T10:51:32Z</time></trkpt><trkpt lat="38.83114010246867" lon="-9.259074446744142"><ele>257.0</ele><time>2026-05-01T10:51:33Z</time></trkpt><trkpt lat="38.8311950235165" lon="-9.258973944639028"><ele>257.0</ele><time>2026-05-01T10:51:34Z</time></trkpt><trkpt lat="38.83125134829324" lon="-9.258870873686257"><ele>257.0</ele><time>2026-05-01T10:51:35Z</time></trkpt><trkpt lat="38.83130378837575" lon="-9.258775824795567"><ele>257.5</ele><time>2026-05-01T10:51:36Z</time></trkpt><trkpt lat="38.83135216996452" lon="-9.25868809672529"><ele>258.0</ele><time>2026-05-01T10:51:37Z</time></trkpt><trkpt lat="38.831392220712516" lon="-9.258615474570865"><ele>258.5</ele><time>2026-05-01T10:51:38Z</time></trkpt><trkpt lat="38.83143147360012" lon="-9.258543761309781"><ele>259.0</ele><time>2026-05-01T10:51:40Z</time></trkpt><trkpt lat="38.831478700287285" lon="-9.258458637761153"><ele>259.5</ele><time>2026-05-01T10:51:42Z</time></trkpt><trkpt lat="38.831518688325616" lon="-9.25838823322587"><ele>260.0</ele><time>2026-05-01T10:51:43Z</time></trkpt><trkpt lat="38.83156948537649" lon="-9.258296752094967"><ele>260.0</ele><time>2026-05-01T10:51:44Z</time></trkpt><trkpt lat="38.831618267290324" lon="-9.258210851035654"><ele>260.0</ele><time>2026-05-01T10:51:45Z</time></trkpt><trkpt lat="38.831670752758804" lon="-9.258122595569912"><ele>260.0</ele><time>2026-05-01T10:51:46Z</time></trkpt><trkpt lat="38.83170529535226" lon="-9.258036210962432"><ele>260.0</ele><time>2026-05-01T10:51:48Z</time></trkpt><trkpt lat="38.83169108348857" lon="-9.257949353805294"><ele>260.0</ele><time>2026-05-01T10:51:51Z</time></trkpt><trkpt lat="38.83170454414587" lon="-9.258052335837005"><ele>260.0</ele><time>2026-05-01T10:51:54Z</time></trkpt><trkpt lat="38.83168025274539" lon="-9.258196364281769"><ele>260.00000000000006</ele><time>2026-05-01T10:51:56Z</time></trkpt><trkpt lat="38.83163740321583" lon="-9.258264661582894"><ele>260.0</ele><time>2026-05-01T10:51:57Z</time></trkpt><trkpt lat="38.83159367023692" lon="-9.258323737238774"><ele>260.0</ele><time>2026-05-01T10:51:58Z</time></trkpt><trkpt lat="38.831551770532336" lon="-9.25839004632637"><ele>260.0</ele><time>2026-05-01T10:51:59Z</time></trkpt><trkpt lat="38.83151249143346" lon="-9.258459930544186"><ele>260.0</ele><time>2026-05-01T10:52:00Z</time></trkpt><trkpt lat="38.83147932851411" lon="-9.258529220615493"><ele>260.00000000000006</ele><time>2026-05-01T10:52:01Z</time></trkpt><trkpt lat="38.83141464656006" lon="-9.258651594301993"><ele>260.0</ele><time>2026-05-01T10:52:03Z</time></trkpt><trkpt lat="38.8313718527755" lon="-9.258717070527359"><ele>260.0</ele><time>2026-05-01T10:52:04Z</time></trkpt><trkpt lat="38.83130272502793" lon="-9.25881864806547"><ele>260.0</ele><time>2026-05-01T10:52:06Z</time></trkpt><trkpt lat="38.831317347098384" lon="-9.258932949655474"><ele>260.0</ele><time>2026-05-01T10:52:08Z</time></trkpt><trkpt lat="38.83143921679451" lon="-9.259034071405743"><ele>260.0</ele><time>2026-05-01T10:52:10Z</time></trkpt><trkpt lat="38.831534708926824" lon="-9.259103168475821"><ele>260.2</ele><time>2026-05-01T10:52:11Z</time></trkpt><trkpt lat="38.83162146948714" lon="-9.259180224686334"><ele>260.4</ele><time>2026-05-01T10:52:12Z</time></trkpt><trkpt lat="38.83170152022755" lon="-9.259246070449565"><ele>260.6</ele><time>2026-05-01T10:52:13Z</time></trkpt><trkpt lat="38.83178905287537" lon="-9.25926960718474"><ele>260.8</ele><time>2026-05-01T10:52:14Z</time></trkpt><trkpt lat="38.83189136374368" lon="-9.25928139005111"><ele>261.0</ele><time>2026-05-01T10:52:15Z</time></trkpt><trkpt lat="38.83201622600782" lon="-9.259305832244179"><ele>261.0</ele><time>2026-05-01T10:52:16Z</time></trkpt><trkpt lat="38.83214578398409" lon="-9.259355132217856"><ele>261.0</ele><time>2026-05-01T10:52:17Z</time></trkpt><trkpt lat="38.83226122212769" lon="-9.259398955998465"><ele>261.0</ele><time>2026-05-01T10:52:18Z</time></trkpt><trkpt lat="38.83237530951777" lon="-9.259441956390337"><ele>261.0</ele><time>2026-05-01T10:52:19Z</time></trkpt><trkpt lat="38.83247706170069" lon="-9.25948440773223"><ele>261.0</ele><time>2026-05-01T10:52:20Z</time></trkpt><trkpt lat="38.83257481152784" lon="-9.259517328441465"><ele>261.0</ele><time>2026-05-01T10:52:21Z</time></trkpt><trkpt lat="38.8326745117475" lon="-9.25955195100046"><ele>261.0</ele><time>2026-05-01T10:52:22Z</time></trkpt><trkpt lat="38.83278327670005" lon="-9.259574282287904"><ele>261.0</ele><time>2026-05-01T10:52:23Z</time></trkpt><trkpt lat="38.8328997503478" lon="-9.259604775536005"><ele>261.0</ele><time>2026-05-01T10:52:24Z</time></trkpt><trkpt lat="38.83302372267412" lon="-9.259645863076617"><ele>264.5</ele><time>2026-05-01T10:52:25Z</time></trkpt><trkpt lat="38.8331493738029" lon="-9.259694829580024"><ele>268.0</ele><time>2026-05-01T10:52:26Z</time></trkpt><trkpt lat="38.8332566611627" lon="-9.25972546835444"><ele>271.5</ele><time>2026-05-01T10:52:27Z</time></trkpt><trkpt lat="38.833371512911135" lon="-9.259766910527869"><ele>275.0</ele><time>2026-05-01T10:52:28Z</time></trkpt><trkpt lat="38.833475659756694" lon="-9.259807363785042"><ele>279.4</ele><time>2026-05-01T10:52:29Z</time></trkpt><trkpt lat="38.83357839956284" lon="-9.259835385825816"><ele>283.8</ele><time>2026-05-01T10:52:30Z</time></trkpt><trkpt lat="38.833677895859694" lon="-9.2598668712005"><ele>288.2</ele><time>2026-05-01T10:52:31Z</time></trkpt><trkpt lat="38.83377130037525" lon="-9.259910006980375"><ele>292.6</ele><time>2026-05-01T10:52:32Z</time></trkpt><trkpt lat="38.83385865925318" lon="-9.259947082408981"><ele>297.0</ele><time>2026-05-01T10:52:33Z</time></trkpt><trkpt lat="38.833968788104904" lon="-9.259977401116736"><ele>297.0</ele><time>2026-05-01T10:52:34Z</time></trkpt><trkpt lat="38.834078200910035" lon="-9.260007855868762"><ele>297.0</ele><time>2026-05-01T10:52:35Z</time></trkpt><trkpt lat="38.83417126574356" lon="-9.260034262909155"><ele>297.0</ele><time>2026-05-01T10:52:36Z</time></trkpt><trkpt lat="38.83427004437091" lon="-9.260055166998237"><ele>297.0</ele><time>2026-05-01T10:52:37Z</time></trkpt><trkpt lat="38.83435913451348" lon="-9.2600767253029"><ele>297.0</ele><time>2026-05-01T10:52:38Z</time></trkpt><trkpt lat="38.83443291872129" lon="-9.260086642923563"><ele>298.6666666666667</ele><time>2026-05-01T10:52:39Z</time></trkpt><trkpt lat="38.834504714871514" lon="-9.260102816013129"><ele>300.3333333333333</ele><time>2026-05-01T10:52:40Z</time></trkpt><trkpt lat="38.83458620892015" lon="-9.26012719586043"><ele>302.0</ele><time>2026-05-01T10:52:41Z</time></trkpt><trkpt lat="38.834663887123945" lon="-9.260133128339717"><ele>303.66666666666663</ele><time>2026-05-01T10:52:42Z</time></trkpt><trkpt lat="38.83474353811908" lon="-9.260151943668006"><ele>305.3333333333333</ele><time>2026-05-01T10:52:43Z</time></trkpt><trkpt lat="38.83485142416024" lon="-9.260137813443599"><ele>307.0</ele><time>2026-05-01T10:52:45Z</time></trkpt><trkpt lat="38.83495222430224" lon="-9.260129308010843"><ele>307.0</ele><time>2026-05-01T10:52:47Z</time></trkpt><trkpt lat="38.834985358572744" lon="-9.260021846580296"><ele>307.0</ele><time>2026-05-01T10:52:48Z</time></trkpt><trkpt lat="38.83507026380212" lon="-9.25998542953517"><ele>307.0</ele><time>2026-05-01T10:52:49Z</time></trkpt><trkpt lat="38.83514687087198" lon="-9.259922772716122"><ele>307.0</ele><time>2026-05-01T10:52:50Z</time></trkpt><trkpt lat="38.83522213763972" lon="-9.259877404837376"><ele>307.0</ele><time>2026-05-01T10:52:51Z</time></trkpt><trkpt lat="38.83529309245508" lon="-9.259828469961226"><ele>307.0</ele><time>2026-05-01T10:52:52Z</time></trkpt><trkpt lat="38.835375930761394" lon="-9.259769373794747"><ele>306.2</ele><time>2026-05-01T10:52:53Z</time></trkpt><trkpt lat="38.83545264115379" lon="-9.259715001658673"><ele>305.4</ele><time>2026-05-01T10:52:54Z</time></trkpt><trkpt lat="38.835528849985096" lon="-9.259686785356656"><ele>304.6</ele><time>2026-05-01T10:52:55Z</time></trkpt><trkpt lat="38.83559739316301" lon="-9.259619892874355"><ele>303.8</ele><time>2026-05-01T10:52:56Z</time></trkpt><trkpt lat="38.83569142953975" lon="-9.259603756136668"><ele>303.0</ele><time>2026-05-01T10:52:57Z</time></trkpt><trkpt lat="38.83579533013723" lon="-9.259606250062456"><ele>303.0</ele><time>2026-05-01T10:52:58Z</time></trkpt><trkpt lat="38.83588455809088" lon="-9.259611167036418"><ele>303.0</ele><time>2026-05-01T10:52:59Z</time></trkpt><trkpt lat="38.835971738878776" lon="-9.259607378859535"><ele>303.0</ele><time>2026-05-01T10:53:00Z</time></trkpt><trkpt lat="38.83604639760941" lon="-9.25956358044637"><ele>303.0</ele><time>2026-05-01T10:53:01Z</time></trkpt><trkpt lat="38.83611375684214" lon="-9.25952821223214"><ele>303.0</ele><time>2026-05-01T10:53:02Z</time></trkpt><trkpt lat="38.83618527835591" lon="-9.259503383962132"><ele>303.0</ele><time>2026-05-01T10:53:03Z</time></trkpt><trkpt lat="38.83623167269071" lon="-9.259425623625699"><ele>303.4</ele><time>2026-05-01T10:53:04Z</time></trkpt><trkpt lat="38.83632561774411" lon="-9.259355027491559"><ele>303.8</ele><time>2026-05-01T10:53:06Z</time></trkpt><trkpt lat="38.836394542731554" lon="-9.259283762424428"><ele>304.2</ele><time>2026-05-01T10:53:09Z</time></trkpt><trkpt lat="38.83646093587283" lon="-9.259206874772747"><ele>304.6</ele><time>2026-05-01T10:53:12Z</time></trkpt><trkpt lat="38.83649164858697" lon="-9.259133071577903"><ele>305.0</ele><time>2026-05-01T10:53:14Z</time></trkpt><trkpt lat="38.83659052363597" lon="-9.259010199809723"><ele>305.0</ele><time>2026-05-01T10:53:16Z</time></trkpt><trkpt lat="38.83670306571981" lon="-9.258982902980366"><ele>305.0</ele><time>2026-05-01T10:53:17Z</time></trkpt><trkpt lat="38.83683584470788" lon="-9.25893997942701"><ele>305.0</ele><time>2026-05-01T10:53:18Z</time></trkpt><trkpt lat="38.83696108917531" lon="-9.258859259331823"><ele>305.0</ele><time>2026-05-01T10:53:19Z</time></trkpt><trkpt lat="38.83706385588644" lon="-9.258793262268266"><ele>304.75</ele><time>2026-05-01T10:53:20Z</time></trkpt><trkpt lat="38.837159216988184" lon="-9.25870633861579"><ele>304.5</ele><time>2026-05-01T10:53:21Z</time></trkpt><trkpt lat="38.83724821486838" lon="-9.258599240050625"><ele>304.25</ele><time>2026-05-01T10:53:22Z</time></trkpt><trkpt lat="38.837342432545" lon="-9.258489958485296"><ele>304.0</ele><time>2026-05-01T10:53:23Z</time></trkpt><trkpt lat="38.8374259914991" lon="-9.258400710839362"><ele>304.0</ele><time>2026-05-01T10:53:24Z</time></trkpt><trkpt lat="38.83752122326112" lon="-9.25832806723699"><ele>304.0</ele><time>2026-05-01T10:53:25Z</time></trkpt><trkpt lat="38.837656721731236" lon="-9.258303376022038"><ele>304.0</ele><time>2026-05-01T10:53:26Z</time></trkpt><trkpt lat="38.837790837998504" lon="-9.258247177008467"><ele>304.0</ele><time>2026-05-01T10:53:27Z</time></trkpt><trkpt lat="38.837913743835664" lon="-9.258178795694594"><ele>302.0</ele><time>2026-05-01T10:53:28Z</time></trkpt><trkpt lat="38.83801749426436" lon="-9.258069064016524"><ele>300.0</ele><time>2026-05-01T10:53:29Z</time></trkpt><trkpt lat="38.838124471649834" lon="-9.257966757139858"><ele>298.0</ele><time>2026-05-01T10:53:30Z</time></trkpt><trkpt lat="38.83822624788437" lon="-9.257907389739142"><ele>296.0</ele><time>2026-05-01T10:53:31Z</time></trkpt><trkpt lat="38.838310445411004" lon="-9.257860444466099"><ele>296.0</ele><time>2026-05-01T10:53:32Z</time></trkpt><trkpt lat="38.8384121247034" lon="-9.25784213607068"><ele>296.0</ele><time>2026-05-01T10:53:33Z</time></trkpt><trkpt lat="38.83853284944571" lon="-9.257864597407288"><ele>296.0</ele><time>2026-05-01T10:53:34Z</time></trkpt><trkpt lat="38.838647069314916" lon="-9.257917386938074"><ele>296.0</ele><time>2026-05-01T10:53:35Z</time></trkpt><trkpt lat="38.838729325478496" lon="-9.257936986783946"><ele>296.0</ele><time>2026-05-01T10:53:36Z</time></trkpt><trkpt lat="38.838784578097936" lon="-9.257879113891017"><ele>294.0</ele><time>2026-05-01T10:53:37Z</time></trkpt><trkpt lat="38.83880647824099" lon="-9.257752676335178"><ele>292.0</ele><time>2026-05-01T10:53:38Z</time></trkpt><trkpt lat="38.838828152852905" lon="-9.257599555581939"><ele>290.0</ele><time>2026-05-01T10:53:39Z</time></trkpt><trkpt lat="38.838860179952" lon="-9.257402759120145"><ele>288.0</ele><time>2026-05-01T10:53:40Z</time></trkpt><trkpt lat="38.83887638767446" lon="-9.257179367012494"><ele>288.0</ele><time>2026-05-01T10:53:41Z</time></trkpt><trkpt lat="38.83888878073378" lon="-9.256974508112597"><ele>288.0</ele><time>2026-05-01T10:53:42Z</time></trkpt><trkpt lat="38.838908915224074" lon="-9.256796975084356"><ele>288.0</ele><time>2026-05-01T10:53:43Z</time></trkpt><trkpt lat="38.838936385019466" lon="-9.256631471804997"><ele>288.0</ele><time>2026-05-01T10:53:44Z</time></trkpt><trkpt lat="38.838971738265386" lon="-9.256477152968085"><ele>287.0</ele><time>2026-05-01T10:53:45Z</time></trkpt><trkpt lat="38.83900244557664" lon="-9.25633058292952"><ele>286.0</ele><time>2026-05-01T10:53:46Z</time></trkpt><trkpt lat="38.839028549840044" lon="-9.256192742815736"><ele>285.0</ele><time>2026-05-01T10:53:47Z</time></trkpt><trkpt lat="38.839051725181385" lon="-9.25606783466264"><ele>284.0</ele><time>2026-05-01T10:53:48Z</time></trkpt><trkpt lat="38.839073032287075" lon="-9.255954183698076"><ele>283.0</ele><time>2026-05-01T10:53:49Z</time></trkpt><trkpt lat="38.839092150204365" lon="-9.255856522354787"><ele>283.0</ele><time>2026-05-01T10:53:50Z</time></trkpt><trkpt lat="38.83910929643855" lon="-9.255771538170938"><ele>283.0</ele><time>2026-05-01T10:53:51Z</time></trkpt><trkpt lat="38.83913283961904" lon="-9.255658814559807"><ele>283.0</ele><time>2026-05-01T10:53:53Z</time></trkpt><trkpt lat="38.83914551641879" lon="-9.25557171085681"><ele>283.0</ele><time>2026-05-01T10:54:05Z</time></trkpt><trkpt lat="38.83924273655037" lon="-9.2555352807086"><ele>283.0</ele><time>2026-05-01T10:54:17Z</time></trkpt><trkpt lat="38.839333371417" lon="-9.255527028022502"><ele>283.0</ele><time>2026-05-01T10:54:40Z</time></trkpt><trkpt lat="38.83942333143952" lon="-9.255580089256897"><ele>282.5</ele><time>2026-05-01T10:54:41Z</time></trkpt><trkpt lat="38.839523022842954" lon="-9.255632329232661"><ele>282.0</ele><time>2026-05-01T10:54:42Z</time></trkpt><trkpt lat="38.83965298898158" lon="-9.255686037827077"><ele>281.5</ele><time>2026-05-01T10:54:43Z</time></trkpt><trkpt lat="38.83978696540729" lon="-9.255754356190668"><ele>281.0</ele><time>2026-05-01T10:54:44Z</time></trkpt><trkpt lat="38.83990260594949" lon="-9.25581053921383"><ele>281.0</ele><time>2026-05-01T10:54:45Z</time></trkpt><trkpt lat="38.84000208693176" lon="-9.255863388931697"><ele>281.0</ele><time>2026-05-01T10:54:46Z</time></trkpt><trkpt lat="38.84010988922362" lon="-9.255912603193996"><ele>281.0</ele><time>2026-05-01T10:54:47Z</time></trkpt><trkpt lat="38.840229472258535" lon="-9.255969910995036"><ele>281.0</ele><time>2026-05-01T10:54:48Z</time></trkpt><trkpt lat="38.84035584552352" lon="-9.256031331431886"><ele>280.25</ele><time>2026-05-01T10:54:49Z</time></trkpt><trkpt lat="38.840475897420106" lon="-9.256096771824605"><ele>279.5</ele><time>2026-05-01T10:54:50Z</time></trkpt><trkpt lat="38.84060152113752" lon="-9.256166197359546"><ele>278.75</ele><time>2026-05-01T10:54:51Z</time></trkpt><trkpt lat="38.840710488939884" lon="-9.256244003723884"><ele>278.0</ele><time>2026-05-01T10:54:52Z</time></trkpt><trkpt lat="38.8408102334603" lon="-9.256327605296715"><ele>278.0</ele><time>2026-05-01T10:54:53Z</time></trkpt><trkpt lat="38.84090731051722" lon="-9.256416226138832"><ele>278.0</ele><time>2026-05-01T10:54:54Z</time></trkpt><trkpt lat="38.84100986271712" lon="-9.256511518506308"><ele>278.0</ele><time>2026-05-01T10:54:55Z</time></trkpt><trkpt lat="38.84110653804375" lon="-9.256618391336403"><ele>278.0</ele><time>2026-05-01T10:54:56Z</time></trkpt><trkpt lat="38.841200981134634" lon="-9.2567245047239"><ele>277.5</ele><time>2026-05-01T10:54:57Z</time></trkpt><trkpt lat="38.84129602663004" lon="-9.256821774870113"><ele>277.0</ele><time>2026-05-01T10:54:58Z</time></trkpt><trkpt lat="38.84140611904472" lon="-9.25690448844315"><ele>276.5</ele><time>2026-05-01T10:54:59Z</time></trkpt><trkpt lat="38.84153109624893" lon="-9.256978239817661"><ele>276.0</ele><time>2026-05-01T10:55:00Z</time></trkpt><trkpt lat="38.841647191635275" lon="-9.257081309138337"><ele>276.0</ele><time>2026-05-01T10:55:01Z</time></trkpt><trkpt lat="38.841752108523195" lon="-9.25721411466335"><ele>276.0</ele><time>2026-05-01T10:55:02Z</time></trkpt><trkpt lat="38.84184727159076" lon="-9.257356795704878"><ele>276.0</ele><time>2026-05-01T10:55:03Z</time></trkpt><trkpt lat="38.8419390178702" lon="-9.257475496679598"><ele>276.0</ele><time>2026-05-01T10:55:04Z</time></trkpt><trkpt lat="38.84203213796175" lon="-9.257579048505185"><ele>274.0</ele><time>2026-05-01T10:55:05Z</time></trkpt><trkpt lat="38.84213923250662" lon="-9.257670086003944"><ele>272.0</ele><time>2026-05-01T10:55:06Z</time></trkpt><trkpt lat="38.84226098330519" lon="-9.257733965158314"><ele>270.0</ele><time>2026-05-01T10:55:07Z</time></trkpt><trkpt lat="38.842419574570755" lon="-9.257764201997963"><ele>268.0</ele><time>2026-05-01T10:55:08Z</time></trkpt><trkpt lat="38.84258923918196" lon="-9.257812151346293"><ele>267.25</ele><time>2026-05-01T10:55:09Z</time></trkpt><trkpt lat="38.84273552253901" lon="-9.257864654851323"><ele>266.5</ele><time>2026-05-01T10:55:10Z</time></trkpt><trkpt lat="38.842867583914234" lon="-9.25791400451582"><ele>265.75</ele><time>2026-05-01T10:55:11Z</time></trkpt><trkpt lat="38.84299172182304" lon="-9.257957275024419"><ele>265.0</ele><time>2026-05-01T10:55:12Z</time></trkpt><trkpt lat="38.84311660107144" lon="-9.25802471040929"><ele>265.5</ele><time>2026-05-01T10:55:13Z</time></trkpt><trkpt lat="38.843233159897686" lon="-9.25812819833406"><ele>266.0</ele><time>2026-05-01T10:55:14Z</time></trkpt><trkpt lat="38.843339788920076" lon="-9.25824908231666"><ele>266.5</ele><time>2026-05-01T10:55:15Z</time></trkpt><trkpt lat="38.843410178920095" lon="-9.258340616924338"><ele>267.0</ele><time>2026-05-01T10:55:16Z</time></trkpt><trkpt lat="38.8434795277624" lon="-9.25842425477066"><ele>268.75</ele><time>2026-05-01T10:55:17Z</time></trkpt><trkpt lat="38.84355841046556" lon="-9.258526847402225"><ele>270.5</ele><time>2026-05-01T10:55:18Z</time></trkpt><trkpt lat="38.843633532230655" lon="-9.258637826521634"><ele>272.25</ele><time>2026-05-01T10:55:19Z</time></trkpt><trkpt lat="38.84369652994735" lon="-9.258769055790655"><ele>274.0</ele><time>2026-05-01T10:55:20Z</time></trkpt><trkpt lat="38.84375211617933" lon="-9.258903477027626"><ele>274.0</ele><time>2026-05-01T10:55:21Z</time></trkpt><trkpt lat="38.84380351322738" lon="-9.259043732419492"><ele>274.0</ele><time>2026-05-01T10:55:22Z</time></trkpt><trkpt lat="38.843859432572245" lon="-9.259189282018575"><ele>274.0</ele><time>2026-05-01T10:55:23Z</time></trkpt><trkpt lat="38.843914647092234" lon="-9.25933374439758"><ele>274.0</ele><time>2026-05-01T10:55:24Z</time></trkpt><trkpt lat="38.843969179283874" lon="-9.25947084564678"><ele>274.0</ele><time>2026-05-01T10:55:25Z</time></trkpt><trkpt lat="38.844016360313816" lon="-9.259597530601045"><ele>274.0</ele><time>2026-05-01T10:55:26Z</time></trkpt><trkpt lat="38.84406704586578" lon="-9.259735140427209"><ele>274.0</ele><time>2026-05-01T10:55:27Z</time></trkpt><trkpt lat="38.84412110892497" lon="-9.259864788972095"><ele>274.0</ele><time>2026-05-01T10:55:28Z</time></trkpt><trkpt lat="38.844166523533076" lon="-9.259999247960376"><ele>274.5</ele><time>2026-05-01T10:55:29Z</time></trkpt><trkpt lat="38.844215912837996" lon="-9.260126529227476"><ele>275.0</ele><time>2026-05-01T10:55:30Z</time></trkpt><trkpt lat="38.844266693092244" lon="-9.26026354403586"><ele>275.5</ele><time>2026-05-01T10:55:31Z</time></trkpt><trkpt lat="38.84432387396118" lon="-9.260391400053575"><ele>276.0</ele><time>2026-05-01T10:55:32Z</time></trkpt><trkpt lat="38.84438895302973" lon="-9.26051717904095"><ele>278.25</ele><time>2026-05-01T10:55:33Z</time></trkpt><trkpt lat="38.84447533334966" lon="-9.260629664863382"><ele>280.5</ele><time>2026-05-01T10:55:34Z</time></trkpt><trkpt lat="38.844575331152846" lon="-9.26070917678862"><ele>282.75</ele><time>2026-05-01T10:55:35Z</time></trkpt><trkpt lat="38.84467815539195" lon="-9.260767697908456"><ele>285.0</ele><time>2026-05-01T10:55:36Z</time></trkpt><trkpt lat="38.8447964561526" lon="-9.260810571782612"><ele>285.0</ele><time>2026-05-01T10:55:37Z</time></trkpt><trkpt lat="38.844929335268716" lon="-9.260861657376607"><ele>285.0</ele><time>2026-05-01T10:55:38Z</time></trkpt><trkpt lat="38.84509277110805" lon="-9.260923722104492"><ele>285.0</ele><time>2026-05-01T10:55:39Z</time></trkpt><trkpt lat="38.84524151984575" lon="-9.260993992876397"><ele>285.75</ele><time>2026-05-01T10:55:40Z</time></trkpt><trkpt lat="38.84537538648039" lon="-9.261020608876287"><ele>286.5</ele><time>2026-05-01T10:55:41Z</time></trkpt><trkpt lat="38.8454880062407" lon="-9.261079408217778"><ele>287.25</ele><time>2026-05-01T10:55:42Z</time></trkpt><trkpt lat="38.845644343673655" lon="-9.26112949859424"><ele>288.0</ele><time>2026-05-01T10:55:43Z</time></trkpt><trkpt lat="38.84582543730643" lon="-9.261183798353345"><ele>288.3333333333333</ele><time>2026-05-01T10:55:44Z</time></trkpt><trkpt lat="38.846009437875075" lon="-9.261235087164145"><ele>288.66666666666663</ele><time>2026-05-01T10:55:45Z</time></trkpt><trkpt lat="38.84618497105077" lon="-9.261290658371495"><ele>289.0</ele><time>2026-05-01T10:55:46Z</time></trkpt><trkpt lat="38.846348993933404" lon="-9.261351282740504"><ele>289.0</ele><time>2026-05-01T10:55:47Z</time></trkpt><trkpt lat="38.846513750709626" lon="-9.261411818972864"><ele>289.0</ele><time>2026-05-01T10:55:48Z</time></trkpt><trkpt lat="38.84666523843705" lon="-9.261466414681786"><ele>289.0</ele><time>2026-05-01T10:55:49Z</time></trkpt><trkpt lat="38.846818378184764" lon="-9.261515311727933"><ele>287.5</ele><time>2026-05-01T10:55:50Z</time></trkpt><trkpt lat="38.8469684327948" lon="-9.26157048936986"><ele>286.0</ele><time>2026-05-01T10:55:51Z</time></trkpt><trkpt lat="38.847108431542786" lon="-9.26162356668709"><ele>284.5</ele><time>2026-05-01T10:55:52Z</time></trkpt><trkpt lat="38.84724380630485" lon="-9.261672626340742"><ele>283.0</ele><time>2026-05-01T10:55:53Z</time></trkpt><trkpt lat="38.847375725287954" lon="-9.261715762132429"><ele>283.0</ele><time>2026-05-01T10:55:54Z</time></trkpt><trkpt lat="38.847501407221486" lon="-9.261757941064197"><ele>283.0</ele><time>2026-05-01T10:55:55Z</time></trkpt><trkpt lat="38.84761335839175" lon="-9.261795247412126"><ele>283.0</ele><time>2026-05-01T10:55:56Z</time></trkpt><trkpt lat="38.84772035429267" lon="-9.26183260336061"><ele>283.0</ele><time>2026-05-01T10:55:57Z</time></trkpt><trkpt lat="38.84782757151732" lon="-9.261870183699623"><ele>282.2</ele><time>2026-05-01T10:55:58Z</time></trkpt><trkpt lat="38.847926536257646" lon="-9.261915970657954"><ele>281.4</ele><time>2026-05-01T10:55:59Z</time></trkpt><trkpt lat="38.848017737646025" lon="-9.261958351863614"><ele>280.59999999999997</ele><time>2026-05-01T10:56:00Z</time></trkpt><trkpt lat="38.8481071303495" lon="-9.262000327296429"><ele>279.8</ele><time>2026-05-01T10:56:01Z</time></trkpt><trkpt lat="38.84819831294743" lon="-9.262047913814671"><ele>279.0</ele><time>2026-05-01T10:56:02Z</time></trkpt><trkpt lat="38.84829221959455" lon="-9.262099190235459"><ele>279.0</ele><time>2026-05-01T10:56:03Z</time></trkpt><trkpt lat="38.84838453716513" lon="-9.26215700287202"><ele>279.0</ele><time>2026-05-01T10:56:04Z</time></trkpt><trkpt lat="38.84847686459406" lon="-9.262189580121209"><ele>279.0</ele><time>2026-05-01T10:56:05Z</time></trkpt><trkpt lat="38.84857713981175" lon="-9.26224305809414"><ele>279.0</ele><time>2026-05-01T10:56:06Z</time></trkpt><trkpt lat="38.848692653071566" lon="-9.262312808701958"><ele>279.0</ele><time>2026-05-01T10:56:07Z</time></trkpt><trkpt lat="38.84879682978662" lon="-9.262394593077875"><ele>279.0</ele><time>2026-05-01T10:56:08Z</time></trkpt><trkpt lat="38.8488830980881" lon="-9.262481756053315"><ele>279.0</ele><time>2026-05-01T10:56:09Z</time></trkpt><trkpt lat="38.8489672146215" lon="-9.262570444457069"><ele>279.0</ele><time>2026-05-01T10:56:10Z</time></trkpt><trkpt lat="38.84903955331466" lon="-9.262642692070859"><ele>279.0</ele><time>2026-05-01T10:56:11Z</time></trkpt><trkpt lat="38.84911489210228" lon="-9.262715394577814"><ele>279.0</ele><time>2026-05-01T10:56:12Z</time></trkpt><trkpt lat="38.849198133791255" lon="-9.262797617077272"><ele>279.0</ele><time>2026-05-01T10:56:13Z</time></trkpt><trkpt lat="38.849283904756774" lon="-9.262875311890433"><ele>279.0</ele><time>2026-05-01T10:56:14Z</time></trkpt><trkpt lat="38.84936246990718" lon="-9.262949040547673"><ele>279.0</ele><time>2026-05-01T10:56:15Z</time></trkpt><trkpt lat="38.849449118363" lon="-9.263031609545953"><ele>279.0</ele><time>2026-05-01T10:56:16Z</time></trkpt><trkpt lat="38.84953659772397" lon="-9.263115178306041"><ele>279.0</ele><time>2026-05-01T10:56:17Z</time></trkpt><trkpt lat="38.84962443514571" lon="-9.26319537136964"><ele>278.2</ele><time>2026-05-01T10:56:18Z</time></trkpt><trkpt lat="38.8497099447826" lon="-9.26327692029089"><ele>277.4</ele><time>2026-05-01T10:56:19Z</time></trkpt><trkpt lat="38.84979207326757" lon="-9.263355795921912"><ele>276.6</ele><time>2026-05-01T10:56:20Z</time></trkpt><trkpt lat="38.84987116956097" lon="-9.263432441959036"><ele>275.8</ele><time>2026-05-01T10:56:21Z</time></trkpt><trkpt lat="38.84995260631538" lon="-9.26350328395794"><ele>275.0</ele><time>2026-05-01T10:56:22Z</time></trkpt><trkpt lat="38.85002986259131" lon="-9.26357041654605"><ele>275.0</ele><time>2026-05-01T10:56:23Z</time></trkpt><trkpt lat="38.85009755308683" lon="-9.263634791730754"><ele>275.0</ele><time>2026-05-01T10:56:24Z</time></trkpt><trkpt lat="38.85016061674197" lon="-9.263693529696718"><ele>275.0</ele><time>2026-05-01T10:56:25Z</time></trkpt><trkpt lat="38.8502242868613" lon="-9.263745110960159"><ele>275.0</ele><time>2026-05-01T10:56:26Z</time></trkpt><trkpt lat="38.8502698185851" lon="-9.263828135424893"><ele>275.0</ele><time>2026-05-01T10:56:27Z</time></trkpt><trkpt lat="38.85041341567146" lon="-9.263812599038216"><ele>274.4</ele><time>2026-05-01T10:56:28Z</time></trkpt><trkpt lat="38.85052426424148" lon="-9.263795669451842"><ele>273.8</ele><time>2026-05-01T10:56:29Z</time></trkpt><trkpt lat="38.85062954558982" lon="-9.263780213229674"><ele>273.2</ele><time>2026-05-01T10:56:30Z</time></trkpt><trkpt lat="38.85073543490343" lon="-9.263799457100312"><ele>272.6</ele><time>2026-05-01T10:56:31Z</time></trkpt><trkpt lat="38.85084086821838" lon="-9.263873320445784"><ele>272.0</ele><time>2026-05-01T10:56:32Z</time></trkpt><trkpt lat="38.850926479188416" lon="-9.263996312023542"><ele>272.0</ele><time>2026-05-01T10:56:33Z</time></trkpt><trkpt lat="38.85098068232884" lon="-9.264147017376427"><ele>272.0</ele><time>2026-05-01T10:56:34Z</time></trkpt><trkpt lat="38.85100921632989" lon="-9.264295554966965"><ele>272.0</ele><time>2026-05-01T10:56:35Z</time></trkpt><trkpt lat="38.851013251013754" lon="-9.264453471544947"><ele>272.0</ele><time>2026-05-01T10:56:36Z</time></trkpt><trkpt lat="38.85101402915902" lon="-9.264612955128017"><ele>272.0</ele><time>2026-05-01T10:56:37Z</time></trkpt><trkpt lat="38.851010816263184" lon="-9.264761804394961"><ele>272.0</ele><time>2026-05-01T10:56:38Z</time></trkpt><trkpt lat="38.85101882124708" lon="-9.264897592072556"><ele>272.0</ele><time>2026-05-01T10:56:39Z</time></trkpt><trkpt lat="38.851031907543955" lon="-9.265011518860403"><ele>272.0</ele><time>2026-05-01T10:56:40Z</time></trkpt><trkpt lat="38.85104883375787" lon="-9.265098169548176"><ele>272.0</ele><time>2026-05-01T10:56:41Z</time></trkpt><trkpt lat="38.85118519596601" lon="-9.265138982382902"><ele>271.6666666666667</ele><time>2026-05-01T10:56:44Z</time></trkpt><trkpt lat="38.85127712689439" lon="-9.265127546505962"><ele>271.33333333333337</ele><time>2026-05-01T10:56:46Z</time></trkpt><trkpt lat="38.85139567239928" lon="-9.265127239422473"><ele>271.0</ele><time>2026-05-01T10:56:48Z</time></trkpt><trkpt lat="38.85145860638262" lon="-9.26512112946675"><ele>270.6666666666667</ele><time>2026-05-01T10:56:49Z</time></trkpt><trkpt lat="38.8515531387318" lon="-9.265113555808961"><ele>270.3333333333333</ele><time>2026-05-01T10:56:51Z</time></trkpt><trkpt lat="38.85163116148048" lon="-9.26511001475018"><ele>270.0</ele><time>2026-05-01T10:56:53Z</time></trkpt><trkpt lat="38.851709917649416" lon="-9.265163276592453"><ele>270.0</ele><time>2026-05-01T10:56:55Z</time></trkpt><trkpt lat="38.851785649193005" lon="-9.2651968030858"><ele>270.0</ele><time>2026-05-01T10:56:57Z</time></trkpt><trkpt lat="38.85182639825773" lon="-9.265274884869006"><ele>270.0</ele><time>2026-05-01T10:56:59Z</time></trkpt><trkpt lat="38.851872993885884" lon="-9.26535450512933"><ele>270.0</ele><time>2026-05-01T10:57:01Z</time></trkpt><trkpt lat="38.85191864603071" lon="-9.265447164343401"><ele>270.0</ele><time>2026-05-01T10:57:03Z</time></trkpt><trkpt lat="38.85198858680372" lon="-9.265577470125356"><ele>270.0</ele><time>2026-05-01T10:57:05Z</time></trkpt><trkpt lat="38.852056358429486" lon="-9.265710354504055"><ele>272.4</ele><time>2026-05-01T10:57:07Z</time></trkpt><trkpt lat="38.85208512645765" lon="-9.265782384686737"><ele>274.8</ele><time>2026-05-01T10:57:08Z</time></trkpt><trkpt lat="38.8521366771464" lon="-9.265919996448211"><ele>277.2</ele><time>2026-05-01T10:57:10Z</time></trkpt><trkpt lat="38.85220716753406" lon="-9.26604863201145"><ele>279.6</ele><time>2026-05-01T10:57:12Z</time></trkpt><trkpt lat="38.85224525439908" lon="-9.266114221929316"><ele>282.0</ele><time>2026-05-01T10:57:13Z</time></trkpt><trkpt lat="38.85230938648536" lon="-9.266250676934758"><ele>282.0</ele><time>2026-05-01T10:57:15Z</time></trkpt><trkpt lat="38.85237064895403" lon="-9.26636399796477"><ele>282.0</ele><time>2026-05-01T10:57:17Z</time></trkpt><trkpt lat="38.85243702901091" lon="-9.266464281576884"><ele>282.0</ele><time>2026-05-01T10:57:19Z</time></trkpt><trkpt lat="38.85253588951794" lon="-9.26653650793057"><ele>282.0</ele><time>2026-05-01T10:57:21Z</time></trkpt><trkpt lat="38.85259825460043" lon="-9.266574863565731"><ele>282.0</ele><time>2026-05-01T10:57:22Z</time></trkpt><trkpt lat="38.85266228967219" lon="-9.26661568369239"><ele>283.1666666666667</ele><time>2026-05-01T10:57:23Z</time></trkpt><trkpt lat="38.85272530035256" lon="-9.26665559220811"><ele>284.3333333333333</ele><time>2026-05-01T10:57:24Z</time></trkpt><trkpt lat="38.85278449959391" lon="-9.266713746362228"><ele>285.5</ele><time>2026-05-01T10:57:25Z</time></trkpt><trkpt lat="38.85289442829289" lon="-9.266807861654694"><ele>286.66666666666663</ele><time>2026-05-01T10:57:27Z</time></trkpt><trkpt lat="38.852955537921225" lon="-9.26684211399634"><ele>287.8333333333333</ele><time>2026-05-01T10:57:28Z</time></trkpt><trkpt lat="38.85302217851532" lon="-9.266888798685846"><ele>289.0</ele><time>2026-05-01T10:57:29Z</time></trkpt><trkpt lat="38.85308619852457" lon="-9.266934623513903"><ele>289.0</ele><time>2026-05-01T10:57:30Z</time></trkpt><trkpt lat="38.85314930375611" lon="-9.26696641075563"><ele>289.0</ele><time>2026-05-01T10:57:31Z</time></trkpt><trkpt lat="38.85322327572211" lon="-9.266961445266501"><ele>289.0</ele><time>2026-05-01T10:57:32Z</time></trkpt><trkpt lat="38.853301316734566" lon="-9.266973742385632"><ele>289.0</ele><time>2026-05-01T10:57:33Z</time></trkpt><trkpt lat="38.853380691092774" lon="-9.266985435704562"><ele>289.0</ele><time>2026-05-01T10:57:34Z</time></trkpt><trkpt lat="38.85345206088751" lon="-9.26699262324565"><ele>289.0</ele><time>2026-05-01T10:57:35Z</time></trkpt><trkpt lat="38.85353306729468" lon="-9.266996868146375"><ele>289.0</ele><time>2026-05-01T10:57:36Z</time></trkpt><trkpt lat="38.853606426754496" lon="-9.266994664294382"><ele>289.0</ele><time>2026-05-01T10:57:37Z</time></trkpt><trkpt lat="38.85368825477701" lon="-9.266989354946572"><ele>289.0</ele><time>2026-05-01T10:57:38Z</time></trkpt><trkpt lat="38.85376810772556" lon="-9.2669798451809"><ele>289.0</ele><time>2026-05-01T10:57:39Z</time></trkpt><trkpt lat="38.853853842662566" lon="-9.266963578579968"><ele>289.0</ele><time>2026-05-01T10:57:40Z</time></trkpt><trkpt lat="38.85393574838722" lon="-9.266949073124083"><ele>289.0</ele><time>2026-05-01T10:57:41Z</time></trkpt><trkpt lat="38.85401564061996" lon="-9.266950135023208"><ele>289.0</ele><time>2026-05-01T10:57:42Z</time></trkpt><trkpt lat="38.85407925365808" lon="-9.266941627110864"><ele>289.0</ele><time>2026-05-01T10:57:43Z</time></trkpt><trkpt lat="38.85414278701874" lon="-9.266943178579583"><ele>289.0</ele><time>2026-05-01T10:57:44Z</time></trkpt><trkpt lat="38.85421482286864" lon="-9.266941545708718"><ele>289.0</ele><time>2026-05-01T10:57:45Z</time></trkpt><trkpt lat="38.85428064725254" lon="-9.266947988317241"><ele>289.0</ele><time>2026-05-01T10:57:46Z</time></trkpt><trkpt lat="38.85437006941561" lon="-9.266960786589362"><ele>289.0</ele><time>2026-05-01T10:57:48Z</time></trkpt><trkpt lat="38.8544636686263" lon="-9.266982029194768"><ele>286.59999999999997</ele><time>2026-05-01T10:57:50Z</time></trkpt><trkpt lat="38.85455531916072" lon="-9.266971867148525"><ele>284.2</ele><time>2026-05-01T10:57:52Z</time></trkpt><trkpt lat="38.85468230012476" lon="-9.26699392932678"><ele>281.79999999999995</ele><time>2026-05-01T10:57:55Z</time></trkpt><trkpt lat="38.854771552429746" lon="-9.266998664825937"><ele>279.4</ele><time>2026-05-01T10:57:57Z</time></trkpt><trkpt lat="38.854849511298156" lon="-9.266997603713968"><ele>277.0</ele><time>2026-05-01T10:57:58Z</time></trkpt><trkpt lat="38.85495953733537" lon="-9.26694526653125"><ele>277.0</ele><time>2026-05-01T10:58:00Z</time></trkpt><trkpt lat="38.85506490596055" lon="-9.266866558262109"><ele>277.0</ele><time>2026-05-01T10:58:02Z</time></trkpt><trkpt lat="38.85517177134787" lon="-9.26679794936654"><ele>277.0</ele><time>2026-05-01T10:58:04Z</time></trkpt><trkpt lat="38.85526846152971" lon="-9.266730836447495"><ele>277.0</ele><time>2026-05-01T10:58:06Z</time></trkpt><trkpt lat="38.85536487315158" lon="-9.26667738821556"><ele>274.16666666666663</ele><time>2026-05-01T10:58:08Z</time></trkpt><trkpt lat="38.85545696971387" lon="-9.266634777349282"><ele>271.3333333333333</ele><time>2026-05-01T10:58:10Z</time></trkpt><trkpt lat="38.8555371963816" lon="-9.266587572941603"><ele>268.5</ele><time>2026-05-01T10:58:12Z</time></trkpt><trkpt lat="38.85560180226913" lon="-9.266520633537151"><ele>265.6666666666667</ele><time>2026-05-01T10:58:14Z</time></trkpt><trkpt lat="38.855676845516626" lon="-9.266499620260495"><ele>262.83333333333337</ele><time>2026-05-01T10:58:16Z</time></trkpt><trkpt lat="38.85576641382308" lon="-9.266505359874333"><ele>260.0</ele><time>2026-05-01T10:58:18Z</time></trkpt><trkpt lat="38.85586283298026" lon="-9.26651866324633"><ele>258.0</ele><time>2026-05-01T10:58:20Z</time></trkpt><trkpt lat="38.85596738081058" lon="-9.266554811245786"><ele>256.0</ele><time>2026-05-01T10:58:22Z</time></trkpt><trkpt lat="38.85606518581775" lon="-9.266581747032067"><ele>254.0</ele><time>2026-05-01T10:58:24Z</time></trkpt><trkpt lat="38.85616286269494" lon="-9.266594164388426"><ele>252.0</ele><time>2026-05-01T10:58:26Z</time></trkpt><trkpt lat="38.8562560738359" lon="-9.266545371703353"><ele>250.0</ele><time>2026-05-01T10:58:28Z</time></trkpt><trkpt lat="38.856313405827585" lon="-9.266508049019746"><ele>250.0</ele><time>2026-05-01T10:58:29Z</time></trkpt><trkpt lat="38.85640659832439" lon="-9.26645582806815"><ele>250.0</ele><time>2026-05-01T10:58:31Z</time></trkpt><trkpt lat="38.85649790220639" lon="-9.266377400618554"><ele>250.0</ele><time>2026-05-01T10:58:33Z</time></trkpt><trkpt lat="38.85655730876009" lon="-9.266334252620807"><ele>250.0</ele><time>2026-05-01T10:58:34Z</time></trkpt><trkpt lat="38.85666358962827" lon="-9.26627498946342"><ele>250.0</ele><time>2026-05-01T10:58:36Z</time></trkpt><trkpt lat="38.85672632211885" lon="-9.266238623928704"><ele>248.4</ele><time>2026-05-01T10:58:37Z</time></trkpt><trkpt lat="38.856788138906396" lon="-9.266196066122044"><ele>246.8</ele><time>2026-05-01T10:58:38Z</time></trkpt><trkpt lat="38.85686119835002" lon="-9.266076617729603"><ele>245.2</ele><time>2026-05-01T10:58:40Z</time></trkpt><trkpt lat="38.85689487380801" lon="-9.265919682928429"><ele>243.6</ele><time>2026-05-01T10:58:42Z</time></trkpt><trkpt lat="38.85690790875035" lon="-9.265826859407012"><ele>242.0</ele><time>2026-05-01T10:58:43Z</time></trkpt><trkpt lat="38.85692537978319" lon="-9.265725155801713"><ele>242.00000000000003</ele><time>2026-05-01T10:58:44Z</time></trkpt><trkpt lat="38.856950152561936" lon="-9.265612136193095"><ele>242.0</ele><time>2026-05-01T10:58:45Z</time></trkpt><trkpt lat="38.85697269393401" lon="-9.26550844824736"><ele>242.0</ele><time>2026-05-01T10:58:46Z</time></trkpt><trkpt lat="38.85699902069609" lon="-9.265409731817822"><ele>242.0</ele><time>2026-05-01T10:58:47Z</time></trkpt><trkpt lat="38.85702112363413" lon="-9.265306678925954"><ele>242.00000000000003</ele><time>2026-05-01T10:58:48Z</time></trkpt><trkpt lat="38.85703217772811" lon="-9.265214309636171"><ele>242.0</ele><time>2026-05-01T10:58:49Z</time></trkpt><trkpt lat="38.85703931555715" lon="-9.265121764784734"><ele>243.66666666666669</ele><time>2026-05-01T10:58:50Z</time></trkpt><trkpt lat="38.857052926771914" lon="-9.265026021701976"><ele>245.33333333333334</ele><time>2026-05-01T10:58:51Z</time></trkpt><trkpt lat="38.85706419674385" lon="-9.264944165164867"><ele>247.0</ele><time>2026-05-01T10:58:52Z</time></trkpt><trkpt lat="38.857074761796774" lon="-9.26481281903078"><ele>248.66666666666669</ele><time>2026-05-01T10:58:54Z</time></trkpt><trkpt lat="38.85710285062909" lon="-9.264729144076073"><ele>250.33333333333334</ele><time>2026-05-01T10:58:55Z</time></trkpt><trkpt lat="38.85717179483723" lon="-9.264620052527993"><ele>252.0</ele><time>2026-05-01T10:58:57Z</time></trkpt><trkpt lat="38.8572458040249" lon="-9.264562168025694"><ele>253.66666666666666</ele><time>2026-05-01T10:58:59Z</time></trkpt><trkpt lat="38.85733299625102" lon="-9.26455066333327"><ele>255.33333333333331</ele><time>2026-05-01T10:59:02Z</time></trkpt><trkpt lat="38.85744583643873" lon="-9.26455664354268"><ele>257.0</ele><time>2026-05-01T10:59:04Z</time></trkpt><trkpt lat="38.85751514371449" lon="-9.2645796560789"><ele>258.66666666666663</ele><time>2026-05-01T10:59:05Z</time></trkpt><trkpt lat="38.85758280220799" lon="-9.26457763914687"><ele>260.3333333333333</ele><time>2026-05-01T10:59:06Z</time></trkpt><trkpt lat="38.857680386330124" lon="-9.26456498234152"><ele>262.0</ele><time>2026-05-01T10:59:08Z</time></trkpt><trkpt lat="38.85779501246913" lon="-9.264538428526254"><ele>263.2</ele><time>2026-05-01T10:59:10Z</time></trkpt><trkpt lat="38.85789922682733" lon="-9.264512690765034"><ele>264.4</ele><time>2026-05-01T10:59:12Z</time></trkpt><trkpt lat="38.858020405359724" lon="-9.264510640277598"><ele>265.6</ele><time>2026-05-01T10:59:14Z</time></trkpt><trkpt lat="38.85808315529254" lon="-9.264525170641221"><ele>266.8</ele><time>2026-05-01T10:59:15Z</time></trkpt><trkpt lat="38.85813508632797" lon="-9.26457120443229"><ele>268.0</ele><time>2026-05-01T10:59:16Z</time></trkpt><trkpt lat="38.85824362230943" lon="-9.264605168713166"><ele>268.0</ele><time>2026-05-01T10:59:18Z</time></trkpt><trkpt lat="38.85835920139044" lon="-9.264533570488801"><ele>268.0</ele><time>2026-05-01T10:59:20Z</time></trkpt><trkpt lat="38.85841288273026" lon="-9.264486393786495"><ele>268.0</ele><time>2026-05-01T10:59:21Z</time></trkpt><trkpt lat="38.85848992928731" lon="-9.264372357424334"><ele>268.0</ele><time>2026-05-01T10:59:23Z</time></trkpt><trkpt lat="38.85857587617804" lon="-9.264278742048782"><ele>268.0</ele><time>2026-05-01T10:59:25Z</time></trkpt><trkpt lat="38.858632024371296" lon="-9.26419741383533"><ele>267.2</ele><time>2026-05-01T10:59:27Z</time></trkpt><trkpt lat="38.858698634831995" lon="-9.264111097948994"><ele>266.4</ele><time>2026-05-01T10:59:29Z</time></trkpt><trkpt lat="38.858758698099635" lon="-9.264009703254866"><ele>265.59999999999997</ele><time>2026-05-01T10:59:31Z</time></trkpt><trkpt lat="38.85880892567627" lon="-9.263915925830995"><ele>264.8</ele><time>2026-05-01T10:59:33Z</time></trkpt><trkpt lat="38.85888080201238" lon="-9.26384056459121"><ele>264.0</ele><time>2026-05-01T10:59:35Z</time></trkpt><trkpt lat="38.8589463827165" lon="-9.263765270194119"><ele>263.1666666666667</ele><time>2026-05-01T10:59:37Z</time></trkpt><trkpt lat="38.85902810294975" lon="-9.263696399758022"><ele>262.3333333333333</ele><time>2026-05-01T10:59:39Z</time></trkpt><trkpt lat="38.85910387281788" lon="-9.263618991463542"><ele>261.5</ele><time>2026-05-01T10:59:41Z</time></trkpt><trkpt lat="38.85915027436079" lon="-9.263560224945017"><ele>260.66666666666663</ele><time>2026-05-01T10:59:43Z</time></trkpt><trkpt lat="38.859204475473135" lon="-9.26349598179237"><ele>259.8333333333333</ele><time>2026-05-01T10:59:45Z</time></trkpt><trkpt lat="38.85924145718335" lon="-9.26340725324316"><ele>259.0</ele><time>2026-05-01T10:59:47Z</time></trkpt><trkpt lat="38.859288708892414" lon="-9.263316318541483"><ele>256.2</ele><time>2026-05-01T10:59:49Z</time></trkpt><trkpt lat="38.85934112715287" lon="-9.26322421850147"><ele>253.39999999999998</ele><time>2026-05-01T10:59:52Z</time></trkpt><trkpt lat="38.85937299468568" lon="-9.263153460155412"><ele>250.6</ele><time>2026-05-01T10:59:54Z</time></trkpt><trkpt lat="38.85938792851567" lon="-9.263032843506004"><ele>247.8</ele><time>2026-05-01T10:59:56Z</time></trkpt><trkpt lat="38.85939573562353" lon="-9.262881848843584"><ele>245.0</ele><time>2026-05-01T10:59:58Z</time></trkpt><trkpt lat="38.85939394887769" lon="-9.262756780236685"><ele>245.00000000000003</ele><time>2026-05-01T11:00:00Z</time></trkpt><trkpt lat="38.85940467680832" lon="-9.262650081850833"><ele>245.0</ele><time>2026-05-01T11:00:02Z</time></trkpt><trkpt lat="38.859415994793004" lon="-9.262538311150442"><ele>245.0</ele><time>2026-05-01T11:00:04Z</time></trkpt><trkpt lat="38.859429768182174" lon="-9.26243545912374"><ele>245.0</ele><time>2026-05-01T11:00:06Z</time></trkpt><trkpt lat="38.859465131799304" lon="-9.262317398765926"><ele>245.00000000000003</ele><time>2026-05-01T11:00:08Z</time></trkpt><trkpt lat="38.85950499377205" lon="-9.262233904906257"><ele>245.0</ele><time>2026-05-01T11:00:09Z</time></trkpt><trkpt lat="38.85955211180258" lon="-9.262157335008208"><ele>246.2</ele><time>2026-05-01T11:00:10Z</time></trkpt><trkpt lat="38.85960612110114" lon="-9.26206542445143"><ele>247.4</ele><time>2026-05-01T11:00:11Z</time></trkpt><trkpt lat="38.85965234259018" lon="-9.261962728054995"><ele>248.60000000000002</ele><time>2026-05-01T11:00:12Z</time></trkpt><trkpt lat="38.859703432129415" lon="-9.261865904100748"><ele>249.8</ele><time>2026-05-01T11:00:13Z</time></trkpt><trkpt lat="38.85975173768224" lon="-9.261766335143417"><ele>251.0</ele><time>2026-05-01T11:00:14Z</time></trkpt><trkpt lat="38.85979572534659" lon="-9.26166246188491"><ele>251.00000000000003</ele><time>2026-05-01T11:00:15Z</time></trkpt><trkpt lat="38.85983647777653" lon="-9.261565496878452"><ele>251.0</ele><time>2026-05-01T11:00:16Z</time></trkpt><trkpt lat="38.85987762081225" lon="-9.261472561895891"><ele>251.0</ele><time>2026-05-01T11:00:17Z</time></trkpt><trkpt lat="38.85991504736928" lon="-9.261391021867697"><ele>251.0</ele><time>2026-05-01T11:00:18Z</time></trkpt><trkpt lat="38.859946895362775" lon="-9.26131892620133"><ele>251.00000000000003</ele><time>2026-05-01T11:00:19Z</time></trkpt><trkpt lat="38.86002726797404" lon="-9.26118629404615"><ele>251.0</ele><time>2026-05-01T11:00:21Z</time></trkpt><trkpt lat="38.86008183761636" lon="-9.261126618859604"><ele>250.83333333333334</ele><time>2026-05-01T11:00:22Z</time></trkpt><trkpt lat="38.860151305477" lon="-9.261067552086889"><ele>250.66666666666669</ele><time>2026-05-01T11:00:23Z</time></trkpt><trkpt lat="38.86020869265866" lon="-9.26101644360957"><ele>250.5</ele><time>2026-05-01T11:00:24Z</time></trkpt><trkpt lat="38.860269478058335" lon="-9.260948127636036"><ele>250.33333333333331</ele><time>2026-05-01T11:00:25Z</time></trkpt><trkpt lat="38.86036722539441" lon="-9.260858294085054"><ele>250.16666666666666</ele><time>2026-05-01T11:00:27Z</time></trkpt><trkpt lat="38.86043255458054" lon="-9.260811415371595"><ele>250.0</ele><time>2026-05-01T11:00:28Z</time></trkpt><trkpt lat="38.86054539099846" lon="-9.260702088824418"><ele>249.99999999999997</ele><time>2026-05-01T11:00:30Z</time></trkpt><trkpt lat="38.860602349862056" lon="-9.260649058412195"><ele>250.0</ele><time>2026-05-01T11:00:31Z</time></trkpt><trkpt lat="38.860663615563226" lon="-9.260599201768569"><ele>250.0</ele><time>2026-05-01T11:00:32Z</time></trkpt><trkpt lat="38.860717099243395" lon="-9.260550183384956"><ele>250.0</ele><time>2026-05-01T11:00:33Z</time></trkpt><trkpt lat="38.860821661448306" lon="-9.260474475337242"><ele>249.99999999999997</ele><time>2026-05-01T11:00:35Z</time></trkpt><trkpt lat="38.860875575798495" lon="-9.260410605922534"><ele>250.0</ele><time>2026-05-01T11:00:36Z</time></trkpt><trkpt lat="38.86092135019219" lon="-9.260334229915394"><ele>250.33333333333331</ele><time>2026-05-01T11:00:37Z</time></trkpt><trkpt lat="38.860970076199564" lon="-9.26026048922382"><ele>250.66666666666666</ele><time>2026-05-01T11:00:38Z</time></trkpt><trkpt lat="38.86103093172182" lon="-9.260184441318843"><ele>251.0</ele><time>2026-05-01T11:00:39Z</time></trkpt><trkpt lat="38.86110301535592" lon="-9.260123485589766"><ele>251.33333333333331</ele><time>2026-05-01T11:00:40Z</time></trkpt><trkpt lat="38.861171223566274" lon="-9.260060114952212"><ele>251.66666666666666</ele><time>2026-05-01T11:00:41Z</time></trkpt><trkpt lat="38.86123549187693" lon="-9.259990045271053"><ele>252.0</ele><time>2026-05-01T11:00:42Z</time></trkpt><trkpt lat="38.86129891571908" lon="-9.259908056001189"><ele>252.0</ele><time>2026-05-01T11:00:43Z</time></trkpt><trkpt lat="38.86136555848096" lon="-9.259832221001352"><ele>252.0</ele><time>2026-05-01T11:00:44Z</time></trkpt><trkpt lat="38.86144469986688" lon="-9.259750252114673"><ele>252.0</ele><time>2026-05-01T11:00:45Z</time></trkpt><trkpt lat="38.86151850686978" lon="-9.259673795671198"><ele>252.0</ele><time>2026-05-01T11:00:46Z</time></trkpt><trkpt lat="38.86158624072462" lon="-9.25958661184303"><ele>252.0</ele><time>2026-05-01T11:00:47Z</time></trkpt><trkpt lat="38.8616512464373" lon="-9.25952078842211"><ele>252.5</ele><time>2026-05-01T11:00:48Z</time></trkpt><trkpt lat="38.86171572404423" lon="-9.259460616155643"><ele>253.0</ele><time>2026-05-01T11:00:49Z</time></trkpt><trkpt lat="38.86176791813122" lon="-9.259390996743242"><ele>253.5</ele><time>2026-05-01T11:00:50Z</time></trkpt><trkpt lat="38.8618282155665" lon="-9.259341774645044"><ele>254.0</ele><time>2026-05-01T11:00:51Z</time></trkpt><trkpt lat="38.861894242314825" lon="-9.259281186657775"><ele>254.5</ele><time>2026-05-01T11:00:52Z</time></trkpt><trkpt lat="38.86195452155889" lon="-9.259227120569586"><ele>255.0</ele><time>2026-05-01T11:00:53Z</time></trkpt><trkpt lat="38.86201075306908" lon="-9.259172664432587"><ele>255.0</ele><time>2026-05-01T11:00:54Z</time></trkpt><trkpt lat="38.862073028042055" lon="-9.259118437689935"><ele>255.00000000000003</ele><time>2026-05-01T11:00:55Z</time></trkpt><trkpt lat="38.862128486509754" lon="-9.259071510245366"><ele>255.0</ele><time>2026-05-01T11:00:56Z</time></trkpt><trkpt lat="38.862180443836024" lon="-9.259024196059036"><ele>255.0</ele><time>2026-05-01T11:00:57Z</time></trkpt><trkpt lat="38.86222773304435" lon="-9.258967120234692"><ele>255.00000000000003</ele><time>2026-05-01T11:00:58Z</time></trkpt><trkpt lat="38.86228969691432" lon="-9.258916469981937"><ele>255.0</ele><time>2026-05-01T11:00:59Z</time></trkpt><trkpt lat="38.86235991086516" lon="-9.258887643776415"><ele>255.0</ele><time>2026-05-01T11:01:00Z</time></trkpt><trkpt lat="38.86241663629923" lon="-9.258833903186197"><ele>255.0</ele><time>2026-05-01T11:01:01Z</time></trkpt><trkpt lat="38.86250933563214" lon="-9.258744726509772"><ele>255.0</ele><time>2026-05-01T11:01:03Z</time></trkpt><trkpt lat="38.86260752016284" lon="-9.258639754096574"><ele>255.0</ele><time>2026-05-01T11:01:05Z</time></trkpt><trkpt lat="38.86265892022517" lon="-9.258582660360974"><ele>255.0</ele><time>2026-05-01T11:01:06Z</time></trkpt><trkpt lat="38.862705995043505" lon="-9.258524671280442"><ele>255.0</ele><time>2026-05-01T11:01:07Z</time></trkpt><trkpt lat="38.862749099395536" lon="-9.258461031309714"><ele>255.0</ele><time>2026-05-01T11:01:08Z</time></trkpt><trkpt lat="38.86282668868614" lon="-9.258342866258207"><ele>255.0</ele><time>2026-05-01T11:01:10Z</time></trkpt><trkpt lat="38.86288729170981" lon="-9.258249939866152"><ele>255.0</ele><time>2026-05-01T11:01:12Z</time></trkpt><trkpt lat="38.86293174431259" lon="-9.258172443963398"><ele>255.0</ele><time>2026-05-01T11:01:14Z</time></trkpt><trkpt lat="38.86298098858553" lon="-9.258086771017444"><ele>255.0</ele><time>2026-05-01T11:01:16Z</time></trkpt><trkpt lat="38.86303516748679" lon="-9.257972619678819"><ele>255.0</ele><time>2026-05-01T11:01:18Z</time></trkpt><trkpt lat="38.863079944469845" lon="-9.257849924407578"><ele>255.4</ele><time>2026-05-01T11:01:20Z</time></trkpt><trkpt lat="38.86312198587397" lon="-9.257739903006442"><ele>255.8</ele><time>2026-05-01T11:01:22Z</time></trkpt><trkpt lat="38.86316641913963" lon="-9.257650133611685"><ele>256.2</ele><time>2026-05-01T11:01:24Z</time></trkpt><trkpt lat="38.863229680570306" lon="-9.25755298595054"><ele>256.6</ele><time>2026-05-01T11:01:26Z</time></trkpt><trkpt lat="38.863323716725915" lon="-9.257459039906648"><ele>257.0</ele><time>2026-05-01T11:01:28Z</time></trkpt><trkpt lat="38.86338425989373" lon="-9.257424518243338"><ele>257.6</ele><time>2026-05-01T11:01:29Z</time></trkpt><trkpt lat="38.86345524513499" lon="-9.257396729161615"><ele>258.2</ele><time>2026-05-01T11:01:30Z</time></trkpt><trkpt lat="38.86353022758466" lon="-9.257385517239168"><ele>258.8</ele><time>2026-05-01T11:01:31Z</time></trkpt><trkpt lat="38.863621833881275" lon="-9.257372090247022"><ele>259.4</ele><time>2026-05-01T11:01:32Z</time></trkpt><trkpt lat="38.86371149875511" lon="-9.257377100521083"><ele>260.0</ele><time>2026-05-01T11:01:33Z</time></trkpt><trkpt lat="38.86382830620764" lon="-9.257337225316364"><ele>260.0</ele><time>2026-05-01T11:01:34Z</time></trkpt><trkpt lat="38.86391886527889" lon="-9.25730624430152"><ele>260.0</ele><time>2026-05-01T11:01:35Z</time></trkpt><trkpt lat="38.86401016269847" lon="-9.257249739309325"><ele>260.0</ele><time>2026-05-01T11:01:36Z</time></trkpt><trkpt lat="38.864088638572845" lon="-9.257216126677921"><ele>260.0</ele><time>2026-05-01T11:01:37Z</time></trkpt><trkpt lat="38.86415055520674" lon="-9.257185058598083"><ele>260.0</ele><time>2026-05-01T11:01:38Z</time></trkpt><trkpt lat="38.86426592103904" lon="-9.25714395182681"><ele>262.0</ele><time>2026-05-01T11:01:40Z</time></trkpt><trkpt lat="38.86434098057976" lon="-9.257130104784066"><ele>264.0</ele><time>2026-05-01T11:01:41Z</time></trkpt><trkpt lat="38.864439387270146" lon="-9.257090093089353"><ele>266.0</ele><time>2026-05-01T11:01:42Z</time></trkpt><trkpt lat="38.86455074915252" lon="-9.257038140525447"><ele>268.0</ele><time>2026-05-01T11:01:43Z</time></trkpt><trkpt lat="38.864642221816325" lon="-9.25700184539405"><ele>270.0</ele><time>2026-05-01T11:01:44Z</time></trkpt><trkpt lat="38.86473230758522" lon="-9.25698220049625"><ele>270.0</ele><time>2026-05-01T11:01:45Z</time></trkpt><trkpt lat="38.86481213413708" lon="-9.25694379081436"><ele>270.0</ele><time>2026-05-01T11:01:46Z</time></trkpt><trkpt lat="38.86489130342967" lon="-9.256925021521662"><ele>270.0</ele><time>2026-05-01T11:01:47Z</time></trkpt><trkpt lat="38.86498774272405" lon="-9.256913963152265"><ele>270.0</ele><time>2026-05-01T11:01:48Z</time></trkpt><trkpt lat="38.86507489168433" lon="-9.256864678357317"><ele>270.0</ele><time>2026-05-01T11:01:49Z</time></trkpt><trkpt lat="38.865165183303404" lon="-9.256824751565562"><ele>270.8333333333333</ele><time>2026-05-01T11:01:50Z</time></trkpt><trkpt lat="38.86524757640523" lon="-9.256781872738324"><ele>271.6666666666667</ele><time>2026-05-01T11:01:51Z</time></trkpt><trkpt lat="38.86532522428022" lon="-9.25677999450957"><ele>272.5</ele><time>2026-05-01T11:01:52Z</time></trkpt><trkpt lat="38.865403650104845" lon="-9.256788565087339"><ele>273.33333333333337</ele><time>2026-05-01T11:01:53Z</time></trkpt><trkpt lat="38.865485215870855" lon="-9.256819472845683"><ele>274.1666666666667</ele><time>2026-05-01T11:01:54Z</time></trkpt><trkpt lat="38.86555829114088" lon="-9.256829886471367"><ele>275.0</ele><time>2026-05-01T11:01:55Z</time></trkpt><trkpt lat="38.865636285415235" lon="-9.256807094149334"><ele>275.0</ele><time>2026-05-01T11:01:56Z</time></trkpt><trkpt lat="38.86570997832239" lon="-9.25679565339864"><ele>275.0</ele><time>2026-05-01T11:01:57Z</time></trkpt><trkpt lat="38.86579730452462" lon="-9.25673043971797"><ele>275.0</ele><time>2026-05-01T11:01:58Z</time></trkpt><trkpt lat="38.865882360882814" lon="-9.256689038452464"><ele>275.0</ele><time>2026-05-01T11:01:59Z</time></trkpt><trkpt lat="38.865985865310265" lon="-9.256654483101169"><ele>275.0</ele><time>2026-05-01T11:02:00Z</time></trkpt><trkpt lat="38.866071237974225" lon="-9.256628017106822"><ele>275.8</ele><time>2026-05-01T11:02:01Z</time></trkpt><trkpt lat="38.86616709187167" lon="-9.25662495521913"><ele>276.6</ele><time>2026-05-01T11:02:02Z</time></trkpt><trkpt lat="38.86626049546104" lon="-9.256637097634943"><ele>277.4</ele><time>2026-05-01T11:02:03Z</time></trkpt><trkpt lat="38.866349770718735" lon="-9.256638869806155"><ele>278.2</ele><time>2026-05-01T11:02:04Z</time></trkpt><trkpt lat="38.86644523942846" lon="-9.256663036831242"><ele>279.0</ele><time>2026-05-01T11:02:05Z</time></trkpt><trkpt lat="38.86655036284555" lon="-9.256710133596156"><ele>279.0</ele><time>2026-05-01T11:02:06Z</time></trkpt><trkpt lat="38.86664364993803" lon="-9.256755843421018"><ele>279.0</ele><time>2026-05-01T11:02:07Z</time></trkpt><trkpt lat="38.86672511979916" lon="-9.256802654900884"><ele>279.0</ele><time>2026-05-01T11:02:08Z</time></trkpt><trkpt lat="38.86680621506861" lon="-9.256834157692584"><ele>279.0</ele><time>2026-05-01T11:02:09Z</time></trkpt><trkpt lat="38.86688312707365" lon="-9.256853371462652"><ele>279.0</ele><time>2026-05-01T11:02:10Z</time></trkpt><trkpt lat="38.8669546760995" lon="-9.25687322591011"><ele>279.0</ele><time>2026-05-01T11:02:11Z</time></trkpt><trkpt lat="38.86705302764099" lon="-9.256901871600277"><ele>280.0</ele><time>2026-05-01T11:02:12Z</time></trkpt><trkpt lat="38.8671635438088" lon="-9.256904293000357"><ele>281.0</ele><time>2026-05-01T11:02:13Z</time></trkpt><trkpt lat="38.86728097374921" lon="-9.256930996241145"><ele>282.0</ele><time>2026-05-01T11:02:14Z</time></trkpt><trkpt lat="38.8673711314642" lon="-9.256963301007168"><ele>283.0</ele><time>2026-05-01T11:02:15Z</time></trkpt><trkpt lat="38.867463945448634" lon="-9.256990453834334"><ele>284.0</ele><time>2026-05-01T11:02:16Z</time></trkpt><trkpt lat="38.86758587417494" lon="-9.25701629898281"><ele>284.0</ele><time>2026-05-01T11:02:17Z</time></trkpt><trkpt lat="38.867707601746666" lon="-9.257056883744795"><ele>284.0</ele><time>2026-05-01T11:02:18Z</time></trkpt><trkpt lat="38.867808970417855" lon="-9.257109661650661"><ele>284.0</ele><time>2026-05-01T11:02:19Z</time></trkpt><trkpt lat="38.86789646916152" lon="-9.257163496117876"><ele>284.0</ele><time>2026-05-01T11:02:20Z</time></trkpt><trkpt lat="38.86799121712869" lon="-9.257209811465934"><ele>284.0</ele><time>2026-05-01T11:02:21Z</time></trkpt><trkpt lat="38.868075608685686" lon="-9.257247380380461"><ele>284.0</ele><time>2026-05-01T11:02:22Z</time></trkpt><trkpt lat="38.86816384792875" lon="-9.257272455307323"><ele>284.0</ele><time>2026-05-01T11:02:23Z</time></trkpt><trkpt lat="38.86825734706952" lon="-9.25728286858863"><ele>284.0</ele><time>2026-05-01T11:02:24Z</time></trkpt><trkpt lat="38.86834528613371" lon="-9.257282956364598"><ele>284.0</ele><time>2026-05-01T11:02:25Z</time></trkpt><trkpt lat="38.86843288962206" lon="-9.257295812544557"><ele>284.0</ele><time>2026-05-01T11:02:26Z</time></trkpt><trkpt lat="38.86852249983364" lon="-9.257310521542715"><ele>283.33333333333337</ele><time>2026-05-01T11:02:27Z</time></trkpt><trkpt lat="38.86861588930808" lon="-9.257307826282448"><ele>282.6666666666667</ele><time>2026-05-01T11:02:28Z</time></trkpt><trkpt lat="38.868715073715066" lon="-9.257306286259523"><ele>282.0</ele><time>2026-05-01T11:02:29Z</time></trkpt><trkpt lat="38.86879647239387" lon="-9.257307590200597"><ele>281.3333333333333</ele><time>2026-05-01T11:02:30Z</time></trkpt><trkpt lat="38.868873590037936" lon="-9.25729670880743"><ele>280.66666666666663</ele><time>2026-05-01T11:02:31Z</time></trkpt><trkpt lat="38.86895954354651" lon="-9.257293962349452"><ele>280.0</ele><time>2026-05-01T11:02:32Z</time></trkpt><trkpt lat="38.86905126603228" lon="-9.2572866746937"><ele>280.16666666666663</ele><time>2026-05-01T11:02:33Z</time></trkpt><trkpt lat="38.86913035008728" lon="-9.257275022763634"><ele>280.3333333333333</ele><time>2026-05-01T11:02:34Z</time></trkpt><trkpt lat="38.86920213627905" lon="-9.257261775498165"><ele>280.5</ele><time>2026-05-01T11:02:35Z</time></trkpt><trkpt lat="38.869269486867815" lon="-9.257245448594649"><ele>280.6666666666667</ele><time>2026-05-01T11:02:36Z</time></trkpt><trkpt lat="38.86934754764139" lon="-9.257195592131753"><ele>280.83333333333337</ele><time>2026-05-01T11:02:38Z</time></trkpt><trkpt lat="38.8693978466334" lon="-9.25712776022568"><ele>281.0</ele><time>2026-05-01T11:02:40Z</time></trkpt><trkpt lat="38.869483937663404" lon="-9.257077714188762"><ele>279.5</ele><time>2026-05-01T11:02:42Z</time></trkpt><trkpt lat="38.86959215565923" lon="-9.257064709038758"><ele>278.0</ele><time>2026-05-01T11:02:43Z</time></trkpt><trkpt lat="38.869715260739326" lon="-9.257068941316572"><ele>276.5</ele><time>2026-05-01T11:02:44Z</time></trkpt><trkpt lat="38.869841881891276" lon="-9.257076215439788"><ele>275.0</ele><time>2026-05-01T11:02:45Z</time></trkpt><trkpt lat="38.86997234870684" lon="-9.257092822604026"><ele>275.0</ele><time>2026-05-01T11:02:46Z</time></trkpt><trkpt lat="38.87009656767323" lon="-9.257129324654477"><ele>275.0</ele><time>2026-05-01T11:02:47Z</time></trkpt><trkpt lat="38.870205369876615" lon="-9.257193905533594"><ele>275.0</ele><time>2026-05-01T11:02:48Z</time></trkpt><trkpt lat="38.87030346496463" lon="-9.257270326693064"><ele>275.0</ele><time>2026-05-01T11:02:49Z</time></trkpt><trkpt lat="38.87039606599428" lon="-9.257348454461921"><ele>274.2</ele><time>2026-05-01T11:02:50Z</time></trkpt><trkpt lat="38.87048092107234" lon="-9.257436187645647"><ele>273.4</ele><time>2026-05-01T11:02:51Z</time></trkpt><trkpt lat="38.870572076779" lon="-9.25750849719255"><ele>272.6</ele><time>2026-05-01T11:02:52Z</time></trkpt><trkpt lat="38.87065638165503" lon="-9.257565267280249"><ele>271.8</ele><time>2026-05-01T11:02:53Z</time></trkpt><trkpt lat="38.87072464243082" lon="-9.257619638211255"><ele>271.0</ele><time>2026-05-01T11:02:54Z</time></trkpt><trkpt lat="38.87078132474814" lon="-9.257672386489316"><ele>271.0</ele><time>2026-05-01T11:02:55Z</time></trkpt><trkpt lat="38.87079144083895" lon="-9.257847312528835"><ele>271.0</ele><time>2026-05-01T11:02:57Z</time></trkpt><trkpt lat="38.87075342921865" lon="-9.257961021806805"><ele>271.0</ele><time>2026-05-01T11:02:58Z</time></trkpt><trkpt lat="38.87069322785678" lon="-9.258102145276759"><ele>271.0</ele><time>2026-05-01T11:02:59Z</time></trkpt><trkpt lat="38.87064293792598" lon="-9.258242221233319"><ele>270.25</ele><time>2026-05-01T11:03:00Z</time></trkpt><trkpt lat="38.87059122440129" lon="-9.258379637950892"><ele>269.5</ele><time>2026-05-01T11:03:01Z</time></trkpt><trkpt lat="38.87051217640023" lon="-9.258485359262062"><ele>268.75</ele><time>2026-05-01T11:03:02Z</time></trkpt><trkpt lat="38.87040912598023" lon="-9.258571535981655"><ele>268.0</ele><time>2026-05-01T11:03:03Z</time></trkpt><trkpt lat="38.870295701049926" lon="-9.258641237518743"><ele>268.0</ele><time>2026-05-01T11:03:04Z</time></trkpt><trkpt lat="38.870178393539845" lon="-9.258712778000719"><ele>268.0</ele><time>2026-05-01T11:03:05Z</time></trkpt><trkpt lat="38.870075355518985" lon="-9.258798525318703"><ele>268.0</ele><time>2026-05-01T11:03:06Z</time></trkpt><trkpt lat="38.86998612603656" lon="-9.258904618517159"><ele>268.0</ele><time>2026-05-01T11:03:07Z</time></trkpt><trkpt lat="38.86990553333461" lon="-9.258994532433592"><ele>267.8</ele><time>2026-05-01T11:03:08Z</time></trkpt><trkpt lat="38.86980305189402" lon="-9.25907739322467"><ele>267.6</ele><time>2026-05-01T11:03:09Z</time></trkpt><trkpt lat="38.86968830110266" lon="-9.259133154233703"><ele>267.4</ele><time>2026-05-01T11:03:10Z</time></trkpt><trkpt lat="38.869586410194174" lon="-9.25916946507076"><ele>267.2</ele><time>2026-05-01T11:03:11Z</time></trkpt><trkpt lat="38.86951163355944" lon="-9.259209275990838"><ele>267.0</ele><time>2026-05-01T11:03:12Z</time></trkpt><trkpt lat="38.8694534443576" lon="-9.259265896243393"><ele>267.0</ele><time>2026-05-01T11:03:13Z</time></trkpt><trkpt lat="38.869409921814004" lon="-9.259341128229023"><ele>267.0</ele><time>2026-05-01T11:03:14Z</time></trkpt><trkpt lat="38.86936835885618" lon="-9.25943984804363"><ele>267.0</ele><time>2026-05-01T11:03:15Z</time></trkpt><trkpt lat="38.8693149784765" lon="-9.2595044187627"><ele>267.0</ele><time>2026-05-01T11:03:16Z</time></trkpt><trkpt lat="38.86929024472592" lon="-9.25967817759852"><ele>267.0</ele><time>2026-05-01T11:03:18Z</time></trkpt><trkpt lat="38.86933061422463" lon="-9.259783898386676"><ele>266.1666666666667</ele><time>2026-05-01T11:03:19Z</time></trkpt><trkpt lat="38.86937771876512" lon="-9.259853601011892"><ele>265.3333333333333</ele><time>2026-05-01T11:03:20Z</time></trkpt><trkpt lat="38.86942229641286" lon="-9.259912968102173"><ele>264.5</ele><time>2026-05-01T11:03:21Z</time></trkpt><trkpt lat="38.86952881060931" lon="-9.259943903840021"><ele>263.66666666666663</ele><time>2026-05-01T11:03:23Z</time></trkpt><trkpt lat="38.86958072485277" lon="-9.25989792006752"><ele>262.8333333333333</ele><time>2026-05-01T11:03:24Z</time></trkpt><trkpt lat="38.8696641672465" lon="-9.259858770955617"><ele>262.0</ele><time>2026-05-01T11:03:26Z</time></trkpt><trkpt lat="38.869780943134124" lon="-9.259832692575726"><ele>262.0</ele><time>2026-05-01T11:03:28Z</time></trkpt><trkpt lat="38.869852375543466" lon="-9.259807399315843"><ele>262.0</ele><time>2026-05-01T11:03:29Z</time></trkpt><trkpt lat="38.86993261909731" lon="-9.259784536244643"><ele>262.0</ele><time>2026-05-01T11:03:30Z</time></trkpt><trkpt lat="38.870020641442665" lon="-9.259761000284659"><ele>262.0</ele><time>2026-05-01T11:03:31Z</time></trkpt><trkpt lat="38.87010475113568" lon="-9.259754830954611"><ele>262.0</ele><time>2026-05-01T11:03:32Z</time></trkpt><trkpt lat="38.87018104926418" lon="-9.259765323578197"><ele>262.0</ele><time>2026-05-01T11:03:33Z</time></trkpt><trkpt lat="38.87025443044577" lon="-9.25978978826645"><ele>260.8333333333333</ele><time>2026-05-01T11:03:34Z</time></trkpt><trkpt lat="38.87032936421501" lon="-9.259800282144868"><ele>259.66666666666663</ele><time>2026-05-01T11:03:35Z</time></trkpt><trkpt lat="38.87039347906841" lon="-9.259829229432723"><ele>258.5</ele><time>2026-05-01T11:03:36Z</time></trkpt><trkpt lat="38.87046042559833" lon="-9.259863964315688"><ele>257.3333333333333</ele><time>2026-05-01T11:03:37Z</time></trkpt><trkpt lat="38.870560961095244" lon="-9.259919375955125"><ele>256.1666666666667</ele><time>2026-05-01T11:03:39Z</time></trkpt><trkpt lat="38.870624044546666" lon="-9.259972656140013"><ele>255.0</ele><time>2026-05-01T11:03:41Z</time></trkpt><trkpt lat="38.870679801295736" lon="-9.260062590549177"><ele>255.0</ele><time>2026-05-01T11:03:44Z</time></trkpt><trkpt lat="38.87083627357461" lon="-9.260160845798325"><ele>255.0</ele><time>2026-05-01T11:03:47Z</time></trkpt><trkpt lat="38.87089860766792" lon="-9.260258861338368"><ele>255.0</ele><time>2026-05-01T11:03:48Z</time></trkpt><trkpt lat="38.87096091748241" lon="-9.260318848264617"><ele>255.0</ele><time>2026-05-01T11:03:49Z</time></trkpt><trkpt lat="38.871020326293056" lon="-9.260373579874388"><ele>255.0</ele><time>2026-05-01T11:03:50Z</time></trkpt><trkpt lat="38.871093552577356" lon="-9.260424850135768"><ele>254.0</ele><time>2026-05-01T11:03:51Z</time></trkpt><trkpt lat="38.8711860236366" lon="-9.260502150951336"><ele>253.0</ele><time>2026-05-01T11:03:52Z</time></trkpt><trkpt lat="38.87125826826068" lon="-9.260576817961294"><ele>252.0</ele><time>2026-05-01T11:03:53Z</time></trkpt><trkpt lat="38.87132215304427" lon="-9.260639418584883"><ele>251.0</ele><time>2026-05-01T11:03:54Z</time></trkpt><trkpt lat="38.87140189596916" lon="-9.260713066751634"><ele>250.0</ele><time>2026-05-01T11:03:56Z</time></trkpt><trkpt lat="38.871478560995925" lon="-9.260780427737219"><ele>249.49999999999997</ele><time>2026-05-01T11:03:58Z</time></trkpt><trkpt lat="38.871512627394914" lon="-9.26085082743069"><ele>249.0</ele><time>2026-05-01T11:05:31Z</time></trkpt><trkpt lat="38.87157487147942" lon="-9.260903590595731"><ele>248.5</ele><time>2026-05-01T11:05:33Z</time></trkpt><trkpt lat="38.87163884897808" lon="-9.260942342139877"><ele>248.0</ele><time>2026-05-01T11:05:35Z</time></trkpt><trkpt lat="38.8717256725483" lon="-9.261001124424991"><ele>247.49999999999997</ele><time>2026-05-01T11:05:38Z</time></trkpt><trkpt lat="38.87179448820841" lon="-9.261055158739268"><ele>247.0</ele><time>2026-05-01T11:05:40Z</time></trkpt><trkpt lat="38.87188210873501" lon="-9.261117602629925"><ele>247.0</ele><time>2026-05-01T11:05:42Z</time></trkpt><trkpt lat="38.87198121907593" lon="-9.261186634482465"><ele>247.0</ele><time>2026-05-01T11:05:44Z</time></trkpt><trkpt lat="38.872068940208955" lon="-9.261254673480838"><ele>247.0</ele><time>2026-05-01T11:05:46Z</time></trkpt><trkpt lat="38.872167734061314" lon="-9.261350156320189"><ele>247.0</ele><time>2026-05-01T11:05:48Z</time></trkpt><trkpt lat="38.87225854605005" lon="-9.26143702244909"><ele>245.39999999999998</ele><time>2026-05-01T11:05:50Z</time></trkpt><trkpt lat="38.87234436432062" lon="-9.261501192788453"><ele>243.79999999999998</ele><time>2026-05-01T11:05:52Z</time></trkpt><trkpt lat="38.872465979541175" lon="-9.261565434704371"><ele>242.2</ele><time>2026-05-01T11:05:54Z</time></trkpt><trkpt lat="38.87251935423404" lon="-9.261611102205352"><ele>240.6</ele><time>2026-05-01T11:05:55Z</time></trkpt><trkpt lat="38.87259123991704" lon="-9.261652934295673"><ele>239.0</ele><time>2026-05-01T11:05:56Z</time></trkpt><trkpt lat="38.87266583446603" lon="-9.261700933374566"><ele>238.6</ele><time>2026-05-01T11:05:57Z</time></trkpt><trkpt lat="38.87275220399061" lon="-9.261748676133438"><ele>238.2</ele><time>2026-05-01T11:05:58Z</time></trkpt><trkpt lat="38.872839452627424" lon="-9.261807366266085"><ele>237.79999999999998</ele><time>2026-05-01T11:05:59Z</time></trkpt><trkpt lat="38.872943269967465" lon="-9.261869534918718"><ele>237.39999999999998</ele><time>2026-05-01T11:06:00Z</time></trkpt><trkpt lat="38.87304744099209" lon="-9.261927733360382"><ele>237.0</ele><time>2026-05-01T11:06:01Z</time></trkpt><trkpt lat="38.87316883008806" lon="-9.26198630165395"><ele>237.0</ele><time>2026-05-01T11:06:02Z</time></trkpt><trkpt lat="38.87329181904904" lon="-9.262035254656684"><ele>237.0</ele><time>2026-05-01T11:06:03Z</time></trkpt><trkpt lat="38.87342451215125" lon="-9.262076901121022"><ele>237.0</ele><time>2026-05-01T11:06:04Z</time></trkpt><trkpt lat="38.87353214689805" lon="-9.262113419296693"><ele>237.0</ele><time>2026-05-01T11:06:05Z</time></trkpt><trkpt lat="38.87361946192518" lon="-9.262139595699393"><ele>237.6</ele><time>2026-05-01T11:06:06Z</time></trkpt><trkpt lat="38.87369781475765" lon="-9.262167402221952"><ele>238.2</ele><time>2026-05-01T11:06:07Z</time></trkpt><trkpt lat="38.87379021341744" lon="-9.262201677231213"><ele>238.8</ele><time>2026-05-01T11:06:08Z</time></trkpt><trkpt lat="38.873886629161795" lon="-9.262243604179881"><ele>239.4</ele><time>2026-05-01T11:06:09Z</time></trkpt><trkpt lat="38.873982565431724" lon="-9.262292352523534"><ele>240.0</ele><time>2026-05-01T11:06:10Z</time></trkpt><trkpt lat="38.87407710102378" lon="-9.262347373691133"><ele>240.2</ele><time>2026-05-01T11:06:11Z</time></trkpt><trkpt lat="38.87416639080328" lon="-9.26241292403275"><ele>240.4</ele><time>2026-05-01T11:06:12Z</time></trkpt><trkpt lat="38.874250186113166" lon="-9.262481192763342"><ele>240.60000000000002</ele><time>2026-05-01T11:06:13Z</time></trkpt><trkpt lat="38.8743327602153" lon="-9.26255480539848"><ele>240.8</ele><time>2026-05-01T11:06:14Z</time></trkpt><trkpt lat="38.87441946208112" lon="-9.262632750241513"><ele>241.0</ele><time>2026-05-01T11:06:15Z</time></trkpt><trkpt lat="38.874504523720276" lon="-9.262712456616114"><ele>241.16666666666666</ele><time>2026-05-01T11:06:16Z</time></trkpt><trkpt lat="38.87458211661045" lon="-9.262782558064048"><ele>241.33333333333331</ele><time>2026-05-01T11:06:17Z</time></trkpt><trkpt lat="38.87465079093512" lon="-9.262845784711608"><ele>241.5</ele><time>2026-05-01T11:06:18Z</time></trkpt><trkpt lat="38.87471539021343" lon="-9.262898380737912"><ele>241.66666666666669</ele><time>2026-05-01T11:06:19Z</time></trkpt><trkpt lat="38.87477432456779" lon="-9.26294310957356"><ele>241.83333333333334</ele><time>2026-05-01T11:06:20Z</time></trkpt><trkpt lat="38.87483358279019" lon="-9.262975815043848"><ele>242.0</ele><time>2026-05-01T11:06:21Z</time></trkpt><trkpt lat="38.874897826643256" lon="-9.262998293563767"><ele>242.0</ele><time>2026-05-01T11:06:22Z</time></trkpt><trkpt lat="38.87501809777722" lon="-9.262927815771691"><ele>242.0</ele><time>2026-05-01T11:06:24Z</time></trkpt><trkpt lat="38.875104831028146" lon="-9.26287599968918"><ele>242.0</ele><time>2026-05-01T11:06:25Z</time></trkpt><trkpt lat="38.87520756779683" lon="-9.262857745201464"><ele>242.0</ele><time>2026-05-01T11:06:26Z</time></trkpt><trkpt lat="38.875293150817676" lon="-9.262860283410335"><ele>242.0</ele><time>2026-05-01T11:06:27Z</time></trkpt><trkpt lat="38.87537499467034" lon="-9.262892729592577"><ele>242.50000000000003</ele><time>2026-05-01T11:06:28Z</time></trkpt><trkpt lat="38.875452024757195" lon="-9.262913843445071"><ele>243.0</ele><time>2026-05-01T11:06:29Z</time></trkpt><trkpt lat="38.87552802908388" lon="-9.262941791340616"><ele>243.5</ele><time>2026-05-01T11:06:30Z</time></trkpt><trkpt lat="38.87560143944519" lon="-9.26297067207303"><ele>244.0</ele><time>2026-05-01T11:06:31Z</time></trkpt><trkpt lat="38.87567264272991" lon="-9.263005049175039"><ele>244.50000000000003</ele><time>2026-05-01T11:06:32Z</time></trkpt><trkpt lat="38.875733505647986" lon="-9.263032983125644"><ele>245.0</ele><time>2026-05-01T11:06:33Z</time></trkpt><trkpt lat="38.87585606672562" lon="-9.263085067083406"><ele>245.00000000000003</ele><time>2026-05-01T11:06:35Z</time></trkpt><trkpt lat="38.87595474540002" lon="-9.263119002193918"><ele>245.0</ele><time>2026-05-01T11:06:37Z</time></trkpt><trkpt lat="38.87602694718322" lon="-9.263141337221379"><ele>245.0</ele><time>2026-05-01T11:06:39Z</time></trkpt><trkpt lat="38.876091338798865" lon="-9.26316202433"><ele>245.0</ele><time>2026-05-01T11:06:42Z</time></trkpt><trkpt lat="38.87615888705884" lon="-9.263178065935211"><ele>245.00000000000003</ele><time>2026-05-01T11:06:51Z</time></trkpt><trkpt lat="38.876241559746624" lon="-9.263193803773706"><ele>245.0</ele><time>2026-05-01T11:07:06Z</time></trkpt><trkpt lat="38.87630456933647" lon="-9.263207267439208"><ele>245.0</ele><time>2026-05-01T11:07:07Z</time></trkpt><trkpt lat="38.876416177121655" lon="-9.263229685460066"><ele>245.0</ele><time>2026-05-01T11:07:09Z</time></trkpt><trkpt lat="38.87651198658249" lon="-9.263182392120251"><ele>245.0</ele><time>2026-05-01T11:07:11Z</time></trkpt><trkpt lat="38.87657594695405" lon="-9.263126730533708"><ele>245.0</ele><time>2026-05-01T11:07:12Z</time></trkpt><trkpt lat="38.87642461725704" lon="-9.262944120615217"><ele>245.33333333333334</ele><time>2026-05-01T11:07:13Z</time></trkpt><trkpt lat="38.87638620610978" lon="-9.262830031903919"><ele>245.66666666666669</ele><time>2026-05-01T11:07:14Z</time></trkpt><trkpt lat="38.87636097186539" lon="-9.262731771263432"><ele>246.0</ele><time>2026-05-01T11:07:15Z</time></trkpt><trkpt lat="38.876326402805546" lon="-9.262634962061146"><ele>246.33333333333331</ele><time>2026-05-01T11:07:16Z</time></trkpt><trkpt lat="38.87629416836307" lon="-9.262535400710671"><ele>246.66666666666666</ele><time>2026-05-01T11:07:17Z</time></trkpt><trkpt lat="38.87625457327178" lon="-9.262419402980607"><ele>247.0</ele><time>2026-05-01T11:07:18Z</time></trkpt><trkpt lat="38.876214695136326" lon="-9.26229949019205"><ele>247.8</ele><time>2026-05-01T11:07:19Z</time></trkpt><trkpt lat="38.87617248598734" lon="-9.262181068095153"><ele>248.6</ele><time>2026-05-01T11:07:20Z</time></trkpt><trkpt lat="38.8761185970287" lon="-9.262076624801411"><ele>249.40000000000003</ele><time>2026-05-01T11:07:21Z</time></trkpt><trkpt lat="38.87608118961815" lon="-9.261969403513653"><ele>250.20000000000002</ele><time>2026-05-01T11:07:22Z</time></trkpt><trkpt lat="38.876058848812875" lon="-9.261856673250424"><ele>251.0</ele><time>2026-05-01T11:07:23Z</time></trkpt><trkpt lat="38.87602042656348" lon="-9.261757785421981"><ele>251.0</ele><time>2026-05-01T11:07:24Z</time></trkpt><trkpt lat="38.87599173689531" lon="-9.261673903394716"><ele>251.00000000000003</ele><time>2026-05-01T11:07:25Z</time></trkpt><trkpt lat="38.87594650726014" lon="-9.261585673260724"><ele>251.00000000000003</ele><time>2026-05-01T11:07:27Z</time></trkpt><trkpt lat="38.87609643198865" lon="-9.261506562987643"><ele>251.0</ele><time>2026-05-01T11:07:28Z</time></trkpt><trkpt lat="38.87619263491051" lon="-9.261513862299601"><ele>251.0</ele><time>2026-05-01T11:07:29Z</time></trkpt><trkpt lat="38.876270625373415" lon="-9.261678403794136"><ele>251.0</ele><time>2026-05-01T11:07:30Z</time></trkpt><trkpt lat="38.876364133449925" lon="-9.261743936601025"><ele>251.0</ele><time>2026-05-01T11:07:31Z</time></trkpt><trkpt lat="38.87647561981797" lon="-9.261817070151316"><ele>251.0</ele><time>2026-05-01T11:07:32Z</time></trkpt><trkpt lat="38.87658886875955" lon="-9.261876552399986"><ele>251.0</ele><time>2026-05-01T11:07:33Z</time></trkpt><trkpt lat="38.876681640114526" lon="-9.261931887680442"><ele>251.0</ele><time>2026-05-01T11:07:34Z</time></trkpt><trkpt lat="38.876759862094566" lon="-9.261992483177947"><ele>251.00000000000003</ele><time>2026-05-01T11:07:35Z</time></trkpt><trkpt lat="38.87684077667524" lon="-9.262061672025018"><ele>251.00000000000003</ele><time>2026-05-01T11:07:36Z</time></trkpt><trkpt lat="38.8769187481118" lon="-9.262149186049543"><ele>251.0</ele><time>2026-05-01T11:07:37Z</time></trkpt><trkpt lat="38.87700104835809" lon="-9.26223762935005"><ele>251.0</ele><time>2026-05-01T11:07:38Z</time></trkpt><trkpt lat="38.87707538301626" lon="-9.262342376421275"><ele>250.75</ele><time>2026-05-01T11:07:39Z</time></trkpt><trkpt lat="38.877145709272384" lon="-9.262459106412523"><ele>250.5</ele><time>2026-05-01T11:07:40Z</time></trkpt><trkpt lat="38.87718948923666" lon="-9.26258529455507"><ele>250.25</ele><time>2026-05-01T11:07:41Z</time></trkpt><trkpt lat="38.877292611444275" lon="-9.262688629384144"><ele>250.0</ele><time>2026-05-01T11:07:42Z</time></trkpt><trkpt lat="38.87735773762085" lon="-9.262812689407246"><ele>250.0</ele><time>2026-05-01T11:07:43Z</time></trkpt><trkpt lat="38.87743316917486" lon="-9.26293528371451"><ele>250.0</ele><time>2026-05-01T11:07:44Z</time></trkpt><trkpt lat="38.87752720420158" lon="-9.263041103357564"><ele>250.0</ele><time>2026-05-01T11:07:45Z</time></trkpt><trkpt lat="38.87764073610855" lon="-9.263155990326638"><ele>250.0</ele><time>2026-05-01T11:07:46Z</time></trkpt><trkpt lat="38.87777453934908" lon="-9.263293176704638"><ele>250.33333333333331</ele><time>2026-05-01T11:07:47Z</time></trkpt><trkpt lat="38.877900182997735" lon="-9.263445491983331"><ele>250.66666666666669</ele><time>2026-05-01T11:07:48Z</time></trkpt><trkpt lat="38.878007554105935" lon="-9.263587525672081"><ele>251.0</ele><time>2026-05-01T11:07:49Z</time></trkpt><trkpt lat="38.87811013122149" lon="-9.263704744136744"><ele>251.0</ele><time>2026-05-01T11:07:50Z</time></trkpt><trkpt lat="38.878199972130666" lon="-9.26382038530388"><ele>251.0</ele><time>2026-05-01T11:07:51Z</time></trkpt><trkpt lat="38.87827778020237" lon="-9.263953501949379"><ele>251.0</ele><time>2026-05-01T11:07:52Z</time></trkpt><trkpt lat="38.87833144056818" lon="-9.26408758186454"><ele>251.0</ele><time>2026-05-01T11:07:53Z</time></trkpt><trkpt lat="38.878372944068985" lon="-9.264216300844206"><ele>251.4</ele><time>2026-05-01T11:07:54Z</time></trkpt><trkpt lat="38.87841527005939" lon="-9.264348888709371"><ele>251.8</ele><time>2026-05-01T11:07:55Z</time></trkpt><trkpt lat="38.87846797491129" lon="-9.264460129926361"><ele>252.20000000000002</ele><time>2026-05-01T11:07:56Z</time></trkpt><trkpt lat="38.87853885364138" lon="-9.264546431167748"><ele>252.60000000000002</ele><time>2026-05-01T11:07:57Z</time></trkpt><trkpt lat="38.87865390871205" lon="-9.26460965024585"><ele>253.0</ele><time>2026-05-01T11:07:58Z</time></trkpt><trkpt lat="38.87880086899414" lon="-9.264681667510484"><ele>253.0</ele><time>2026-05-01T11:07:59Z</time></trkpt><trkpt lat="38.87894605737339" lon="-9.264764406967544"><ele>253.0</ele><time>2026-05-01T11:08:00Z</time></trkpt><trkpt lat="38.879069697045594" lon="-9.264843603667348"><ele>253.0</ele><time>2026-05-01T11:08:01Z</time></trkpt><trkpt lat="38.87919482914235" lon="-9.264914507333737"><ele>253.0</ele><time>2026-05-01T11:08:02Z</time></trkpt><trkpt lat="38.87932122148522" lon="-9.26499368397919"><ele>252.75</ele><time>2026-05-01T11:08:03Z</time></trkpt><trkpt lat="38.87944745006391" lon="-9.265079323737641"><ele>252.5</ele><time>2026-05-01T11:08:04Z</time></trkpt><trkpt lat="38.879572361599365" lon="-9.265167298555182"><ele>252.25</ele><time>2026-05-01T11:08:05Z</time></trkpt><trkpt lat="38.87969563340067" lon="-9.265258795400822"><ele>252.0</ele><time>2026-05-01T11:08:06Z</time></trkpt><trkpt lat="38.87982406674833" lon="-9.265342107147225"><ele>252.0</ele><time>2026-05-01T11:08:07Z</time></trkpt><trkpt lat="38.87995655118204" lon="-9.265416770212997"><ele>252.0</ele><time>2026-05-01T11:08:08Z</time></trkpt><trkpt lat="38.88008499891484" lon="-9.265488867200116"><ele>252.0</ele><time>2026-05-01T11:08:09Z</time></trkpt><trkpt lat="38.88021514472168" lon="-9.26555920251921"><ele>252.0</ele><time>2026-05-01T11:08:10Z</time></trkpt><trkpt lat="38.88033952559873" lon="-9.265635250888355"><ele>252.0</ele><time>2026-05-01T11:08:11Z</time></trkpt><trkpt lat="38.88046158496579" lon="-9.265714046070155"><ele>252.0</ele><time>2026-05-01T11:08:12Z</time></trkpt><trkpt lat="38.880579910990704" lon="-9.265801824024582"><ele>252.0</ele><time>2026-05-01T11:08:13Z</time></trkpt><trkpt lat="38.880681304815404" lon="-9.265895416941257"><ele>252.0</ele><time>2026-05-01T11:08:14Z</time></trkpt><trkpt lat="38.88076865044174" lon="-9.26599696258887"><ele>252.0</ele><time>2026-05-01T11:08:15Z</time></trkpt><trkpt lat="38.88085536910996" lon="-9.266106632025597"><ele>252.0</ele><time>2026-05-01T11:08:16Z</time></trkpt><trkpt lat="38.88094128735969" lon="-9.266210689150395"><ele>252.0</ele><time>2026-05-01T11:08:17Z</time></trkpt><trkpt lat="38.88105142041599" lon="-9.26632412307705"><ele>252.0</ele><time>2026-05-01T11:08:18Z</time></trkpt><trkpt lat="38.88116513991712" lon="-9.266433293020405"><ele>255.33333333333331</ele><time>2026-05-01T11:08:19Z</time></trkpt><trkpt lat="38.88128984024292" lon="-9.266543079593522"><ele>258.66666666666663</ele><time>2026-05-01T11:08:20Z</time></trkpt><trkpt lat="38.88141972271484" lon="-9.26666196272728"><ele>262.0</ele><time>2026-05-01T11:08:21Z</time></trkpt><trkpt lat="38.881523352531424" lon="-9.266811636649306"><ele>262.0</ele><time>2026-05-01T11:08:22Z</time></trkpt><trkpt lat="38.88163643019148" lon="-9.2669439087798"><ele>262.0</ele><time>2026-05-01T11:08:23Z</time></trkpt><trkpt lat="38.88174337652976" lon="-9.267089077141296"><ele>262.0</ele><time>2026-05-01T11:08:24Z</time></trkpt><trkpt lat="38.8818768749036" lon="-9.267229962815703"><ele>262.3333333333333</ele><time>2026-05-01T11:08:25Z</time></trkpt><trkpt lat="38.88202868778462" lon="-9.267343526310697"><ele>262.6666666666667</ele><time>2026-05-01T11:08:26Z</time></trkpt><trkpt lat="38.8821502553117" lon="-9.267443213165544"><ele>263.0</ele><time>2026-05-01T11:08:27Z</time></trkpt><trkpt lat="38.8822512444253" lon="-9.267548918576637"><ele>263.0</ele><time>2026-05-01T11:08:28Z</time></trkpt><trkpt lat="38.882348180021815" lon="-9.267650363656601"><ele>263.0</ele><time>2026-05-01T11:08:29Z</time></trkpt><trkpt lat="38.882450333467965" lon="-9.26774620450172"><ele>263.0</ele><time>2026-05-01T11:08:30Z</time></trkpt><trkpt lat="38.88256635651369" lon="-9.267813060347532"><ele>263.0</ele><time>2026-05-01T11:08:31Z</time></trkpt><trkpt lat="38.88270051226977" lon="-9.267820268654875"><ele>262.8</ele><time>2026-05-01T11:08:32Z</time></trkpt><trkpt lat="38.882802332503495" lon="-9.267859511199223"><ele>262.6</ele><time>2026-05-01T11:08:33Z</time></trkpt><trkpt lat="38.882877460716166" lon="-9.267860687277942"><ele>262.4</ele><time>2026-05-01T11:08:34Z</time></trkpt><trkpt lat="38.88296356151683" lon="-9.26772204455163"><ele>262.2</ele><time>2026-05-01T11:08:36Z</time></trkpt><trkpt lat="38.88302085979489" lon="-9.267656919289964"><ele>262.0</ele><time>2026-05-01T11:08:37Z</time></trkpt><trkpt lat="38.88307786250087" lon="-9.267593710652749"><ele>262.0</ele><time>2026-05-01T11:08:38Z</time></trkpt><trkpt lat="38.88314600104025" lon="-9.26752153581989"><ele>262.0</ele><time>2026-05-01T11:08:39Z</time></trkpt><trkpt lat="38.883217791867864" lon="-9.267447218372094"><ele>262.0</ele><time>2026-05-01T11:08:40Z</time></trkpt><trkpt lat="38.88327564689491" lon="-9.267374342039492"><ele>262.0</ele><time>2026-05-01T11:08:41Z</time></trkpt><trkpt lat="38.88333221457674" lon="-9.267294896139287"><ele>262.0</ele><time>2026-05-01T11:08:42Z</time></trkpt><trkpt lat="38.883395711637284" lon="-9.267199508828083"><ele>262.0</ele><time>2026-05-01T11:08:43Z</time></trkpt><trkpt lat="38.88345633153983" lon="-9.267106136937606"><ele>261.0</ele><time>2026-05-01T11:08:44Z</time></trkpt><trkpt lat="38.883517727304756" lon="-9.267002797771784"><ele>260.0</ele><time>2026-05-01T11:08:45Z</time></trkpt><trkpt lat="38.88358439427376" lon="-9.26689300629847"><ele>259.0</ele><time>2026-05-01T11:08:46Z</time></trkpt><trkpt lat="38.88363297386324" lon="-9.266825033510203"><ele>258.0</ele><time>2026-05-01T11:08:47Z</time></trkpt><trkpt lat="38.883692255011894" lon="-9.26675471193099"><ele>257.0</ele><time>2026-05-01T11:08:48Z</time></trkpt><trkpt lat="38.883765325403076" lon="-9.26671655032014"><ele>256.0</ele><time>2026-05-01T11:08:49Z</time></trkpt><trkpt lat="38.88384226660335" lon="-9.266687414581613"><ele>256.0</ele><time>2026-05-01T11:08:50Z</time></trkpt><trkpt lat="38.8839333628823" lon="-9.266676357302892"><ele>256.0</ele><time>2026-05-01T11:08:51Z</time></trkpt><trkpt lat="38.884033847867485" lon="-9.26663314615793"><ele>256.0</ele><time>2026-05-01T11:08:52Z</time></trkpt><trkpt lat="38.884131000867235" lon="-9.266626442600783"><ele>256.0</ele><time>2026-05-01T11:08:53Z</time></trkpt><trkpt lat="38.884221713396585" lon="-9.266576247733347"><ele>256.0</ele><time>2026-05-01T11:08:54Z</time></trkpt><trkpt lat="38.8842988264578" lon="-9.266536070188192"><ele>256.0</ele><time>2026-05-01T11:08:55Z</time></trkpt><trkpt lat="38.88435179530835" lon="-9.266477248076262"><ele>256.0</ele><time>2026-05-01T11:08:56Z</time></trkpt><trkpt lat="38.884466290321406" lon="-9.266530817793603"><ele>256.0</ele><time>2026-05-01T11:08:57Z</time></trkpt><trkpt lat="38.88456464795877" lon="-9.266516684350089"><ele>256.0</ele><time>2026-05-01T11:08:58Z</time></trkpt><trkpt lat="38.88467002114142" lon="-9.26654692035864"><ele>256.0</ele><time>2026-05-01T11:08:59Z</time></trkpt><trkpt lat="38.88477360218613" lon="-9.26656188584811"><ele>256.0</ele><time>2026-05-01T11:09:00Z</time></trkpt><trkpt lat="38.884863375343926" lon="-9.266623876122983"><ele>256.0</ele><time>2026-05-01T11:09:01Z</time></trkpt><trkpt lat="38.884950188060984" lon="-9.266690715269615"><ele>256.0</ele><time>2026-05-01T11:09:02Z</time></trkpt><trkpt lat="38.88503337692231" lon="-9.266764847989798"><ele>256.0</ele><time>2026-05-01T11:09:03Z</time></trkpt><trkpt lat="38.88511960748596" lon="-9.266843453295122"><ele>256.0</ele><time>2026-05-01T11:09:04Z</time></trkpt><trkpt lat="38.88519978349737" lon="-9.266906930392654"><ele>256.40000000000003</ele><time>2026-05-01T11:09:05Z</time></trkpt><trkpt lat="38.88528134724962" lon="-9.266965144799515"><ele>256.8</ele><time>2026-05-01T11:09:06Z</time></trkpt><trkpt lat="38.88536139668477" lon="-9.267012350481961"><ele>257.20000000000005</ele><time>2026-05-01T11:09:07Z</time></trkpt><trkpt lat="38.885428331780886" lon="-9.267040396150444"><ele>257.6</ele><time>2026-05-01T11:09:08Z</time></trkpt><trkpt lat="38.88550704333864" lon="-9.267106030136624"><ele>258.0</ele><time>2026-05-01T11:09:10Z</time></trkpt><trkpt lat="38.88543096104167" lon="-9.26721861215132"><ele>258.0</ele><time>2026-05-01T11:09:23Z</time></trkpt><trkpt lat="38.885333582545655" lon="-9.267262549965631"><ele>258.0</ele><time>2026-05-01T11:09:24Z</time></trkpt><trkpt lat="38.885243001019745" lon="-9.267329538020263"><ele>258.0</ele><time>2026-05-01T11:09:25Z</time></trkpt><trkpt lat="38.88514574215128" lon="-9.267421806446174"><ele>258.0</ele><time>2026-05-01T11:09:26Z</time></trkpt><trkpt lat="38.88504672800252" lon="-9.267508408493281"><ele>258.0</ele><time>2026-05-01T11:09:27Z</time></trkpt><trkpt lat="38.884969921130484" lon="-9.267573063868918"><ele>258.8</ele><time>2026-05-01T11:09:28Z</time></trkpt><trkpt lat="38.88489867830373" lon="-9.267635792386999"><ele>259.6</ele><time>2026-05-01T11:09:29Z</time></trkpt><trkpt lat="38.88483128016841" lon="-9.267711426045855"><ele>260.4</ele><time>2026-05-01T11:09:30Z</time></trkpt><trkpt lat="38.88476106525185" lon="-9.267802153248228"><ele>261.2</ele><time>2026-05-01T11:09:31Z</time></trkpt><trkpt lat="38.884685432937786" lon="-9.267920642050465"><ele>262.0</ele><time>2026-05-01T11:09:32Z</time></trkpt><trkpt lat="38.88461523189699" lon="-9.268037938120598"><ele>262.0</ele><time>2026-05-01T11:09:33Z</time></trkpt><trkpt lat="38.884536128162466" lon="-9.26815542060878"><ele>262.0</ele><time>2026-05-01T11:09:34Z</time></trkpt><trkpt lat="38.88445149856514" lon="-9.268253523508053"><ele>262.0</ele><time>2026-05-01T11:09:35Z</time></trkpt><trkpt lat="38.88436952332582" lon="-9.268330162620899"><ele>262.0</ele><time>2026-05-01T11:09:36Z</time></trkpt><trkpt lat="38.88429347846247" lon="-9.268386193911612"><ele>262.0</ele><time>2026-05-01T11:09:37Z</time></trkpt><trkpt lat="38.88421567329413" lon="-9.268433609808927"><ele>262.0</ele><time>2026-05-01T11:09:38Z</time></trkpt><trkpt lat="38.88412867764384" lon="-9.268453586615097"><ele>262.0</ele><time>2026-05-01T11:09:39Z</time></trkpt><trkpt lat="38.88402588974824" lon="-9.26845186849451"><ele>262.0</ele><time>2026-05-01T11:09:40Z</time></trkpt><trkpt lat="38.883897184586566" lon="-9.268372633732083"><ele>262.0</ele><time>2026-05-01T11:09:41Z</time></trkpt><trkpt lat="38.88377889293871" lon="-9.26827334994855"><ele>262.0</ele><time>2026-05-01T11:09:42Z</time></trkpt><trkpt lat="38.88366449621" lon="-9.268197287116902"><ele>262.0</ele><time>2026-05-01T11:09:43Z</time></trkpt><trkpt lat="38.88354448753225" lon="-9.268127754578437"><ele>262.0</ele><time>2026-05-01T11:09:44Z</time></trkpt><trkpt lat="38.883419210360955" lon="-9.268062571030965"><ele>262.0</ele><time>2026-05-01T11:09:45Z</time></trkpt><trkpt lat="38.88329085885474" lon="-9.268005738721847"><ele>262.0</ele><time>2026-05-01T11:09:46Z</time></trkpt><trkpt lat="38.883175493537095" lon="-9.267983812191797"><ele>262.0</ele><time>2026-05-01T11:09:47Z</time></trkpt><trkpt lat="38.88303573369842" lon="-9.267961084522845"><ele>262.0</ele><time>2026-05-01T11:09:48Z</time></trkpt><trkpt lat="38.88289248910553" lon="-9.26792495997152"><ele>262.0</ele><time>2026-05-01T11:09:49Z</time></trkpt><trkpt lat="38.882764427571416" lon="-9.267884911214034"><ele>262.0</ele><time>2026-05-01T11:09:50Z</time></trkpt><trkpt lat="38.882662628317334" lon="-9.267857331399126"><ele>262.0</ele><time>2026-05-01T11:09:51Z</time></trkpt><trkpt lat="38.882584754010786" lon="-9.267839974186861"><ele>262.0</ele><time>2026-05-01T11:09:52Z</time></trkpt><trkpt lat="38.88247479474239" lon="-9.267795732079442"><ele>262.0</ele><time>2026-05-01T11:09:54Z</time></trkpt><trkpt lat="38.88238375401377" lon="-9.267790513923183"><ele>262.0</ele><time>2026-05-01T11:09:56Z</time></trkpt><trkpt lat="38.88247397400253" lon="-9.267834482117815"><ele>262.0</ele><time>2026-05-01T11:10:00Z</time></trkpt><trkpt lat="38.882612381367245" lon="-9.267798713376928"><ele>262.0</ele><time>2026-05-01T11:10:01Z</time></trkpt><trkpt lat="38.88271774409905" lon="-9.267836320513792"><ele>262.0</ele><time>2026-05-01T11:10:02Z</time></trkpt><trkpt lat="38.88283759865923" lon="-9.267867463165187"><ele>262.0</ele><time>2026-05-01T11:10:03Z</time></trkpt><trkpt lat="38.88297621975276" lon="-9.267896554453861"><ele>262.0</ele><time>2026-05-01T11:10:04Z</time></trkpt><trkpt lat="38.883106617884216" lon="-9.267924952337804"><ele>262.0</ele><time>2026-05-01T11:10:05Z</time></trkpt><trkpt lat="38.88322806623334" lon="-9.267947187157072"><ele>262.0</ele><time>2026-05-01T11:10:06Z</time></trkpt><trkpt lat="38.88334221580437" lon="-9.267973363280321"><ele>262.0</ele><time>2026-05-01T11:10:07Z</time></trkpt><trkpt lat="38.88346451425577" lon="-9.268021091891525"><ele>262.0</ele><time>2026-05-01T11:10:08Z</time></trkpt><trkpt lat="38.883588901810086" lon="-9.26808497728975"><ele>262.0</ele><time>2026-05-01T11:10:09Z</time></trkpt><trkpt lat="38.883715518396286" lon="-9.268159995532994"><ele>262.0</ele><time>2026-05-01T11:10:10Z</time></trkpt><trkpt lat="38.883824629002234" lon="-9.268235767558147"><ele>262.0</ele><time>2026-05-01T11:10:11Z</time></trkpt><trkpt lat="38.88392053160996" lon="-9.268307903228648"><ele>262.0</ele><time>2026-05-01T11:10:12Z</time></trkpt><trkpt lat="38.88401091481436" lon="-9.268371628974782"><ele>262.0</ele><time>2026-05-01T11:10:13Z</time></trkpt><trkpt lat="38.88407713563873" lon="-9.268418781224495"><ele>262.0</ele><time>2026-05-01T11:10:14Z</time></trkpt><trkpt lat="38.884134147418195" lon="-9.268457561329367"><ele>262.0</ele><time>2026-05-01T11:10:15Z</time></trkpt><trkpt lat="38.88417518518773" lon="-9.268520832921103"><ele>262.0</ele><time>2026-05-01T11:10:16Z</time></trkpt><trkpt lat="38.884180868433525" lon="-9.268611028159356"><ele>262.0</ele><time>2026-05-01T11:10:17Z</time></trkpt><trkpt lat="38.88415255088733" lon="-9.268739948470015"><ele>262.0</ele><time>2026-05-01T11:10:18Z</time></trkpt><trkpt lat="38.884126641867184" lon="-9.26888062741464"><ele>262.0</ele><time>2026-05-01T11:10:19Z</time></trkpt><trkpt lat="38.88413546249085" lon="-9.268996317809643"><ele>262.0</ele><time>2026-05-01T11:10:20Z</time></trkpt><trkpt lat="38.8841786167768" lon="-9.269093470784048"><ele>262.0</ele><time>2026-05-01T11:10:21Z</time></trkpt><trkpt lat="38.88424182714402" lon="-9.26921379540009"><ele>262.0</ele><time>2026-05-01T11:10:22Z</time></trkpt><trkpt lat="38.88429814096213" lon="-9.269347724895264"><ele>262.2</ele><time>2026-05-01T11:10:23Z</time></trkpt><trkpt lat="38.88435743923614" lon="-9.26945778214157"><ele>262.4</ele><time>2026-05-01T11:10:24Z</time></trkpt><trkpt lat="38.88439793495381" lon="-9.269560719351855"><ele>262.6</ele><time>2026-05-01T11:10:25Z</time></trkpt><trkpt lat="38.88443231731108" lon="-9.26966143661672"><ele>262.8</ele><time>2026-05-01T11:10:26Z</time></trkpt><trkpt lat="38.88443893221493" lon="-9.269781643776687"><ele>263.0</ele><time>2026-05-01T11:10:27Z</time></trkpt><trkpt lat="38.884407235551166" lon="-9.269915051778371"><ele>263.0</ele><time>2026-05-01T11:10:28Z</time></trkpt><trkpt lat="38.88437544168446" lon="-9.270047982247101"><ele>263.0</ele><time>2026-05-01T11:10:29Z</time></trkpt><trkpt lat="38.8843544850118" lon="-9.270179142879044"><ele>263.0</ele><time>2026-05-01T11:10:30Z</time></trkpt><trkpt lat="38.88430790173306" lon="-9.270322719694898"><ele>263.0</ele><time>2026-05-01T11:10:31Z</time></trkpt><trkpt lat="38.88425009402687" lon="-9.270455521945143"><ele>262.83333333333337</ele><time>2026-05-01T11:10:32Z</time></trkpt><trkpt lat="38.88421412068053" lon="-9.270570028280423"><ele>262.6666666666667</ele><time>2026-05-01T11:10:33Z</time></trkpt><trkpt lat="38.884203143920026" lon="-9.270673971241695"><ele>262.5</ele><time>2026-05-01T11:10:34Z</time></trkpt><trkpt lat="38.884200663626345" lon="-9.27076126872496"><ele>262.3333333333333</ele><time>2026-05-01T11:10:35Z</time></trkpt><trkpt lat="38.88418871319889" lon="-9.27086332006951"><ele>262.16666666666663</ele><time>2026-05-01T11:10:36Z</time></trkpt><trkpt lat="38.88418536096019" lon="-9.270965559474705"><ele>262.0</ele><time>2026-05-01T11:10:37Z</time></trkpt><trkpt lat="38.88417682293549" lon="-9.271055362579594"><ele>262.0</ele><time>2026-05-01T11:10:38Z</time></trkpt><trkpt lat="38.88418640048113" lon="-9.27114127105326"><ele>262.0</ele><time>2026-05-01T11:10:43Z</time></trkpt><trkpt lat="38.88417908781962" lon="-9.271290862257239"><ele>262.0</ele><time>2026-05-01T11:10:50Z</time></trkpt><trkpt lat="38.88414408719709" lon="-9.271419451660044"><ele>262.0</ele><time>2026-05-01T11:10:52Z</time></trkpt><trkpt lat="38.88410024791211" lon="-9.271542990100041"><ele>262.0</ele><time>2026-05-01T11:10:54Z</time></trkpt><trkpt lat="38.884058971709166" lon="-9.271641721344217"><ele>262.0</ele><time>2026-05-01T11:10:56Z</time></trkpt><trkpt lat="38.88401854160445" lon="-9.271720951368847"><ele>262.0</ele><time>2026-05-01T11:10:58Z</time></trkpt><trkpt lat="38.883961731149505" lon="-9.271806271755985"><ele>262.0</ele><time>2026-05-01T11:11:00Z</time></trkpt><trkpt lat="38.883880027055454" lon="-9.271897833346651"><ele>262.0</ele><time>2026-05-01T11:11:02Z</time></trkpt><trkpt lat="38.88380294375417" lon="-9.27199929446204"><ele>262.0</ele><time>2026-05-01T11:11:04Z</time></trkpt><trkpt lat="38.88373254960354" lon="-9.272087752911954"><ele>262.0</ele><time>2026-05-01T11:11:06Z</time></trkpt><trkpt lat="38.88368204611667" lon="-9.272181806903115"><ele>262.0</ele><time>2026-05-01T11:11:08Z</time></trkpt><trkpt lat="38.88363522152733" lon="-9.272315748390376"><ele>262.0</ele><time>2026-05-01T11:11:10Z</time></trkpt><trkpt lat="38.883603459121225" lon="-9.27243174443269"><ele>262.0</ele><time>2026-05-01T11:11:12Z</time></trkpt><trkpt lat="38.88356626990899" lon="-9.272514700321741"><ele>262.0</ele><time>2026-05-01T11:11:14Z</time></trkpt><trkpt lat="38.88351529441621" lon="-9.272595640883655"><ele>261.6</ele><time>2026-05-01T11:11:17Z</time></trkpt><trkpt lat="38.8834405331676" lon="-9.272669883411526"><ele>261.2</ele><time>2026-05-01T11:11:31Z</time></trkpt><trkpt lat="38.88336369618474" lon="-9.272757206312953"><ele>260.8</ele><time>2026-05-01T11:11:33Z</time></trkpt><trkpt lat="38.883278199409425" lon="-9.272825913234495"><ele>260.4</ele><time>2026-05-01T11:11:35Z</time></trkpt><trkpt lat="38.88320737565611" lon="-9.272886874653462"><ele>260.0</ele><time>2026-05-01T11:11:37Z</time></trkpt><trkpt lat="38.883149311159684" lon="-9.272939357930891"><ele>260.0</ele><time>2026-05-01T11:11:39Z</time></trkpt><trkpt lat="38.88308177860271" lon="-9.27301025856565"><ele>260.0</ele><time>2026-05-01T11:11:42Z</time></trkpt><trkpt lat="38.88304216040775" lon="-9.273073455311373"><ele>260.0</ele><time>2026-05-01T11:11:44Z</time></trkpt><trkpt lat="38.88300823596857" lon="-9.273189361411294"><ele>260.0</ele><time>2026-05-01T11:11:47Z</time></trkpt><trkpt lat="38.882988774920086" lon="-9.273322129180048"><ele>260.0</ele><time>2026-05-01T11:11:49Z</time></trkpt><trkpt lat="38.88295651722906" lon="-9.273448221267637"><ele>260.6</ele><time>2026-05-01T11:11:51Z</time></trkpt><trkpt lat="38.882918937466265" lon="-9.27356829964149"><ele>261.2</ele><time>2026-05-01T11:11:53Z</time></trkpt><trkpt lat="38.882899590550664" lon="-9.273704871459856"><ele>261.8</ele><time>2026-05-01T11:11:55Z</time></trkpt><trkpt lat="38.882885268445726" lon="-9.273832770214295"><ele>262.4</ele><time>2026-05-01T11:11:57Z</time></trkpt><trkpt lat="38.88286328295201" lon="-9.273944261497649"><ele>263.0</ele><time>2026-05-01T11:11:59Z</time></trkpt><trkpt lat="38.882840112754025" lon="-9.274041616759469"><ele>263.33333333333337</ele><time>2026-05-01T11:12:01Z</time></trkpt><trkpt lat="38.88281328192404" lon="-9.274149913555606"><ele>263.6666666666667</ele><time>2026-05-01T11:12:03Z</time></trkpt><trkpt lat="38.88274617624325" lon="-9.274177365472411"><ele>264.0</ele><time>2026-05-01T11:12:05Z</time></trkpt><trkpt lat="38.88264937081648" lon="-9.274209176751139"><ele>264.3333333333333</ele><time>2026-05-01T11:12:07Z</time></trkpt><trkpt lat="38.88258178509233" lon="-9.274246769358351"><ele>264.66666666666663</ele><time>2026-05-01T11:12:08Z</time></trkpt><trkpt lat="38.88250785405967" lon="-9.274270420928145"><ele>265.0</ele><time>2026-05-01T11:12:09Z</time></trkpt><trkpt lat="38.882436337086446" lon="-9.274291730858204"><ele>262.8333333333333</ele><time>2026-05-01T11:12:10Z</time></trkpt><trkpt lat="38.88236469410323" lon="-9.274312446904814"><ele>260.66666666666663</ele><time>2026-05-01T11:12:11Z</time></trkpt><trkpt lat="38.88228721111675" lon="-9.274314031340147"><ele>258.5</ele><time>2026-05-01T11:12:12Z</time></trkpt><trkpt lat="38.88221149155611" lon="-9.27433573091493"><ele>256.3333333333333</ele><time>2026-05-01T11:12:13Z</time></trkpt><trkpt lat="38.88213196306671" lon="-9.274358310656934"><ele>254.16666666666666</ele><time>2026-05-01T11:12:14Z</time></trkpt><trkpt lat="38.882049139227" lon="-9.27438104959885"><ele>252.0</ele><time>2026-05-01T11:12:15Z</time></trkpt><trkpt lat="38.881955102479886" lon="-9.274403619904595"><ele>252.0</ele><time>2026-05-01T11:12:16Z</time></trkpt><trkpt lat="38.881855093483836" lon="-9.274429391879984"><ele>252.0</ele><time>2026-05-01T11:12:17Z</time></trkpt><trkpt lat="38.88175529758882" lon="-9.274453848865498"><ele>252.0</ele><time>2026-05-01T11:12:18Z</time></trkpt><trkpt lat="38.881658842227736" lon="-9.274475264708721"><ele>252.0</ele><time>2026-05-01T11:12:19Z</time></trkpt><trkpt lat="38.881564210457626" lon="-9.274493898191869"><ele>252.0</ele><time>2026-05-01T11:12:20Z</time></trkpt><trkpt lat="38.88147380184828" lon="-9.274537891370702"><ele>250.6</ele><time>2026-05-01T11:12:21Z</time></trkpt><trkpt lat="38.88138219738852" lon="-9.27456465726869"><ele>249.2</ele><time>2026-05-01T11:12:22Z</time></trkpt><trkpt lat="38.88128960399309" lon="-9.27456702283052"><ele>247.8</ele><time>2026-05-01T11:12:23Z</time></trkpt><trkpt lat="38.88121564521555" lon="-9.274585079166087"><ele>246.4</ele><time>2026-05-01T11:12:24Z</time></trkpt><trkpt lat="38.88111707237879" lon="-9.274604709880277"><ele>245.0</ele><time>2026-05-01T11:12:26Z</time></trkpt><trkpt lat="38.88105795152499" lon="-9.274729462191527"><ele>245.75</ele><time>2026-05-01T11:12:27Z</time></trkpt><trkpt lat="38.880998306114165" lon="-9.274885221392475"><ele>246.5</ele><time>2026-05-01T11:12:28Z</time></trkpt><trkpt lat="38.880920452504995" lon="-9.275023297835467"><ele>247.25</ele><time>2026-05-01T11:12:29Z</time></trkpt><trkpt lat="38.880816839923725" lon="-9.275143431442569"><ele>248.0</ele><time>2026-05-01T11:12:30Z</time></trkpt><trkpt lat="38.880722815016306" lon="-9.275250130453733"><ele>245.0</ele><time>2026-05-01T11:12:31Z</time></trkpt><trkpt lat="38.88064738316265" lon="-9.275378681951144"><ele>242.0</ele><time>2026-05-01T11:12:32Z</time></trkpt><trkpt lat="38.88058304954094" lon="-9.27553498736444"><ele>239.0</ele><time>2026-05-01T11:12:33Z</time></trkpt><trkpt lat="38.880526195437575" lon="-9.275686677074582"><ele>236.0</ele><time>2026-05-01T11:12:34Z</time></trkpt><trkpt lat="38.88044188635715" lon="-9.275797771754581"><ele>235.5</ele><time>2026-05-01T11:12:35Z</time></trkpt><trkpt lat="38.880325411553365" lon="-9.275879599314244"><ele>235.0</ele><time>2026-05-01T11:12:36Z</time></trkpt><trkpt lat="38.88019467270279" lon="-9.275940173142507"><ele>234.5</ele><time>2026-05-01T11:12:37Z</time></trkpt><trkpt lat="38.88007007232543" lon="-9.275998000016308"><ele>234.0</ele><time>2026-05-01T11:12:38Z</time></trkpt><trkpt lat="38.879961457057234" lon="-9.27607743191196"><ele>232.25</ele><time>2026-05-01T11:12:39Z</time></trkpt><trkpt lat="38.87985902576791" lon="-9.276179254927492"><ele>230.5</ele><time>2026-05-01T11:12:40Z</time></trkpt><trkpt lat="38.87975839314398" lon="-9.276285022192049"><ele>228.75</ele><time>2026-05-01T11:12:41Z</time></trkpt><trkpt lat="38.87967432662992" lon="-9.276369563288268"><ele>227.0</ele><time>2026-05-01T11:12:42Z</time></trkpt><trkpt lat="38.879597102282204" lon="-9.276424919484157"><ele>226.0</ele><time>2026-05-01T11:12:43Z</time></trkpt><trkpt lat="38.87951563482447" lon="-9.276458851796674"><ele>225.0</ele><time>2026-05-01T11:12:44Z</time></trkpt><trkpt lat="38.87943855472762" lon="-9.276461521317335"><ele>224.0</ele><time>2026-05-01T11:12:45Z</time></trkpt><trkpt lat="38.87934453513942" lon="-9.276490909496662"><ele>223.0</ele><time>2026-05-01T11:12:47Z</time></trkpt><trkpt lat="38.87928519865137" lon="-9.27665179910055"><ele>222.0</ele><time>2026-05-01T11:12:49Z</time></trkpt><trkpt lat="38.879254992719645" lon="-9.276765441778679"><ele>221.75</ele><time>2026-05-01T11:12:50Z</time></trkpt><trkpt lat="38.879200002439376" lon="-9.276890475873637"><ele>221.5</ele><time>2026-05-01T11:12:51Z</time></trkpt><trkpt lat="38.879131954760055" lon="-9.277025672994915"><ele>221.25</ele><time>2026-05-01T11:12:52Z</time></trkpt><trkpt lat="38.87906673474733" lon="-9.277150773275388"><ele>221.0</ele><time>2026-05-01T11:12:53Z</time></trkpt><trkpt lat="38.87900189120583" lon="-9.277267169756241"><ele>220.5</ele><time>2026-05-01T11:12:54Z</time></trkpt><trkpt lat="38.878940055209455" lon="-9.277389332981947"><ele>220.0</ele><time>2026-05-01T11:12:55Z</time></trkpt><trkpt lat="38.87887683110993" lon="-9.277513482790413"><ele>219.5</ele><time>2026-05-01T11:12:56Z</time></trkpt><trkpt lat="38.87880839166275" lon="-9.277645644492464"><ele>219.0</ele><time>2026-05-01T11:12:57Z</time></trkpt><trkpt lat="38.878735222203964" lon="-9.277778588462073"><ele>219.0</ele><time>2026-05-01T11:12:58Z</time></trkpt><trkpt lat="38.87866463240223" lon="-9.277903070313734"><ele>218.99999999999997</ele><time>2026-05-01T11:12:59Z</time></trkpt><trkpt lat="38.878598466870876" lon="-9.278007219129314"><ele>218.99999999999997</ele><time>2026-05-01T11:13:00Z</time></trkpt><trkpt lat="38.87855423911389" lon="-9.278103339464032"><ele>219.0</ele><time>2026-05-01T11:13:01Z</time></trkpt><trkpt lat="38.878520461741196" lon="-9.278197042822406"><ele>219.0</ele><time>2026-05-01T11:13:02Z</time></trkpt><trkpt lat="38.878451807850986" lon="-9.2783175903321"><ele>218.83333333333334</ele><time>2026-05-01T11:13:04Z</time></trkpt><trkpt lat="38.87838379160745" lon="-9.27836296324642"><ele>218.66666666666669</ele><time>2026-05-01T11:13:06Z</time></trkpt><trkpt lat="38.878320985087626" lon="-9.27835309431812"><ele>218.5</ele><time>2026-05-01T11:13:08Z</time></trkpt><trkpt lat="38.87828290558729" lon="-9.27828291181492"><ele>218.33333333333334</ele><time>2026-05-01T11:15:25Z</time></trkpt><trkpt lat="38.87831160373802" lon="-9.278358193607973"><ele>218.16666666666669</ele><time>2026-05-01T11:26:12Z</time></trkpt><trkpt lat="38.87821409169766" lon="-9.278285446349543"><ele>218.0</ele><time>2026-05-01T11:27:57Z</time></trkpt><trkpt lat="38.87810871776204" lon="-9.278256872971516"><ele>218.0</ele><time>2026-05-01T11:27:59Z</time></trkpt><trkpt lat="38.87799652702723" lon="-9.278235037539686"><ele>218.0</ele><time>2026-05-01T11:28:01Z</time></trkpt><trkpt lat="38.87790749830691" lon="-9.278247610629142"><ele>218.0</ele><time>2026-05-01T11:28:03Z</time></trkpt><trkpt lat="38.87784322157548" lon="-9.278208568992492"><ele>218.0</ele><time>2026-05-01T11:28:05Z</time></trkpt><trkpt lat="38.877745028992614" lon="-9.2781785652753"><ele>218.0</ele><time>2026-05-01T11:28:30Z</time></trkpt><trkpt lat="38.87764937169066" lon="-9.27810141493027"><ele>218.66666666666669</ele><time>2026-05-01T11:28:32Z</time></trkpt><trkpt lat="38.87779065777536" lon="-9.277923577267423"><ele>219.33333333333331</ele><time>2026-05-01T11:28:35Z</time></trkpt><trkpt lat="38.87787793252684" lon="-9.277851412215938"><ele>220.0</ele><time>2026-05-01T11:28:36Z</time></trkpt><trkpt lat="38.877985289979" lon="-9.277696413028597"><ele>220.0</ele><time>2026-05-01T11:28:37Z</time></trkpt><trkpt lat="38.878078908843676" lon="-9.277593662290508"><ele>220.0</ele><time>2026-05-01T11:28:38Z</time></trkpt><trkpt lat="38.8781632665077" lon="-9.277543855663625"><ele>220.0</ele><time>2026-05-01T11:28:39Z</time></trkpt><trkpt lat="38.87823762876097" lon="-9.277482688462854"><ele>220.0</ele><time>2026-05-01T11:28:40Z</time></trkpt><trkpt lat="38.87834545815634" lon="-9.277474465147554"><ele>220.0</ele><time>2026-05-01T11:28:41Z</time></trkpt><trkpt lat="38.87844011074442" lon="-9.27747921376741"><ele>219.83333333333331</ele><time>2026-05-01T11:28:42Z</time></trkpt><trkpt lat="38.87852842682214" lon="-9.27755980469808"><ele>219.66666666666666</ele><time>2026-05-01T11:28:43Z</time></trkpt><trkpt lat="38.878586756603475" lon="-9.277631093324828"><ele>219.5</ele><time>2026-05-01T11:28:44Z</time></trkpt><trkpt lat="38.87863392012394" lon="-9.277688244290044"><ele>219.33333333333331</ele><time>2026-05-01T11:28:45Z</time></trkpt><trkpt lat="38.87872083305548" lon="-9.277702975694528"><ele>219.16666666666666</ele><time>2026-05-01T11:28:47Z</time></trkpt><trkpt lat="38.878773218702364" lon="-9.27762721869227"><ele>219.0</ele><time>2026-05-01T11:28:48Z</time></trkpt><trkpt lat="38.87883524954963" lon="-9.277495443557513"><ele>219.0</ele><time>2026-05-01T11:28:49Z</time></trkpt><trkpt lat="38.87891801110425" lon="-9.277324181095116"><ele>219.0</ele><time>2026-05-01T11:28:50Z</time></trkpt><trkpt lat="38.879025021495586" lon="-9.27712988912978"><ele>219.0</ele><time>2026-05-01T11:28:51Z</time></trkpt><trkpt lat="38.87913363729645" lon="-9.276931128988654"><ele>219.5</ele><time>2026-05-01T11:28:52Z</time></trkpt><trkpt lat="38.879214597994455" lon="-9.276776080862579"><ele>220.0</ele><time>2026-05-01T11:28:53Z</time></trkpt><trkpt lat="38.87923647945162" lon="-9.276633801416539"><ele>220.5</ele><time>2026-05-01T11:28:54Z</time></trkpt><trkpt lat="38.87925227079698" lon="-9.276508131559424"><ele>221.0</ele><time>2026-05-01T11:28:55Z</time></trkpt><trkpt lat="38.8792163154985" lon="-9.276386791430081"><ele>222.0</ele><time>2026-05-01T11:28:56Z</time></trkpt><trkpt lat="38.87915579307373" lon="-9.276270084310068"><ele>223.0</ele><time>2026-05-01T11:28:57Z</time></trkpt><trkpt lat="38.879051779293356" lon="-9.27619588447218"><ele>224.0</ele><time>2026-05-01T11:28:58Z</time></trkpt><trkpt lat="38.8789054543142" lon="-9.276057254093143"><ele>225.0</ele><time>2026-05-01T11:28:59Z</time></trkpt><trkpt lat="38.87874255925833" lon="-9.275903765078047"><ele>225.0</ele><time>2026-05-01T11:29:00Z</time></trkpt><trkpt lat="38.878595113621884" lon="-9.275756961840464"><ele>225.0</ele><time>2026-05-01T11:29:01Z</time></trkpt><trkpt lat="38.87847914549816" lon="-9.275611389296973"><ele>225.0</ele><time>2026-05-01T11:29:02Z</time></trkpt><trkpt lat="38.878394084695934" lon="-9.275427932198035"><ele>225.66666666666669</ele><time>2026-05-01T11:29:03Z</time></trkpt><trkpt lat="38.87833026612164" lon="-9.27521049031717"><ele>226.33333333333334</ele><time>2026-05-01T11:29:04Z</time></trkpt><trkpt lat="38.87829254281296" lon="-9.274971103281215"><ele>227.0</ele><time>2026-05-01T11:29:05Z</time></trkpt><trkpt lat="38.87828618904708" lon="-9.274717645427954"><ele>227.66666666666669</ele><time>2026-05-01T11:29:06Z</time></trkpt><trkpt lat="38.87830281207366" lon="-9.274434432113118"><ele>228.33333333333331</ele><time>2026-05-01T11:29:07Z</time></trkpt><trkpt lat="38.878327199905826" lon="-9.274145735417207"><ele>229.0</ele><time>2026-05-01T11:29:08Z</time></trkpt><trkpt lat="38.87831791543625" lon="-9.273910015693911"><ele>229.33333333333331</ele><time>2026-05-01T11:29:09Z</time></trkpt><trkpt lat="38.878260099676886" lon="-9.273679712151147"><ele>229.66666666666669</ele><time>2026-05-01T11:29:10Z</time></trkpt><trkpt lat="38.87817579597829" lon="-9.273430860613455"><ele>230.0</ele><time>2026-05-01T11:29:11Z</time></trkpt><trkpt lat="38.87806197530727" lon="-9.27317217766458"><ele>230.5</ele><time>2026-05-01T11:29:12Z</time></trkpt><trkpt lat="38.87793356999059" lon="-9.27289728688577"><ele>231.0</ele><time>2026-05-01T11:29:13Z</time></trkpt><trkpt lat="38.87780423703397" lon="-9.27262632394397"><ele>231.0</ele><time>2026-05-01T11:29:14Z</time></trkpt><trkpt lat="38.877683486360205" lon="-9.272394578014547"><ele>231.0</ele><time>2026-05-01T11:29:15Z</time></trkpt><trkpt lat="38.8775900344804" lon="-9.272175666414753"><ele>231.0</ele><time>2026-05-01T11:29:16Z</time></trkpt><trkpt lat="38.87752211933487" lon="-9.271946676092874"><ele>232.66666666666669</ele><time>2026-05-01T11:29:17Z</time></trkpt><trkpt lat="38.87744392715306" lon="-9.27169241080665"><ele>234.33333333333334</ele><time>2026-05-01T11:29:18Z</time></trkpt><trkpt lat="38.87739429705628" lon="-9.271397717700353"><ele>236.0</ele><time>2026-05-01T11:29:19Z</time></trkpt><trkpt lat="38.87735800988863" lon="-9.271084570166837"><ele>236.66666666666669</ele><time>2026-05-01T11:29:20Z</time></trkpt><trkpt lat="38.877319902247734" lon="-9.27079535997273"><ele>237.33333333333331</ele><time>2026-05-01T11:29:21Z</time></trkpt><trkpt lat="38.87729608650914" lon="-9.27052902614527"><ele>238.0</ele><time>2026-05-01T11:29:22Z</time></trkpt><trkpt lat="38.87730008823495" lon="-9.270298955446998"><ele>238.0</ele><time>2026-05-01T11:29:23Z</time></trkpt><trkpt lat="38.877280058943505" lon="-9.270091002752595"><ele>238.0</ele><time>2026-05-01T11:29:24Z</time></trkpt><trkpt lat="38.87726629876355" lon="-9.269912907334291"><ele>238.0</ele><time>2026-05-01T11:29:25Z</time></trkpt><trkpt lat="38.87725536777561" lon="-9.269747174339965"><ele>238.0</ele><time>2026-05-01T11:29:26Z</time></trkpt><trkpt lat="38.87724563761975" lon="-9.269603366752127"><ele>238.49999999999997</ele><time>2026-05-01T11:29:27Z</time></trkpt><trkpt lat="38.87720535391579" lon="-9.26947429885483"><ele>239.0</ele><time>2026-05-01T11:29:28Z</time></trkpt><trkpt lat="38.87719371849522" lon="-9.269344360751202"><ele>239.5</ele><time>2026-05-01T11:29:29Z</time></trkpt><trkpt lat="38.877184279443085" lon="-9.26923835050899"><ele>240.0</ele><time>2026-05-01T11:29:30Z</time></trkpt><trkpt lat="38.877176350687044" lon="-9.269148392175467"><ele>240.49999999999997</ele><time>2026-05-01T11:29:31Z</time></trkpt><trkpt lat="38.877167721773965" lon="-9.269050489933091"><ele>241.0</ele><time>2026-05-01T11:29:33Z</time></trkpt><trkpt lat="38.87733349638694" lon="-9.269062611989067"><ele>241.0</ele><time>2026-05-01T11:29:35Z</time></trkpt><trkpt lat="38.877367170875765" lon="-9.269139193506948"><ele>241.00000000000003</ele><time>2026-05-01T11:29:37Z</time></trkpt><trkpt lat="38.877354619856426" lon="-9.269242245120802"><ele>241.0</ele><time>2026-05-01T11:29:53Z</time></trkpt><trkpt lat="38.87736329395279" lon="-9.269326480735721"><ele>241.0</ele><time>2026-05-01T11:32:27Z</time></trkpt><trkpt lat="38.87736253620637" lon="-9.269245469759197"><ele>241.00000000000003</ele><time>2026-05-01T11:34:13Z</time></trkpt><trkpt lat="38.87737196473385" lon="-9.269329644014029"><ele>241.0</ele><time>2026-05-01T11:36:30Z</time></trkpt><trkpt lat="38.87734200070569" lon="-9.269408919486924"><ele>241.0</ele><time>2026-05-01T11:36:34Z</time></trkpt><trkpt lat="38.87731348329973" lon="-9.269492727425195"><ele>241.0</ele><time>2026-05-01T11:36:41Z</time></trkpt><trkpt lat="38.8772852783381" lon="-9.269579930430488"><ele>241.00000000000003</ele><time>2026-05-01T11:37:05Z</time></trkpt><trkpt lat="38.87726539260976" lon="-9.269669041463866"><ele>241.00000000000003</ele><time>2026-05-01T11:37:06Z</time></trkpt><trkpt lat="38.87726967473114" lon="-9.269803264624068"><ele>241.0</ele><time>2026-05-01T11:37:07Z</time></trkpt><trkpt lat="38.87728124426244" lon="-9.269990639749563"><ele>241.0</ele><time>2026-05-01T11:37:08Z</time></trkpt><trkpt lat="38.87729994630886" lon="-9.27013573484288"><ele>240.25</ele><time>2026-05-01T11:37:09Z</time></trkpt><trkpt lat="38.87731404537881" lon="-9.27025714180412"><ele>239.5</ele><time>2026-05-01T11:37:10Z</time></trkpt><trkpt lat="38.87733025897657" lon="-9.270387892916043"><ele>238.75</ele><time>2026-05-01T11:37:11Z</time></trkpt><trkpt lat="38.877346289384526" lon="-9.270549444308543"><ele>238.0</ele><time>2026-05-01T11:37:12Z</time></trkpt><trkpt lat="38.87735747575714" lon="-9.27072818537236"><ele>238.0</ele><time>2026-05-01T11:37:13Z</time></trkpt><trkpt lat="38.87736981155507" lon="-9.270883726092713"><ele>238.0</ele><time>2026-05-01T11:37:14Z</time></trkpt><trkpt lat="38.877386964716806" lon="-9.27103814803625"><ele>238.0</ele><time>2026-05-01T11:37:15Z</time></trkpt><trkpt lat="38.87740477093864" lon="-9.271197267555788"><ele>238.0</ele><time>2026-05-01T11:37:16Z</time></trkpt><trkpt lat="38.87742029818326" lon="-9.271347882127316"><ele>237.5</ele><time>2026-05-01T11:37:17Z</time></trkpt><trkpt lat="38.87743786842993" lon="-9.271495257859687"><ele>237.0</ele><time>2026-05-01T11:37:18Z</time></trkpt><trkpt lat="38.87747130714885" lon="-9.271658064163526"><ele>236.5</ele><time>2026-05-01T11:37:19Z</time></trkpt><trkpt lat="38.87751830492754" lon="-9.271844582915351"><ele>236.0</ele><time>2026-05-01T11:37:20Z</time></trkpt><trkpt lat="38.87758500988696" lon="-9.27205457025794"><ele>235.33333333333334</ele><time>2026-05-01T11:37:21Z</time></trkpt><trkpt lat="38.87766318845808" lon="-9.272260010945333"><ele>234.66666666666669</ele><time>2026-05-01T11:37:22Z</time></trkpt><trkpt lat="38.877738935205116" lon="-9.272438451800205"><ele>234.0</ele><time>2026-05-01T11:37:23Z</time></trkpt><trkpt lat="38.87781668655407" lon="-9.272603034230091"><ele>233.25</ele><time>2026-05-01T11:37:24Z</time></trkpt><trkpt lat="38.877901805116146" lon="-9.272764354343325"><ele>232.5</ele><time>2026-05-01T11:37:25Z</time></trkpt><trkpt lat="38.87797568464891" lon="-9.272930477183007"><ele>231.75</ele><time>2026-05-01T11:37:26Z</time></trkpt><trkpt lat="38.87804299565508" lon="-9.273090182114284"><ele>231.0</ele><time>2026-05-01T11:37:27Z</time></trkpt><trkpt lat="38.878109302852785" lon="-9.273244405618787"><ele>230.75</ele><time>2026-05-01T11:37:28Z</time></trkpt><trkpt lat="38.878178622323176" lon="-9.273392365091071"><ele>230.5</ele><time>2026-05-01T11:37:29Z</time></trkpt><trkpt lat="38.87823187258694" lon="-9.273522325327601"><ele>230.25</ele><time>2026-05-01T11:37:30Z</time></trkpt><trkpt lat="38.87828304437372" lon="-9.27364925786185"><ele>230.0</ele><time>2026-05-01T11:37:31Z</time></trkpt><trkpt lat="38.87832194010203" lon="-9.27376835609766"><ele>230.0</ele><time>2026-05-01T11:37:32Z</time></trkpt><trkpt lat="38.87838151677449" lon="-9.273879310480888"><ele>230.0</ele><time>2026-05-01T11:37:33Z</time></trkpt><trkpt lat="38.878397029992506" lon="-9.273989215545406"><ele>230.0</ele><time>2026-05-01T11:37:34Z</time></trkpt><trkpt lat="38.878609576541585" lon="-9.273978677329414"><ele>230.0</ele><time>2026-05-01T11:37:35Z</time></trkpt><trkpt lat="38.878777771807684" lon="-9.274007027903256"><ele>230.33333333333334</ele><time>2026-05-01T11:37:36Z</time></trkpt><trkpt lat="38.8789598978054" lon="-9.27404111070749"><ele>230.66666666666669</ele><time>2026-05-01T11:37:37Z</time></trkpt><trkpt lat="38.87911151984293" lon="-9.274084012500795"><ele>231.0</ele><time>2026-05-01T11:37:38Z</time></trkpt><trkpt lat="38.87926490607925" lon="-9.274102276340043"><ele>231.0</ele><time>2026-05-01T11:37:39Z</time></trkpt><trkpt lat="38.87941022765226" lon="-9.274105244600243"><ele>231.0</ele><time>2026-05-01T11:37:40Z</time></trkpt><trkpt lat="38.879558958192845" lon="-9.274128887735023"><ele>231.0</ele><time>2026-05-01T11:37:41Z</time></trkpt><trkpt lat="38.87969081221988" lon="-9.27416891528225"><ele>231.0</ele><time>2026-05-01T11:37:42Z</time></trkpt><trkpt lat="38.87981563637875" lon="-9.274200838008419"><ele>231.0</ele><time>2026-05-01T11:37:43Z</time></trkpt><trkpt lat="38.87993003005329" lon="-9.274240908021333"><ele>231.0</ele><time>2026-05-01T11:37:44Z</time></trkpt><trkpt lat="38.88003682459898" lon="-9.274258208615958"><ele>231.0</ele><time>2026-05-01T11:37:45Z</time></trkpt><trkpt lat="38.8801392776454" lon="-9.274268301052205"><ele>231.0</ele><time>2026-05-01T11:37:46Z</time></trkpt><trkpt lat="38.88025849916822" lon="-9.274223793536457"><ele>232.5</ele><time>2026-05-01T11:37:47Z</time></trkpt><trkpt lat="38.88037803832624" lon="-9.274172307161695"><ele>234.0</ele><time>2026-05-01T11:37:48Z</time></trkpt><trkpt lat="38.88050032484718" lon="-9.274099407172256"><ele>235.5</ele><time>2026-05-01T11:37:49Z</time></trkpt><trkpt lat="38.88058598742878" lon="-9.274033631086793"><ele>237.0</ele><time>2026-05-01T11:37:50Z</time></trkpt><trkpt lat="38.88066163987336" lon="-9.273966549644692"><ele>237.0</ele><time>2026-05-01T11:37:51Z</time></trkpt><trkpt lat="38.88072926865445" lon="-9.273926014998343"><ele>237.0</ele><time>2026-05-01T11:37:52Z</time></trkpt><trkpt lat="38.880778458772426" lon="-9.273855399738189"><ele>237.0</ele><time>2026-05-01T11:37:53Z</time></trkpt><trkpt lat="38.88092520856235" lon="-9.27408825346533"><ele>237.0</ele><time>2026-05-01T11:37:55Z</time></trkpt><trkpt lat="38.88098026653116" lon="-9.274235891673674"><ele>238.6</ele><time>2026-05-01T11:37:56Z</time></trkpt><trkpt lat="38.88102414767711" lon="-9.274362526124701"><ele>240.2</ele><time>2026-05-01T11:37:57Z</time></trkpt><trkpt lat="38.88107542265997" lon="-9.274448283045263"><ele>241.8</ele><time>2026-05-01T11:37:58Z</time></trkpt><trkpt lat="38.88114857947427" lon="-9.274539668550657"><ele>243.4</ele><time>2026-05-01T11:38:00Z</time></trkpt><trkpt lat="38.8810936143168" lon="-9.274691958468877"><ele>245.0</ele><time>2026-05-01T11:38:02Z</time></trkpt><trkpt lat="38.881035185154474" lon="-9.274793093186247"><ele>245.6</ele><time>2026-05-01T11:38:03Z</time></trkpt><trkpt lat="38.88098248200091" lon="-9.274879241912046"><ele>246.2</ele><time>2026-05-01T11:38:04Z</time></trkpt><trkpt lat="38.88094323824975" lon="-9.274960791015253"><ele>246.8</ele><time>2026-05-01T11:38:05Z</time></trkpt><trkpt lat="38.881018459579266" lon="-9.275121738535098"><ele>247.4</ele><time>2026-05-01T11:38:07Z</time></trkpt><trkpt lat="38.881115101629725" lon="-9.275250175755552"><ele>248.0</ele><time>2026-05-01T11:38:08Z</time></trkpt><trkpt lat="38.88122104512219" lon="-9.275392109044013"><ele>248.0</ele><time>2026-05-01T11:38:09Z</time></trkpt><trkpt lat="38.88133288041621" lon="-9.275549469676479"><ele>248.0</ele><time>2026-05-01T11:38:10Z</time></trkpt><trkpt lat="38.88144424442185" lon="-9.275723215648938"><ele>248.0</ele><time>2026-05-01T11:38:11Z</time></trkpt><trkpt lat="38.8815625847679" lon="-9.27586770428414"><ele>247.83333333333334</ele><time>2026-05-01T11:38:12Z</time></trkpt><trkpt lat="38.88165193224846" lon="-9.275953297392274"><ele>247.66666666666669</ele><time>2026-05-01T11:38:13Z</time></trkpt><trkpt lat="38.88171818414343" lon="-9.276021386291438"><ele>247.5</ele><time>2026-05-01T11:38:14Z</time></trkpt><trkpt lat="38.88177574254534" lon="-9.276077748128463"><ele>247.33333333333331</ele><time>2026-05-01T11:38:15Z</time></trkpt><trkpt lat="38.881833227574404" lon="-9.276133993844004"><ele>247.16666666666666</ele><time>2026-05-01T11:38:16Z</time></trkpt><trkpt lat="38.881894927962584" lon="-9.276179417952065"><ele>247.0</ele><time>2026-05-01T11:38:17Z</time></trkpt><trkpt lat="38.881915092656975" lon="-9.276269988529"><ele>247.0</ele><time>2026-05-01T11:38:18Z</time></trkpt><trkpt lat="38.88208078799106" lon="-9.276118439442385"><ele>247.0</ele><time>2026-05-01T11:38:19Z</time></trkpt><trkpt lat="38.88220016057018" lon="-9.276091837142864"><ele>247.0</ele><time>2026-05-01T11:38:20Z</time></trkpt><trkpt lat="38.88232650073683" lon="-9.276050369609532"><ele>247.0</ele><time>2026-05-01T11:38:21Z</time></trkpt><trkpt lat="38.88245041307917" lon="-9.276005681790828"><ele>247.0</ele><time>2026-05-01T11:38:22Z</time></trkpt><trkpt lat="38.88257786695538" lon="-9.275983631906064"><ele>247.0</ele><time>2026-05-01T11:38:23Z</time></trkpt><trkpt lat="38.882678061837794" lon="-9.275965615190003"><ele>247.0</ele><time>2026-05-01T11:38:24Z</time></trkpt><trkpt lat="38.8827640346491" lon="-9.275950613845884"><ele>247.0</ele><time>2026-05-01T11:38:25Z</time></trkpt><trkpt lat="38.88285163579217" lon="-9.27595238251636"><ele>248.5</ele><time>2026-05-01T11:38:26Z</time></trkpt><trkpt lat="38.882953334230024" lon="-9.275975598990644"><ele>250.0</ele><time>2026-05-01T11:38:27Z</time></trkpt><trkpt lat="38.883045711562914" lon="-9.276025682091763"><ele>251.5</ele><time>2026-05-01T11:38:28Z</time></trkpt><trkpt lat="38.88315494152926" lon="-9.276115759015157"><ele>253.0</ele><time>2026-05-01T11:38:29Z</time></trkpt><trkpt lat="38.883273293196034" lon="-9.276223969873437"><ele>253.0</ele><time>2026-05-01T11:38:30Z</time></trkpt><trkpt lat="38.88338861982228" lon="-9.276287830935457"><ele>253.0</ele><time>2026-05-01T11:38:31Z</time></trkpt><trkpt lat="38.88348808685074" lon="-9.276357933972346"><ele>253.0</ele><time>2026-05-01T11:38:32Z</time></trkpt><trkpt lat="38.88357502068905" lon="-9.276408949343384"><ele>253.0</ele><time>2026-05-01T11:38:33Z</time></trkpt><trkpt lat="38.88366450463254" lon="-9.276444873631636"><ele>253.0</ele><time>2026-05-01T11:38:34Z</time></trkpt><trkpt lat="38.88376833363196" lon="-9.27647996357573"><ele>253.8</ele><time>2026-05-01T11:38:35Z</time></trkpt><trkpt lat="38.88387429919151" lon="-9.276510982064565"><ele>254.60000000000002</ele><time>2026-05-01T11:38:36Z</time></trkpt><trkpt lat="38.88396504714305" lon="-9.276533320230353"><ele>255.39999999999998</ele><time>2026-05-01T11:38:37Z</time></trkpt><trkpt lat="38.884067945378845" lon="-9.276571240818502"><ele>256.2</ele><time>2026-05-01T11:38:38Z</time></trkpt><trkpt lat="38.88416565166618" lon="-9.276603350877432"><ele>257.0</ele><time>2026-05-01T11:38:39Z</time></trkpt><trkpt lat="38.88423758505401" lon="-9.276616306829435"><ele>257.0</ele><time>2026-05-01T11:38:40Z</time></trkpt><trkpt lat="38.88432486363482" lon="-9.276652028671496"><ele>257.0</ele><time>2026-05-01T11:38:42Z</time></trkpt><trkpt lat="38.8844160213295" lon="-9.276555365743063"><ele>257.0</ele><time>2026-05-01T11:38:43Z</time></trkpt><trkpt lat="38.884504208670535" lon="-9.276467847631421"><ele>257.0</ele><time>2026-05-01T11:38:44Z</time></trkpt><trkpt lat="38.884603612592045" lon="-9.276379510199073"><ele>257.0</ele><time>2026-05-01T11:38:45Z</time></trkpt><trkpt lat="38.88469423723015" lon="-9.27626506637871"><ele>257.0</ele><time>2026-05-01T11:38:46Z</time></trkpt><trkpt lat="38.88478433254437" lon="-9.276159184514725"><ele>257.0</ele><time>2026-05-01T11:38:47Z</time></trkpt><trkpt lat="38.88485057547799" lon="-9.276024892551249"><ele>257.0</ele><time>2026-05-01T11:38:48Z</time></trkpt><trkpt lat="38.88490638750118" lon="-9.275883047954927"><ele>257.0</ele><time>2026-05-01T11:38:49Z</time></trkpt><trkpt lat="38.884978945180045" lon="-9.27576868241211"><ele>257.0</ele><time>2026-05-01T11:38:50Z</time></trkpt><trkpt lat="38.8850751880255" lon="-9.275650448806797"><ele>257.0</ele><time>2026-05-01T11:38:51Z</time></trkpt><trkpt lat="38.88520254587241" lon="-9.27553881426182"><ele>257.0</ele><time>2026-05-01T11:38:52Z</time></trkpt><trkpt lat="38.88533783464417" lon="-9.275413551650622"><ele>257.8</ele><time>2026-05-01T11:38:53Z</time></trkpt><trkpt lat="38.88544776549403" lon="-9.275327644052716"><ele>258.6</ele><time>2026-05-01T11:38:54Z</time></trkpt><trkpt lat="38.88552447069809" lon="-9.275257011532505"><ele>259.40000000000003</ele><time>2026-05-01T11:38:55Z</time></trkpt><trkpt lat="38.88558923240144" lon="-9.275165917601548"><ele>260.2</ele><time>2026-05-01T11:38:56Z</time></trkpt><trkpt lat="38.88563957375636" lon="-9.275074501622862"><ele>261.0</ele><time>2026-05-01T11:38:57Z</time></trkpt><trkpt lat="38.885742295070685" lon="-9.275012967959656"><ele>261.0</ele><time>2026-05-01T11:38:59Z</time></trkpt><trkpt lat="38.88579797350339" lon="-9.275050739018228"><ele>261.0</ele><time>2026-05-01T11:39:00Z</time></trkpt><trkpt lat="38.885838792035706" lon="-9.275121792792724"><ele>261.0</ele><time>2026-05-01T11:39:01Z</time></trkpt><trkpt lat="38.885877742767065" lon="-9.275197073266462"><ele>261.0</ele><time>2026-05-01T11:39:02Z</time></trkpt><trkpt lat="38.88592858589283" lon="-9.275280803922941"><ele>261.0</ele><time>2026-05-01T11:39:03Z</time></trkpt><trkpt lat="38.88599218609042" lon="-9.275362001590132"><ele>261.0</ele><time>2026-05-01T11:39:04Z</time></trkpt><trkpt lat="38.8860482359925" lon="-9.275423627278204"><ele>261.0</ele><time>2026-05-01T11:39:05Z</time></trkpt><trkpt lat="38.88615622751594" lon="-9.275485964416111"><ele>260.40000000000003</ele><time>2026-05-01T11:39:07Z</time></trkpt><trkpt lat="38.88627290459109" lon="-9.275569335034394"><ele>259.8</ele><time>2026-05-01T11:39:09Z</time></trkpt><trkpt lat="38.88633263598082" lon="-9.275610143224304"><ele>259.20000000000005</ele><time>2026-05-01T11:39:10Z</time></trkpt><trkpt lat="38.886416595238465" lon="-9.275617345654723"><ele>258.6</ele><time>2026-05-01T11:39:11Z</time></trkpt><trkpt lat="38.88652724755993" lon="-9.275602739772545"><ele>258.0</ele><time>2026-05-01T11:39:12Z</time></trkpt><trkpt lat="38.886637137895555" lon="-9.275575801692048"><ele>258.0</ele><time>2026-05-01T11:39:13Z</time></trkpt><trkpt lat="38.88674382502527" lon="-9.275567452356682"><ele>258.0</ele><time>2026-05-01T11:39:14Z</time></trkpt><trkpt lat="38.88686099229602" lon="-9.275561231930432"><ele>258.0</ele><time>2026-05-01T11:39:15Z</time></trkpt><trkpt lat="38.88695367119211" lon="-9.275556031347053"><ele>258.0</ele><time>2026-05-01T11:39:16Z</time></trkpt><trkpt lat="38.8870372786697" lon="-9.275541193694215"><ele>258.0</ele><time>2026-05-01T11:39:17Z</time></trkpt><trkpt lat="38.887115708496744" lon="-9.275543250279167"><ele>258.1666666666667</ele><time>2026-05-01T11:39:18Z</time></trkpt><trkpt lat="38.88718295649588" lon="-9.275545999702107"><ele>258.3333333333333</ele><time>2026-05-01T11:39:19Z</time></trkpt><trkpt lat="38.887253396861254" lon="-9.275543256184664"><ele>258.5</ele><time>2026-05-01T11:39:20Z</time></trkpt><trkpt lat="38.88732117245415" lon="-9.27553599471154"><ele>258.66666666666663</ele><time>2026-05-01T11:39:21Z</time></trkpt><trkpt lat="38.88738963149507" lon="-9.275540948319959"><ele>258.8333333333333</ele><time>2026-05-01T11:39:22Z</time></trkpt><trkpt lat="38.88751052446676" lon="-9.275544474289381"><ele>259.0</ele><time>2026-05-01T11:39:24Z</time></trkpt><trkpt lat="38.88756933914012" lon="-9.275579287704186"><ele>259.0</ele><time>2026-05-01T11:39:25Z</time></trkpt><trkpt lat="38.887602640632615" lon="-9.275690960666491"><ele>259.0</ele><time>2026-05-01T11:39:27Z</time></trkpt><trkpt lat="38.887564280059806" lon="-9.27579470558102"><ele>259.0</ele><time>2026-05-01T11:39:29Z</time></trkpt><trkpt lat="38.8874587089173" lon="-9.275804027155313"><ele>259.0</ele><time>2026-05-01T11:39:31Z</time></trkpt><trkpt lat="38.887394924888866" lon="-9.275844629995236"><ele>259.0</ele><time>2026-05-01T11:39:32Z</time></trkpt><trkpt lat="38.88733215441426" lon="-9.275884304380666"><ele>259.0</ele><time>2026-05-01T11:39:33Z</time></trkpt><trkpt lat="38.88724601409464" lon="-9.275956631298284"><ele>258.0</ele><time>2026-05-01T11:39:35Z</time></trkpt><trkpt lat="38.887155308308124" lon="-9.27604395029001"><ele>257.0</ele><time>2026-05-01T11:39:37Z</time></trkpt><trkpt lat="38.88707241283944" lon="-9.276148086093578"><ele>256.0</ele><time>2026-05-01T11:39:39Z</time></trkpt><trkpt lat="38.88702898758423" lon="-9.276216138001216"><ele>255.0</ele><time>2026-05-01T11:39:40Z</time></trkpt><trkpt lat="38.88697485119503" lon="-9.276279934865673"><ele>253.99999999999997</ele><time>2026-05-01T11:39:41Z</time></trkpt><trkpt lat="38.886930261438174" lon="-9.276339789626627"><ele>253.0</ele><time>2026-05-01T11:39:42Z</time></trkpt><trkpt lat="38.886878202625425" lon="-9.276396613859097"><ele>252.8571428571429</ele><time>2026-05-01T11:39:43Z</time></trkpt><trkpt lat="38.88681916170395" lon="-9.276464035868178"><ele>252.71428571428572</ele><time>2026-05-01T11:39:44Z</time></trkpt><trkpt lat="38.886759994617165" lon="-9.276530225356352"><ele>252.57142857142858</ele><time>2026-05-01T11:39:45Z</time></trkpt><trkpt lat="38.88670506337133" lon="-9.276590471617041"><ele>252.42857142857144</ele><time>2026-05-01T11:39:46Z</time></trkpt><trkpt lat="38.886645478241526" lon="-9.276651080908236"><ele>252.28571428571428</ele><time>2026-05-01T11:39:47Z</time></trkpt><trkpt lat="38.88658696274085" lon="-9.276704057459739"><ele>252.14285714285714</ele><time>2026-05-01T11:39:48Z</time></trkpt><trkpt lat="38.88652387574705" lon="-9.276747709522729"><ele>252.0</ele><time>2026-05-01T11:39:49Z</time></trkpt><trkpt lat="38.88646331347688" lon="-9.276802867129046"><ele>250.16666666666666</ele><time>2026-05-01T11:39:50Z</time></trkpt><trkpt lat="38.88639548486667" lon="-9.276869736480563"><ele>248.33333333333331</ele><time>2026-05-01T11:39:51Z</time></trkpt><trkpt lat="38.886329242213975" lon="-9.276937414095425"><ele>246.5</ele><time>2026-05-01T11:39:52Z</time></trkpt><trkpt lat="38.88628197763472" lon="-9.2770038193874"><ele>244.66666666666666</ele><time>2026-05-01T11:39:53Z</time></trkpt><trkpt lat="38.88621975454502" lon="-9.277126943303033"><ele>242.83333333333331</ele><time>2026-05-01T11:39:55Z</time></trkpt><trkpt lat="38.88615549691206" lon="-9.277199687525416"><ele>241.0</ele><time>2026-05-01T11:39:57Z</time></trkpt><trkpt lat="38.886100127930035" lon="-9.27725950839912"><ele>241.33333333333331</ele><time>2026-05-01T11:40:00Z</time></trkpt><trkpt lat="38.886077722711086" lon="-9.277339164818544"><ele>241.66666666666666</ele><time>2026-05-01T11:40:03Z</time></trkpt><trkpt lat="38.88603674762669" lon="-9.277422469662458"><ele>242.0</ele><time>2026-05-01T11:40:05Z</time></trkpt><trkpt lat="38.885946344308074" lon="-9.277469520163804"><ele>242.33333333333331</ele><time>2026-05-01T11:40:07Z</time></trkpt><trkpt lat="38.88590229289837" lon="-9.27756054916193"><ele>242.66666666666666</ele><time>2026-05-01T11:40:09Z</time></trkpt><trkpt lat="38.88582958544768" lon="-9.277678085907425"><ele>243.0</ele><time>2026-05-01T11:40:11Z</time></trkpt><trkpt lat="38.885749394139154" lon="-9.27776361042174"><ele>241.8</ele><time>2026-05-01T11:40:13Z</time></trkpt><trkpt lat="38.88568943207468" lon="-9.277830408789367"><ele>240.60000000000002</ele><time>2026-05-01T11:40:16Z</time></trkpt><trkpt lat="38.88566385738392" lon="-9.277938036768484"><ele>239.39999999999998</ele><time>2026-05-01T11:40:21Z</time></trkpt><trkpt lat="38.885627955380144" lon="-9.27807684804546"><ele>238.2</ele><time>2026-05-01T11:40:23Z</time></trkpt><trkpt lat="38.885593996326755" lon="-9.27820476508018"><ele>237.0</ele><time>2026-05-01T11:40:25Z</time></trkpt><trkpt lat="38.88556076642771" lon="-9.278333530694225"><ele>236.39999999999998</ele><time>2026-05-01T11:40:27Z</time></trkpt><trkpt lat="38.88550712554221" lon="-9.278448260584172"><ele>235.79999999999998</ele><time>2026-05-01T11:40:29Z</time></trkpt><trkpt lat="38.885463989967874" lon="-9.278602691175683"><ele>235.2</ele><time>2026-05-01T11:40:31Z</time></trkpt><trkpt lat="38.885436400370445" lon="-9.278742603915072"><ele>234.6</ele><time>2026-05-01T11:40:33Z</time></trkpt><trkpt lat="38.885384927862425" lon="-9.278795688089385"><ele>234.0</ele><time>2026-05-01T11:40:34Z</time></trkpt><trkpt lat="38.88531492958258" lon="-9.27890825506987"><ele>233.79999999999998</ele><time>2026-05-01T11:40:36Z</time></trkpt><trkpt lat="38.88524687216081" lon="-9.27901636228804"><ele>233.59999999999997</ele><time>2026-05-01T11:40:38Z</time></trkpt><trkpt lat="38.88519123590508" lon="-9.279112959386707"><ele>233.4</ele><time>2026-05-01T11:40:40Z</time></trkpt><trkpt lat="38.885142107991" lon="-9.279212751472663"><ele>233.2</ele><time>2026-05-01T11:40:42Z</time></trkpt><trkpt lat="38.88509791996593" lon="-9.279375736528616"><ele>233.0</ele><time>2026-05-01T11:40:44Z</time></trkpt><trkpt lat="38.88506256846004" lon="-9.279485298295"><ele>232.66666666666669</ele><time>2026-05-01T11:40:45Z</time></trkpt><trkpt lat="38.885031450901906" lon="-9.279574144636687"><ele>232.33333333333334</ele><time>2026-05-01T11:40:46Z</time></trkpt><trkpt lat="38.885005663383595" lon="-9.279671205572395"><ele>232.0</ele><time>2026-05-01T11:40:47Z</time></trkpt><trkpt lat="38.884978557931106" lon="-9.279761075142275"><ele>231.66666666666669</ele><time>2026-05-01T11:40:48Z</time></trkpt><trkpt lat="38.88496153089554" lon="-9.279853691120987"><ele>231.33333333333334</ele><time>2026-05-01T11:40:49Z</time></trkpt><trkpt lat="38.88495296462553" lon="-9.279957316659129"><ele>231.0</ele><time>2026-05-01T11:40:50Z</time></trkpt><trkpt lat="38.88494836220891" lon="-9.280081536123147"><ele>229.8</ele><time>2026-05-01T11:40:51Z</time></trkpt><trkpt lat="38.88490954188911" lon="-9.280221254700422"><ele>228.60000000000002</ele><time>2026-05-01T11:40:52Z</time></trkpt><trkpt lat="38.88486009823129" lon="-9.280345346599288"><ele>227.4</ele><time>2026-05-01T11:40:53Z</time></trkpt><trkpt lat="38.88479569861978" lon="-9.280443320731683"><ele>226.2</ele><time>2026-05-01T11:40:54Z</time></trkpt><trkpt lat="38.88474490256538" lon="-9.280520174038822"><ele>225.0</ele><time>2026-05-01T11:40:55Z</time></trkpt><trkpt lat="38.884688099005245" lon="-9.280589676848297"><ele>224.8</ele><time>2026-05-01T11:40:56Z</time></trkpt><trkpt lat="38.88462580503223" lon="-9.280670562292723"><ele>224.6</ele><time>2026-05-01T11:40:57Z</time></trkpt><trkpt lat="38.88456823282284" lon="-9.280760454042019"><ele>224.39999999999998</ele><time>2026-05-01T11:40:58Z</time></trkpt><trkpt lat="38.88451570780206" lon="-9.280846325159223"><ele>224.2</ele><time>2026-05-01T11:40:59Z</time></trkpt><trkpt lat="38.88445648746223" lon="-9.280971507047386"><ele>224.0</ele><time>2026-05-01T11:41:00Z</time></trkpt><trkpt lat="38.88440046405474" lon="-9.281066379019984"><ele>224.0</ele><time>2026-05-01T11:41:01Z</time></trkpt><trkpt lat="38.88436298349962" lon="-9.281133139524904"><ele>224.0</ele><time>2026-05-01T11:41:02Z</time></trkpt><trkpt lat="38.884424618870824" lon="-9.281075129294834"><ele>224.0</ele><time>2026-05-01T11:41:29Z</time></trkpt><trkpt lat="38.88445066256639" lon="-9.28099893592139"><ele>224.0</ele><time>2026-05-01T11:45:16Z</time></trkpt><trkpt lat="38.884496376677866" lon="-9.280938732675834"><ele>224.0</ele><time>2026-05-01T11:45:21Z</time></trkpt><trkpt lat="38.88445238465011" lon="-9.280997374523809"><ele>224.0</ele><time>2026-05-01T11:45:33Z</time></trkpt><trkpt lat="38.884416437893584" lon="-9.281072720752134"><ele>224.0</ele><time>2026-05-01T11:45:38Z</time></trkpt><trkpt lat="38.884389683175954" lon="-9.281157821051607"><ele>224.00000000000003</ele><time>2026-05-01T12:52:10Z</time></trkpt><trkpt lat="38.8843724669882" lon="-9.281261147729673"><ele>224.0</ele><time>2026-05-01T12:52:20Z</time></trkpt><trkpt lat="38.88436154111155" lon="-9.281363376269947"><ele>224.0</ele><time>2026-05-01T12:52:23Z</time></trkpt><trkpt lat="38.88437691404554" lon="-9.281246757244993"><ele>224.0</ele><time>2026-05-01T12:52:32Z</time></trkpt><trkpt lat="38.88440919718728" lon="-9.281135805587883"><ele>224.00000000000003</ele><time>2026-05-01T12:52:36Z</time></trkpt><trkpt lat="38.88438187682277" lon="-9.281214163167634"><ele>224.0</ele><time>2026-05-01T12:52:51Z</time></trkpt><trkpt lat="38.88435832433227" lon="-9.281302220181066"><ele>224.00000000000003</ele><time>2026-05-01T12:52:55Z</time></trkpt><trkpt lat="38.884341743439386" lon="-9.281395494859146"><ele>224.0</ele><time>2026-05-01T12:53:00Z</time></trkpt><trkpt lat="38.8843539384255" lon="-9.281500149214365"><ele>224.0</ele><time>2026-05-01T12:53:14Z</time></trkpt><trkpt lat="38.88434537245827" lon="-9.281405589721121"><ele>224.0</ele><time>2026-05-01T12:53:26Z</time></trkpt><trkpt lat="38.88436977478395" lon="-9.281485888628438"><ele>224.00000000000003</ele><time>2026-05-01T12:53:36Z</time></trkpt><trkpt lat="38.88438604701029" lon="-9.281618211854008"><ele>224.0</ele><time>2026-05-01T12:53:38Z</time></trkpt><trkpt lat="38.88440190946236" lon="-9.281720307346946"><ele>223.79999999999998</ele><time>2026-05-01T12:53:41Z</time></trkpt><trkpt lat="38.88440777215934" lon="-9.28185617625846"><ele>223.59999999999997</ele><time>2026-05-01T12:53:43Z</time></trkpt><trkpt lat="38.88439937969684" lon="-9.281975141290802"><ele>223.4</ele><time>2026-05-01T12:53:45Z</time></trkpt><trkpt lat="38.8843943772228" lon="-9.282107861152824"><ele>223.2</ele><time>2026-05-01T12:53:47Z</time></trkpt><trkpt lat="38.88438511497174" lon="-9.28222999150201"><ele>223.0</ele><time>2026-05-01T12:53:49Z</time></trkpt><trkpt lat="38.884387235679526" lon="-9.28235540238004"><ele>222.99999999999997</ele><time>2026-05-01T12:53:51Z</time></trkpt><trkpt lat="38.8843990412644" lon="-9.282469389302886"><ele>223.0</ele><time>2026-05-01T12:53:53Z</time></trkpt><trkpt lat="38.884405351360094" lon="-9.282571409576338"><ele>223.0</ele><time>2026-05-01T12:53:55Z</time></trkpt><trkpt lat="38.884411675889204" lon="-9.282680924340372"><ele>223.0</ele><time>2026-05-01T12:53:57Z</time></trkpt><trkpt lat="38.884423451153296" lon="-9.282779377171078"><ele>222.99999999999997</ele><time>2026-05-01T12:53:59Z</time></trkpt><trkpt lat="38.884433512167085" lon="-9.282868298255867"><ele>223.0</ele><time>2026-05-01T12:54:01Z</time></trkpt><trkpt lat="38.88443968377129" lon="-9.28295607914232"><ele>223.0</ele><time>2026-05-01T12:54:04Z</time></trkpt><trkpt lat="38.88447026626146" lon="-9.283085245802866"><ele>223.0</ele><time>2026-05-01T12:54:07Z</time></trkpt><trkpt lat="38.88448337929924" lon="-9.283187389315064"><ele>223.0</ele><time>2026-05-01T12:54:09Z</time></trkpt><trkpt lat="38.88452587850032" lon="-9.283332916105893"><ele>223.0</ele><time>2026-05-01T12:54:11Z</time></trkpt><trkpt lat="38.88454115982141" lon="-9.283475133107965"><ele>223.0</ele><time>2026-05-01T12:54:13Z</time></trkpt><trkpt lat="38.884479176091254" lon="-9.283645230110158"><ele>220.8</ele><time>2026-05-01T12:54:15Z</time></trkpt><trkpt lat="38.88441311499196" lon="-9.28372692133532"><ele>218.60000000000002</ele><time>2026-05-01T12:54:16Z</time></trkpt><trkpt lat="38.88437000541229" lon="-9.283792352415894"><ele>216.39999999999998</ele><time>2026-05-01T12:54:17Z</time></trkpt><trkpt lat="38.88430450239711" lon="-9.283929162522202"><ele>214.2</ele><time>2026-05-01T12:54:19Z</time></trkpt><trkpt lat="38.8842369679527" lon="-9.2840375160792"><ele>212.0</ele><time>2026-05-01T12:54:21Z</time></trkpt><trkpt lat="38.88418078309312" lon="-9.28407827573843"><ele>211.33333333333334</ele><time>2026-05-01T12:54:22Z</time></trkpt><trkpt lat="38.88410333709695" lon="-9.28412585441782"><ele>210.66666666666669</ele><time>2026-05-01T12:54:23Z</time></trkpt><trkpt lat="38.884034639442675" lon="-9.284168424095627"><ele>210.0</ele><time>2026-05-01T12:54:24Z</time></trkpt><trkpt lat="38.883973477379506" lon="-9.284208893620274"><ele>209.33333333333331</ele><time>2026-05-01T12:54:25Z</time></trkpt><trkpt lat="38.883903332318766" lon="-9.284299456836168"><ele>208.66666666666666</ele><time>2026-05-01T12:54:27Z</time></trkpt><trkpt lat="38.88384687129866" lon="-9.284386301172182"><ele>208.0</ele><time>2026-05-01T12:54:29Z</time></trkpt><trkpt lat="38.88379932617722" lon="-9.284445201859098"><ele>208.0</ele><time>2026-05-01T12:54:30Z</time></trkpt><trkpt lat="38.883729509332134" lon="-9.2845703465864"><ele>208.0</ele><time>2026-05-01T12:54:32Z</time></trkpt><trkpt lat="38.883685025078975" lon="-9.284728216148022"><ele>208.0</ele><time>2026-05-01T12:54:34Z</time></trkpt><trkpt lat="38.88365720195509" lon="-9.284813094475185"><ele>208.0</ele><time>2026-05-01T12:54:35Z</time></trkpt><trkpt lat="38.88363677761823" lon="-9.284897269621444"><ele>208.0</ele><time>2026-05-01T12:54:36Z</time></trkpt><trkpt lat="38.88361864559936" lon="-9.284979949713314"><ele>207.66666666666666</ele><time>2026-05-01T12:54:37Z</time></trkpt><trkpt lat="38.88357929868791" lon="-9.285121658809077"><ele>207.33333333333331</ele><time>2026-05-01T12:54:39Z</time></trkpt><trkpt lat="38.8835452617669" lon="-9.285192115515812"><ele>207.0</ele><time>2026-05-01T12:54:40Z</time></trkpt><trkpt lat="38.88350565793195" lon="-9.285266642512036"><ele>206.66666666666669</ele><time>2026-05-01T12:54:41Z</time></trkpt><trkpt lat="38.883461832729296" lon="-9.285338114458087"><ele>206.33333333333334</ele><time>2026-05-01T12:54:42Z</time></trkpt><trkpt lat="38.88340906354336" lon="-9.285407362985628"><ele>206.0</ele><time>2026-05-01T12:54:43Z</time></trkpt><trkpt lat="38.88335799982949" lon="-9.285477047601951"><ele>205.50000000000003</ele><time>2026-05-01T12:54:44Z</time></trkpt><trkpt lat="38.88331233359249" lon="-9.285538714243186"><ele>205.0</ele><time>2026-05-01T12:54:45Z</time></trkpt><trkpt lat="38.88327141695611" lon="-9.285608209161014"><ele>204.5</ele><time>2026-05-01T12:54:46Z</time></trkpt><trkpt lat="38.8832084471031" lon="-9.28567772845779"><ele>204.0</ele><time>2026-05-01T12:54:47Z</time></trkpt><trkpt lat="38.88314299552814" lon="-9.28574695353457"><ele>203.50000000000003</ele><time>2026-05-01T12:54:48Z</time></trkpt><trkpt lat="38.88309540850782" lon="-9.285810230642669"><ele>203.0</ele><time>2026-05-01T12:54:49Z</time></trkpt><trkpt lat="38.88302209170701" lon="-9.285890081652296"><ele>203.0</ele><time>2026-05-01T12:54:50Z</time></trkpt><trkpt lat="38.88293872682425" lon="-9.28598279340913"><ele>203.0</ele><time>2026-05-01T12:54:51Z</time></trkpt><trkpt lat="38.88285387192305" lon="-9.286077341738988"><ele>203.0</ele><time>2026-05-01T12:54:52Z</time></trkpt><trkpt lat="38.88276987883542" lon="-9.286155261689508"><ele>203.0</ele><time>2026-05-01T12:54:53Z</time></trkpt><trkpt lat="38.88267831279642" lon="-9.286236470024066"><ele>203.0</ele><time>2026-05-01T12:54:54Z</time></trkpt><trkpt lat="38.882587195939536" lon="-9.286317228229569"><ele>203.0</ele><time>2026-05-01T12:54:55Z</time></trkpt><trkpt lat="38.882515655390854" lon="-9.286404018571183"><ele>203.0</ele><time>2026-05-01T12:54:56Z</time></trkpt><trkpt lat="38.88244054105655" lon="-9.286491008482857"><ele>203.0</ele><time>2026-05-01T12:54:57Z</time></trkpt><trkpt lat="38.88237805000438" lon="-9.286577939682076"><ele>203.0</ele><time>2026-05-01T12:54:58Z</time></trkpt><trkpt lat="38.88232944838493" lon="-9.286659459452057"><ele>203.0</ele><time>2026-05-01T12:54:59Z</time></trkpt><trkpt lat="38.882270438425955" lon="-9.286748018464076"><ele>203.0</ele><time>2026-05-01T12:55:01Z</time></trkpt><trkpt lat="38.88219742709946" lon="-9.28685258021296"><ele>203.0</ele><time>2026-05-01T12:56:55Z</time></trkpt><trkpt lat="38.882128691870015" lon="-9.286973565410568"><ele>203.0</ele><time>2026-05-01T12:56:57Z</time></trkpt><trkpt lat="38.88207862336522" lon="-9.287078544965047"><ele>203.0</ele><time>2026-05-01T12:56:59Z</time></trkpt><trkpt lat="38.88204415253148" lon="-9.287161313117243"><ele>203.0</ele><time>2026-05-01T12:57:01Z</time></trkpt><trkpt lat="38.88199303071225" lon="-9.287284329423755"><ele>202.50000000000003</ele><time>2026-05-01T12:57:03Z</time></trkpt><trkpt lat="38.881932632984885" lon="-9.28734973275898"><ele>202.0</ele><time>2026-05-01T12:57:04Z</time></trkpt><trkpt lat="38.881852114578734" lon="-9.28740213328394"><ele>201.5</ele><time>2026-05-01T12:57:05Z</time></trkpt><trkpt lat="38.88178364346045" lon="-9.287437271612854"><ele>201.0</ele><time>2026-05-01T12:57:06Z</time></trkpt><trkpt lat="38.88171332757586" lon="-9.287461042747339"><ele>200.50000000000003</ele><time>2026-05-01T12:57:07Z</time></trkpt><trkpt lat="38.881649578928545" lon="-9.287480161258715"><ele>200.0</ele><time>2026-05-01T12:57:08Z</time></trkpt><trkpt lat="38.8815779005359" lon="-9.287497588134737"><ele>199.57142857142858</ele><time>2026-05-01T12:57:09Z</time></trkpt><trkpt lat="38.881508242862296" lon="-9.28750447008185"><ele>199.14285714285714</ele><time>2026-05-01T12:57:10Z</time></trkpt><trkpt lat="38.88144254573112" lon="-9.287489544676658"><ele>198.71428571428572</ele><time>2026-05-01T12:57:11Z</time></trkpt><trkpt lat="38.88137027535103" lon="-9.287476159875391"><ele>198.28571428571428</ele><time>2026-05-01T12:57:12Z</time></trkpt><trkpt lat="38.881300739172666" lon="-9.287456621719723"><ele>197.85714285714286</ele><time>2026-05-01T12:57:13Z</time></trkpt><trkpt lat="38.881219537117786" lon="-9.287463164747795"><ele>197.42857142857144</ele><time>2026-05-01T12:57:14Z</time></trkpt><trkpt lat="38.88113809311102" lon="-9.287451332403121"><ele>197.0</ele><time>2026-05-01T12:57:15Z</time></trkpt><trkpt lat="38.881059168045454" lon="-9.287442151841052"><ele>197.0</ele><time>2026-05-01T12:57:16Z</time></trkpt><trkpt lat="38.88097017835538" lon="-9.287429347103465"><ele>197.0</ele><time>2026-05-01T12:57:17Z</time></trkpt><trkpt lat="38.88087202347772" lon="-9.287414649534341"><ele>197.0</ele><time>2026-05-01T12:57:18Z</time></trkpt><trkpt lat="38.88077214876567" lon="-9.287399179811933"><ele>197.0</ele><time>2026-05-01T12:57:19Z</time></trkpt><trkpt lat="38.880677624509175" lon="-9.28738664990667"><ele>197.0</ele><time>2026-05-01T12:57:20Z</time></trkpt><trkpt lat="38.880583075954384" lon="-9.287365452167162"><ele>195.8</ele><time>2026-05-01T12:57:21Z</time></trkpt><trkpt lat="38.880483118612936" lon="-9.287317308229301"><ele>194.6</ele><time>2026-05-01T12:57:22Z</time></trkpt><trkpt lat="38.88037221561644" lon="-9.287308817055099"><ele>193.4</ele><time>2026-05-01T12:57:23Z</time></trkpt><trkpt lat="38.88026966797212" lon="-9.287294443322292"><ele>192.20000000000002</ele><time>2026-05-01T12:57:24Z</time></trkpt><trkpt lat="38.88017409787932" lon="-9.287281186175377"><ele>191.0</ele><time>2026-05-01T12:57:25Z</time></trkpt><trkpt lat="38.88008280777302" lon="-9.287270850653133"><ele>189.66666666666666</ele><time>2026-05-01T12:57:26Z</time></trkpt><trkpt lat="38.87999762919503" lon="-9.287263074578386"><ele>188.33333333333331</ele><time>2026-05-01T12:57:27Z</time></trkpt><trkpt lat="38.87991565675279" lon="-9.287261908941733"><ele>187.0</ele><time>2026-05-01T12:57:28Z</time></trkpt><trkpt lat="38.87984318268148" lon="-9.287262145748091"><ele>185.66666666666666</ele><time>2026-05-01T12:57:29Z</time></trkpt><trkpt lat="38.87976337525685" lon="-9.287267338906155"><ele>184.33333333333334</ele><time>2026-05-01T12:57:31Z</time></trkpt><trkpt lat="38.87969883849145" lon="-9.287281764314594"><ele>183.0</ele><time>2026-05-01T12:57:46Z</time></trkpt><trkpt lat="38.87961863976568" lon="-9.287290588086208"><ele>184.0</ele><time>2026-05-01T12:57:48Z</time></trkpt><trkpt lat="38.87955536955141" lon="-9.287233166326098"><ele>185.0</ele><time>2026-05-01T12:57:49Z</time></trkpt><trkpt lat="38.879489645069114" lon="-9.287163270657711"><ele>186.0</ele><time>2026-05-01T12:57:50Z</time></trkpt><trkpt lat="38.879429243142596" lon="-9.287096774869385"><ele>187.0</ele><time>2026-05-01T12:57:51Z</time></trkpt><trkpt lat="38.87935311592357" lon="-9.28695700155683"><ele>188.0</ele><time>2026-05-01T12:57:53Z</time></trkpt><trkpt lat="38.87927923148741" lon="-9.286851263049964"><ele>188.0</ele><time>2026-05-01T12:57:54Z</time></trkpt><trkpt lat="38.879224855409106" lon="-9.286739005137218"><ele>188.0</ele><time>2026-05-01T12:57:55Z</time></trkpt><trkpt lat="38.87916438183807" lon="-9.28661330379983"><ele>188.0</ele><time>2026-05-01T12:57:56Z</time></trkpt><trkpt lat="38.87908226448272" lon="-9.286452047531206"><ele>188.0</ele><time>2026-05-01T12:57:57Z</time></trkpt><trkpt lat="38.8789999128146" lon="-9.286292205036908"><ele>189.33333333333331</ele><time>2026-05-01T12:57:58Z</time></trkpt><trkpt lat="38.87891496396701" lon="-9.286119611373492"><ele>190.66666666666666</ele><time>2026-05-01T12:57:59Z</time></trkpt><trkpt lat="38.878833752444656" lon="-9.285955887182688"><ele>192.0</ele><time>2026-05-01T12:58:00Z</time></trkpt><trkpt lat="38.8787526815403" lon="-9.28579550170045"><ele>192.0</ele><time>2026-05-01T12:58:01Z</time></trkpt><trkpt lat="38.878673348661" lon="-9.285640085637457"><ele>192.0</ele><time>2026-05-01T12:58:02Z</time></trkpt><trkpt lat="38.87860948365987" lon="-9.285480754472864"><ele>192.0</ele><time>2026-05-01T12:58:03Z</time></trkpt><trkpt lat="38.87853794627558" lon="-9.285338841890109"><ele>192.0</ele><time>2026-05-01T12:58:04Z</time></trkpt><trkpt lat="38.878469579495885" lon="-9.285205155923508"><ele>194.0</ele><time>2026-05-01T12:58:05Z</time></trkpt><trkpt lat="38.878396451318956" lon="-9.285064022323754"><ele>196.0</ele><time>2026-05-01T12:58:06Z</time></trkpt><trkpt lat="38.8783017817228" lon="-9.284920472959925"><ele>198.0</ele><time>2026-05-01T12:58:07Z</time></trkpt><trkpt lat="38.87821556975675" lon="-9.284759848823281"><ele>200.0</ele><time>2026-05-01T12:58:08Z</time></trkpt><trkpt lat="38.87814265833933" lon="-9.284619174043435"><ele>200.0</ele><time>2026-05-01T12:58:09Z</time></trkpt><trkpt lat="38.87807585959101" lon="-9.284488602773695"><ele>200.0</ele><time>2026-05-01T12:58:10Z</time></trkpt><trkpt lat="38.87802014644892" lon="-9.284367950472136"><ele>200.0</ele><time>2026-05-01T12:58:11Z</time></trkpt><trkpt lat="38.87797611425349" lon="-9.284222311989238"><ele>200.0</ele><time>2026-05-01T12:58:12Z</time></trkpt><trkpt lat="38.87797069006147" lon="-9.284055907274011"><ele>200.2</ele><time>2026-05-01T12:58:13Z</time></trkpt><trkpt lat="38.87802160821983" lon="-9.283891781324979"><ele>200.4</ele><time>2026-05-01T12:58:14Z</time></trkpt><trkpt lat="38.878056814317674" lon="-9.283748440973758"><ele>200.60000000000002</ele><time>2026-05-01T12:58:15Z</time></trkpt><trkpt lat="38.87810855889743" lon="-9.283631276540428"><ele>200.8</ele><time>2026-05-01T12:58:16Z</time></trkpt><trkpt lat="38.878153548440395" lon="-9.283538079188862"><ele>201.0</ele><time>2026-05-01T12:58:17Z</time></trkpt><trkpt lat="38.878201135280754" lon="-9.28341647771796"><ele>201.0</ele><time>2026-05-01T12:58:19Z</time></trkpt><trkpt lat="38.878030381320876" lon="-9.283320011591972"><ele>201.0</ele><time>2026-05-01T12:58:22Z</time></trkpt><trkpt lat="38.877933943890376" lon="-9.283243555992987"><ele>201.0</ele><time>2026-05-01T12:58:23Z</time></trkpt><trkpt lat="38.87784330231367" lon="-9.283170919806281"><ele>201.0</ele><time>2026-05-01T12:58:24Z</time></trkpt><trkpt lat="38.877759086253214" lon="-9.283094419724241"><ele>201.75</ele><time>2026-05-01T12:58:25Z</time></trkpt><trkpt lat="38.877667199439415" lon="-9.28300914580048"><ele>202.5</ele><time>2026-05-01T12:58:26Z</time></trkpt><trkpt lat="38.87753626355651" lon="-9.282979169766964"><ele>203.25</ele><time>2026-05-01T12:58:27Z</time></trkpt><trkpt lat="38.87739959543925" lon="-9.282933255367906"><ele>204.0</ele><time>2026-05-01T12:58:28Z</time></trkpt><trkpt lat="38.87727964369824" lon="-9.282876020303254"><ele>204.25</ele><time>2026-05-01T12:58:29Z</time></trkpt><trkpt lat="38.877150820197826" lon="-9.28285214086372"><ele>204.5</ele><time>2026-05-01T12:58:30Z</time></trkpt><trkpt lat="38.87703159603654" lon="-9.282828331911812"><ele>204.75</ele><time>2026-05-01T12:58:31Z</time></trkpt><trkpt lat="38.876923946826686" lon="-9.282764628871318"><ele>205.0</ele><time>2026-05-01T12:58:32Z</time></trkpt><trkpt lat="38.87683791580969" lon="-9.282675828100501"><ele>204.66666666666666</ele><time>2026-05-01T12:58:33Z</time></trkpt><trkpt lat="38.87676386534405" lon="-9.282595181927665"><ele>204.33333333333331</ele><time>2026-05-01T12:58:34Z</time></trkpt><trkpt lat="38.876695164557376" lon="-9.282527981879621"><ele>204.0</ele><time>2026-05-01T12:58:35Z</time></trkpt><trkpt lat="38.87663198223215" lon="-9.282474612846848"><ele>203.66666666666669</ele><time>2026-05-01T12:58:36Z</time></trkpt><trkpt lat="38.87656345321199" lon="-9.282450449827172"><ele>203.33333333333334</ele><time>2026-05-01T12:58:37Z</time></trkpt><trkpt lat="38.87647712746364" lon="-9.282399236503238"><ele>203.0</ele><time>2026-05-01T12:58:39Z</time></trkpt><trkpt lat="38.8763748615673" lon="-9.282490379453469"><ele>203.0</ele><time>2026-05-01T12:58:42Z</time></trkpt><trkpt lat="38.87632134676058" lon="-9.282637847042276"><ele>203.0</ele><time>2026-05-01T12:58:43Z</time></trkpt><trkpt lat="38.87626747606216" lon="-9.28278180929771"><ele>203.0</ele><time>2026-05-01T12:58:44Z</time></trkpt><trkpt lat="38.87620659236601" lon="-9.282931417123354"><ele>203.0</ele><time>2026-05-01T12:58:45Z</time></trkpt><trkpt lat="38.876143024353986" lon="-9.283097819120998"><ele>203.0</ele><time>2026-05-01T12:58:46Z</time></trkpt><trkpt lat="38.876075239113256" lon="-9.283264257946806"><ele>203.0</ele><time>2026-05-01T12:58:47Z</time></trkpt><trkpt lat="38.876005351380265" lon="-9.2834249540622"><ele>203.0</ele><time>2026-05-01T12:58:48Z</time></trkpt><trkpt lat="38.87593205406011" lon="-9.283563421592522"><ele>203.0</ele><time>2026-05-01T12:58:49Z</time></trkpt><trkpt lat="38.87584915790088" lon="-9.283691388436614"><ele>202.66666666666669</ele><time>2026-05-01T12:58:50Z</time></trkpt><trkpt lat="38.875746761883136" lon="-9.283824632050417"><ele>202.33333333333331</ele><time>2026-05-01T12:58:51Z</time></trkpt><trkpt lat="38.87562031606861" lon="-9.283962767586669"><ele>202.0</ele><time>2026-05-01T12:58:52Z</time></trkpt><trkpt lat="38.87548262310318" lon="-9.28408199847108"><ele>203.25</ele><time>2026-05-01T12:58:53Z</time></trkpt><trkpt lat="38.87534498519999" lon="-9.284176015040797"><ele>204.5</ele><time>2026-05-01T12:58:54Z</time></trkpt><trkpt lat="38.87521843278744" lon="-9.284239839983291"><ele>205.75</ele><time>2026-05-01T12:58:55Z</time></trkpt><trkpt lat="38.87509744725629" lon="-9.284288419967599"><ele>207.0</ele><time>2026-05-01T12:58:56Z</time></trkpt><trkpt lat="38.874985264969915" lon="-9.284327794910576"><ele>207.25</ele><time>2026-05-01T12:58:57Z</time></trkpt><trkpt lat="38.874871079664494" lon="-9.284365624353258"><ele>207.5</ele><time>2026-05-01T12:58:58Z</time></trkpt><trkpt lat="38.874749219799014" lon="-9.284398496524574"><ele>207.75</ele><time>2026-05-01T12:58:59Z</time></trkpt><trkpt lat="38.87462979164286" lon="-9.284422620121392"><ele>208.0</ele><time>2026-05-01T12:59:00Z</time></trkpt><trkpt lat="38.87451443171986" lon="-9.284447560579107"><ele>208.0</ele><time>2026-05-01T12:59:01Z</time></trkpt><trkpt lat="38.87440652837553" lon="-9.284463261941674"><ele>208.0</ele><time>2026-05-01T12:59:02Z</time></trkpt><trkpt lat="38.87429739390433" lon="-9.284487836333861"><ele>208.0</ele><time>2026-05-01T12:59:03Z</time></trkpt><trkpt lat="38.874181605262805" lon="-9.28451753351489"><ele>208.0</ele><time>2026-05-01T12:59:04Z</time></trkpt><trkpt lat="38.87405986445751" lon="-9.284559386244458"><ele>206.75</ele><time>2026-05-01T12:59:05Z</time></trkpt><trkpt lat="38.87394211395867" lon="-9.28460964037803"><ele>205.5</ele><time>2026-05-01T12:59:06Z</time></trkpt><trkpt lat="38.87382713117553" lon="-9.284664859684208"><ele>204.25</ele><time>2026-05-01T12:59:07Z</time></trkpt><trkpt lat="38.87371509972905" lon="-9.284729515310213"><ele>203.0</ele><time>2026-05-01T12:59:08Z</time></trkpt><trkpt lat="38.87360262086058" lon="-9.284806578235363"><ele>204.25</ele><time>2026-05-01T12:59:09Z</time></trkpt><trkpt lat="38.87348998717934" lon="-9.284890712390542"><ele>205.5</ele><time>2026-05-01T12:59:10Z</time></trkpt><trkpt lat="38.873385407063715" lon="-9.284981200711934"><ele>206.75</ele><time>2026-05-01T12:59:11Z</time></trkpt><trkpt lat="38.87328434618573" lon="-9.285080041847898"><ele>208.0</ele><time>2026-05-01T12:59:12Z</time></trkpt><trkpt lat="38.873194465604705" lon="-9.285176159717578"><ele>208.0</ele><time>2026-05-01T12:59:13Z</time></trkpt><trkpt lat="38.87310729717379" lon="-9.285276121863411"><ele>208.0</ele><time>2026-05-01T12:59:14Z</time></trkpt><trkpt lat="38.87301787777839" lon="-9.285382586188994"><ele>208.0</ele><time>2026-05-01T12:59:15Z</time></trkpt><trkpt lat="38.87292871112621" lon="-9.285485967588153"><ele>208.0</ele><time>2026-05-01T12:59:16Z</time></trkpt><trkpt lat="38.87283726140379" lon="-9.285589241423631"><ele>208.25</ele><time>2026-05-01T12:59:17Z</time></trkpt><trkpt lat="38.87274044551794" lon="-9.285682082672304"><ele>208.5</ele><time>2026-05-01T12:59:18Z</time></trkpt><trkpt lat="38.8726395824857" lon="-9.285769915333402"><ele>208.75</ele><time>2026-05-01T12:59:19Z</time></trkpt><trkpt lat="38.87252830666163" lon="-9.285854424831399"><ele>209.0</ele><time>2026-05-01T12:59:20Z</time></trkpt><trkpt lat="38.87239950306762" lon="-9.285931047436913"><ele>209.0</ele><time>2026-05-01T12:59:21Z</time></trkpt><trkpt lat="38.872269190437606" lon="-9.285989297045191"><ele>209.0</ele><time>2026-05-01T12:59:22Z</time></trkpt><trkpt lat="38.8721436072172" lon="-9.28603536463922"><ele>209.0</ele><time>2026-05-01T12:59:23Z</time></trkpt><trkpt lat="38.87201984090295" lon="-9.286072223682291"><ele>209.0</ele><time>2026-05-01T12:59:24Z</time></trkpt><trkpt lat="38.87189679868245" lon="-9.286104350463726"><ele>209.0</ele><time>2026-05-01T12:59:25Z</time></trkpt><trkpt lat="38.8717740090945" lon="-9.286124938888356"><ele>209.0</ele><time>2026-05-01T12:59:26Z</time></trkpt><trkpt lat="38.87165180886253" lon="-9.286142672305239"><ele>209.0</ele><time>2026-05-01T12:59:27Z</time></trkpt><trkpt lat="38.871521044449516" lon="-9.286168063728082"><ele>209.0</ele><time>2026-05-01T12:59:28Z</time></trkpt><trkpt lat="38.87139072314948" lon="-9.28619488905062"><ele>207.5</ele><time>2026-05-01T12:59:29Z</time></trkpt><trkpt lat="38.87126458728387" lon="-9.28622176547963"><ele>206.0</ele><time>2026-05-01T12:59:30Z</time></trkpt><trkpt lat="38.871142831050314" lon="-9.286251867217466"><ele>204.5</ele><time>2026-05-01T12:59:31Z</time></trkpt><trkpt lat="38.87102226897245" lon="-9.286286186038879"><ele>203.0</ele><time>2026-05-01T12:59:32Z</time></trkpt><trkpt lat="38.87091365073912" lon="-9.286320409102698"><ele>202.75</ele><time>2026-05-01T12:59:33Z</time></trkpt><trkpt lat="38.870804536209896" lon="-9.286364211121905"><ele>202.5</ele><time>2026-05-01T12:59:34Z</time></trkpt><trkpt lat="38.87069528653522" lon="-9.286415001350088"><ele>202.25</ele><time>2026-05-01T12:59:35Z</time></trkpt><trkpt lat="38.870580050971206" lon="-9.286475221848375"><ele>202.0</ele><time>2026-05-01T12:59:36Z</time></trkpt><trkpt lat="38.870461181153466" lon="-9.286551249252714"><ele>200.0</ele><time>2026-05-01T12:59:37Z</time></trkpt><trkpt lat="38.87034797502582" lon="-9.28664497473167"><ele>198.0</ele><time>2026-05-01T12:59:38Z</time></trkpt><trkpt lat="38.87023879238627" lon="-9.286754557120071"><ele>196.0</ele><time>2026-05-01T12:59:39Z</time></trkpt><trkpt lat="38.87013341521223" lon="-9.28689092909283"><ele>194.0</ele><time>2026-05-01T12:59:40Z</time></trkpt><trkpt lat="38.870037709433795" lon="-9.28703656812762"><ele>193.0</ele><time>2026-05-01T12:59:41Z</time></trkpt><trkpt lat="38.86995136899743" lon="-9.28718966420772"><ele>192.0</ele><time>2026-05-01T12:59:42Z</time></trkpt><trkpt lat="38.869877508723114" lon="-9.287354880380153"><ele>191.0</ele><time>2026-05-01T12:59:43Z</time></trkpt><trkpt lat="38.86981230818788" lon="-9.287522071174445"><ele>190.0</ele><time>2026-05-01T12:59:44Z</time></trkpt><trkpt lat="38.86976468360291" lon="-9.287694950599374"><ele>188.75</ele><time>2026-05-01T12:59:45Z</time></trkpt><trkpt lat="38.869728496586255" lon="-9.287868082730453"><ele>187.5</ele><time>2026-05-01T12:59:46Z</time></trkpt><trkpt lat="38.86970531857171" lon="-9.288049172569734"><ele>186.25</ele><time>2026-05-01T12:59:47Z</time></trkpt><trkpt lat="38.86969157003724" lon="-9.288232423292873"><ele>185.0</ele><time>2026-05-01T12:59:48Z</time></trkpt><trkpt lat="38.86969193357793" lon="-9.288418553495806"><ele>183.33333333333331</ele><time>2026-05-01T12:59:49Z</time></trkpt><trkpt lat="38.86969359608481" lon="-9.288607221661264"><ele>181.66666666666666</ele><time>2026-05-01T12:59:50Z</time></trkpt><trkpt lat="38.86969960805222" lon="-9.288800642029624"><ele>180.0</ele><time>2026-05-01T12:59:51Z</time></trkpt><trkpt lat="38.869702964914566" lon="-9.288996462166375"><ele>179.25</ele><time>2026-05-01T12:59:52Z</time></trkpt><trkpt lat="38.86970739678096" lon="-9.289188508991417"><ele>178.5</ele><time>2026-05-01T12:59:53Z</time></trkpt><trkpt lat="38.869710886768885" lon="-9.289376986193348"><ele>177.75</ele><time>2026-05-01T12:59:54Z</time></trkpt><trkpt lat="38.86971326582163" lon="-9.289563496746405"><ele>177.0</ele><time>2026-05-01T12:59:55Z</time></trkpt><trkpt lat="38.869716029608725" lon="-9.289743051692053"><ele>177.0</ele><time>2026-05-01T12:59:56Z</time></trkpt><trkpt lat="38.869719895580616" lon="-9.289912156057643"><ele>177.0</ele><time>2026-05-01T12:59:57Z</time></trkpt><trkpt lat="38.86972199620528" lon="-9.29007387689786"><ele>177.0</ele><time>2026-05-01T12:59:58Z</time></trkpt><trkpt lat="38.869712006597055" lon="-9.290224179709055"><ele>177.0</ele><time>2026-05-01T12:59:59Z</time></trkpt><trkpt lat="38.869712253138154" lon="-9.290371316397035"><ele>177.0</ele><time>2026-05-01T13:00:00Z</time></trkpt><trkpt lat="38.86972178970673" lon="-9.290510983603246"><ele>177.0</ele><time>2026-05-01T13:00:01Z</time></trkpt><trkpt lat="38.869724444349906" lon="-9.29064401782055"><ele>177.0</ele><time>2026-05-01T13:00:02Z</time></trkpt><trkpt lat="38.86970972214788" lon="-9.29077758420285"><ele>177.0</ele><time>2026-05-01T13:00:03Z</time></trkpt><trkpt lat="38.86966324149996" lon="-9.290898049827454"><ele>177.0</ele><time>2026-05-01T13:00:04Z</time></trkpt><trkpt lat="38.869627770370066" lon="-9.291026160976575"><ele>176.0</ele><time>2026-05-01T13:00:05Z</time></trkpt><trkpt lat="38.86958662574967" lon="-9.291127450015779"><ele>175.0</ele><time>2026-05-01T13:00:06Z</time></trkpt><trkpt lat="38.869682005136525" lon="-9.291307753966294"><ele>174.0</ele><time>2026-05-01T13:00:07Z</time></trkpt><trkpt lat="38.86975524787114" lon="-9.291464200843858"><ele>173.0</ele><time>2026-05-01T13:00:08Z</time></trkpt><trkpt lat="38.8698040188495" lon="-9.29163133709836"><ele>172.75</ele><time>2026-05-01T13:00:09Z</time></trkpt><trkpt lat="38.86984133933182" lon="-9.291792611668003"><ele>172.5</ele><time>2026-05-01T13:00:10Z</time></trkpt><trkpt lat="38.869864512823604" lon="-9.291957715678791"><ele>172.25</ele><time>2026-05-01T13:00:11Z</time></trkpt><trkpt lat="38.86988220639533" lon="-9.29213484393579"><ele>172.0</ele><time>2026-05-01T13:00:12Z</time></trkpt><trkpt lat="38.869897215269475" lon="-9.292318265680581"><ele>171.5</ele><time>2026-05-01T13:00:13Z</time></trkpt><trkpt lat="38.869915593145585" lon="-9.292505763473237"><ele>171.0</ele><time>2026-05-01T13:00:14Z</time></trkpt><trkpt lat="38.86993300648117" lon="-9.292693260641627"><ele>170.5</ele><time>2026-05-01T13:00:15Z</time></trkpt><trkpt lat="38.8699459045832" lon="-9.2928700981406"><ele>170.0</ele><time>2026-05-01T13:00:16Z</time></trkpt><trkpt lat="38.869955886490814" lon="-9.293037546543772"><ele>169.5</ele><time>2026-05-01T13:00:17Z</time></trkpt><trkpt lat="38.869961049327244" lon="-9.29320875144489"><ele>169.0</ele><time>2026-05-01T13:00:18Z</time></trkpt><trkpt lat="38.86995671055036" lon="-9.293378631911432"><ele>168.5</ele><time>2026-05-01T13:00:19Z</time></trkpt><trkpt lat="38.86994117120538" lon="-9.293520094524746"><ele>168.0</ele><time>2026-05-01T13:00:20Z</time></trkpt><trkpt lat="38.86992491368681" lon="-9.29364906618159"><ele>168.0</ele><time>2026-05-01T13:00:21Z</time></trkpt><trkpt lat="38.869906758282" lon="-9.293775609140022"><ele>168.0</ele><time>2026-05-01T13:00:22Z</time></trkpt><trkpt lat="38.86989090939223" lon="-9.293897871990152"><ele>168.0</ele><time>2026-05-01T13:00:23Z</time></trkpt><trkpt lat="38.86987326760352" lon="-9.294022450662808"><ele>168.0</ele><time>2026-05-01T13:00:24Z</time></trkpt><trkpt lat="38.86985430469528" lon="-9.294150962789548"><ele>168.0</ele><time>2026-05-01T13:00:25Z</time></trkpt><trkpt lat="38.86983435273882" lon="-9.294271614319491"><ele>167.83333333333334</ele><time>2026-05-01T13:00:26Z</time></trkpt><trkpt lat="38.86981428131614" lon="-9.294390298053697"><ele>167.66666666666666</ele><time>2026-05-01T13:00:27Z</time></trkpt><trkpt lat="38.86979461898086" lon="-9.294508023202651"><ele>167.5</ele><time>2026-05-01T13:00:28Z</time></trkpt><trkpt lat="38.86977714431019" lon="-9.294620889610146"><ele>167.33333333333331</ele><time>2026-05-01T13:00:29Z</time></trkpt><trkpt lat="38.869762472171985" lon="-9.294726474610817"><ele>167.16666666666666</ele><time>2026-05-01T13:00:30Z</time></trkpt><trkpt lat="38.86974701966253" lon="-9.294822558540785"><ele>167.0</ele><time>2026-05-01T13:00:31Z</time></trkpt><trkpt lat="38.869732342507845" lon="-9.294902938628468"><ele>167.39999999999998</ele><time>2026-05-01T13:00:32Z</time></trkpt><trkpt lat="38.869707474319945" lon="-9.295035399739987"><ele>167.79999999999998</ele><time>2026-05-01T13:00:34Z</time></trkpt><trkpt lat="38.86969009227837" lon="-9.295129123398281"><ele>168.2</ele><time>2026-05-01T13:00:36Z</time></trkpt><trkpt lat="38.86975669738604" lon="-9.295166035765138"><ele>168.6</ele><time>2026-05-01T13:00:41Z</time></trkpt><trkpt lat="38.86985852397867" lon="-9.295159864747102"><ele>169.0</ele><time>2026-05-01T13:00:45Z</time></trkpt><trkpt lat="38.869955047834004" lon="-9.295143149700012"><ele>169.0</ele><time>2026-05-01T13:00:47Z</time></trkpt><trkpt lat="38.87006852254228" lon="-9.295131915609556"><ele>169.0</ele><time>2026-05-01T13:00:49Z</time></trkpt><trkpt lat="38.87016662853742" lon="-9.29512326360268"><ele>169.0</ele><time>2026-05-01T13:00:51Z</time></trkpt><trkpt lat="38.87025854336557" lon="-9.295114482901962"><ele>169.0</ele><time>2026-05-01T13:00:53Z</time></trkpt><trkpt lat="38.870349050281646" lon="-9.295094776539608"><ele>169.0</ele><time>2026-05-01T13:00:55Z</time></trkpt><trkpt lat="38.87044943885765" lon="-9.295072696777329"><ele>168.6</ele><time>2026-05-01T13:00:57Z</time></trkpt><trkpt lat="38.870541138750774" lon="-9.29506019690234"><ele>168.2</ele><time>2026-05-01T13:00:59Z</time></trkpt><trkpt lat="38.870630674590245" lon="-9.295038183380687"><ele>167.79999999999998</ele><time>2026-05-01T13:01:02Z</time></trkpt><trkpt lat="38.870531182524296" lon="-9.295060380761237"><ele>167.39999999999998</ele><time>2026-05-01T13:01:21Z</time></trkpt><trkpt lat="38.87043809358137" lon="-9.29507205393869"><ele>167.0</ele><time>2026-05-01T13:01:23Z</time></trkpt><trkpt lat="38.87033831810476" lon="-9.295090320820952"><ele>167.0</ele><time>2026-05-01T13:01:25Z</time></trkpt><trkpt lat="38.87022190749795" lon="-9.295115456992015"><ele>167.0</ele><time>2026-05-01T13:01:27Z</time></trkpt><trkpt lat="38.870113164983316" lon="-9.295127979836426"><ele>167.0</ele><time>2026-05-01T13:01:29Z</time></trkpt><trkpt lat="38.87000686798358" lon="-9.295140249611462"><ele>167.0</ele><time>2026-05-01T13:01:31Z</time></trkpt><trkpt lat="38.86989933604611" lon="-9.295146589862863"><ele>167.0</ele><time>2026-05-01T13:01:33Z</time></trkpt><trkpt lat="38.869801716913614" lon="-9.295166179507284"><ele>167.0</ele><time>2026-05-01T13:01:35Z</time></trkpt><trkpt lat="38.86972948957616" lon="-9.295186243266638"><ele>167.0</ele><time>2026-05-01T13:01:37Z</time></trkpt><trkpt lat="38.86966933024212" lon="-9.295130007683197"><ele>167.0</ele><time>2026-05-01T13:01:44Z</time></trkpt><trkpt lat="38.869664772381974" lon="-9.295027290820244"><ele>167.0</ele><time>2026-05-01T13:01:46Z</time></trkpt><trkpt lat="38.869694754469734" lon="-9.294889551448437"><ele>167.0</ele><time>2026-05-01T13:01:48Z</time></trkpt><trkpt lat="38.86971086181355" lon="-9.294775183381308"><ele>167.0</ele><time>2026-05-01T13:01:50Z</time></trkpt><trkpt lat="38.86973341916673" lon="-9.294641102871045"><ele>167.0</ele><time>2026-05-01T13:01:52Z</time></trkpt><trkpt lat="38.869749999818815" lon="-9.29451942764395"><ele>167.0</ele><time>2026-05-01T13:01:54Z</time></trkpt><trkpt lat="38.86977691820727" lon="-9.294382347710249"><ele>167.0</ele><time>2026-05-01T13:01:56Z</time></trkpt><trkpt lat="38.86980561870337" lon="-9.294240033823701"><ele>167.0</ele><time>2026-05-01T13:01:58Z</time></trkpt><trkpt lat="38.86981294193157" lon="-9.29409784629394"><ele>167.0</ele><time>2026-05-01T13:02:00Z</time></trkpt><trkpt lat="38.86983348714553" lon="-9.293961534686058"><ele>167.16666666666666</ele><time>2026-05-01T13:02:02Z</time></trkpt><trkpt lat="38.869854708132785" lon="-9.293814659268238"><ele>167.33333333333331</ele><time>2026-05-01T13:02:04Z</time></trkpt><trkpt lat="38.86987636073341" lon="-9.2936489481272"><ele>167.5</ele><time>2026-05-01T13:02:06Z</time></trkpt><trkpt lat="38.86988628804339" lon="-9.293561608929778"><ele>167.66666666666666</ele><time>2026-05-01T13:02:07Z</time></trkpt><trkpt lat="38.869894397636884" lon="-9.293479426905908"><ele>167.83333333333334</ele><time>2026-05-01T13:02:08Z</time></trkpt><trkpt lat="38.86991498914389" lon="-9.293401453360918"><ele>168.0</ele><time>2026-05-01T13:02:09Z</time></trkpt><trkpt lat="38.86991776065385" lon="-9.293313645309428"><ele>168.0</ele><time>2026-05-01T13:02:10Z</time></trkpt><trkpt lat="38.869917660442326" lon="-9.293166906521684"><ele>168.0</ele><time>2026-05-01T13:02:12Z</time></trkpt><trkpt lat="38.86990463557293" lon="-9.293079917377424"><ele>168.0</ele><time>2026-05-01T13:02:13Z</time></trkpt><trkpt lat="38.86989970296852" lon="-9.292931241265492"><ele>168.0</ele><time>2026-05-01T13:02:15Z</time></trkpt><trkpt lat="38.86990311674386" lon="-9.292778079015676"><ele>168.0</ele><time>2026-05-01T13:02:17Z</time></trkpt><trkpt lat="38.869890610240425" lon="-9.292695867187083"><ele>168.28571428571428</ele><time>2026-05-01T13:02:18Z</time></trkpt><trkpt lat="38.869869331860784" lon="-9.292561433208194"><ele>168.57142857142856</ele><time>2026-05-01T13:02:20Z</time></trkpt><trkpt lat="38.86986063845153" lon="-9.292476620401027"><ele>168.85714285714286</ele><time>2026-05-01T13:02:21Z</time></trkpt><trkpt lat="38.86985078989271" lon="-9.292388744160817"><ele>169.14285714285714</ele><time>2026-05-01T13:02:22Z</time></trkpt><trkpt lat="38.86984043202182" lon="-9.292296546297267"><ele>169.42857142857142</ele><time>2026-05-01T13:02:23Z</time></trkpt><trkpt lat="38.869830366032375" lon="-9.292206946460878"><ele>169.71428571428572</ele><time>2026-05-01T13:02:24Z</time></trkpt><trkpt lat="38.86982082575534" lon="-9.292125779975585"><ele>170.0</ele><time>2026-05-01T13:02:25Z</time></trkpt><trkpt lat="38.869810206173845" lon="-9.292036796649326"><ele>170.4</ele><time>2026-05-01T13:02:26Z</time></trkpt><trkpt lat="38.869799804791754" lon="-9.291951947805773"><ele>170.8</ele><time>2026-05-01T13:02:27Z</time></trkpt><trkpt lat="38.86979449647573" lon="-9.291796236349095"><ele>171.2</ele><time>2026-05-01T13:02:29Z</time></trkpt><trkpt lat="38.86976666980289" lon="-9.291649039488556"><ele>171.6</ele><time>2026-05-01T13:02:31Z</time></trkpt><trkpt lat="38.869744791909085" lon="-9.29151762983683"><ele>172.0</ele><time>2026-05-01T13:02:33Z</time></trkpt><trkpt lat="38.869699354911376" lon="-9.291421689218469"><ele>172.0</ele><time>2026-05-01T13:02:35Z</time></trkpt><trkpt lat="38.86976426833004" lon="-9.29154730033669"><ele>172.0</ele><time>2026-05-01T13:02:39Z</time></trkpt><trkpt lat="38.86982522885788" lon="-9.291597409688494"><ele>172.0</ele><time>2026-05-01T13:02:40Z</time></trkpt><trkpt lat="38.869831358011474" lon="-9.291687017302873"><ele>172.0</ele><time>2026-05-01T13:02:41Z</time></trkpt><trkpt lat="38.869839178872674" lon="-9.291782173193118"><ele>172.0</ele><time>2026-05-01T13:02:42Z</time></trkpt><trkpt lat="38.869845360160504" lon="-9.291869254452015"><ele>172.0</ele><time>2026-05-01T13:02:43Z</time></trkpt><trkpt lat="38.869851073506155" lon="-9.291960250297862"><ele>172.0</ele><time>2026-05-01T13:02:44Z</time></trkpt><trkpt lat="38.86986399254145" lon="-9.292041063246176"><ele>172.0</ele><time>2026-05-01T13:02:45Z</time></trkpt><trkpt lat="38.86987760498227" lon="-9.29220392678701"><ele>172.0</ele><time>2026-05-01T13:02:47Z</time></trkpt><trkpt lat="38.86990358744621" lon="-9.292360277072522"><ele>172.0</ele><time>2026-05-01T13:02:49Z</time></trkpt><trkpt lat="38.86991574018979" lon="-9.29244802797155"><ele>172.0</ele><time>2026-05-01T13:02:50Z</time></trkpt><trkpt lat="38.86992387471363" lon="-9.292530892373323"><ele>171.6</ele><time>2026-05-01T13:02:51Z</time></trkpt><trkpt lat="38.86993940812143" lon="-9.292691209327112"><ele>171.2</ele><time>2026-05-01T13:02:53Z</time></trkpt><trkpt lat="38.86994777856454" lon="-9.292776425732619"><ele>170.8</ele><time>2026-05-01T13:02:54Z</time></trkpt><trkpt lat="38.8699543510009" lon="-9.292860261950212"><ele>170.4</ele><time>2026-05-01T13:02:55Z</time></trkpt><trkpt lat="38.86996578229646" lon="-9.293022112221855"><ele>170.0</ele><time>2026-05-01T13:02:57Z</time></trkpt><trkpt lat="38.86996593549628" lon="-9.293168681591133"><ele>169.66666666666666</ele><time>2026-05-01T13:02:59Z</time></trkpt><trkpt lat="38.86996539494183" lon="-9.293302502532994"><ele>169.33333333333331</ele><time>2026-05-01T13:03:01Z</time></trkpt><trkpt lat="38.8699678219742" lon="-9.293415569983045"><ele>169.0</ele><time>2026-05-01T13:03:03Z</time></trkpt><trkpt lat="38.86996605982183" lon="-9.293502667554092"><ele>168.66666666666666</ele><time>2026-05-01T13:03:05Z</time></trkpt><trkpt lat="38.869925818346736" lon="-9.293577726034213"><ele>168.33333333333334</ele><time>2026-05-01T13:04:30Z</time></trkpt><trkpt lat="38.86988236580772" lon="-9.293439739556632"><ele>168.0</ele><time>2026-05-01T13:04:33Z</time></trkpt><trkpt lat="38.869910389838296" lon="-9.293303154220355"><ele>168.0</ele><time>2026-05-01T13:04:34Z</time></trkpt><trkpt lat="38.86992023517841" lon="-9.29318595793693"><ele>168.0</ele><time>2026-05-01T13:04:35Z</time></trkpt><trkpt lat="38.86991711051056" lon="-9.293077458192391"><ele>168.0</ele><time>2026-05-01T13:04:36Z</time></trkpt><trkpt lat="38.869912836823765" lon="-9.292959002681922"><ele>168.0</ele><time>2026-05-01T13:04:37Z</time></trkpt><trkpt lat="38.86990526453775" lon="-9.292833269880624"><ele>168.0</ele><time>2026-05-01T13:04:38Z</time></trkpt><trkpt lat="38.86989669029072" lon="-9.292703112696412"><ele>168.4</ele><time>2026-05-01T13:04:39Z</time></trkpt><trkpt lat="38.869886506081954" lon="-9.292573513830474"><ele>168.8</ele><time>2026-05-01T13:04:40Z</time></trkpt><trkpt lat="38.86985743755144" lon="-9.292447916477995"><ele>169.2</ele><time>2026-05-01T13:04:41Z</time></trkpt><trkpt lat="38.86986359635316" lon="-9.292315996990977"><ele>169.6</ele><time>2026-05-01T13:04:42Z</time></trkpt><trkpt lat="38.869855615874265" lon="-9.292187157615704"><ele>170.0</ele><time>2026-05-01T13:04:43Z</time></trkpt><trkpt lat="38.86981485187331" lon="-9.29207572403711"><ele>170.4</ele><time>2026-05-01T13:04:44Z</time></trkpt><trkpt lat="38.869810246386784" lon="-9.291951021365005"><ele>170.8</ele><time>2026-05-01T13:04:45Z</time></trkpt><trkpt lat="38.86980102853012" lon="-9.291833425399458"><ele>171.2</ele><time>2026-05-01T13:04:46Z</time></trkpt><trkpt lat="38.86977004337427" lon="-9.291718778387331"><ele>171.6</ele><time>2026-05-01T13:04:47Z</time></trkpt><trkpt lat="38.869771598656506" lon="-9.291602701193085"><ele>172.0</ele><time>2026-05-01T13:04:48Z</time></trkpt><trkpt lat="38.86974710038515" lon="-9.29149313534667"><ele>172.16666666666669</ele><time>2026-05-01T13:04:49Z</time></trkpt><trkpt lat="38.86970267799721" lon="-9.291397697377283"><ele>172.33333333333334</ele><time>2026-05-01T13:04:50Z</time></trkpt><trkpt lat="38.86964324522153" lon="-9.291321824367335"><ele>172.5</ele><time>2026-05-01T13:04:51Z</time></trkpt><trkpt lat="38.869570422789266" lon="-9.291273829401852"><ele>172.66666666666666</ele><time>2026-05-01T13:04:52Z</time></trkpt><trkpt lat="38.8695094977225" lon="-9.291229927062565"><ele>172.83333333333331</ele><time>2026-05-01T13:04:53Z</time></trkpt><trkpt lat="38.86939447401282" lon="-9.291276203464403"><ele>173.0</ele><time>2026-05-01T13:04:54Z</time></trkpt><trkpt lat="38.86928958355039" lon="-9.291330474833847"><ele>172.75</ele><time>2026-05-01T13:04:55Z</time></trkpt><trkpt lat="38.8691735746648" lon="-9.291384607312498"><ele>172.5</ele><time>2026-05-01T13:04:56Z</time></trkpt><trkpt lat="38.869046539796614" lon="-9.291421480480581"><ele>172.25</ele><time>2026-05-01T13:04:57Z</time></trkpt><trkpt lat="38.86891807537164" lon="-9.291450886151598"><ele>172.0</ele><time>2026-05-01T13:04:58Z</time></trkpt><trkpt lat="38.868783577932554" lon="-9.291473448314537"><ele>172.0</ele><time>2026-05-01T13:04:59Z</time></trkpt><trkpt lat="38.868650352074056" lon="-9.291492243209804"><ele>172.0</ele><time>2026-05-01T13:05:00Z</time></trkpt><trkpt lat="38.86851741427536" lon="-9.291513341307178"><ele>172.0</ele><time>2026-05-01T13:05:01Z</time></trkpt><trkpt lat="38.86838652405749" lon="-9.291535515361327"><ele>172.0</ele><time>2026-05-01T13:05:02Z</time></trkpt><trkpt lat="38.8682548195698" lon="-9.291561471297578"><ele>173.5</ele><time>2026-05-01T13:05:03Z</time></trkpt><trkpt lat="38.86812500722398" lon="-9.291592363284348"><ele>175.0</ele><time>2026-05-01T13:05:04Z</time></trkpt><trkpt lat="38.86799409365519" lon="-9.29162888871868"><ele>176.5</ele><time>2026-05-01T13:05:05Z</time></trkpt><trkpt lat="38.8678701087015" lon="-9.29167183983506"><ele>178.0</ele><time>2026-05-01T13:05:06Z</time></trkpt><trkpt lat="38.867743632689056" lon="-9.291724828770777"><ele>178.0</ele><time>2026-05-01T13:05:07Z</time></trkpt><trkpt lat="38.86761043828055" lon="-9.291791127404721"><ele>178.0</ele><time>2026-05-01T13:05:08Z</time></trkpt><trkpt lat="38.86747705596404" lon="-9.29186673465108"><ele>178.0</ele><time>2026-05-01T13:05:09Z</time></trkpt><trkpt lat="38.867344400011326" lon="-9.291957338446727"><ele>178.0</ele><time>2026-05-01T13:05:10Z</time></trkpt><trkpt lat="38.86721678392421" lon="-9.292057020120414"><ele>179.25</ele><time>2026-05-01T13:05:11Z</time></trkpt><trkpt lat="38.8671005705005" lon="-9.292165067572924"><ele>180.5</ele><time>2026-05-01T13:05:12Z</time></trkpt><trkpt lat="38.86698873270061" lon="-9.292275821203614"><ele>181.75</ele><time>2026-05-01T13:05:13Z</time></trkpt><trkpt lat="38.86688169928514" lon="-9.292392787401315"><ele>183.0</ele><time>2026-05-01T13:05:14Z</time></trkpt><trkpt lat="38.86678205860363" lon="-9.292516125796821"><ele>183.0</ele><time>2026-05-01T13:05:15Z</time></trkpt><trkpt lat="38.86669763078808" lon="-9.292631925656861"><ele>183.0</ele><time>2026-05-01T13:05:16Z</time></trkpt><trkpt lat="38.866613921006845" lon="-9.292753574666378"><ele>183.0</ele><time>2026-05-01T13:05:17Z</time></trkpt><trkpt lat="38.86653431729153" lon="-9.29288019221693"><ele>183.0</ele><time>2026-05-01T13:05:18Z</time></trkpt><trkpt lat="38.86646537399152" lon="-9.292998408555212"><ele>182.16666666666666</ele><time>2026-05-01T13:05:19Z</time></trkpt><trkpt lat="38.86641365755805" lon="-9.293089955384932"><ele>181.33333333333334</ele><time>2026-05-01T13:05:20Z</time></trkpt><trkpt lat="38.86637005355869" lon="-9.293166862778474"><ele>180.5</ele><time>2026-05-01T13:05:21Z</time></trkpt><trkpt lat="38.866332844263844" lon="-9.29325091949604"><ele>179.66666666666669</ele><time>2026-05-01T13:05:22Z</time></trkpt><trkpt lat="38.86630106306322" lon="-9.293340260674368"><ele>178.83333333333334</ele><time>2026-05-01T13:05:23Z</time></trkpt><trkpt lat="38.86626413024372" lon="-9.293444982122343"><ele>178.0</ele><time>2026-05-01T13:05:24Z</time></trkpt><trkpt lat="38.866230683927995" lon="-9.29353998557185"><ele>178.0</ele><time>2026-05-01T13:05:25Z</time></trkpt><trkpt lat="38.86617602996814" lon="-9.293634314579275"><ele>178.0</ele><time>2026-05-01T13:05:26Z</time></trkpt><trkpt lat="38.86613187545014" lon="-9.293735915198859"><ele>178.0</ele><time>2026-05-01T13:05:27Z</time></trkpt><trkpt lat="38.86608953353489" lon="-9.29383334496946"><ele>178.0</ele><time>2026-05-01T13:05:28Z</time></trkpt><trkpt lat="38.86606475540629" lon="-9.293934020999144"><ele>178.0</ele><time>2026-05-01T13:05:29Z</time></trkpt><trkpt lat="38.86601206406502" lon="-9.294011521495266"><ele>178.0</ele><time>2026-05-01T13:05:30Z</time></trkpt><trkpt lat="38.86597456587925" lon="-9.29409762844433"><ele>177.0</ele><time>2026-05-01T13:05:31Z</time></trkpt><trkpt lat="38.86593961338035" lon="-9.294178405949813"><ele>176.0</ele><time>2026-05-01T13:05:32Z</time></trkpt><trkpt lat="38.865906843702774" lon="-9.294255104713278"><ele>175.0</ele><time>2026-05-01T13:05:33Z</time></trkpt><trkpt lat="38.86587641278717" lon="-9.294326329497354"><ele>174.0</ele><time>2026-05-01T13:05:34Z</time></trkpt><trkpt lat="38.86582236113632" lon="-9.294452839610345"><ele>173.0</ele><time>2026-05-01T13:05:36Z</time></trkpt><trkpt lat="38.86578232787345" lon="-9.294545919239024"><ele>172.0</ele><time>2026-05-01T13:05:38Z</time></trkpt><trkpt lat="38.86573765862001" lon="-9.294649831535809"><ele>172.0</ele><time>2026-05-01T13:05:41Z</time></trkpt><trkpt lat="38.865712736295215" lon="-9.294736697389006"><ele>172.0</ele><time>2026-05-01T13:05:44Z</time></trkpt><trkpt lat="38.865659347895146" lon="-9.294877432034713"><ele>172.0</ele><time>2026-05-01T13:05:46Z</time></trkpt><trkpt lat="38.86562062372525" lon="-9.294959992675523"><ele>172.0</ele><time>2026-05-01T13:05:47Z</time></trkpt><trkpt lat="38.865582156833916" lon="-9.295048968966347"><ele>172.0</ele><time>2026-05-01T13:05:48Z</time></trkpt><trkpt lat="38.865542420995176" lon="-9.29513245648403"><ele>172.0</ele><time>2026-05-01T13:05:49Z</time></trkpt><trkpt lat="38.86549870153425" lon="-9.295238530272286"><ele>171.2</ele><time>2026-05-01T13:05:50Z</time></trkpt><trkpt lat="38.865456282994515" lon="-9.295341959112443"><ele>170.39999999999998</ele><time>2026-05-01T13:05:51Z</time></trkpt><trkpt lat="38.86540871855939" lon="-9.295455483751708"><ele>169.60000000000002</ele><time>2026-05-01T13:05:52Z</time></trkpt><trkpt lat="38.865358330389114" lon="-9.295573131620293"><ele>168.8</ele><time>2026-05-01T13:05:53Z</time></trkpt><trkpt lat="38.865307948878225" lon="-9.295694861550292"><ele>168.0</ele><time>2026-05-01T13:05:54Z</time></trkpt><trkpt lat="38.86525213125659" lon="-9.295826822432595"><ele>167.5</ele><time>2026-05-01T13:05:55Z</time></trkpt><trkpt lat="38.86519401781778" lon="-9.295968902168745"><ele>167.0</ele><time>2026-05-01T13:05:56Z</time></trkpt><trkpt lat="38.86513991423179" lon="-9.296116549491705"><ele>166.5</ele><time>2026-05-01T13:05:57Z</time></trkpt><trkpt lat="38.86508822676376" lon="-9.296283346448572"><ele>166.0</ele><time>2026-05-01T13:05:58Z</time></trkpt><trkpt lat="38.86503811447053" lon="-9.296457950895238"><ele>165.5</ele><time>2026-05-01T13:05:59Z</time></trkpt><trkpt lat="38.864999268864665" lon="-9.296639782243528"><ele>165.0</ele><time>2026-05-01T13:06:00Z</time></trkpt><trkpt lat="38.86496300090998" lon="-9.296811075600441"><ele>164.5</ele><time>2026-05-01T13:06:01Z</time></trkpt><trkpt lat="38.86493000926687" lon="-9.296992955762677"><ele>164.0</ele><time>2026-05-01T13:06:02Z</time></trkpt><trkpt lat="38.864907098087045" lon="-9.297184731490713"><ele>164.0</ele><time>2026-05-01T13:06:03Z</time></trkpt><trkpt lat="38.86488483921547" lon="-9.297373455737425"><ele>164.0</ele><time>2026-05-01T13:06:04Z</time></trkpt><trkpt lat="38.86486305285027" lon="-9.297558931777878"><ele>164.0</ele><time>2026-05-01T13:06:05Z</time></trkpt><trkpt lat="38.864839301785544" lon="-9.297752577198535"><ele>164.0</ele><time>2026-05-01T13:06:06Z</time></trkpt><trkpt lat="38.864814525168526" lon="-9.297943285544136"><ele>164.0</ele><time>2026-05-01T13:06:07Z</time></trkpt><trkpt lat="38.8647984729228" lon="-9.298117822348319"><ele>164.0</ele><time>2026-05-01T13:06:08Z</time></trkpt><trkpt lat="38.8647759153897" lon="-9.298280863751021"><ele>164.0</ele><time>2026-05-01T13:06:09Z</time></trkpt><trkpt lat="38.864757338621274" lon="-9.298425449519312"><ele>164.0</ele><time>2026-05-01T13:06:10Z</time></trkpt><trkpt lat="38.86474437484561" lon="-9.298562363587664"><ele>164.0</ele><time>2026-05-01T13:06:11Z</time></trkpt><trkpt lat="38.864738282590245" lon="-9.298684126293443"><ele>164.0</ele><time>2026-05-01T13:06:12Z</time></trkpt><trkpt lat="38.864730507485866" lon="-9.298798613302305"><ele>164.0</ele><time>2026-05-01T13:06:13Z</time></trkpt><trkpt lat="38.8647861492878" lon="-9.298912638875343"><ele>164.0</ele><time>2026-05-01T13:06:14Z</time></trkpt><trkpt lat="38.864831693467885" lon="-9.29901625727007"><ele>164.0</ele><time>2026-05-01T13:06:15Z</time></trkpt><trkpt lat="38.864851782434435" lon="-9.29912757766041"><ele>163.5</ele><time>2026-05-01T13:06:16Z</time></trkpt><trkpt lat="38.86483665674203" lon="-9.299245741721732"><ele>163.0</ele><time>2026-05-01T13:06:17Z</time></trkpt><trkpt lat="38.86476617269706" lon="-9.29935374638967"><ele>162.5</ele><time>2026-05-01T13:06:18Z</time></trkpt><trkpt lat="38.86468524455594" lon="-9.299468626634468"><ele>162.0</ele><time>2026-05-01T13:06:19Z</time></trkpt><trkpt lat="38.864604660221815" lon="-9.299602786080207"><ele>162.0</ele><time>2026-05-01T13:06:20Z</time></trkpt><trkpt lat="38.864523265354585" lon="-9.299739157834546"><ele>162.0</ele><time>2026-05-01T13:06:21Z</time></trkpt><trkpt lat="38.8644458575663" lon="-9.299885240224237"><ele>162.0</ele><time>2026-05-01T13:06:22Z</time></trkpt><trkpt lat="38.86436452956914" lon="-9.30003546835849"><ele>162.0</ele><time>2026-05-01T13:06:23Z</time></trkpt><trkpt lat="38.864291174965565" lon="-9.3001890346569"><ele>162.0</ele><time>2026-05-01T13:06:24Z</time></trkpt><trkpt lat="38.8642257821936" lon="-9.300349174022548"><ele>162.0</ele><time>2026-05-01T13:06:25Z</time></trkpt><trkpt lat="38.86417740502794" lon="-9.300522709066138"><ele>162.0</ele><time>2026-05-01T13:06:26Z</time></trkpt><trkpt lat="38.864142324318536" lon="-9.300706079564623"><ele>162.0</ele><time>2026-05-01T13:06:27Z</time></trkpt><trkpt lat="38.86412070485469" lon="-9.300900198447826"><ele>161.33333333333334</ele><time>2026-05-01T13:06:28Z</time></trkpt><trkpt lat="38.864102873345516" lon="-9.301100431800084"><ele>160.66666666666669</ele><time>2026-05-01T13:06:29Z</time></trkpt><trkpt lat="38.86410233005323" lon="-9.301304641602291"><ele>160.0</ele><time>2026-05-01T13:06:30Z</time></trkpt><trkpt lat="38.8640985940666" lon="-9.301505668980344"><ele>159.0</ele><time>2026-05-01T13:06:31Z</time></trkpt><trkpt lat="38.86409712907466" lon="-9.301704175926876"><ele>158.0</ele><time>2026-05-01T13:06:32Z</time></trkpt><trkpt lat="38.86409565740279" lon="-9.301908853637357"><ele>157.0</ele><time>2026-05-01T13:06:33Z</time></trkpt><trkpt lat="38.86409444827141" lon="-9.30209896902544"><ele>156.75</ele><time>2026-05-01T13:06:34Z</time></trkpt><trkpt lat="38.864089488024334" lon="-9.302278772955868"><ele>156.5</ele><time>2026-05-01T13:06:35Z</time></trkpt><trkpt lat="38.86408191753662" lon="-9.302457722363764"><ele>156.25</ele><time>2026-05-01T13:06:36Z</time></trkpt><trkpt lat="38.86407164122204" lon="-9.30264384609534"><ele>156.0</ele><time>2026-05-01T13:06:37Z</time></trkpt><trkpt lat="38.864049118849124" lon="-9.302828693742715"><ele>156.0</ele><time>2026-05-01T13:06:38Z</time></trkpt><trkpt lat="38.86401066784328" lon="-9.303030670982317"><ele>156.0</ele><time>2026-05-01T13:06:39Z</time></trkpt><trkpt lat="38.86396467070667" lon="-9.303229611952561"><ele>156.0</ele><time>2026-05-01T13:06:40Z</time></trkpt><trkpt lat="38.863909585814746" lon="-9.30341765247953"><ele>155.66666666666666</ele><time>2026-05-01T13:06:41Z</time></trkpt><trkpt lat="38.86384866568727" lon="-9.303604425154026"><ele>155.33333333333331</ele><time>2026-05-01T13:06:42Z</time></trkpt><trkpt lat="38.863773106673506" lon="-9.303787578622995"><ele>155.0</ele><time>2026-05-01T13:06:43Z</time></trkpt><trkpt lat="38.86369798949868" lon="-9.303955449538222"><ele>154.66666666666666</ele><time>2026-05-01T13:06:44Z</time></trkpt><trkpt lat="38.863621593086705" lon="-9.304122867298029"><ele>154.33333333333334</ele><time>2026-05-01T13:06:45Z</time></trkpt><trkpt lat="38.8635386975663" lon="-9.304287820096997"><ele>154.0</ele><time>2026-05-01T13:06:46Z</time></trkpt><trkpt lat="38.86345028884121" lon="-9.304446264223738"><ele>154.0</ele><time>2026-05-01T13:06:47Z</time></trkpt><trkpt lat="38.863360546546076" lon="-9.30459837584737"><ele>154.0</ele><time>2026-05-01T13:06:48Z</time></trkpt><trkpt lat="38.8632660793168" lon="-9.304759095491143"><ele>154.0</ele><time>2026-05-01T13:06:49Z</time></trkpt><trkpt lat="38.8631668747222" lon="-9.304917594401553"><ele>153.66666666666669</ele><time>2026-05-01T13:06:50Z</time></trkpt><trkpt lat="38.863067863500355" lon="-9.30507791646061"><ele>153.33333333333334</ele><time>2026-05-01T13:06:51Z</time></trkpt><trkpt lat="38.862965194027765" lon="-9.305239124746798"><ele>153.0</ele><time>2026-05-01T13:06:52Z</time></trkpt><trkpt lat="38.862862574702376" lon="-9.305399047683483"><ele>153.0</ele><time>2026-05-01T13:06:53Z</time></trkpt><trkpt lat="38.86276279577644" lon="-9.305558673083985"><ele>153.0</ele><time>2026-05-01T13:06:54Z</time></trkpt><trkpt lat="38.86266297538746" lon="-9.305719196986642"><ele>153.0</ele><time>2026-05-01T13:06:55Z</time></trkpt><trkpt lat="38.86256108161587" lon="-9.305878332469845"><ele>153.0</ele><time>2026-05-01T13:06:56Z</time></trkpt><trkpt lat="38.86244944393816" lon="-9.306045771710828"><ele>153.0</ele><time>2026-05-01T13:06:57Z</time></trkpt><trkpt lat="38.862336340333904" lon="-9.306221561415056"><ele>153.0</ele><time>2026-05-01T13:06:58Z</time></trkpt><trkpt lat="38.86222769463869" lon="-9.306391004356614"><ele>152.5</ele><time>2026-05-01T13:06:59Z</time></trkpt><trkpt lat="38.862124767074334" lon="-9.306530589187547"><ele>152.0</ele><time>2026-05-01T13:07:00Z</time></trkpt><trkpt lat="38.862021112183825" lon="-9.306666354084854"><ele>151.5</ele><time>2026-05-01T13:07:01Z</time></trkpt><trkpt lat="38.86192763196325" lon="-9.306794373400379"><ele>151.0</ele><time>2026-05-01T13:07:02Z</time></trkpt><trkpt lat="38.86182897033851" lon="-9.306913577311533"><ele>151.0</ele><time>2026-05-01T13:07:03Z</time></trkpt><trkpt lat="38.86172570298884" lon="-9.307027410470324"><ele>151.0</ele><time>2026-05-01T13:07:04Z</time></trkpt><trkpt lat="38.86161783289603" lon="-9.307142611503956"><ele>151.0</ele><time>2026-05-01T13:07:05Z</time></trkpt><trkpt lat="38.86152107019629" lon="-9.307250879908112"><ele>151.0</ele><time>2026-05-01T13:07:06Z</time></trkpt><trkpt lat="38.861433231074635" lon="-9.307353783780497"><ele>151.0</ele><time>2026-05-01T13:07:07Z</time></trkpt><trkpt lat="38.86135136442312" lon="-9.307451113965257"><ele>151.0</ele><time>2026-05-01T13:07:08Z</time></trkpt><trkpt lat="38.86126412517596" lon="-9.307553562687826"><ele>151.0</ele><time>2026-05-01T13:07:09Z</time></trkpt><trkpt lat="38.86117255085413" lon="-9.307655464554413"><ele>151.0</ele><time>2026-05-01T13:07:10Z</time></trkpt><trkpt lat="38.86108896705948" lon="-9.307747401538283"><ele>151.0</ele><time>2026-05-01T13:07:11Z</time></trkpt><trkpt lat="38.86101350512801" lon="-9.307836291404291"><ele>151.0</ele><time>2026-05-01T13:07:12Z</time></trkpt><trkpt lat="38.86094847494718" lon="-9.30792804216228"><ele>151.0</ele><time>2026-05-01T13:07:13Z</time></trkpt><trkpt lat="38.8608954751318" lon="-9.308015167259027"><ele>151.0</ele><time>2026-05-01T13:07:14Z</time></trkpt><trkpt lat="38.860863703395296" lon="-9.308124999884246"><ele>151.0</ele><time>2026-05-01T13:07:15Z</time></trkpt><trkpt lat="38.86085696057884" lon="-9.30824681457952"><ele>152.5</ele><time>2026-05-01T13:07:16Z</time></trkpt><trkpt lat="38.86088443211504" lon="-9.308375229237186"><ele>154.0</ele><time>2026-05-01T13:07:17Z</time></trkpt><trkpt lat="38.86095897884504" lon="-9.308482702666444"><ele>155.5</ele><time>2026-05-01T13:07:18Z</time></trkpt><trkpt lat="38.86104220171603" lon="-9.30859551035638"><ele>157.0</ele><time>2026-05-01T13:07:19Z</time></trkpt><trkpt lat="38.86113070583587" lon="-9.308730420649725"><ele>157.25</ele><time>2026-05-01T13:07:20Z</time></trkpt><trkpt lat="38.86123922986168" lon="-9.30886100006756"><ele>157.5</ele><time>2026-05-01T13:07:21Z</time></trkpt><trkpt lat="38.86134291085206" lon="-9.308994291990077"><ele>157.75</ele><time>2026-05-01T13:07:22Z</time></trkpt><trkpt lat="38.8614440514692" lon="-9.309126767645592"><ele>158.0</ele><time>2026-05-01T13:07:23Z</time></trkpt><trkpt lat="38.86153145978137" lon="-9.309237684471713"><ele>159.8</ele><time>2026-05-01T13:07:24Z</time></trkpt><trkpt lat="38.86161856751357" lon="-9.309345251333575"><ele>161.60000000000002</ele><time>2026-05-01T13:07:25Z</time></trkpt><trkpt lat="38.86169608214461" lon="-9.309442618121166"><ele>163.39999999999998</ele><time>2026-05-01T13:07:26Z</time></trkpt><trkpt lat="38.86176687910027" lon="-9.309539910657113"><ele>165.2</ele><time>2026-05-01T13:07:27Z</time></trkpt><trkpt lat="38.86180940426849" lon="-9.309655728551437"><ele>167.0</ele><time>2026-05-01T13:07:28Z</time></trkpt><trkpt lat="38.86182582789364" lon="-9.309783345554187"><ele>168.0</ele><time>2026-05-01T13:07:29Z</time></trkpt><trkpt lat="38.86181345222509" lon="-9.309921873367392"><ele>169.0</ele><time>2026-05-01T13:07:30Z</time></trkpt><trkpt lat="38.86177286874005" lon="-9.310068246261112"><ele>170.0</ele><time>2026-05-01T13:07:31Z</time></trkpt><trkpt lat="38.861727755459896" lon="-9.31021390110558"><ele>171.0</ele><time>2026-05-01T13:07:32Z</time></trkpt><trkpt lat="38.86167022251447" lon="-9.310364673856764"><ele>171.0</ele><time>2026-05-01T13:07:33Z</time></trkpt><trkpt lat="38.86159023186493" lon="-9.310509193706896"><ele>171.0</ele><time>2026-05-01T13:07:34Z</time></trkpt><trkpt lat="38.86149868393928" lon="-9.310633692094054"><ele>171.0</ele><time>2026-05-01T13:07:35Z</time></trkpt><trkpt lat="38.86140698193381" lon="-9.310732428089075"><ele>171.0</ele><time>2026-05-01T13:07:36Z</time></trkpt><trkpt lat="38.861305560395444" lon="-9.310824264849414"><ele>170.25</ele><time>2026-05-01T13:07:37Z</time></trkpt><trkpt lat="38.86120079119861" lon="-9.310922321206045"><ele>169.5</ele><time>2026-05-01T13:07:38Z</time></trkpt><trkpt lat="38.86109327986225" lon="-9.31102707547853"><ele>168.75</ele><time>2026-05-01T13:07:39Z</time></trkpt><trkpt lat="38.86098844200602" lon="-9.311131593058537"><ele>168.0</ele><time>2026-05-01T13:07:40Z</time></trkpt><trkpt lat="38.860885137152025" lon="-9.311239044811696"><ele>166.75</ele><time>2026-05-01T13:07:41Z</time></trkpt><trkpt lat="38.8608138713887" lon="-9.31136253037375"><ele>165.5</ele><time>2026-05-01T13:07:42Z</time></trkpt><trkpt lat="38.86076874210481" lon="-9.311509965201386"><ele>164.25</ele><time>2026-05-01T13:07:43Z</time></trkpt><trkpt lat="38.86074215147606" lon="-9.311677426206016"><ele>163.0</ele><time>2026-05-01T13:07:44Z</time></trkpt><trkpt lat="38.86073129993662" lon="-9.311855600628132"><ele>163.0</ele><time>2026-05-01T13:07:45Z</time></trkpt><trkpt lat="38.86073876178819" lon="-9.312034961028328"><ele>163.0</ele><time>2026-05-01T13:07:46Z</time></trkpt><trkpt lat="38.86074405500393" lon="-9.312219899351343"><ele>163.0</ele><time>2026-05-01T13:07:47Z</time></trkpt><trkpt lat="38.86075400354005" lon="-9.312424554788063"><ele>163.0</ele><time>2026-05-01T13:07:48Z</time></trkpt><trkpt lat="38.860758680579465" lon="-9.312618789088326"><ele>162.66666666666669</ele><time>2026-05-01T13:07:49Z</time></trkpt><trkpt lat="38.860756435505195" lon="-9.312814015333968"><ele>162.33333333333334</ele><time>2026-05-01T13:07:50Z</time></trkpt><trkpt lat="38.86074900298741" lon="-9.31301764866939"><ele>162.0</ele><time>2026-05-01T13:07:51Z</time></trkpt><trkpt lat="38.86074127840657" lon="-9.31321888138269"><ele>163.0</ele><time>2026-05-01T13:07:52Z</time></trkpt><trkpt lat="38.860725022973675" lon="-9.313427434707302"><ele>164.0</ele><time>2026-05-01T13:07:53Z</time></trkpt><trkpt lat="38.8606954441815" lon="-9.313650252281143"><ele>165.0</ele><time>2026-05-01T13:07:54Z</time></trkpt><trkpt lat="38.860654646081045" lon="-9.31386671794593"><ele>164.33333333333334</ele><time>2026-05-01T13:07:55Z</time></trkpt><trkpt lat="38.86061626283831" lon="-9.314065654173634"><ele>163.66666666666669</ele><time>2026-05-01T13:07:56Z</time></trkpt><trkpt lat="38.86057252378673" lon="-9.314254877024098"><ele>163.0</ele><time>2026-05-01T13:07:57Z</time></trkpt><trkpt lat="38.860525422875874" lon="-9.314454464072341"><ele>163.0</ele><time>2026-05-01T13:07:58Z</time></trkpt><trkpt lat="38.86047432367367" lon="-9.314646320749365"><ele>163.0</ele><time>2026-05-01T13:07:59Z</time></trkpt><trkpt lat="38.86042339870778" lon="-9.314828694819605"><ele>163.0</ele><time>2026-05-01T13:08:00Z</time></trkpt><trkpt lat="38.86037510334659" lon="-9.315007891747044"><ele>162.75</ele><time>2026-05-01T13:08:01Z</time></trkpt><trkpt lat="38.8603244548971" lon="-9.315184428404425"><ele>162.5</ele><time>2026-05-01T13:08:02Z</time></trkpt><trkpt lat="38.860273962257324" lon="-9.315366035691733"><ele>162.25</ele><time>2026-05-01T13:08:03Z</time></trkpt><trkpt lat="38.86021977487091" lon="-9.315546189632366"><ele>162.0</ele><time>2026-05-01T13:08:04Z</time></trkpt><trkpt lat="38.86016845227102" lon="-9.315714500892073"><ele>160.5</ele><time>2026-05-01T13:08:05Z</time></trkpt><trkpt lat="38.86012837889521" lon="-9.315885636677278"><ele>159.0</ele><time>2026-05-01T13:08:06Z</time></trkpt><trkpt lat="38.86010026838716" lon="-9.316045253815874"><ele>157.5</ele><time>2026-05-01T13:08:07Z</time></trkpt><trkpt lat="38.86008024729386" lon="-9.316209248653475"><ele>156.0</ele><time>2026-05-01T13:08:08Z</time></trkpt><trkpt lat="38.860078973875524" lon="-9.316386749056539"><ele>156.0</ele><time>2026-05-01T13:08:09Z</time></trkpt><trkpt lat="38.86009196291879" lon="-9.316563326318992"><ele>156.0</ele><time>2026-05-01T13:08:10Z</time></trkpt><trkpt lat="38.86013289155841" lon="-9.316734590109215"><ele>156.0</ele><time>2026-05-01T13:08:11Z</time></trkpt><trkpt lat="38.86019281684099" lon="-9.31690992841208"><ele>156.0</ele><time>2026-05-01T13:08:12Z</time></trkpt><trkpt lat="38.86027108604523" lon="-9.317093064803279"><ele>157.33333333333334</ele><time>2026-05-01T13:08:13Z</time></trkpt><trkpt lat="38.86035943860643" lon="-9.317281106031023"><ele>158.66666666666669</ele><time>2026-05-01T13:08:14Z</time></trkpt><trkpt lat="38.86044930883418" lon="-9.317469263946608"><ele>160.0</ele><time>2026-05-01T13:08:15Z</time></trkpt><trkpt lat="38.8605318222288" lon="-9.317659922663278"><ele>160.0</ele><time>2026-05-01T13:08:16Z</time></trkpt><trkpt lat="38.8606102379879" lon="-9.317847843825474"><ele>160.0</ele><time>2026-05-01T13:08:17Z</time></trkpt><trkpt lat="38.860682544922284" lon="-9.31802136525571"><ele>160.0</ele><time>2026-05-01T13:08:18Z</time></trkpt><trkpt lat="38.86075908819406" lon="-9.31820040168146"><ele>160.33333333333334</ele><time>2026-05-01T13:08:19Z</time></trkpt><trkpt lat="38.860834079377504" lon="-9.318380229605607"><ele>160.66666666666666</ele><time>2026-05-01T13:08:20Z</time></trkpt><trkpt lat="38.86090547064484" lon="-9.318563961733789"><ele>161.0</ele><time>2026-05-01T13:08:21Z</time></trkpt><trkpt lat="38.86096935730134" lon="-9.318755012891172"><ele>164.0</ele><time>2026-05-01T13:08:22Z</time></trkpt><trkpt lat="38.86101692400226" lon="-9.318953571694378"><ele>167.0</ele><time>2026-05-01T13:08:23Z</time></trkpt><trkpt lat="38.861048956824895" lon="-9.31915880520242"><ele>170.0</ele><time>2026-05-01T13:08:24Z</time></trkpt><trkpt lat="38.861053841980066" lon="-9.319367521811817"><ele>170.0</ele><time>2026-05-01T13:08:25Z</time></trkpt><trkpt lat="38.86102865260346" lon="-9.319570764062698"><ele>170.0</ele><time>2026-05-01T13:08:26Z</time></trkpt><trkpt lat="38.86098629336706" lon="-9.31974905154384"><ele>170.0</ele><time>2026-05-01T13:08:27Z</time></trkpt><trkpt lat="38.86090228228647" lon="-9.319925203581958"><ele>169.0</ele><time>2026-05-01T13:08:28Z</time></trkpt><trkpt lat="38.86082107435319" lon="-9.320094047363316"><ele>168.0</ele><time>2026-05-01T13:08:29Z</time></trkpt><trkpt lat="38.86073892836079" lon="-9.320266449518174"><ele>167.0</ele><time>2026-05-01T13:08:30Z</time></trkpt><trkpt lat="38.86065831413482" lon="-9.320448950159925"><ele>167.66666666666666</ele><time>2026-05-01T13:08:31Z</time></trkpt><trkpt lat="38.86058352747621" lon="-9.320630799358012"><ele>168.33333333333334</ele><time>2026-05-01T13:08:32Z</time></trkpt><trkpt lat="38.86051441538693" lon="-9.320823352999124"><ele>169.0</ele><time>2026-05-01T13:08:33Z</time></trkpt><trkpt lat="38.8604499212494" lon="-9.321018691055269"><ele>169.0</ele><time>2026-05-01T13:08:34Z</time></trkpt><trkpt lat="38.86038238708445" lon="-9.321206064840148"><ele>169.0</ele><time>2026-05-01T13:08:35Z</time></trkpt><trkpt lat="38.860322743610574" lon="-9.32138573867381"><ele>169.0</ele><time>2026-05-01T13:08:36Z</time></trkpt><trkpt lat="38.8602682009034" lon="-9.321566992828837"><ele>168.66666666666669</ele><time>2026-05-01T13:08:37Z</time></trkpt><trkpt lat="38.86020856943573" lon="-9.321749085969957"><ele>168.33333333333334</ele><time>2026-05-01T13:08:38Z</time></trkpt><trkpt lat="38.86014306906112" lon="-9.321937963967141"><ele>168.0</ele><time>2026-05-01T13:08:39Z</time></trkpt><trkpt lat="38.86007419361854" lon="-9.322125480915442"><ele>167.5</ele><time>2026-05-01T13:08:40Z</time></trkpt><trkpt lat="38.86000946929545" lon="-9.322303220118588"><ele>167.0</ele><time>2026-05-01T13:08:41Z</time></trkpt><trkpt lat="38.85994946146707" lon="-9.322462561055927"><ele>166.5</ele><time>2026-05-01T13:08:42Z</time></trkpt><trkpt lat="38.85988632744179" lon="-9.32262135856292"><ele>166.0</ele><time>2026-05-01T13:08:43Z</time></trkpt><trkpt lat="38.85982189821898" lon="-9.32278681793182"><ele>166.0</ele><time>2026-05-01T13:08:44Z</time></trkpt><trkpt lat="38.85976347073934" lon="-9.32294590586475"><ele>166.0</ele><time>2026-05-01T13:08:45Z</time></trkpt><trkpt lat="38.85970835904111" lon="-9.323100097529174"><ele>166.0</ele><time>2026-05-01T13:08:46Z</time></trkpt><trkpt lat="38.859655377974086" lon="-9.323249188741427"><ele>166.0</ele><time>2026-05-01T13:08:47Z</time></trkpt><trkpt lat="38.859604104580946" lon="-9.323388214127046"><ele>166.60000000000002</ele><time>2026-05-01T13:08:48Z</time></trkpt><trkpt lat="38.85956172509436" lon="-9.323514901486792"><ele>167.2</ele><time>2026-05-01T13:08:49Z</time></trkpt><trkpt lat="38.85952197820834" lon="-9.323642505705173"><ele>167.8</ele><time>2026-05-01T13:08:50Z</time></trkpt><trkpt lat="38.85948880599825" lon="-9.323788381852264"><ele>168.39999999999998</ele><time>2026-05-01T13:08:51Z</time></trkpt><trkpt lat="38.859437765754826" lon="-9.323914579088056"><ele>169.0</ele><time>2026-05-01T13:08:52Z</time></trkpt><trkpt lat="38.8593940304502" lon="-9.324044144284606"><ele>167.75</ele><time>2026-05-01T13:08:53Z</time></trkpt><trkpt lat="38.859343789717265" lon="-9.324170694400788"><ele>166.5</ele><time>2026-05-01T13:08:54Z</time></trkpt><trkpt lat="38.8592851343478" lon="-9.324301204481857"><ele>165.25</ele><time>2026-05-01T13:08:55Z</time></trkpt><trkpt lat="38.85917683752006" lon="-9.324388676746564"><ele>164.0</ele><time>2026-05-01T13:08:56Z</time></trkpt><trkpt lat="38.859050562281375" lon="-9.324467097608215"><ele>164.0</ele><time>2026-05-01T13:08:57Z</time></trkpt><trkpt lat="38.85891431879196" lon="-9.324550668354615"><ele>164.0</ele><time>2026-05-01T13:08:58Z</time></trkpt><trkpt lat="38.858791273743556" lon="-9.324639312510104"><ele>164.0</ele><time>2026-05-01T13:08:59Z</time></trkpt><trkpt lat="38.85868464629641" lon="-9.324718601026678"><ele>164.0</ele><time>2026-05-01T13:09:00Z</time></trkpt><trkpt lat="38.85857960091043" lon="-9.32480602755991"><ele>163.0</ele><time>2026-05-01T13:09:01Z</time></trkpt><trkpt lat="38.8584797331309" lon="-9.324889767787072"><ele>162.0</ele><time>2026-05-01T13:09:02Z</time></trkpt><trkpt lat="38.85838841510083" lon="-9.32496908397462"><ele>161.0</ele><time>2026-05-01T13:09:03Z</time></trkpt><trkpt lat="38.85830281467743" lon="-9.325047688438186"><ele>160.0</ele><time>2026-05-01T13:09:04Z</time></trkpt><trkpt lat="38.85822274827731" lon="-9.325121742233794"><ele>159.0</ele><time>2026-05-01T13:09:05Z</time></trkpt><trkpt lat="38.85813916030929" lon="-9.325187725183817"><ele>159.0</ele><time>2026-05-01T13:09:06Z</time></trkpt><trkpt lat="38.85805724563862" lon="-9.325252323682879"><ele>159.0</ele><time>2026-05-01T13:09:07Z</time></trkpt><trkpt lat="38.85797560288855" lon="-9.325316760523535"><ele>159.0</ele><time>2026-05-01T13:09:08Z</time></trkpt><trkpt lat="38.85789754484698" lon="-9.325385713850402"><ele>159.0</ele><time>2026-05-01T13:09:09Z</time></trkpt><trkpt lat="38.857814969475115" lon="-9.325451258151906"><ele>159.0</ele><time>2026-05-01T13:09:10Z</time></trkpt><trkpt lat="38.85772887259295" lon="-9.325510601813395"><ele>158.33333333333334</ele><time>2026-05-01T13:09:11Z</time></trkpt><trkpt lat="38.85764419806013" lon="-9.325566053964785"><ele>157.66666666666666</ele><time>2026-05-01T13:09:12Z</time></trkpt><trkpt lat="38.85756049620312" lon="-9.325623535670445"><ele>157.0</ele><time>2026-05-01T13:09:13Z</time></trkpt><trkpt lat="38.857482931287706" lon="-9.325675009775425"><ele>156.33333333333331</ele><time>2026-05-01T13:09:14Z</time></trkpt><trkpt lat="38.85741423029588" lon="-9.325724325674276"><ele>155.66666666666666</ele><time>2026-05-01T13:09:15Z</time></trkpt><trkpt lat="38.857337668160305" lon="-9.325772598211499"><ele>155.0</ele><time>2026-05-01T13:09:17Z</time></trkpt><trkpt lat="38.85730663056986" lon="-9.325867416277818"><ele>155.0</ele><time>2026-05-01T13:09:22Z</time></trkpt><trkpt lat="38.85741291768847" lon="-9.325929850114882"><ele>155.0</ele><time>2026-05-01T13:09:23Z</time></trkpt><trkpt lat="38.85751355242164" lon="-9.325931026763161"><ele>155.0</ele><time>2026-05-01T13:09:24Z</time></trkpt><trkpt lat="38.85761253090733" lon="-9.32594096306103"><ele>155.0</ele><time>2026-05-01T13:09:25Z</time></trkpt><trkpt lat="38.85770216190342" lon="-9.325985066020348"><ele>155.0</ele><time>2026-05-01T13:09:26Z</time></trkpt><trkpt lat="38.85776647652689" lon="-9.326071797111638"><ele>154.2</ele><time>2026-05-01T13:09:27Z</time></trkpt><trkpt lat="38.85781609098015" lon="-9.326163366245227"><ele>153.4</ele><time>2026-05-01T13:09:28Z</time></trkpt><trkpt lat="38.85787152628019" lon="-9.32627257909394"><ele>152.6</ele><time>2026-05-01T13:09:29Z</time></trkpt><trkpt lat="38.85791870885223" lon="-9.326406027529533"><ele>151.8</ele><time>2026-05-01T13:09:30Z</time></trkpt><trkpt lat="38.857979323702615" lon="-9.326563326614625"><ele>151.0</ele><time>2026-05-01T13:09:31Z</time></trkpt><trkpt lat="38.85804588077813" lon="-9.32673074509212"><ele>150.33333333333334</ele><time>2026-05-01T13:09:32Z</time></trkpt><trkpt lat="38.858124656457434" lon="-9.326923885714152"><ele>149.66666666666666</ele><time>2026-05-01T13:09:33Z</time></trkpt><trkpt lat="38.85822127214713" lon="-9.327151886855276"><ele>149.0</ele><time>2026-05-01T13:09:34Z</time></trkpt><trkpt lat="38.85832456707505" lon="-9.327390459103162"><ele>149.0</ele><time>2026-05-01T13:09:35Z</time></trkpt><trkpt lat="38.858423399645986" lon="-9.327631950436045"><ele>149.0</ele><time>2026-05-01T13:09:36Z</time></trkpt><trkpt lat="38.8585096534093" lon="-9.32783944427888"><ele>149.0</ele><time>2026-05-01T13:09:37Z</time></trkpt><trkpt lat="38.858592022786226" lon="-9.328025104724905"><ele>149.33333333333331</ele><time>2026-05-01T13:09:38Z</time></trkpt><trkpt lat="38.858684310845184" lon="-9.328217338629736"><ele>149.66666666666666</ele><time>2026-05-01T13:09:39Z</time></trkpt><trkpt lat="38.858782005956165" lon="-9.328403890714782"><ele>150.0</ele><time>2026-05-01T13:09:40Z</time></trkpt><trkpt lat="38.858882392289615" lon="-9.328581375575213"><ele>150.0</ele><time>2026-05-01T13:09:41Z</time></trkpt><trkpt lat="38.85898485935543" lon="-9.328754305184798"><ele>150.0</ele><time>2026-05-01T13:09:42Z</time></trkpt><trkpt lat="38.85908801475523" lon="-9.328929114918035"><ele>150.0</ele><time>2026-05-01T13:09:43Z</time></trkpt><trkpt lat="38.859192951696194" lon="-9.32910058992368"><ele>151.0</ele><time>2026-05-01T13:09:44Z</time></trkpt><trkpt lat="38.85929448821163" lon="-9.329267668416387"><ele>152.0</ele><time>2026-05-01T13:09:45Z</time></trkpt><trkpt lat="38.85938873487957" lon="-9.329434150008218"><ele>153.0</ele><time>2026-05-01T13:09:46Z</time></trkpt><trkpt lat="38.85948876614192" lon="-9.329599661901542"><ele>153.33333333333334</ele><time>2026-05-01T13:09:47Z</time></trkpt><trkpt lat="38.859585791476036" lon="-9.329760713539619"><ele>153.66666666666669</ele><time>2026-05-01T13:09:48Z</time></trkpt><trkpt lat="38.859686531222394" lon="-9.329927959517875"><ele>154.0</ele><time>2026-05-01T13:09:49Z</time></trkpt><trkpt lat="38.85978876076932" lon="-9.330092796176308"><ele>154.0</ele><time>2026-05-01T13:09:50Z</time></trkpt><trkpt lat="38.85987656656984" lon="-9.330247609711488"><ele>154.0</ele><time>2026-05-01T13:09:51Z</time></trkpt><trkpt lat="38.85995414373652" lon="-9.33039448247672"><ele>154.0</ele><time>2026-05-01T13:09:52Z</time></trkpt><trkpt lat="38.860027314593594" lon="-9.330519749259828"><ele>154.0</ele><time>2026-05-01T13:09:53Z</time></trkpt><trkpt lat="38.860099059535834" lon="-9.330635335060489"><ele>154.6</ele><time>2026-05-01T13:09:54Z</time></trkpt><trkpt lat="38.860166939994855" lon="-9.330750806158148"><ele>155.2</ele><time>2026-05-01T13:09:55Z</time></trkpt><trkpt lat="38.86024120936483" lon="-9.330868613687867"><ele>155.79999999999998</ele><time>2026-05-01T13:09:56Z</time></trkpt><trkpt lat="38.860306106438145" lon="-9.330979322032894"><ele>156.4</ele><time>2026-05-01T13:09:57Z</time></trkpt><trkpt lat="38.860372881689216" lon="-9.331087202243209"><ele>157.0</ele><time>2026-05-01T13:09:58Z</time></trkpt><trkpt lat="38.86044556175295" lon="-9.331188930272932"><ele>157.0</ele><time>2026-05-01T13:09:59Z</time></trkpt><trkpt lat="38.86052837579603" lon="-9.331284523121953"><ele>157.0</ele><time>2026-05-01T13:10:00Z</time></trkpt><trkpt lat="38.860604387259684" lon="-9.331382444749257"><ele>157.0</ele><time>2026-05-01T13:10:01Z</time></trkpt><trkpt lat="38.860655922098886" lon="-9.331477115250738"><ele>157.0</ele><time>2026-05-01T13:10:02Z</time></trkpt><trkpt lat="38.8606826789109" lon="-9.331589806945239"><ele>157.0</ele><time>2026-05-01T13:10:03Z</time></trkpt><trkpt lat="38.860705743963955" lon="-9.331704362590962"><ele>157.33333333333334</ele><time>2026-05-01T13:10:04Z</time></trkpt><trkpt lat="38.86071648971238" lon="-9.331824306222236"><ele>157.66666666666669</ele><time>2026-05-01T13:10:05Z</time></trkpt><trkpt lat="38.86071297345652" lon="-9.33192662632101"><ele>158.0</ele><time>2026-05-01T13:10:06Z</time></trkpt><trkpt lat="38.860700857016255" lon="-9.332031551986626"><ele>158.33333333333334</ele><time>2026-05-01T13:10:07Z</time></trkpt><trkpt lat="38.8606607995737" lon="-9.332139611465378"><ele>158.66666666666666</ele><time>2026-05-01T13:10:08Z</time></trkpt><trkpt lat="38.86063534602582" lon="-9.332242503859849"><ele>159.0</ele><time>2026-05-01T13:10:09Z</time></trkpt><trkpt lat="38.86063321600986" lon="-9.332335994784376"><ele>159.0</ele><time>2026-05-01T13:10:10Z</time></trkpt><trkpt lat="38.86065006293209" lon="-9.332430805623847"><ele>159.0</ele><time>2026-05-01T13:10:11Z</time></trkpt><trkpt lat="38.86068098143762" lon="-9.332537528486483"><ele>159.0</ele><time>2026-05-01T13:10:12Z</time></trkpt><trkpt lat="38.860652095355626" lon="-9.332649431611312"><ele>159.0</ele><time>2026-05-01T13:10:13Z</time></trkpt><trkpt lat="38.86057625277157" lon="-9.332741973000909"><ele>159.0</ele><time>2026-05-01T13:10:14Z</time></trkpt><trkpt lat="38.860520149857585" lon="-9.332860759513174"><ele>159.0</ele><time>2026-05-01T13:10:15Z</time></trkpt><trkpt lat="38.860501504564155" lon="-9.33299062834185"><ele>159.0</ele><time>2026-05-01T13:10:16Z</time></trkpt><trkpt lat="38.86048674024948" lon="-9.333119756773769"><ele>159.0</ele><time>2026-05-01T13:10:17Z</time></trkpt><trkpt lat="38.860472988293836" lon="-9.33325302234148"><ele>159.0</ele><time>2026-05-01T13:10:18Z</time></trkpt><trkpt lat="38.86045913873385" lon="-9.333387935686886"><ele>159.0</ele><time>2026-05-01T13:10:19Z</time></trkpt><trkpt lat="38.86045172553943" lon="-9.3335205532152"><ele>159.0</ele><time>2026-05-01T13:10:20Z</time></trkpt><trkpt lat="38.860439175387995" lon="-9.333658143651272"><ele>159.0</ele><time>2026-05-01T13:10:21Z</time></trkpt><trkpt lat="38.8604609769595" lon="-9.333776128538762"><ele>159.0</ele><time>2026-05-01T13:10:22Z</time></trkpt><trkpt lat="38.86039276175337" lon="-9.33388318271527"><ele>159.0</ele><time>2026-05-01T13:10:23Z</time></trkpt><trkpt lat="38.860357799702044" lon="-9.333965122678103"><ele>159.0</ele><time>2026-05-01T13:10:24Z</time></trkpt><trkpt lat="38.86032022903571" lon="-9.33404346419205"><ele>158.42857142857142</ele><time>2026-05-01T13:10:25Z</time></trkpt><trkpt lat="38.86029369542599" lon="-9.33411759829251"><ele>157.85714285714286</ele><time>2026-05-01T13:10:26Z</time></trkpt><trkpt lat="38.86027516044592" lon="-9.334206593977084"><ele>157.28571428571428</ele><time>2026-05-01T13:10:27Z</time></trkpt><trkpt lat="38.860247446194556" lon="-9.334295018935531"><ele>156.71428571428572</ele><time>2026-05-01T13:10:28Z</time></trkpt><trkpt lat="38.86020911994133" lon="-9.334377862124859"><ele>156.14285714285714</ele><time>2026-05-01T13:10:29Z</time></trkpt><trkpt lat="38.86017768090257" lon="-9.334470506464394"><ele>155.57142857142858</ele><time>2026-05-01T13:10:30Z</time></trkpt><trkpt lat="38.860159843464544" lon="-9.334564038020941"><ele>155.0</ele><time>2026-05-01T13:10:31Z</time></trkpt><trkpt lat="38.86014899720918" lon="-9.334656966292068"><ele>154.8</ele><time>2026-05-01T13:10:32Z</time></trkpt><trkpt lat="38.8601463838305" lon="-9.33476510411469"><ele>154.6</ele><time>2026-05-01T13:10:33Z</time></trkpt><trkpt lat="38.86014733046153" lon="-9.334878444855544"><ele>154.4</ele><time>2026-05-01T13:10:34Z</time></trkpt><trkpt lat="38.860115211506084" lon="-9.335000227012202"><ele>154.2</ele><time>2026-05-01T13:10:35Z</time></trkpt><trkpt lat="38.86008790124791" lon="-9.335128881053873"><ele>154.0</ele><time>2026-05-01T13:10:36Z</time></trkpt><trkpt lat="38.86006091789161" lon="-9.335259967387794"><ele>154.0</ele><time>2026-05-01T13:10:37Z</time></trkpt><trkpt lat="38.8600319623178" lon="-9.335378626453185"><ele>154.0</ele><time>2026-05-01T13:10:38Z</time></trkpt><trkpt lat="38.85999953984417" lon="-9.335489913020588"><ele>154.0</ele><time>2026-05-01T13:10:39Z</time></trkpt><trkpt lat="38.859954718397084" lon="-9.335580788576015"><ele>154.0</ele><time>2026-05-01T13:10:40Z</time></trkpt><trkpt lat="38.85990965733886" lon="-9.335673677615056"><ele>154.0</ele><time>2026-05-01T13:10:41Z</time></trkpt><trkpt lat="38.8598523549104" lon="-9.33577020041411"><ele>152.4</ele><time>2026-05-01T13:10:42Z</time></trkpt><trkpt lat="38.85979214662754" lon="-9.33586327897949"><ele>150.8</ele><time>2026-05-01T13:10:43Z</time></trkpt><trkpt lat="38.85973086241827" lon="-9.335947207646951"><ele>149.2</ele><time>2026-05-01T13:10:44Z</time></trkpt><trkpt lat="38.85967854213779" lon="-9.33603653107417"><ele>147.6</ele><time>2026-05-01T13:10:45Z</time></trkpt><trkpt lat="38.85963018080116" lon="-9.336132109809924"><ele>146.0</ele><time>2026-05-01T13:10:46Z</time></trkpt><trkpt lat="38.85958732921263" lon="-9.336253325956077"><ele>146.0</ele><time>2026-05-01T13:10:47Z</time></trkpt><trkpt lat="38.85955145239372" lon="-9.336362330176357"><ele>146.0</ele><time>2026-05-01T13:10:48Z</time></trkpt><trkpt lat="38.85952190044931" lon="-9.336474881275405"><ele>146.0</ele><time>2026-05-01T13:10:49Z</time></trkpt><trkpt lat="38.859493036450004" lon="-9.33658188194867"><ele>146.0</ele><time>2026-05-01T13:10:50Z</time></trkpt><trkpt lat="38.85945831111689" lon="-9.336691839154733"><ele>146.0</ele><time>2026-05-01T13:10:51Z</time></trkpt><trkpt lat="38.85942045266311" lon="-9.336796594930215"><ele>145.2</ele><time>2026-05-01T13:10:52Z</time></trkpt><trkpt lat="38.85936595180819" lon="-9.33688372487288"><ele>144.39999999999998</ele><time>2026-05-01T13:10:53Z</time></trkpt><trkpt lat="38.8592950228014" lon="-9.336967095323228"><ele>143.6</ele><time>2026-05-01T13:10:54Z</time></trkpt><trkpt lat="38.859221332610105" lon="-9.337032402887107"><ele>142.79999999999998</ele><time>2026-05-01T13:10:55Z</time></trkpt><trkpt lat="38.859142921263214" lon="-9.33709864398899"><ele>142.0</ele><time>2026-05-01T13:10:56Z</time></trkpt><trkpt lat="38.85906933616422" lon="-9.337170252717305"><ele>141.25</ele><time>2026-05-01T13:10:57Z</time></trkpt><trkpt lat="38.859011428661425" lon="-9.337279511515133"><ele>140.5</ele><time>2026-05-01T13:10:58Z</time></trkpt><trkpt lat="38.85893663831124" lon="-9.337387716057583"><ele>139.75</ele><time>2026-05-01T13:10:59Z</time></trkpt><trkpt lat="38.85886160391946" lon="-9.337510428288255"><ele>139.0</ele><time>2026-05-01T13:11:00Z</time></trkpt><trkpt lat="38.85877546427673" lon="-9.337630915592152"><ele>139.0</ele><time>2026-05-01T13:11:01Z</time></trkpt><trkpt lat="38.8586857452696" lon="-9.33776240773605"><ele>139.0</ele><time>2026-05-01T13:11:02Z</time></trkpt><trkpt lat="38.85859476401623" lon="-9.337894621300329"><ele>139.0</ele><time>2026-05-01T13:11:03Z</time></trkpt><trkpt lat="38.858498747243225" lon="-9.338019933279176"><ele>139.0</ele><time>2026-05-01T13:11:04Z</time></trkpt><trkpt lat="38.858397721802156" lon="-9.338141729036117"><ele>137.25</ele><time>2026-05-01T13:11:05Z</time></trkpt><trkpt lat="38.858292128703134" lon="-9.338259635309061"><ele>135.5</ele><time>2026-05-01T13:11:06Z</time></trkpt><trkpt lat="38.85818374623549" lon="-9.338382788846015"><ele>133.75</ele><time>2026-05-01T13:11:07Z</time></trkpt><trkpt lat="38.8580739585423" lon="-9.338509104961204"><ele>132.0</ele><time>2026-05-01T13:11:08Z</time></trkpt><trkpt lat="38.857967158359315" lon="-9.338630353221511"><ele>132.0</ele><time>2026-05-01T13:11:09Z</time></trkpt><trkpt lat="38.857861616263044" lon="-9.338746707788246"><ele>132.0</ele><time>2026-05-01T13:11:10Z</time></trkpt><trkpt lat="38.857765037156724" lon="-9.33885845192599"><ele>132.0</ele><time>2026-05-01T13:11:11Z</time></trkpt><trkpt lat="38.85767708627834" lon="-9.338981131447808"><ele>132.0</ele><time>2026-05-01T13:11:12Z</time></trkpt><trkpt lat="38.85758520024171" lon="-9.339102455352961"><ele>131.5</ele><time>2026-05-01T13:11:13Z</time></trkpt><trkpt lat="38.85749507924152" lon="-9.339215666827368"><ele>131.0</ele><time>2026-05-01T13:11:14Z</time></trkpt><trkpt lat="38.85740311246799" lon="-9.339312945698772"><ele>130.5</ele><time>2026-05-01T13:11:15Z</time></trkpt><trkpt lat="38.85730669203698" lon="-9.339389975400518"><ele>130.0</ele><time>2026-05-01T13:11:16Z</time></trkpt><trkpt lat="38.857196815420785" lon="-9.339442103686704"><ele>130.0</ele><time>2026-05-01T13:11:17Z</time></trkpt><trkpt lat="38.85707732121082" lon="-9.33947025552395"><ele>130.0</ele><time>2026-05-01T13:11:18Z</time></trkpt><trkpt lat="38.85695597459231" lon="-9.339472580517295"><ele>130.0</ele><time>2026-05-01T13:11:19Z</time></trkpt><trkpt lat="38.85684069620325" lon="-9.339441614298865"><ele>130.0</ele><time>2026-05-01T13:11:20Z</time></trkpt><trkpt lat="38.85673894135858" lon="-9.339381419379164"><ele>129.2</ele><time>2026-05-01T13:11:21Z</time></trkpt><trkpt lat="38.85664284464642" lon="-9.33930916591981"><ele>128.4</ele><time>2026-05-01T13:11:22Z</time></trkpt><trkpt lat="38.85653903164266" lon="-9.339278574469159"><ele>127.6</ele><time>2026-05-01T13:11:23Z</time></trkpt><trkpt lat="38.8564410760908" lon="-9.339275608181453"><ele>126.8</ele><time>2026-05-01T13:11:24Z</time></trkpt><trkpt lat="38.85633859793308" lon="-9.339288375377734"><ele>126.0</ele><time>2026-05-01T13:11:25Z</time></trkpt><trkpt lat="38.8562349512427" lon="-9.339290985765064"><ele>126.0</ele><time>2026-05-01T13:11:26Z</time></trkpt><trkpt lat="38.856120493639104" lon="-9.339338746235331"><ele>126.0</ele><time>2026-05-01T13:11:27Z</time></trkpt><trkpt lat="38.85601095736792" lon="-9.339401018482674"><ele>126.0</ele><time>2026-05-01T13:11:28Z</time></trkpt><trkpt lat="38.855896432702565" lon="-9.33945801255492"><ele>126.0</ele><time>2026-05-01T13:11:29Z</time></trkpt><trkpt lat="38.85578372569679" lon="-9.339494503853103"><ele>124.6</ele><time>2026-05-01T13:11:30Z</time></trkpt><trkpt lat="38.855671633504215" lon="-9.339511215491576"><ele>123.19999999999999</ele><time>2026-05-01T13:11:31Z</time></trkpt><trkpt lat="38.855574165272934" lon="-9.339551693396755"><ele>121.80000000000001</ele><time>2026-05-01T13:11:32Z</time></trkpt><trkpt lat="38.85548419345219" lon="-9.339585286647338"><ele>120.4</ele><time>2026-05-01T13:11:33Z</time></trkpt><trkpt lat="38.85540182452754" lon="-9.339654183800372"><ele>119.0</ele><time>2026-05-01T13:11:34Z</time></trkpt><trkpt lat="38.85531680811812" lon="-9.339754554628179"><ele>118.33333333333333</ele><time>2026-05-01T13:11:35Z</time></trkpt><trkpt lat="38.85521099110577" lon="-9.33986456323117"><ele>117.66666666666666</ele><time>2026-05-01T13:11:36Z</time></trkpt><trkpt lat="38.855110921275276" lon="-9.34000566511975"><ele>117.0</ele><time>2026-05-01T13:11:37Z</time></trkpt><trkpt lat="38.854995993135034" lon="-9.340164140877942"><ele>112.66666666666666</ele><time>2026-05-01T13:11:38Z</time></trkpt><trkpt lat="38.85488300657577" lon="-9.340323443250691"><ele>108.33333333333333</ele><time>2026-05-01T13:11:39Z</time></trkpt><trkpt lat="38.85476735523656" lon="-9.340490838789284"><ele>104.0</ele><time>2026-05-01T13:11:40Z</time></trkpt><trkpt lat="38.85465559568239" lon="-9.34065327301158"><ele>101.66666666666666</ele><time>2026-05-01T13:11:41Z</time></trkpt><trkpt lat="38.85454406692492" lon="-9.340802856293083"><ele>99.33333333333334</ele><time>2026-05-01T13:11:42Z</time></trkpt><trkpt lat="38.854445698532565" lon="-9.340942580645843"><ele>97.0</ele><time>2026-05-01T13:11:43Z</time></trkpt><trkpt lat="38.85434451086595" lon="-9.34109428167689"><ele>96.33333333333334</ele><time>2026-05-01T13:11:44Z</time></trkpt><trkpt lat="38.854241095722486" lon="-9.341251877914097"><ele>95.66666666666667</ele><time>2026-05-01T13:11:45Z</time></trkpt><trkpt lat="38.854135003053514" lon="-9.341413444627348"><ele>95.0</ele><time>2026-05-01T13:11:46Z</time></trkpt><trkpt lat="38.85402479055073" lon="-9.341572628523904"><ele>98.33333333333334</ele><time>2026-05-01T13:11:47Z</time></trkpt><trkpt lat="38.85391258856766" lon="-9.34172128704255"><ele>101.66666666666667</ele><time>2026-05-01T13:11:48Z</time></trkpt><trkpt lat="38.85380734649044" lon="-9.341867565685423"><ele>105.0</ele><time>2026-05-01T13:11:49Z</time></trkpt><trkpt lat="38.85370796187733" lon="-9.34201130708019"><ele>105.0</ele><time>2026-05-01T13:11:50Z</time></trkpt><trkpt lat="38.853605170411285" lon="-9.342147692142715"><ele>105.0</ele><time>2026-05-01T13:11:51Z</time></trkpt><trkpt lat="38.85349228861906" lon="-9.34227403949528"><ele>105.0</ele><time>2026-05-01T13:11:52Z</time></trkpt><trkpt lat="38.853367308724096" lon="-9.342376508014661"><ele>105.0</ele><time>2026-05-01T13:11:53Z</time></trkpt><trkpt lat="38.853232463836605" lon="-9.342457043230148"><ele>109.66666666666666</ele><time>2026-05-01T13:11:54Z</time></trkpt><trkpt lat="38.85309148387275" lon="-9.342515342510254"><ele>114.33333333333333</ele><time>2026-05-01T13:11:55Z</time></trkpt><trkpt lat="38.85294212847861" lon="-9.342566099920855"><ele>119.0</ele><time>2026-05-01T13:11:56Z</time></trkpt><trkpt lat="38.85279478593634" lon="-9.342616494016571"><ele>119.0</ele><time>2026-05-01T13:11:57Z</time></trkpt><trkpt lat="38.85266766744542" lon="-9.34266985410472"><ele>119.0</ele><time>2026-05-01T13:11:58Z</time></trkpt><trkpt lat="38.852567928543564" lon="-9.342725424091764"><ele>119.0</ele><time>2026-05-01T13:11:59Z</time></trkpt><trkpt lat="38.852483970572656" lon="-9.342790885547648"><ele>119.0</ele><time>2026-05-01T13:12:00Z</time></trkpt><trkpt lat="38.85240895313258" lon="-9.342884673018261"><ele>119.0</ele><time>2026-05-01T13:12:01Z</time></trkpt><trkpt lat="38.85233524218324" lon="-9.342994073868276"><ele>121.75</ele><time>2026-05-01T13:12:02Z</time></trkpt><trkpt lat="38.85226631942033" lon="-9.343122960780905"><ele>124.5</ele><time>2026-05-01T13:12:03Z</time></trkpt><trkpt lat="38.85221330711967" lon="-9.343257914828246"><ele>127.25</ele><time>2026-05-01T13:12:04Z</time></trkpt><trkpt lat="38.85217200689083" lon="-9.343400108457057"><ele>130.0</ele><time>2026-05-01T13:12:05Z</time></trkpt><trkpt lat="38.85215027509905" lon="-9.343532610554945"><ele>130.0</ele><time>2026-05-01T13:12:06Z</time></trkpt><trkpt lat="38.85213053731629" lon="-9.343654801376209"><ele>130.0</ele><time>2026-05-01T13:12:07Z</time></trkpt><trkpt lat="38.85209966958182" lon="-9.343774266581603"><ele>130.0</ele><time>2026-05-01T13:12:08Z</time></trkpt><trkpt lat="38.852027411921405" lon="-9.343873036603277"><ele>130.0</ele><time>2026-05-01T13:12:09Z</time></trkpt><trkpt lat="38.851934543343745" lon="-9.343945144950508"><ele>130.0</ele><time>2026-05-01T13:12:10Z</time></trkpt><trkpt lat="38.851835116560395" lon="-9.34399923926723"><ele>131.4</ele><time>2026-05-01T13:12:11Z</time></trkpt><trkpt lat="38.85174182271995" lon="-9.344054244894675"><ele>132.8</ele><time>2026-05-01T13:12:12Z</time></trkpt><trkpt lat="38.85166835677247" lon="-9.344113718220221"><ele>134.2</ele><time>2026-05-01T13:12:13Z</time></trkpt><trkpt lat="38.85162132620554" lon="-9.344192005201466"><ele>135.6</ele><time>2026-05-01T13:12:14Z</time></trkpt><trkpt lat="38.851580585670085" lon="-9.344294181130044"><ele>137.0</ele><time>2026-05-01T13:12:15Z</time></trkpt><trkpt lat="38.851544144247576" lon="-9.344410803553563"><ele>137.0</ele><time>2026-05-01T13:12:16Z</time></trkpt><trkpt lat="38.85151048641185" lon="-9.344511566115758"><ele>137.0</ele><time>2026-05-01T13:12:17Z</time></trkpt><trkpt lat="38.85147841463439" lon="-9.344591576022317"><ele>137.0</ele><time>2026-05-01T13:12:18Z</time></trkpt><trkpt lat="38.85143482683735" lon="-9.34467004365075"><ele>137.0</ele><time>2026-05-01T13:12:19Z</time></trkpt><trkpt lat="38.8513859398722" lon="-9.344743966849938"><ele>137.0</ele><time>2026-05-01T13:12:20Z</time></trkpt><trkpt lat="38.8513317867547" lon="-9.344830215746784"><ele>137.0</ele><time>2026-05-01T13:12:21Z</time></trkpt><trkpt lat="38.85127823768677" lon="-9.344925107242615"><ele>137.79999999999998</ele><time>2026-05-01T13:12:22Z</time></trkpt><trkpt lat="38.85122216890493" lon="-9.345025959212311"><ele>138.6</ele><time>2026-05-01T13:12:23Z</time></trkpt><trkpt lat="38.85116715136923" lon="-9.345137100622752"><ele>139.39999999999998</ele><time>2026-05-01T13:12:24Z</time></trkpt><trkpt lat="38.851112082230976" lon="-9.345243854655376"><ele>140.2</ele><time>2026-05-01T13:12:25Z</time></trkpt><trkpt lat="38.851048524670894" lon="-9.345357123665485"><ele>141.0</ele><time>2026-05-01T13:12:26Z</time></trkpt><trkpt lat="38.850982072252584" lon="-9.345472694108436"><ele>141.2</ele><time>2026-05-01T13:12:27Z</time></trkpt><trkpt lat="38.8509040100153" lon="-9.345577418075349"><ele>141.39999999999998</ele><time>2026-05-01T13:12:28Z</time></trkpt><trkpt lat="38.85081005340056" lon="-9.345646272513655"><ele>141.6</ele><time>2026-05-01T13:12:29Z</time></trkpt><trkpt lat="38.850704268965515" lon="-9.345686769796545"><ele>141.79999999999998</ele><time>2026-05-01T13:12:30Z</time></trkpt><trkpt lat="38.850591600849" lon="-9.34572815175375"><ele>142.0</ele><time>2026-05-01T13:12:31Z</time></trkpt><trkpt lat="38.850480973496474" lon="-9.345764910425189"><ele>142.0</ele><time>2026-05-01T13:12:32Z</time></trkpt><trkpt lat="38.85035884175609" lon="-9.345802159983082"><ele>142.0</ele><time>2026-05-01T13:12:33Z</time></trkpt><trkpt lat="38.850235877016885" lon="-9.345820055046728"><ele>142.0</ele><time>2026-05-01T13:12:34Z</time></trkpt><trkpt lat="38.850106428273044" lon="-9.345863615386179"><ele>142.0</ele><time>2026-05-01T13:12:35Z</time></trkpt><trkpt lat="38.849982557593464" lon="-9.345901905671834"><ele>141.75</ele><time>2026-05-01T13:12:36Z</time></trkpt><trkpt lat="38.84985924150042" lon="-9.345936945813895"><ele>141.5</ele><time>2026-05-01T13:12:37Z</time></trkpt><trkpt lat="38.84972820386765" lon="-9.345980278450405"><ele>141.25</ele><time>2026-05-01T13:12:38Z</time></trkpt><trkpt lat="38.84959090476283" lon="-9.346036323482673"><ele>141.0</ele><time>2026-05-01T13:12:39Z</time></trkpt><trkpt lat="38.84945634324632" lon="-9.346097222955079"><ele>141.0</ele><time>2026-05-01T13:12:40Z</time></trkpt><trkpt lat="38.84931973960512" lon="-9.346166546327584"><ele>141.0</ele><time>2026-05-01T13:12:41Z</time></trkpt><trkpt lat="38.849186582499975" lon="-9.34623524931022"><ele>141.0</ele><time>2026-05-01T13:12:42Z</time></trkpt><trkpt lat="38.84904947176301" lon="-9.346309958204058"><ele>141.0</ele><time>2026-05-01T13:12:43Z</time></trkpt><trkpt lat="38.8489118254964" lon="-9.346380206061074"><ele>141.0</ele><time>2026-05-01T13:12:44Z</time></trkpt><trkpt lat="38.8487751829301" lon="-9.346449041191219"><ele>141.0</ele><time>2026-05-01T13:12:45Z</time></trkpt><trkpt lat="38.848643899423614" lon="-9.346518939917805"><ele>141.0</ele><time>2026-05-01T13:12:46Z</time></trkpt><trkpt lat="38.84851199561876" lon="-9.346597505052367"><ele>141.0</ele><time>2026-05-01T13:12:47Z</time></trkpt><trkpt lat="38.84838335981181" lon="-9.346675115464999"><ele>141.0</ele><time>2026-05-01T13:12:48Z</time></trkpt><trkpt lat="38.848264104123544" lon="-9.34675677851129"><ele>141.0</ele><time>2026-05-01T13:12:49Z</time></trkpt><trkpt lat="38.848158321098786" lon="-9.346833588508972"><ele>141.0</ele><time>2026-05-01T13:12:50Z</time></trkpt><trkpt lat="38.848043893923005" lon="-9.346907734499162"><ele>141.0</ele><time>2026-05-01T13:12:51Z</time></trkpt><trkpt lat="38.84792324896784" lon="-9.34695933161155"><ele>141.0</ele><time>2026-05-01T13:12:52Z</time></trkpt><trkpt lat="38.84781266988803" lon="-9.347003419328862"><ele>141.0</ele><time>2026-05-01T13:12:53Z</time></trkpt><trkpt lat="38.84770475387408" lon="-9.347014437117624"><ele>141.0</ele><time>2026-05-01T13:12:54Z</time></trkpt><trkpt lat="38.84759737766855" lon="-9.3469988925414"><ele>141.0</ele><time>2026-05-01T13:12:55Z</time></trkpt><trkpt lat="38.84749069392662" lon="-9.346975816363004"><ele>141.0</ele><time>2026-05-01T13:12:56Z</time></trkpt><trkpt lat="38.84738044230502" lon="-9.346977498268274"><ele>141.8</ele><time>2026-05-01T13:12:57Z</time></trkpt><trkpt lat="38.847277489236696" lon="-9.346957184825731"><ele>142.6</ele><time>2026-05-01T13:12:58Z</time></trkpt><trkpt lat="38.84718503946347" lon="-9.346935042868918"><ele>143.4</ele><time>2026-05-01T13:12:59Z</time></trkpt><trkpt lat="38.847102541492" lon="-9.346999692392515"><ele>144.2</ele><time>2026-05-01T13:13:00Z</time></trkpt><trkpt lat="38.84702012746217" lon="-9.347060177496576"><ele>145.0</ele><time>2026-05-01T13:13:01Z</time></trkpt><trkpt lat="38.84694416213247" lon="-9.347136511675904"><ele>145.0</ele><time>2026-05-01T13:13:02Z</time></trkpt><trkpt lat="38.84684716918322" lon="-9.347206104728079"><ele>145.0</ele><time>2026-05-01T13:13:03Z</time></trkpt><trkpt lat="38.84677894549636" lon="-9.347333522243648"><ele>145.0</ele><time>2026-05-01T13:13:04Z</time></trkpt><trkpt lat="38.846702765605336" lon="-9.347447852757725"><ele>145.0</ele><time>2026-05-01T13:13:05Z</time></trkpt><trkpt lat="38.84663109871511" lon="-9.34756968058574"><ele>145.5</ele><time>2026-05-01T13:13:06Z</time></trkpt><trkpt lat="38.84655734753699" lon="-9.347699659619735"><ele>146.0</ele><time>2026-05-01T13:13:07Z</time></trkpt><trkpt lat="38.8464769937193" lon="-9.347833340324533"><ele>146.5</ele><time>2026-05-01T13:13:08Z</time></trkpt><trkpt lat="38.84638872689796" lon="-9.347973160967028"><ele>147.0</ele><time>2026-05-01T13:13:09Z</time></trkpt><trkpt lat="38.846302085227826" lon="-9.348116472890327"><ele>147.25</ele><time>2026-05-01T13:13:10Z</time></trkpt><trkpt lat="38.84621318892674" lon="-9.348260795871036"><ele>147.5</ele><time>2026-05-01T13:13:11Z</time></trkpt><trkpt lat="38.84612192180938" lon="-9.34840810794312"><ele>147.75</ele><time>2026-05-01T13:13:12Z</time></trkpt><trkpt lat="38.84603094294678" lon="-9.348553983264337"><ele>148.0</ele><time>2026-05-01T13:13:13Z</time></trkpt><trkpt lat="38.84593886518001" lon="-9.348700670992097"><ele>148.0</ele><time>2026-05-01T13:13:14Z</time></trkpt><trkpt lat="38.84584169458726" lon="-9.348851546635759"><ele>148.0</ele><time>2026-05-01T13:13:15Z</time></trkpt><trkpt lat="38.84574146226126" lon="-9.349004215973808"><ele>148.0</ele><time>2026-05-01T13:13:16Z</time></trkpt><trkpt lat="38.845642129881035" lon="-9.349160774199163"><ele>145.33333333333334</ele><time>2026-05-01T13:13:17Z</time></trkpt><trkpt lat="38.84554203960586" lon="-9.349314485893471"><ele>142.66666666666666</ele><time>2026-05-01T13:13:18Z</time></trkpt><trkpt lat="38.845439778272514" lon="-9.349462123142265"><ele>140.0</ele><time>2026-05-01T13:13:19Z</time></trkpt><trkpt lat="38.84533791151064" lon="-9.349602794298217"><ele>140.5</ele><time>2026-05-01T13:13:20Z</time></trkpt><trkpt lat="38.84523299338223" lon="-9.349732794497951"><ele>141.0</ele><time>2026-05-01T13:13:21Z</time></trkpt><trkpt lat="38.84512924799083" lon="-9.34986188531395"><ele>141.5</ele><time>2026-05-01T13:13:22Z</time></trkpt><trkpt lat="38.845011487745836" lon="-9.349953703134602"><ele>142.0</ele><time>2026-05-01T13:13:23Z</time></trkpt><trkpt lat="38.84487091298296" lon="-9.350005121074034"><ele>142.0</ele><time>2026-05-01T13:13:24Z</time></trkpt><trkpt lat="38.84472643970769" lon="-9.35005330808465"><ele>142.0</ele><time>2026-05-01T13:13:25Z</time></trkpt><trkpt lat="38.84458340265947" lon="-9.350109603238097"><ele>142.0</ele><time>2026-05-01T13:13:26Z</time></trkpt><trkpt lat="38.844443888769064" lon="-9.350166268891346"><ele>142.0</ele><time>2026-05-01T13:13:27Z</time></trkpt><trkpt lat="38.84431582766217" lon="-9.350218026431559"><ele>142.75</ele><time>2026-05-01T13:13:28Z</time></trkpt><trkpt lat="38.84419297351559" lon="-9.350262165812033"><ele>143.5</ele><time>2026-05-01T13:13:29Z</time></trkpt><trkpt lat="38.84408087553052" lon="-9.350304236236935"><ele>144.25</ele><time>2026-05-01T13:13:30Z</time></trkpt><trkpt lat="38.843971329053005" lon="-9.350341733438032"><ele>145.0</ele><time>2026-05-01T13:13:31Z</time></trkpt><trkpt lat="38.84387037506982" lon="-9.350377552779232"><ele>145.0</ele><time>2026-05-01T13:13:32Z</time></trkpt><trkpt lat="38.84378427589586" lon="-9.350416186560048"><ele>145.0</ele><time>2026-05-01T13:13:33Z</time></trkpt><trkpt lat="38.84370528899854" lon="-9.350449858346067"><ele>145.0</ele><time>2026-05-01T13:13:34Z</time></trkpt><trkpt lat="38.84363145663228" lon="-9.350484453657852"><ele>145.0</ele><time>2026-05-01T13:13:35Z</time></trkpt><trkpt lat="38.84355993307646" lon="-9.350518612531719"><ele>145.0</ele><time>2026-05-01T13:13:36Z</time></trkpt><trkpt lat="38.843498800859955" lon="-9.35056829944835"><ele>145.0</ele><time>2026-05-01T13:13:37Z</time></trkpt><trkpt lat="38.84336472602862" lon="-9.350410851127046"><ele>144.6</ele><time>2026-05-01T13:13:39Z</time></trkpt><trkpt lat="38.84332488922923" lon="-9.350271060375325"><ele>144.2</ele><time>2026-05-01T13:13:40Z</time></trkpt><trkpt lat="38.84328840732118" lon="-9.350134508533767"><ele>143.8</ele><time>2026-05-01T13:13:41Z</time></trkpt><trkpt lat="38.84324336605674" lon="-9.350013430041413"><ele>143.4</ele><time>2026-05-01T13:13:42Z</time></trkpt><trkpt lat="38.84317355187109" lon="-9.34993584341737"><ele>143.0</ele><time>2026-05-01T13:13:43Z</time></trkpt><trkpt lat="38.84307633960464" lon="-9.349900435874364"><ele>143.0</ele><time>2026-05-01T13:13:44Z</time></trkpt><trkpt lat="38.842949530078236" lon="-9.349934464520464"><ele>143.0</ele><time>2026-05-01T13:13:45Z</time></trkpt><trkpt lat="38.84282798066138" lon="-9.349991480890141"><ele>143.0</ele><time>2026-05-01T13:13:46Z</time></trkpt><trkpt lat="38.842695119215215" lon="-9.350094541361416"><ele>143.0</ele><time>2026-05-01T13:13:47Z</time></trkpt><trkpt lat="38.842555005274875" lon="-9.350236657111845"><ele>141.66666666666666</ele><time>2026-05-01T13:13:48Z</time></trkpt><trkpt lat="38.8424022822113" lon="-9.350389577344771"><ele>140.33333333333334</ele><time>2026-05-01T13:13:49Z</time></trkpt><trkpt lat="38.842263601030886" lon="-9.350576152605147"><ele>139.0</ele><time>2026-05-01T13:13:50Z</time></trkpt><trkpt lat="38.842161906371" lon="-9.350754768881554"><ele>139.0</ele><time>2026-05-01T13:13:51Z</time></trkpt><trkpt lat="38.8420542735545" lon="-9.350924120146205"><ele>139.0</ele><time>2026-05-01T13:13:52Z</time></trkpt><trkpt lat="38.84196044945688" lon="-9.351087380214922"><ele>139.0</ele><time>2026-05-01T13:13:53Z</time></trkpt><trkpt lat="38.841872682706516" lon="-9.35122382211741"><ele>136.33333333333334</ele><time>2026-05-01T13:13:54Z</time></trkpt><trkpt lat="38.84178349748877" lon="-9.351376669344543"><ele>133.66666666666666</ele><time>2026-05-01T13:13:55Z</time></trkpt><trkpt lat="38.84168468098906" lon="-9.351548088892692"><ele>131.0</ele><time>2026-05-01T13:13:56Z</time></trkpt><trkpt lat="38.84158518217901" lon="-9.351727840844516"><ele>131.0</ele><time>2026-05-01T13:13:57Z</time></trkpt><trkpt lat="38.84148598792627" lon="-9.351908234946967"><ele>131.0</ele><time>2026-05-01T13:13:58Z</time></trkpt><trkpt lat="38.84138305412506" lon="-9.352090363570836"><ele>131.0</ele><time>2026-05-01T13:13:59Z</time></trkpt><trkpt lat="38.84128121541991" lon="-9.352263601093322"><ele>130.33333333333331</ele><time>2026-05-01T13:14:00Z</time></trkpt><trkpt lat="38.841175079753235" lon="-9.352417800337278"><ele>129.66666666666666</ele><time>2026-05-01T13:14:01Z</time></trkpt><trkpt lat="38.84106066591566" lon="-9.352558302165283"><ele>129.0</ele><time>2026-05-01T13:14:02Z</time></trkpt><trkpt lat="38.840934315443526" lon="-9.352690785710463"><ele>129.0</ele><time>2026-05-01T13:14:03Z</time></trkpt><trkpt lat="38.84080353765704" lon="-9.35281901728842"><ele>129.0</ele><time>2026-05-01T13:14:04Z</time></trkpt><trkpt lat="38.8406690190696" lon="-9.352947985556415"><ele>129.0</ele><time>2026-05-01T13:14:05Z</time></trkpt><trkpt lat="38.84052495437808" lon="-9.353071532796498"><ele>126.33333333333334</ele><time>2026-05-01T13:14:06Z</time></trkpt><trkpt lat="38.840377952027524" lon="-9.35319008352274"><ele>123.66666666666667</ele><time>2026-05-01T13:14:07Z</time></trkpt><trkpt lat="38.840227039972305" lon="-9.353308832805826"><ele>121.0</ele><time>2026-05-01T13:14:08Z</time></trkpt><trkpt lat="38.84007369830672" lon="-9.353425685761042"><ele>121.0</ele><time>2026-05-01T13:14:09Z</time></trkpt><trkpt lat="38.83992319034535" lon="-9.353537259121612"><ele>121.0</ele><time>2026-05-01T13:14:10Z</time></trkpt><trkpt lat="38.83978043053513" lon="-9.353648161158299"><ele>121.0</ele><time>2026-05-01T13:14:11Z</time></trkpt><trkpt lat="38.83964491561769" lon="-9.353759734251344"><ele>121.0</ele><time>2026-05-01T13:14:12Z</time></trkpt><trkpt lat="38.83951161508434" lon="-9.353871268063525"><ele>121.0</ele><time>2026-05-01T13:14:13Z</time></trkpt><trkpt lat="38.8393814734523" lon="-9.353975821969001"><ele>121.0</ele><time>2026-05-01T13:14:14Z</time></trkpt><trkpt lat="38.83925388924268" lon="-9.354078333212286"><ele>123.0</ele><time>2026-05-01T13:14:15Z</time></trkpt><trkpt lat="38.83912798310683" lon="-9.35417709831059"><ele>125.0</ele><time>2026-05-01T13:14:16Z</time></trkpt><trkpt lat="38.838996070922875" lon="-9.354274358046007"><ele>127.0</ele><time>2026-05-01T13:14:17Z</time></trkpt><trkpt lat="38.83885362296144" lon="-9.35438912628174"><ele>127.0</ele><time>2026-05-01T13:14:18Z</time></trkpt><trkpt lat="38.838688826795796" lon="-9.354525164988996"><ele>127.0</ele><time>2026-05-01T13:14:19Z</time></trkpt><trkpt lat="38.8385052368135" lon="-9.354674689612978"><ele>127.0</ele><time>2026-05-01T13:14:20Z</time></trkpt><trkpt lat="38.83830807828538" lon="-9.354837418162315"><ele>127.33333333333334</ele><time>2026-05-01T13:14:21Z</time></trkpt><trkpt lat="38.83810954536954" lon="-9.35499787672789"><ele>127.66666666666666</ele><time>2026-05-01T13:14:22Z</time></trkpt><trkpt lat="38.83792636600814" lon="-9.355131884310968"><ele>128.0</ele><time>2026-05-01T13:14:23Z</time></trkpt><trkpt lat="38.83775653794469" lon="-9.355259362487187"><ele>128.66666666666666</ele><time>2026-05-01T13:14:24Z</time></trkpt><trkpt lat="38.83756406318039" lon="-9.355382657888628"><ele>129.33333333333334</ele><time>2026-05-01T13:14:25Z</time></trkpt><trkpt lat="38.837360973692846" lon="-9.35549406815487"><ele>130.0</ele><time>2026-05-01T13:14:26Z</time></trkpt><trkpt lat="38.83717868718073" lon="-9.355583975164807"><ele>131.0</ele><time>2026-05-01T13:14:27Z</time></trkpt><trkpt lat="38.8370197163162" lon="-9.355657416089112"><ele>132.0</ele><time>2026-05-01T13:14:28Z</time></trkpt><trkpt lat="38.836860020979636" lon="-9.355722583285822"><ele>133.0</ele><time>2026-05-01T13:14:29Z</time></trkpt><trkpt lat="38.836691562848216" lon="-9.35578163740996"><ele>133.0</ele><time>2026-05-01T13:14:30Z</time></trkpt><trkpt lat="38.836513761850604" lon="-9.355828698183556"><ele>133.0</ele><time>2026-05-01T13:14:31Z</time></trkpt><trkpt lat="38.836337671207374" lon="-9.355869982786546"><ele>133.0</ele><time>2026-05-01T13:14:32Z</time></trkpt><trkpt lat="38.83617485522568" lon="-9.355902121365988"><ele>133.0</ele><time>2026-05-01T13:14:33Z</time></trkpt><trkpt lat="38.83603053038418" lon="-9.35593263413677"><ele>133.0</ele><time>2026-05-01T13:14:34Z</time></trkpt><trkpt lat="38.83589437765589" lon="-9.35595626649744"><ele>133.0</ele><time>2026-05-01T13:14:35Z</time></trkpt><trkpt lat="38.835771027271015" lon="-9.355983583533325"><ele>133.0</ele><time>2026-05-01T13:14:36Z</time></trkpt><trkpt lat="38.835656024823514" lon="-9.35601082109103"><ele>132.8</ele><time>2026-05-01T13:14:37Z</time></trkpt><trkpt lat="38.835553111517996" lon="-9.3560377806367"><ele>132.60000000000002</ele><time>2026-05-01T13:14:38Z</time></trkpt><trkpt lat="38.83545907513508" lon="-9.356066313451153"><ele>132.39999999999998</ele><time>2026-05-01T13:14:39Z</time></trkpt><trkpt lat="38.83537328255755" lon="-9.356117445156082"><ele>132.2</ele><time>2026-05-01T13:14:40Z</time></trkpt><trkpt lat="38.83527504313896" lon="-9.356211183702007"><ele>132.0</ele><time>2026-05-01T13:14:41Z</time></trkpt><trkpt lat="38.83518425632492" lon="-9.356316265333342"><ele>133.25</ele><time>2026-05-01T13:14:42Z</time></trkpt><trkpt lat="38.83510995829407" lon="-9.356418902244956"><ele>134.5</ele><time>2026-05-01T13:14:43Z</time></trkpt><trkpt lat="38.83505032798939" lon="-9.356564622725672"><ele>135.75</ele><time>2026-05-01T13:14:44Z</time></trkpt><trkpt lat="38.83499455922494" lon="-9.35672254305034"><ele>137.0</ele><time>2026-05-01T13:14:45Z</time></trkpt><trkpt lat="38.8349542555517" lon="-9.356886518073985"><ele>137.0</ele><time>2026-05-01T13:14:46Z</time></trkpt><trkpt lat="38.83491469992574" lon="-9.357046384284741"><ele>137.0</ele><time>2026-05-01T13:14:47Z</time></trkpt><trkpt lat="38.834860850529886" lon="-9.357229876138861"><ele>137.0</ele><time>2026-05-01T13:14:48Z</time></trkpt><trkpt lat="38.83481074720531" lon="-9.357439805901"><ele>137.33333333333331</ele><time>2026-05-01T13:14:49Z</time></trkpt><trkpt lat="38.834763538260205" lon="-9.357652125918637"><ele>137.66666666666666</ele><time>2026-05-01T13:14:50Z</time></trkpt><trkpt lat="38.83472425176366" lon="-9.357845258899786"><ele>138.0</ele><time>2026-05-01T13:14:51Z</time></trkpt><trkpt lat="38.83468626251725" lon="-9.358004077582454"><ele>139.25</ele><time>2026-05-01T13:14:52Z</time></trkpt><trkpt lat="38.83465607608598" lon="-9.358167025388614"><ele>140.5</ele><time>2026-05-01T13:14:53Z</time></trkpt><trkpt lat="38.83462764410509" lon="-9.358333581340894"><ele>141.75</ele><time>2026-05-01T13:14:54Z</time></trkpt><trkpt lat="38.83460745357584" lon="-9.358497929429356"><ele>143.0</ele><time>2026-05-01T13:14:55Z</time></trkpt><trkpt lat="38.83458571445899" lon="-9.358663476616254"><ele>143.0</ele><time>2026-05-01T13:14:56Z</time></trkpt><trkpt lat="38.83455862889617" lon="-9.358833844879893"><ele>143.0</ele><time>2026-05-01T13:14:57Z</time></trkpt><trkpt lat="38.834529313027204" lon="-9.359012531257378"><ele>143.0</ele><time>2026-05-01T13:14:58Z</time></trkpt><trkpt lat="38.83450139056088" lon="-9.359173601234524"><ele>143.0</ele><time>2026-05-01T13:14:59Z</time></trkpt><trkpt lat="38.83447318246661" lon="-9.359337827429112"><ele>144.0</ele><time>2026-05-01T13:15:00Z</time></trkpt><trkpt lat="38.834438842973626" lon="-9.359493347623863"><ele>145.0</ele><time>2026-05-01T13:15:01Z</time></trkpt><trkpt lat="38.834413701088195" lon="-9.35963695688803"><ele>146.0</ele><time>2026-05-01T13:15:02Z</time></trkpt><trkpt lat="38.83438256686805" lon="-9.35977613596996"><ele>147.0</ele><time>2026-05-01T13:15:03Z</time></trkpt><trkpt lat="38.83435602059102" lon="-9.359920479924083"><ele>147.0</ele><time>2026-05-01T13:15:04Z</time></trkpt><trkpt lat="38.83432897796197" lon="-9.360067388797289"><ele>147.0</ele><time>2026-05-01T13:15:05Z</time></trkpt><trkpt lat="38.834300260131094" lon="-9.36020973535716"><ele>147.0</ele><time>2026-05-01T13:15:06Z</time></trkpt><trkpt lat="38.8342784087612" lon="-9.360354802323808"><ele>147.0</ele><time>2026-05-01T13:15:07Z</time></trkpt><trkpt lat="38.83425603185337" lon="-9.360498993486116"><ele>147.4</ele><time>2026-05-01T13:15:08Z</time></trkpt><trkpt lat="38.83423490186182" lon="-9.360639985636674"><ele>147.79999999999998</ele><time>2026-05-01T13:15:09Z</time></trkpt><trkpt lat="38.834213060549004" lon="-9.360768680207451"><ele>148.2</ele><time>2026-05-01T13:15:10Z</time></trkpt><trkpt lat="38.83419624542306" lon="-9.360868942784652"><ele>148.6</ele><time>2026-05-01T13:15:11Z</time></trkpt><trkpt lat="38.834176261382986" lon="-9.36095146304134"><ele>149.0</ele><time>2026-05-01T13:15:12Z</time></trkpt><trkpt lat="38.83415462589071" lon="-9.361087572077675"><ele>149.0</ele><time>2026-05-01T13:15:14Z</time></trkpt><trkpt lat="38.83428602392" lon="-9.361196908953456"><ele>149.0</ele><time>2026-05-01T13:15:17Z</time></trkpt><trkpt lat="38.834365243114775" lon="-9.361197222409851"><ele>149.0</ele><time>2026-05-01T13:15:18Z</time></trkpt><trkpt lat="38.834432324502785" lon="-9.361210067349726"><ele>149.0</ele><time>2026-05-01T13:15:19Z</time></trkpt><trkpt lat="38.834498527029105" lon="-9.361232936491678"><ele>149.0</ele><time>2026-05-01T13:15:20Z</time></trkpt><trkpt lat="38.834621778047335" lon="-9.361265438935396"><ele>148.8</ele><time>2026-05-01T13:15:22Z</time></trkpt><trkpt lat="38.834731488589085" lon="-9.361296969290786"><ele>148.60000000000002</ele><time>2026-05-01T13:15:24Z</time></trkpt><trkpt lat="38.834829919142976" lon="-9.36133122960132"><ele>148.4</ele><time>2026-05-01T13:15:26Z</time></trkpt><trkpt lat="38.83493513049341" lon="-9.361368138967658"><ele>148.20000000000002</ele><time>2026-05-01T13:15:28Z</time></trkpt><trkpt lat="38.83503818674393" lon="-9.3613903472722"><ele>148.0</ele><time>2026-05-01T13:15:30Z</time></trkpt><trkpt lat="38.835133698925226" lon="-9.361416138586222"><ele>148.33333333333334</ele><time>2026-05-01T13:15:32Z</time></trkpt><trkpt lat="38.83523195300609" lon="-9.361445735770598"><ele>148.66666666666669</ele><time>2026-05-01T13:15:34Z</time></trkpt><trkpt lat="38.835306641056846" lon="-9.361472508864157"><ele>149.0</ele><time>2026-05-01T13:15:36Z</time></trkpt><trkpt lat="38.83537108388757" lon="-9.361492690658874"><ele>149.33333333333334</ele><time>2026-05-01T13:15:38Z</time></trkpt><trkpt lat="38.83545389642275" lon="-9.361521856335786"><ele>149.66666666666666</ele><time>2026-05-01T13:15:41Z</time></trkpt><trkpt lat="38.83552862541114" lon="-9.361533478184723"><ele>150.0</ele><time>2026-05-01T13:15:45Z</time></trkpt><trkpt lat="38.83546540100942" lon="-9.361483549697871"><ele>150.0</ele><time>2026-05-01T13:16:51Z</time></trkpt><trkpt lat="38.835396991657746" lon="-9.361473745572656"><ele>150.0</ele><time>2026-05-01T13:16:57Z</time></trkpt><trkpt lat="38.83532439190795" lon="-9.361458430933856"><ele>150.0</ele><time>2026-05-01T13:17:03Z</time></trkpt><trkpt lat="38.835264294639344" lon="-9.361512799741892"><ele>150.0</ele><time>2026-05-01T13:17:51Z</time></trkpt><trkpt lat="38.83531422091635" lon="-9.361580749688788"><ele>150.0</ele><time>2026-05-01T13:17:55Z</time></trkpt><trkpt lat="38.835378420070484" lon="-9.361597416730783"><ele>150.0</ele><time>2026-05-01T13:17:57Z</time></trkpt><trkpt lat="38.83552742372482" lon="-9.361627947379098"><ele>150.0</ele><time>2026-05-01T13:21:06Z</time></trkpt><trkpt lat="38.83546381654543" lon="-9.36161513154807"><ele>150.0</ele><time>2026-05-01T13:22:08Z</time></trkpt><trkpt lat="38.83538000701167" lon="-9.361623086127938"><ele>150.0</ele><time>2026-05-01T13:24:58Z</time></trkpt><trkpt lat="38.83531553103843" lon="-9.3616306694057"><ele>150.0</ele><time>2026-05-01T13:25:06Z</time></trkpt><trkpt lat="38.835419777343496" lon="-9.361651701545844"><ele>150.0</ele><time>2026-05-01T13:25:29Z</time></trkpt><trkpt lat="38.83555467998295" lon="-9.36156935775942"><ele>150.0</ele><time>2026-05-01T13:30:27Z</time></trkpt><trkpt lat="38.83539184624395" lon="-9.361604188044613"><ele>150.0</ele><time>2026-05-01T13:32:20Z</time></trkpt></trkseg></trk></gpx>